<?xml version="1.0" encoding="UTF-8" standalone="no" ?>
<gpx xmlns="http://www.topografix.com/GPX/1/1" xmlns:xsi="http://www.w3.org/2001/XMLSchema-instance" xsi:schemaLocation="http://www.topografix.com/GPX/1/1 http://www.topografix.com/GPX/1/1/gpx.xsd" version="1.1" creator="VisuGPX - https://www.visugpx.com">
  <metadata>
    <name>Vers des cochons</name>
  </metadata>
  <trk>
    <name><![CDATA[2023 05 01 Visite cochons]]></name>
    <trkseg>
      <trkpt lat="45.83376" lon="4.70996">
        <ele>305.32564</ele>
        <time>2023-05-01T11:45:22.000Z</time>
      </trkpt>
      <trkpt lat="45.83378" lon="4.70995">
        <ele>305.3075</ele>
        <time>2023-05-01T11:45:58.000Z</time>
      </trkpt>
      <trkpt lat="45.8338" lon="4.70994">
        <ele>305.30574</ele>
        <time>2023-05-01T11:45:59.000Z</time>
      </trkpt>
      <trkpt lat="45.83384" lon="4.70993">
        <ele>305.26503</ele>
        <time>2023-05-01T11:46:01.000Z</time>
      </trkpt>
      <trkpt lat="45.83386" lon="4.70992">
        <ele>305.23015</ele>
        <time>2023-05-01T11:46:02.000Z</time>
      </trkpt>
      <trkpt lat="45.83389" lon="4.70991">
        <ele>305.18371</ele>
        <time>2023-05-01T11:46:03.000Z</time>
      </trkpt>
      <trkpt lat="45.83392" lon="4.7099">
        <ele>305.12237</ele>
        <time>2023-05-01T11:46:04.000Z</time>
      </trkpt>
      <trkpt lat="45.83395" lon="4.7099">
        <ele>305.03685</ele>
        <time>2023-05-01T11:46:05.000Z</time>
      </trkpt>
      <trkpt lat="45.83398" lon="4.70989">
        <ele>304.92577</ele>
        <time>2023-05-01T11:46:06.000Z</time>
      </trkpt>
      <trkpt lat="45.83402" lon="4.70988">
        <ele>304.80195</ele>
        <time>2023-05-01T11:46:07.000Z</time>
      </trkpt>
      <trkpt lat="45.83406" lon="4.70987">
        <ele>304.65231</ele>
        <time>2023-05-01T11:46:08.000Z</time>
      </trkpt>
      <trkpt lat="45.83409" lon="4.70987">
        <ele>304.46469</ele>
        <time>2023-05-01T11:46:09.000Z</time>
      </trkpt>
      <trkpt lat="45.83413" lon="4.70986">
        <ele>304.26169</ele>
        <time>2023-05-01T11:46:10.000Z</time>
      </trkpt>
      <trkpt lat="45.83418" lon="4.70986">
        <ele>304.05674</ele>
        <time>2023-05-01T11:46:11.000Z</time>
      </trkpt>
      <trkpt lat="45.83423" lon="4.70987">
        <ele>303.81564</ele>
        <time>2023-05-01T11:46:12.000Z</time>
      </trkpt>
      <trkpt lat="45.83428" lon="4.70987">
        <ele>303.61676</ele>
        <time>2023-05-01T11:46:13.000Z</time>
      </trkpt>
      <trkpt lat="45.83432" lon="4.70987">
        <ele>303.44652</ele>
        <time>2023-05-01T11:46:14.000Z</time>
      </trkpt>
      <trkpt lat="45.83436" lon="4.70987">
        <ele>303.3332</ele>
        <time>2023-05-01T11:46:15.000Z</time>
      </trkpt>
      <trkpt lat="45.83439" lon="4.70987">
        <ele>303.22943</ele>
        <time>2023-05-01T11:46:16.000Z</time>
      </trkpt>
      <trkpt lat="45.83442" lon="4.70987">
        <ele>303.12683</ele>
        <time>2023-05-01T11:46:17.000Z</time>
      </trkpt>
      <trkpt lat="45.83444" lon="4.70988">
        <ele>303.0444</ele>
        <time>2023-05-01T11:46:18.000Z</time>
      </trkpt>
      <trkpt lat="45.83446" lon="4.70987">
        <ele>302.97921</ele>
        <time>2023-05-01T11:46:19.000Z</time>
      </trkpt>
      <trkpt lat="45.83449" lon="4.70986">
        <ele>302.91646</ele>
        <time>2023-05-01T11:46:20.000Z</time>
      </trkpt>
      <trkpt lat="45.83452" lon="4.70987">
        <ele>302.84418</ele>
        <time>2023-05-01T11:46:21.000Z</time>
      </trkpt>
      <trkpt lat="45.83455" lon="4.70987">
        <ele>302.76725</ele>
        <time>2023-05-01T11:46:22.000Z</time>
      </trkpt>
      <trkpt lat="45.83458" lon="4.70987">
        <ele>302.68111</ele>
        <time>2023-05-01T11:46:23.000Z</time>
      </trkpt>
      <trkpt lat="45.83461" lon="4.70987">
        <ele>302.58322</ele>
        <time>2023-05-01T11:46:24.000Z</time>
      </trkpt>
      <trkpt lat="45.83465" lon="4.70987">
        <ele>302.46104</ele>
        <time>2023-05-01T11:46:25.000Z</time>
      </trkpt>
      <trkpt lat="45.83469" lon="4.70987">
        <ele>302.30153</ele>
        <time>2023-05-01T11:46:26.000Z</time>
      </trkpt>
      <trkpt lat="45.83473" lon="4.70987">
        <ele>302.10526</ele>
        <time>2023-05-01T11:46:27.000Z</time>
      </trkpt>
      <trkpt lat="45.83477" lon="4.70987">
        <ele>301.89251</ele>
        <time>2023-05-01T11:46:28.000Z</time>
      </trkpt>
      <trkpt lat="45.8348" lon="4.70987">
        <ele>301.69539</ele>
        <time>2023-05-01T11:46:29.000Z</time>
      </trkpt>
      <trkpt lat="45.83484" lon="4.70987">
        <ele>301.48309</ele>
        <time>2023-05-01T11:46:30.000Z</time>
      </trkpt>
      <trkpt lat="45.83488" lon="4.70988">
        <ele>301.23073</ele>
        <time>2023-05-01T11:46:31.000Z</time>
      </trkpt>
      <trkpt lat="45.83492" lon="4.70988">
        <ele>300.98405</ele>
        <time>2023-05-01T11:46:32.000Z</time>
      </trkpt>
      <trkpt lat="45.83495" lon="4.70989">
        <ele>300.72278</ele>
        <time>2023-05-01T11:46:33.000Z</time>
      </trkpt>
      <trkpt lat="45.83499" lon="4.7099">
        <ele>300.45124</ele>
        <time>2023-05-01T11:46:34.000Z</time>
      </trkpt>
      <trkpt lat="45.83502" lon="4.70991">
        <ele>300.16908</ele>
        <time>2023-05-01T11:46:35.000Z</time>
      </trkpt>
      <trkpt lat="45.83506" lon="4.70992">
        <ele>299.91737</ele>
        <time>2023-05-01T11:46:36.000Z</time>
      </trkpt>
      <trkpt lat="45.8351" lon="4.70993">
        <ele>299.68831</ele>
        <time>2023-05-01T11:46:37.000Z</time>
      </trkpt>
      <trkpt lat="45.83513" lon="4.70995">
        <ele>299.5107</ele>
        <time>2023-05-01T11:46:38.000Z</time>
      </trkpt>
      <trkpt lat="45.83517" lon="4.70997">
        <ele>299.34812</ele>
        <time>2023-05-01T11:46:39.000Z</time>
      </trkpt>
      <trkpt lat="45.8352" lon="4.71001">
        <ele>299.23641</ele>
        <time>2023-05-01T11:46:40.000Z</time>
      </trkpt>
      <trkpt lat="45.83524" lon="4.71004">
        <ele>299.1486</ele>
        <time>2023-05-01T11:46:41.000Z</time>
      </trkpt>
      <trkpt lat="45.83528" lon="4.71007">
        <ele>299.07122</ele>
        <time>2023-05-01T11:46:42.000Z</time>
      </trkpt>
      <trkpt lat="45.83531" lon="4.7101">
        <ele>298.98924</ele>
        <time>2023-05-01T11:46:43.000Z</time>
      </trkpt>
      <trkpt lat="45.83535" lon="4.71013">
        <ele>298.89221</ele>
        <time>2023-05-01T11:46:44.000Z</time>
      </trkpt>
      <trkpt lat="45.83539" lon="4.71016">
        <ele>298.77915</ele>
        <time>2023-05-01T11:46:45.000Z</time>
      </trkpt>
      <trkpt lat="45.83543" lon="4.71019">
        <ele>298.65052</ele>
        <time>2023-05-01T11:46:46.000Z</time>
      </trkpt>
      <trkpt lat="45.83547" lon="4.71023">
        <ele>298.50169</ele>
        <time>2023-05-01T11:46:47.000Z</time>
      </trkpt>
      <trkpt lat="45.83551" lon="4.71026">
        <ele>298.34617</ele>
        <time>2023-05-01T11:46:48.000Z</time>
      </trkpt>
      <trkpt lat="45.83555" lon="4.71029">
        <ele>298.19812</ele>
        <time>2023-05-01T11:46:49.000Z</time>
      </trkpt>
      <trkpt lat="45.8356" lon="4.71032">
        <ele>298.08381</ele>
        <time>2023-05-01T11:46:50.000Z</time>
      </trkpt>
      <trkpt lat="45.83564" lon="4.71036">
        <ele>298.00079</ele>
        <time>2023-05-01T11:46:51.000Z</time>
      </trkpt>
      <trkpt lat="45.83569" lon="4.71039">
        <ele>297.92684</ele>
        <time>2023-05-01T11:46:52.000Z</time>
      </trkpt>
      <trkpt lat="45.83573" lon="4.71042">
        <ele>297.81637</ele>
        <time>2023-05-01T11:46:53.000Z</time>
      </trkpt>
      <trkpt lat="45.83578" lon="4.71045">
        <ele>297.64743</ele>
        <time>2023-05-01T11:46:54.000Z</time>
      </trkpt>
      <trkpt lat="45.83583" lon="4.71048">
        <ele>297.43327</ele>
        <time>2023-05-01T11:46:55.000Z</time>
      </trkpt>
      <trkpt lat="45.83587" lon="4.71051">
        <ele>297.20818</ele>
        <time>2023-05-01T11:46:56.000Z</time>
      </trkpt>
      <trkpt lat="45.83588" lon="4.71057">
        <ele>297.01453</ele>
        <time>2023-05-01T11:46:57.000Z</time>
      </trkpt>
      <trkpt lat="45.83588" lon="4.71063">
        <ele>296.88573</ele>
        <time>2023-05-01T11:46:58.000Z</time>
      </trkpt>
      <trkpt lat="45.83587" lon="4.71069">
        <ele>296.80309</ele>
        <time>2023-05-01T11:46:59.000Z</time>
      </trkpt>
      <trkpt lat="45.83586" lon="4.71075">
        <ele>296.74139</ele>
        <time>2023-05-01T11:47:00.000Z</time>
      </trkpt>
      <trkpt lat="45.83584" lon="4.71081">
        <ele>296.66785</ele>
        <time>2023-05-01T11:47:01.000Z</time>
      </trkpt>
      <trkpt lat="45.83583" lon="4.71087">
        <ele>296.59205</ele>
        <time>2023-05-01T11:47:02.000Z</time>
      </trkpt>
      <trkpt lat="45.83581" lon="4.71094">
        <ele>296.51226</ele>
        <time>2023-05-01T11:47:03.000Z</time>
      </trkpt>
      <trkpt lat="45.83579" lon="4.71101">
        <ele>296.43032</ele>
        <time>2023-05-01T11:47:04.000Z</time>
      </trkpt>
      <trkpt lat="45.83577" lon="4.71108">
        <ele>296.34357</ele>
        <time>2023-05-01T11:47:05.000Z</time>
      </trkpt>
      <trkpt lat="45.83576" lon="4.71114">
        <ele>296.25799</ele>
        <time>2023-05-01T11:47:06.000Z</time>
      </trkpt>
      <trkpt lat="45.83574" lon="4.7112">
        <ele>296.17739</ele>
        <time>2023-05-01T11:47:07.000Z</time>
      </trkpt>
      <trkpt lat="45.83572" lon="4.71125">
        <ele>296.09913</ele>
        <time>2023-05-01T11:47:08.000Z</time>
      </trkpt>
      <trkpt lat="45.83571" lon="4.71131">
        <ele>295.98855</ele>
        <time>2023-05-01T11:47:09.000Z</time>
      </trkpt>
      <trkpt lat="45.83572" lon="4.71137">
        <ele>295.83866</ele>
        <time>2023-05-01T11:47:10.000Z</time>
      </trkpt>
      <trkpt lat="45.83574" lon="4.71142">
        <ele>295.65256</ele>
        <time>2023-05-01T11:47:11.000Z</time>
      </trkpt>
      <trkpt lat="45.83577" lon="4.71147">
        <ele>295.45679</ele>
        <time>2023-05-01T11:47:12.000Z</time>
      </trkpt>
      <trkpt lat="45.83581" lon="4.7115">
        <ele>295.29954</ele>
        <time>2023-05-01T11:47:13.000Z</time>
      </trkpt>
      <trkpt lat="45.83585" lon="4.71153">
        <ele>295.17648</ele>
        <time>2023-05-01T11:47:14.000Z</time>
      </trkpt>
      <trkpt lat="45.83589" lon="4.71155">
        <ele>295.05644</ele>
        <time>2023-05-01T11:47:15.000Z</time>
      </trkpt>
      <trkpt lat="45.83594" lon="4.71158">
        <ele>294.93216</ele>
        <time>2023-05-01T11:47:16.000Z</time>
      </trkpt>
      <trkpt lat="45.83598" lon="4.71161">
        <ele>294.7798</ele>
        <time>2023-05-01T11:47:17.000Z</time>
      </trkpt>
      <trkpt lat="45.83602" lon="4.71164">
        <ele>294.58582</ele>
        <time>2023-05-01T11:47:18.000Z</time>
      </trkpt>
      <trkpt lat="45.83607" lon="4.71167">
        <ele>294.35162</ele>
        <time>2023-05-01T11:47:19.000Z</time>
      </trkpt>
      <trkpt lat="45.83612" lon="4.7117">
        <ele>294.09737</ele>
        <time>2023-05-01T11:47:20.000Z</time>
      </trkpt>
      <trkpt lat="45.83617" lon="4.71174">
        <ele>293.83537</ele>
        <time>2023-05-01T11:47:21.000Z</time>
      </trkpt>
      <trkpt lat="45.83621" lon="4.71177">
        <ele>293.59573</ele>
        <time>2023-05-01T11:47:22.000Z</time>
      </trkpt>
      <trkpt lat="45.83626" lon="4.7118">
        <ele>293.37938</ele>
        <time>2023-05-01T11:47:23.000Z</time>
      </trkpt>
      <trkpt lat="45.8363" lon="4.71183">
        <ele>293.17291</ele>
        <time>2023-05-01T11:47:24.000Z</time>
      </trkpt>
      <trkpt lat="45.83634" lon="4.71185">
        <ele>292.96716</ele>
        <time>2023-05-01T11:47:25.000Z</time>
      </trkpt>
      <trkpt lat="45.83637" lon="4.71188">
        <ele>292.78902</ele>
        <time>2023-05-01T11:47:26.000Z</time>
      </trkpt>
      <trkpt lat="45.8364" lon="4.7119">
        <ele>292.62088</ele>
        <time>2023-05-01T11:47:27.000Z</time>
      </trkpt>
      <trkpt lat="45.83642" lon="4.71193">
        <ele>292.46335</ele>
        <time>2023-05-01T11:47:28.000Z</time>
      </trkpt>
      <trkpt lat="45.83645" lon="4.71194">
        <ele>292.29465</ele>
        <time>2023-05-01T11:47:29.000Z</time>
      </trkpt>
      <trkpt lat="45.83648" lon="4.71196">
        <ele>292.10139</ele>
        <time>2023-05-01T11:47:30.000Z</time>
      </trkpt>
      <trkpt lat="45.83651" lon="4.71198">
        <ele>291.86897</ele>
        <time>2023-05-01T11:47:31.000Z</time>
      </trkpt>
      <trkpt lat="45.83654" lon="4.71199">
        <ele>291.66931</ele>
        <time>2023-05-01T11:47:32.000Z</time>
      </trkpt>
      <trkpt lat="45.83656" lon="4.71201">
        <ele>291.51576</ele>
        <time>2023-05-01T11:47:33.000Z</time>
      </trkpt>
      <trkpt lat="45.83658" lon="4.71203">
        <ele>291.29408</ele>
        <time>2023-05-01T11:47:35.000Z</time>
      </trkpt>
      <trkpt lat="45.83661" lon="4.71205">
        <ele>291.11851</ele>
        <time>2023-05-01T11:47:37.000Z</time>
      </trkpt>
      <trkpt lat="45.83664" lon="4.71206">
        <ele>290.97234</ele>
        <time>2023-05-01T11:47:39.000Z</time>
      </trkpt>
      <trkpt lat="45.83666" lon="4.71206">
        <ele>290.86143</ele>
        <time>2023-05-01T11:47:41.000Z</time>
      </trkpt>
      <trkpt lat="45.83667" lon="4.7121">
        <ele>290.71743</ele>
        <time>2023-05-01T11:47:46.000Z</time>
      </trkpt>
      <trkpt lat="45.83669" lon="4.71211">
        <ele>290.61596</ele>
        <time>2023-05-01T11:47:47.000Z</time>
      </trkpt>
      <trkpt lat="45.83671" lon="4.71212">
        <ele>290.51428</ele>
        <time>2023-05-01T11:47:48.000Z</time>
      </trkpt>
      <trkpt lat="45.83673" lon="4.71213">
        <ele>290.41264</ele>
        <time>2023-05-01T11:47:49.000Z</time>
      </trkpt>
      <trkpt lat="45.83676" lon="4.71213">
        <ele>290.32317</ele>
        <time>2023-05-01T11:47:50.000Z</time>
      </trkpt>
      <trkpt lat="45.83677" lon="4.71215">
        <ele>290.23706</ele>
        <time>2023-05-01T11:47:51.000Z</time>
      </trkpt>
      <trkpt lat="45.83678" lon="4.71218">
        <ele>290.13345</ele>
        <time>2023-05-01T11:47:52.000Z</time>
      </trkpt>
      <trkpt lat="45.83679" lon="4.71221">
        <ele>290.04257</ele>
        <time>2023-05-01T11:47:53.000Z</time>
      </trkpt>
      <trkpt lat="45.83678" lon="4.71225">
        <ele>289.96825</ele>
        <time>2023-05-01T11:47:54.000Z</time>
      </trkpt>
      <trkpt lat="45.83677" lon="4.7123">
        <ele>289.87831</ele>
        <time>2023-05-01T11:47:55.000Z</time>
      </trkpt>
      <trkpt lat="45.83676" lon="4.71235">
        <ele>289.78107</ele>
        <time>2023-05-01T11:47:56.000Z</time>
      </trkpt>
      <trkpt lat="45.83675" lon="4.71241">
        <ele>289.71576</ele>
        <time>2023-05-01T11:47:57.000Z</time>
      </trkpt>
      <trkpt lat="45.83674" lon="4.71246">
        <ele>289.66292</ele>
        <time>2023-05-01T11:47:58.000Z</time>
      </trkpt>
      <trkpt lat="45.83674" lon="4.71251">
        <ele>289.5519</ele>
        <time>2023-05-01T11:47:59.000Z</time>
      </trkpt>
      <trkpt lat="45.83673" lon="4.71256">
        <ele>289.49441</ele>
        <time>2023-05-01T11:48:00.000Z</time>
      </trkpt>
      <trkpt lat="45.83672" lon="4.71261">
        <ele>289.49014</ele>
        <time>2023-05-01T11:48:01.000Z</time>
      </trkpt>
      <trkpt lat="45.83671" lon="4.71267">
        <ele>289.50364</ele>
        <time>2023-05-01T11:48:02.000Z</time>
      </trkpt>
      <trkpt lat="45.83669" lon="4.71272">
        <ele>289.52829</ele>
        <time>2023-05-01T11:48:03.000Z</time>
      </trkpt>
      <trkpt lat="45.83668" lon="4.71278">
        <ele>289.55952</ele>
        <time>2023-05-01T11:48:04.000Z</time>
      </trkpt>
      <trkpt lat="45.83667" lon="4.71283">
        <ele>289.58659</ele>
        <time>2023-05-01T11:48:05.000Z</time>
      </trkpt>
      <trkpt lat="45.83665" lon="4.71289">
        <ele>289.64276</ele>
        <time>2023-05-01T11:48:06.000Z</time>
      </trkpt>
      <trkpt lat="45.83664" lon="4.71295">
        <ele>289.64164</ele>
        <time>2023-05-01T11:48:07.000Z</time>
      </trkpt>
      <trkpt lat="45.83663" lon="4.71301">
        <ele>289.66357</ele>
        <time>2023-05-01T11:48:08.000Z</time>
      </trkpt>
      <trkpt lat="45.83662" lon="4.71307">
        <ele>289.69618</ele>
        <time>2023-05-01T11:48:09.000Z</time>
      </trkpt>
      <trkpt lat="45.8366" lon="4.71313">
        <ele>289.71317</ele>
        <time>2023-05-01T11:48:10.000Z</time>
      </trkpt>
      <trkpt lat="45.83659" lon="4.71319">
        <ele>289.70061</ele>
        <time>2023-05-01T11:48:11.000Z</time>
      </trkpt>
      <trkpt lat="45.83658" lon="4.71326">
        <ele>289.68381</ele>
        <time>2023-05-01T11:48:12.000Z</time>
      </trkpt>
      <trkpt lat="45.83656" lon="4.71331">
        <ele>289.67484</ele>
        <time>2023-05-01T11:48:13.000Z</time>
      </trkpt>
      <trkpt lat="45.83654" lon="4.71337">
        <ele>289.61879</ele>
        <time>2023-05-01T11:48:14.000Z</time>
      </trkpt>
      <trkpt lat="45.83653" lon="4.71343">
        <ele>289.5199</ele>
        <time>2023-05-01T11:48:15.000Z</time>
      </trkpt>
      <trkpt lat="45.83652" lon="4.71348">
        <ele>289.44204</ele>
        <time>2023-05-01T11:48:16.000Z</time>
      </trkpt>
      <trkpt lat="45.8365" lon="4.71353">
        <ele>289.3909</ele>
        <time>2023-05-01T11:48:17.000Z</time>
      </trkpt>
      <trkpt lat="45.83648" lon="4.71358">
        <ele>289.36871</ele>
        <time>2023-05-01T11:48:18.000Z</time>
      </trkpt>
      <trkpt lat="45.83648" lon="4.71362">
        <ele>289.34582</ele>
        <time>2023-05-01T11:48:19.000Z</time>
      </trkpt>
      <trkpt lat="45.83647" lon="4.71367">
        <ele>289.32182</ele>
        <time>2023-05-01T11:48:20.000Z</time>
      </trkpt>
      <trkpt lat="45.83646" lon="4.71371">
        <ele>289.33521</ele>
        <time>2023-05-01T11:48:21.000Z</time>
      </trkpt>
      <trkpt lat="45.83645" lon="4.71376">
        <ele>289.37908</ele>
        <time>2023-05-01T11:48:22.000Z</time>
      </trkpt>
      <trkpt lat="45.83644" lon="4.71381">
        <ele>289.42831</ele>
        <time>2023-05-01T11:48:23.000Z</time>
      </trkpt>
      <trkpt lat="45.83643" lon="4.71386">
        <ele>289.454</ele>
        <time>2023-05-01T11:48:24.000Z</time>
      </trkpt>
      <trkpt lat="45.83642" lon="4.71392">
        <ele>289.4667</ele>
        <time>2023-05-01T11:48:25.000Z</time>
      </trkpt>
      <trkpt lat="45.8364" lon="4.71397">
        <ele>289.49073</ele>
        <time>2023-05-01T11:48:26.000Z</time>
      </trkpt>
      <trkpt lat="45.83639" lon="4.71403">
        <ele>289.49583</ele>
        <time>2023-05-01T11:48:27.000Z</time>
      </trkpt>
      <trkpt lat="45.83637" lon="4.71408">
        <ele>289.49107</ele>
        <time>2023-05-01T11:48:28.000Z</time>
      </trkpt>
      <trkpt lat="45.83636" lon="4.71414">
        <ele>289.47179</ele>
        <time>2023-05-01T11:48:29.000Z</time>
      </trkpt>
      <trkpt lat="45.83634" lon="4.7142">
        <ele>289.45014</ele>
        <time>2023-05-01T11:48:30.000Z</time>
      </trkpt>
      <trkpt lat="45.83633" lon="4.71426">
        <ele>289.42898</ele>
        <time>2023-05-01T11:48:31.000Z</time>
      </trkpt>
      <trkpt lat="45.83631" lon="4.71431">
        <ele>289.43372</ele>
        <time>2023-05-01T11:48:32.000Z</time>
      </trkpt>
      <trkpt lat="45.8363" lon="4.71437">
        <ele>289.44805</ele>
        <time>2023-05-01T11:48:33.000Z</time>
      </trkpt>
      <trkpt lat="45.83628" lon="4.71443">
        <ele>289.47701</ele>
        <time>2023-05-01T11:48:34.000Z</time>
      </trkpt>
      <trkpt lat="45.83626" lon="4.71448">
        <ele>289.51124</ele>
        <time>2023-05-01T11:48:35.000Z</time>
      </trkpt>
      <trkpt lat="45.83625" lon="4.71455">
        <ele>289.53007</ele>
        <time>2023-05-01T11:48:36.000Z</time>
      </trkpt>
      <trkpt lat="45.83622" lon="4.7146">
        <ele>289.6058</ele>
        <time>2023-05-01T11:48:37.000Z</time>
      </trkpt>
      <trkpt lat="45.83619" lon="4.71465">
        <ele>289.70466</ele>
        <time>2023-05-01T11:48:38.000Z</time>
      </trkpt>
      <trkpt lat="45.83616" lon="4.7147">
        <ele>289.79992</ele>
        <time>2023-05-01T11:48:39.000Z</time>
      </trkpt>
      <trkpt lat="45.83613" lon="4.71474">
        <ele>289.86363</ele>
        <time>2023-05-01T11:48:40.000Z</time>
      </trkpt>
      <trkpt lat="45.83609" lon="4.71478">
        <ele>289.91297</ele>
        <time>2023-05-01T11:48:41.000Z</time>
      </trkpt>
      <trkpt lat="45.83606" lon="4.71481">
        <ele>289.92835</ele>
        <time>2023-05-01T11:48:42.000Z</time>
      </trkpt>
      <trkpt lat="45.83603" lon="4.71484">
        <ele>289.94688</ele>
        <time>2023-05-01T11:48:43.000Z</time>
      </trkpt>
      <trkpt lat="45.83599" lon="4.71486">
        <ele>289.97047</ele>
        <time>2023-05-01T11:48:44.000Z</time>
      </trkpt>
      <trkpt lat="45.83597" lon="4.71488">
        <ele>289.97425</ele>
        <time>2023-05-01T11:48:45.000Z</time>
      </trkpt>
      <trkpt lat="45.83595" lon="4.71491">
        <ele>289.84017</ele>
        <time>2023-05-01T11:48:46.000Z</time>
      </trkpt>
      <trkpt lat="45.83592" lon="4.71493">
        <ele>289.76565</ele>
        <time>2023-05-01T11:48:47.000Z</time>
      </trkpt>
      <trkpt lat="45.83589" lon="4.71494">
        <ele>289.76332</ele>
        <time>2023-05-01T11:48:48.000Z</time>
      </trkpt>
      <trkpt lat="45.83586" lon="4.71495">
        <ele>289.76548</ele>
        <time>2023-05-01T11:48:50.000Z</time>
      </trkpt>
      <trkpt lat="45.83584" lon="4.71496">
        <ele>289.74293</ele>
        <time>2023-05-01T11:48:51.000Z</time>
      </trkpt>
      <trkpt lat="45.83581" lon="4.71498">
        <ele>289.60696</ele>
        <time>2023-05-01T11:48:52.000Z</time>
      </trkpt>
      <trkpt lat="45.83579" lon="4.71501">
        <ele>289.4005</ele>
        <time>2023-05-01T11:48:53.000Z</time>
      </trkpt>
      <trkpt lat="45.83576" lon="4.71504">
        <ele>289.12327</ele>
        <time>2023-05-01T11:48:54.000Z</time>
      </trkpt>
      <trkpt lat="45.83574" lon="4.71509">
        <ele>288.69943</ele>
        <time>2023-05-01T11:48:55.000Z</time>
      </trkpt>
      <trkpt lat="45.83572" lon="4.71514">
        <ele>288.19091</ele>
        <time>2023-05-01T11:48:56.000Z</time>
      </trkpt>
      <trkpt lat="45.83569" lon="4.71518">
        <ele>287.77793</ele>
        <time>2023-05-01T11:48:57.000Z</time>
      </trkpt>
      <trkpt lat="45.83565" lon="4.71522">
        <ele>287.54809</ele>
        <time>2023-05-01T11:48:58.000Z</time>
      </trkpt>
      <trkpt lat="45.83561" lon="4.71525">
        <ele>287.47288</ele>
        <time>2023-05-01T11:48:59.000Z</time>
      </trkpt>
      <trkpt lat="45.83556" lon="4.71528">
        <ele>287.53746</ele>
        <time>2023-05-01T11:49:00.000Z</time>
      </trkpt>
      <trkpt lat="45.83551" lon="4.71532">
        <ele>287.51332</ele>
        <time>2023-05-01T11:49:01.000Z</time>
      </trkpt>
      <trkpt lat="45.83547" lon="4.71537">
        <ele>287.32999</ele>
        <time>2023-05-01T11:49:02.000Z</time>
      </trkpt>
      <trkpt lat="45.83542" lon="4.71541">
        <ele>287.21503</ele>
        <time>2023-05-01T11:49:03.000Z</time>
      </trkpt>
      <trkpt lat="45.83537" lon="4.71544">
        <ele>287.07604</ele>
        <time>2023-05-01T11:49:04.000Z</time>
      </trkpt>
      <trkpt lat="45.83533" lon="4.71548">
        <ele>286.79412</ele>
        <time>2023-05-01T11:49:05.000Z</time>
      </trkpt>
      <trkpt lat="45.83528" lon="4.71551">
        <ele>286.50193</ele>
        <time>2023-05-01T11:49:06.000Z</time>
      </trkpt>
      <trkpt lat="45.83523" lon="4.71555">
        <ele>286.1247</ele>
        <time>2023-05-01T11:49:07.000Z</time>
      </trkpt>
      <trkpt lat="45.83518" lon="4.71559">
        <ele>285.73304</ele>
        <time>2023-05-01T11:49:08.000Z</time>
      </trkpt>
      <trkpt lat="45.83513" lon="4.71563">
        <ele>285.47665</ele>
        <time>2023-05-01T11:49:09.000Z</time>
      </trkpt>
      <trkpt lat="45.83508" lon="4.71567">
        <ele>285.55002</ele>
        <time>2023-05-01T11:49:10.000Z</time>
      </trkpt>
      <trkpt lat="45.83503" lon="4.7157">
        <ele>285.61044</ele>
        <time>2023-05-01T11:49:11.000Z</time>
      </trkpt>
      <trkpt lat="45.83498" lon="4.71574">
        <ele>285.65398</ele>
        <time>2023-05-01T11:49:12.000Z</time>
      </trkpt>
      <trkpt lat="45.83494" lon="4.71579">
        <ele>285.67847</ele>
        <time>2023-05-01T11:49:13.000Z</time>
      </trkpt>
      <trkpt lat="45.83489" lon="4.71582">
        <ele>285.96652</ele>
        <time>2023-05-01T11:49:14.000Z</time>
      </trkpt>
      <trkpt lat="45.83485" lon="4.71585">
        <ele>286.11946</ele>
        <time>2023-05-01T11:49:15.000Z</time>
      </trkpt>
      <trkpt lat="45.83481" lon="4.71588">
        <ele>286.2553</ele>
        <time>2023-05-01T11:49:16.000Z</time>
      </trkpt>
      <trkpt lat="45.83476" lon="4.7159">
        <ele>286.31416</ele>
        <time>2023-05-01T11:49:17.000Z</time>
      </trkpt>
      <trkpt lat="45.83471" lon="4.71592">
        <ele>286.41131</ele>
        <time>2023-05-01T11:49:18.000Z</time>
      </trkpt>
      <trkpt lat="45.83466" lon="4.71593">
        <ele>286.36078</ele>
        <time>2023-05-01T11:49:19.000Z</time>
      </trkpt>
      <trkpt lat="45.83461" lon="4.71595">
        <ele>286.17992</ele>
        <time>2023-05-01T11:49:20.000Z</time>
      </trkpt>
      <trkpt lat="45.83456" lon="4.71595">
        <ele>286.00906</ele>
        <time>2023-05-01T11:49:21.000Z</time>
      </trkpt>
      <trkpt lat="45.83452" lon="4.71594">
        <ele>285.93563</ele>
        <time>2023-05-01T11:49:22.000Z</time>
      </trkpt>
      <trkpt lat="45.83447" lon="4.71591">
        <ele>285.92123</ele>
        <time>2023-05-01T11:49:23.000Z</time>
      </trkpt>
      <trkpt lat="45.83443" lon="4.71587">
        <ele>285.95384</ele>
        <time>2023-05-01T11:49:24.000Z</time>
      </trkpt>
      <trkpt lat="45.83438" lon="4.71583">
        <ele>285.83262</ele>
        <time>2023-05-01T11:49:25.000Z</time>
      </trkpt>
      <trkpt lat="45.83434" lon="4.7158">
        <ele>285.81061</ele>
        <time>2023-05-01T11:49:26.000Z</time>
      </trkpt>
      <trkpt lat="45.83431" lon="4.71576">
        <ele>285.74724</ele>
        <time>2023-05-01T11:49:27.000Z</time>
      </trkpt>
      <trkpt lat="45.83427" lon="4.71572">
        <ele>285.54726</ele>
        <time>2023-05-01T11:49:28.000Z</time>
      </trkpt>
      <trkpt lat="45.83424" lon="4.71568">
        <ele>285.26041</ele>
        <time>2023-05-01T11:49:29.000Z</time>
      </trkpt>
      <trkpt lat="45.8342" lon="4.71563">
        <ele>285.23299</ele>
        <time>2023-05-01T11:49:30.000Z</time>
      </trkpt>
      <trkpt lat="45.83417" lon="4.71558">
        <ele>285.21464</ele>
        <time>2023-05-01T11:49:31.000Z</time>
      </trkpt>
      <trkpt lat="45.83412" lon="4.71553">
        <ele>285.23149</ele>
        <time>2023-05-01T11:49:32.000Z</time>
      </trkpt>
      <trkpt lat="45.83408" lon="4.7155">
        <ele>285.12116</ele>
        <time>2023-05-01T11:49:33.000Z</time>
      </trkpt>
      <trkpt lat="45.83404" lon="4.71546">
        <ele>285.21663</ele>
        <time>2023-05-01T11:49:34.000Z</time>
      </trkpt>
      <trkpt lat="45.83399" lon="4.71544">
        <ele>285.07195</ele>
        <time>2023-05-01T11:49:35.000Z</time>
      </trkpt>
      <trkpt lat="45.83395" lon="4.71543">
        <ele>284.91735</ele>
        <time>2023-05-01T11:49:36.000Z</time>
      </trkpt>
      <trkpt lat="45.8339" lon="4.71545">
        <ele>284.18531</ele>
        <time>2023-05-01T11:49:37.000Z</time>
      </trkpt>
      <trkpt lat="45.83385" lon="4.71548">
        <ele>283.3772</ele>
        <time>2023-05-01T11:49:38.000Z</time>
      </trkpt>
      <trkpt lat="45.8338" lon="4.71552">
        <ele>282.8563</ele>
        <time>2023-05-01T11:49:39.000Z</time>
      </trkpt>
      <trkpt lat="45.83377" lon="4.71558">
        <ele>282.4534</ele>
        <time>2023-05-01T11:49:40.000Z</time>
      </trkpt>
      <trkpt lat="45.83373" lon="4.71563">
        <ele>282.42558</ele>
        <time>2023-05-01T11:49:41.000Z</time>
      </trkpt>
      <trkpt lat="45.8337" lon="4.7157">
        <ele>282.67529</ele>
        <time>2023-05-01T11:49:42.000Z</time>
      </trkpt>
      <trkpt lat="45.83367" lon="4.71577">
        <ele>282.83243</ele>
        <time>2023-05-01T11:49:43.000Z</time>
      </trkpt>
      <trkpt lat="45.83365" lon="4.71583">
        <ele>282.9372</ele>
        <time>2023-05-01T11:49:44.000Z</time>
      </trkpt>
      <trkpt lat="45.83362" lon="4.71589">
        <ele>282.93845</ele>
        <time>2023-05-01T11:49:45.000Z</time>
      </trkpt>
      <trkpt lat="45.8336" lon="4.71596">
        <ele>282.79207</ele>
        <time>2023-05-01T11:49:46.000Z</time>
      </trkpt>
      <trkpt lat="45.83358" lon="4.71602">
        <ele>282.5672</ele>
        <time>2023-05-01T11:49:47.000Z</time>
      </trkpt>
      <trkpt lat="45.83356" lon="4.71607">
        <ele>282.41761</ele>
        <time>2023-05-01T11:49:48.000Z</time>
      </trkpt>
      <trkpt lat="45.83354" lon="4.71612">
        <ele>282.2654</ele>
        <time>2023-05-01T11:49:49.000Z</time>
      </trkpt>
      <trkpt lat="45.83353" lon="4.71617">
        <ele>282.06215</ele>
        <time>2023-05-01T11:49:50.000Z</time>
      </trkpt>
      <trkpt lat="45.83354" lon="4.71622">
        <ele>281.80808</ele>
        <time>2023-05-01T11:49:51.000Z</time>
      </trkpt>
      <trkpt lat="45.83357" lon="4.71626">
        <ele>281.55798</ele>
        <time>2023-05-01T11:49:52.000Z</time>
      </trkpt>
      <trkpt lat="45.8336" lon="4.71628">
        <ele>281.2924</ele>
        <time>2023-05-01T11:49:53.000Z</time>
      </trkpt>
      <trkpt lat="45.83364" lon="4.71628">
        <ele>280.99872</ele>
        <time>2023-05-01T11:49:54.000Z</time>
      </trkpt>
      <trkpt lat="45.83367" lon="4.71626">
        <ele>280.75812</ele>
        <time>2023-05-01T11:49:55.000Z</time>
      </trkpt>
      <trkpt lat="45.8337" lon="4.71622">
        <ele>280.42993</ele>
        <time>2023-05-01T11:49:56.000Z</time>
      </trkpt>
      <trkpt lat="45.83373" lon="4.71619">
        <ele>280.00536</ele>
        <time>2023-05-01T11:49:57.000Z</time>
      </trkpt>
      <trkpt lat="45.83375" lon="4.71614">
        <ele>279.64159</ele>
        <time>2023-05-01T11:49:58.000Z</time>
      </trkpt>
      <trkpt lat="45.83376" lon="4.71609">
        <ele>279.43146</ele>
        <time>2023-05-01T11:49:59.000Z</time>
      </trkpt>
      <trkpt lat="45.83378" lon="4.71604">
        <ele>279.17235</ele>
        <time>2023-05-01T11:50:00.000Z</time>
      </trkpt>
      <trkpt lat="45.83379" lon="4.716">
        <ele>278.88113</ele>
        <time>2023-05-01T11:50:01.000Z</time>
      </trkpt>
      <trkpt lat="45.83381" lon="4.71595">
        <ele>278.51357</ele>
        <time>2023-05-01T11:50:02.000Z</time>
      </trkpt>
      <trkpt lat="45.83384" lon="4.71592">
        <ele>277.98393</ele>
        <time>2023-05-01T11:50:03.000Z</time>
      </trkpt>
      <trkpt lat="45.83387" lon="4.7159">
        <ele>277.40007</ele>
        <time>2023-05-01T11:50:04.000Z</time>
      </trkpt>
      <trkpt lat="45.8339" lon="4.71589">
        <ele>277.00252</ele>
        <time>2023-05-01T11:50:05.000Z</time>
      </trkpt>
      <trkpt lat="45.83395" lon="4.71592">
        <ele>276.67915</ele>
        <time>2023-05-01T11:50:06.000Z</time>
      </trkpt>
      <trkpt lat="45.83399" lon="4.71597">
        <ele>276.26541</ele>
        <time>2023-05-01T11:50:07.000Z</time>
      </trkpt>
      <trkpt lat="45.83401" lon="4.71603">
        <ele>275.64847</ele>
        <time>2023-05-01T11:50:08.000Z</time>
      </trkpt>
      <trkpt lat="45.83403" lon="4.7161">
        <ele>275.00601</ele>
        <time>2023-05-01T11:50:09.000Z</time>
      </trkpt>
      <trkpt lat="45.83404" lon="4.71616">
        <ele>274.4864</ele>
        <time>2023-05-01T11:50:10.000Z</time>
      </trkpt>
      <trkpt lat="45.83405" lon="4.71623">
        <ele>273.96549</ele>
        <time>2023-05-01T11:50:11.000Z</time>
      </trkpt>
      <trkpt lat="45.83407" lon="4.7163">
        <ele>273.36817</ele>
        <time>2023-05-01T11:50:12.000Z</time>
      </trkpt>
      <trkpt lat="45.83408" lon="4.71638">
        <ele>272.67325</ele>
        <time>2023-05-01T11:50:13.000Z</time>
      </trkpt>
      <trkpt lat="45.8341" lon="4.71646">
        <ele>271.90034</ele>
        <time>2023-05-01T11:50:14.000Z</time>
      </trkpt>
      <trkpt lat="45.83412" lon="4.71655">
        <ele>271.06836</ele>
        <time>2023-05-01T11:50:15.000Z</time>
      </trkpt>
      <trkpt lat="45.83414" lon="4.71663">
        <ele>270.51023</ele>
        <time>2023-05-01T11:50:16.000Z</time>
      </trkpt>
      <trkpt lat="45.83416" lon="4.71674">
        <ele>269.96705</ele>
        <time>2023-05-01T11:50:17.000Z</time>
      </trkpt>
      <trkpt lat="45.83418" lon="4.71685">
        <ele>268.74015</ele>
        <time>2023-05-01T11:50:18.000Z</time>
      </trkpt>
      <trkpt lat="45.8342" lon="4.71695">
        <ele>267.13657</ele>
        <time>2023-05-01T11:50:19.000Z</time>
      </trkpt>
      <trkpt lat="45.83422" lon="4.71706">
        <ele>265.69468</ele>
        <time>2023-05-01T11:50:20.000Z</time>
      </trkpt>
      <trkpt lat="45.83425" lon="4.71718">
        <ele>264.74154</ele>
        <time>2023-05-01T11:50:21.000Z</time>
      </trkpt>
      <trkpt lat="45.83428" lon="4.7173">
        <ele>264.48319</ele>
        <time>2023-05-01T11:50:22.000Z</time>
      </trkpt>
      <trkpt lat="45.83431" lon="4.71741">
        <ele>264.65118</ele>
        <time>2023-05-01T11:50:23.000Z</time>
      </trkpt>
      <trkpt lat="45.83434" lon="4.71752">
        <ele>265.59551</ele>
        <time>2023-05-01T11:50:24.000Z</time>
      </trkpt>
      <trkpt lat="45.83436" lon="4.71761">
        <ele>266.66342</ele>
        <time>2023-05-01T11:50:25.000Z</time>
      </trkpt>
      <trkpt lat="45.83439" lon="4.7177">
        <ele>267.59435</ele>
        <time>2023-05-01T11:50:26.000Z</time>
      </trkpt>
      <trkpt lat="45.83441" lon="4.71779">
        <ele>268.34946</ele>
        <time>2023-05-01T11:50:27.000Z</time>
      </trkpt>
      <trkpt lat="45.83444" lon="4.71786">
        <ele>268.95975</ele>
        <time>2023-05-01T11:50:28.000Z</time>
      </trkpt>
      <trkpt lat="45.83446" lon="4.71793">
        <ele>269.45051</ele>
        <time>2023-05-01T11:50:29.000Z</time>
      </trkpt>
      <trkpt lat="45.83448" lon="4.718">
        <ele>269.82068</ele>
        <time>2023-05-01T11:50:30.000Z</time>
      </trkpt>
      <trkpt lat="45.83449" lon="4.71806">
        <ele>269.95067</ele>
        <time>2023-05-01T11:50:31.000Z</time>
      </trkpt>
      <trkpt lat="45.83451" lon="4.71812">
        <ele>270.00858</ele>
        <time>2023-05-01T11:50:32.000Z</time>
      </trkpt>
      <trkpt lat="45.83453" lon="4.71818">
        <ele>270.06669</ele>
        <time>2023-05-01T11:50:33.000Z</time>
      </trkpt>
      <trkpt lat="45.83456" lon="4.71822">
        <ele>270.27873</ele>
        <time>2023-05-01T11:50:34.000Z</time>
      </trkpt>
      <trkpt lat="45.83458" lon="4.71827">
        <ele>270.5798</ele>
        <time>2023-05-01T11:50:35.000Z</time>
      </trkpt>
      <trkpt lat="45.83459" lon="4.71832">
        <ele>270.92348</ele>
        <time>2023-05-01T11:50:36.000Z</time>
      </trkpt>
      <trkpt lat="45.83461" lon="4.71836">
        <ele>271.40162</ele>
        <time>2023-05-01T11:50:37.000Z</time>
      </trkpt>
      <trkpt lat="45.83463" lon="4.71841">
        <ele>271.95066</ele>
        <time>2023-05-01T11:50:38.000Z</time>
      </trkpt>
      <trkpt lat="45.83465" lon="4.71845">
        <ele>272.52333</ele>
        <time>2023-05-01T11:50:39.000Z</time>
      </trkpt>
      <trkpt lat="45.83467" lon="4.71849">
        <ele>272.99443</ele>
        <time>2023-05-01T11:50:40.000Z</time>
      </trkpt>
      <trkpt lat="45.83469" lon="4.71853">
        <ele>273.40484</ele>
        <time>2023-05-01T11:50:41.000Z</time>
      </trkpt>
      <trkpt lat="45.83471" lon="4.71858">
        <ele>273.73521</ele>
        <time>2023-05-01T11:50:42.000Z</time>
      </trkpt>
      <trkpt lat="45.83473" lon="4.71862">
        <ele>273.94346</ele>
        <time>2023-05-01T11:50:43.000Z</time>
      </trkpt>
      <trkpt lat="45.83475" lon="4.71867">
        <ele>274.05313</ele>
        <time>2023-05-01T11:50:44.000Z</time>
      </trkpt>
      <trkpt lat="45.83476" lon="4.71872">
        <ele>274.06523</ele>
        <time>2023-05-01T11:50:45.000Z</time>
      </trkpt>
      <trkpt lat="45.83477" lon="4.71878">
        <ele>273.98547</ele>
        <time>2023-05-01T11:50:46.000Z</time>
      </trkpt>
      <trkpt lat="45.83476" lon="4.71883">
        <ele>273.89061</ele>
        <time>2023-05-01T11:50:47.000Z</time>
      </trkpt>
      <trkpt lat="45.83476" lon="4.71888">
        <ele>273.78942</ele>
        <time>2023-05-01T11:50:48.000Z</time>
      </trkpt>
      <trkpt lat="45.83474" lon="4.71893">
        <ele>273.75282</ele>
        <time>2023-05-01T11:50:49.000Z</time>
      </trkpt>
      <trkpt lat="45.83473" lon="4.71899">
        <ele>273.85818</ele>
        <time>2023-05-01T11:50:50.000Z</time>
      </trkpt>
      <trkpt lat="45.83472" lon="4.71904">
        <ele>274.10286</ele>
        <time>2023-05-01T11:50:51.000Z</time>
      </trkpt>
      <trkpt lat="45.83471" lon="4.71909">
        <ele>274.51138</ele>
        <time>2023-05-01T11:50:52.000Z</time>
      </trkpt>
      <trkpt lat="45.8347" lon="4.71915">
        <ele>274.99525</ele>
        <time>2023-05-01T11:50:53.000Z</time>
      </trkpt>
      <trkpt lat="45.83468" lon="4.71921">
        <ele>275.51212</ele>
        <time>2023-05-01T11:50:54.000Z</time>
      </trkpt>
      <trkpt lat="45.83467" lon="4.71927">
        <ele>275.999</ele>
        <time>2023-05-01T11:50:55.000Z</time>
      </trkpt>
      <trkpt lat="45.83465" lon="4.71933">
        <ele>276.36352</ele>
        <time>2023-05-01T11:50:56.000Z</time>
      </trkpt>
      <trkpt lat="45.83464" lon="4.71938">
        <ele>276.61934</ele>
        <time>2023-05-01T11:50:57.000Z</time>
      </trkpt>
      <trkpt lat="45.83462" lon="4.71944">
        <ele>276.77571</ele>
        <time>2023-05-01T11:50:58.000Z</time>
      </trkpt>
      <trkpt lat="45.83461" lon="4.71949">
        <ele>276.84639</ele>
        <time>2023-05-01T11:50:59.000Z</time>
      </trkpt>
      <trkpt lat="45.8346" lon="4.71955">
        <ele>276.8773</ele>
        <time>2023-05-01T11:51:00.000Z</time>
      </trkpt>
      <trkpt lat="45.83459" lon="4.71959">
        <ele>276.87527</ele>
        <time>2023-05-01T11:51:01.000Z</time>
      </trkpt>
      <trkpt lat="45.83458" lon="4.71964">
        <ele>276.88701</ele>
        <time>2023-05-01T11:51:02.000Z</time>
      </trkpt>
      <trkpt lat="45.83456" lon="4.71969">
        <ele>276.88601</ele>
        <time>2023-05-01T11:51:03.000Z</time>
      </trkpt>
      <trkpt lat="45.83455" lon="4.71974">
        <ele>276.89229</ele>
        <time>2023-05-01T11:51:04.000Z</time>
      </trkpt>
      <trkpt lat="45.83454" lon="4.71979">
        <ele>276.94882</ele>
        <time>2023-05-01T11:51:05.000Z</time>
      </trkpt>
      <trkpt lat="45.83453" lon="4.71984">
        <ele>277.0186</ele>
        <time>2023-05-01T11:51:06.000Z</time>
      </trkpt>
      <trkpt lat="45.83451" lon="4.71989">
        <ele>277.0844</ele>
        <time>2023-05-01T11:51:07.000Z</time>
      </trkpt>
      <trkpt lat="45.83449" lon="4.71993">
        <ele>277.15892</ele>
        <time>2023-05-01T11:51:08.000Z</time>
      </trkpt>
      <trkpt lat="45.83448" lon="4.71998">
        <ele>277.2778</ele>
        <time>2023-05-01T11:51:09.000Z</time>
      </trkpt>
      <trkpt lat="45.83446" lon="4.72003">
        <ele>277.42415</ele>
        <time>2023-05-01T11:51:10.000Z</time>
      </trkpt>
      <trkpt lat="45.83445" lon="4.72008">
        <ele>277.57254</ele>
        <time>2023-05-01T11:51:11.000Z</time>
      </trkpt>
      <trkpt lat="45.83444" lon="4.72014">
        <ele>277.70304</ele>
        <time>2023-05-01T11:51:12.000Z</time>
      </trkpt>
      <trkpt lat="45.83443" lon="4.72019">
        <ele>277.80607</ele>
        <time>2023-05-01T11:51:13.000Z</time>
      </trkpt>
      <trkpt lat="45.83442" lon="4.72024">
        <ele>277.90435</ele>
        <time>2023-05-01T11:51:14.000Z</time>
      </trkpt>
      <trkpt lat="45.83442" lon="4.7203">
        <ele>277.98797</ele>
        <time>2023-05-01T11:51:15.000Z</time>
      </trkpt>
      <trkpt lat="45.83442" lon="4.72035">
        <ele>278.05633</ele>
        <time>2023-05-01T11:51:16.000Z</time>
      </trkpt>
      <trkpt lat="45.83442" lon="4.72039">
        <ele>278.08182</ele>
        <time>2023-05-01T11:51:17.000Z</time>
      </trkpt>
      <trkpt lat="45.8344" lon="4.72043">
        <ele>278.10245</ele>
        <time>2023-05-01T11:51:18.000Z</time>
      </trkpt>
      <trkpt lat="45.83437" lon="4.72044">
        <ele>278.12585</ele>
        <time>2023-05-01T11:51:19.000Z</time>
      </trkpt>
      <trkpt lat="45.83435" lon="4.72043">
        <ele>278.1191</ele>
        <time>2023-05-01T11:51:20.000Z</time>
      </trkpt>
      <trkpt lat="45.83433" lon="4.72041">
        <ele>278.0634</ele>
        <time>2023-05-01T11:51:21.000Z</time>
      </trkpt>
      <trkpt lat="45.8343" lon="4.72039">
        <ele>277.95682</ele>
        <time>2023-05-01T11:51:22.000Z</time>
      </trkpt>
      <trkpt lat="45.83427" lon="4.72036">
        <ele>277.79617</ele>
        <time>2023-05-01T11:51:23.000Z</time>
      </trkpt>
      <trkpt lat="45.83424" lon="4.72034">
        <ele>277.62691</ele>
        <time>2023-05-01T11:51:24.000Z</time>
      </trkpt>
      <trkpt lat="45.83421" lon="4.72033">
        <ele>277.47566</ele>
        <time>2023-05-01T11:51:25.000Z</time>
      </trkpt>
      <trkpt lat="45.83418" lon="4.72031">
        <ele>277.30127</ele>
        <time>2023-05-01T11:51:26.000Z</time>
      </trkpt>
      <trkpt lat="45.83414" lon="4.72028">
        <ele>277.10664</ele>
        <time>2023-05-01T11:51:27.000Z</time>
      </trkpt>
      <trkpt lat="45.8341" lon="4.72026">
        <ele>276.91942</ele>
        <time>2023-05-01T11:51:28.000Z</time>
      </trkpt>
      <trkpt lat="45.83407" lon="4.72024">
        <ele>276.74943</ele>
        <time>2023-05-01T11:51:29.000Z</time>
      </trkpt>
      <trkpt lat="45.83403" lon="4.72022">
        <ele>276.57893</ele>
        <time>2023-05-01T11:51:30.000Z</time>
      </trkpt>
      <trkpt lat="45.834" lon="4.7202">
        <ele>276.36937</ele>
        <time>2023-05-01T11:51:31.000Z</time>
      </trkpt>
      <trkpt lat="45.83396" lon="4.72017">
        <ele>276.15209</ele>
        <time>2023-05-01T11:51:32.000Z</time>
      </trkpt>
      <trkpt lat="45.83393" lon="4.72014">
        <ele>275.94123</ele>
        <time>2023-05-01T11:51:33.000Z</time>
      </trkpt>
      <trkpt lat="45.83389" lon="4.72012">
        <ele>275.7159</ele>
        <time>2023-05-01T11:51:34.000Z</time>
      </trkpt>
      <trkpt lat="45.83385" lon="4.72009">
        <ele>275.4937</ele>
        <time>2023-05-01T11:51:35.000Z</time>
      </trkpt>
      <trkpt lat="45.83381" lon="4.72006">
        <ele>275.22488</ele>
        <time>2023-05-01T11:51:36.000Z</time>
      </trkpt>
      <trkpt lat="45.83377" lon="4.72003">
        <ele>274.95132</ele>
        <time>2023-05-01T11:51:37.000Z</time>
      </trkpt>
      <trkpt lat="45.83373" lon="4.72">
        <ele>274.71492</ele>
        <time>2023-05-01T11:51:38.000Z</time>
      </trkpt>
      <trkpt lat="45.83369" lon="4.71997">
        <ele>274.44426</ele>
        <time>2023-05-01T11:51:39.000Z</time>
      </trkpt>
      <trkpt lat="45.83365" lon="4.71995">
        <ele>274.2081</ele>
        <time>2023-05-01T11:51:40.000Z</time>
      </trkpt>
      <trkpt lat="45.83362" lon="4.71992">
        <ele>273.92833</ele>
        <time>2023-05-01T11:51:41.000Z</time>
      </trkpt>
      <trkpt lat="45.83358" lon="4.71988">
        <ele>273.59513</ele>
        <time>2023-05-01T11:51:42.000Z</time>
      </trkpt>
      <trkpt lat="45.83354" lon="4.71986">
        <ele>273.41935</ele>
        <time>2023-05-01T11:51:43.000Z</time>
      </trkpt>
      <trkpt lat="45.8335" lon="4.71983">
        <ele>273.19688</ele>
        <time>2023-05-01T11:51:44.000Z</time>
      </trkpt>
      <trkpt lat="45.83346" lon="4.7198">
        <ele>272.9248</ele>
        <time>2023-05-01T11:51:45.000Z</time>
      </trkpt>
      <trkpt lat="45.83342" lon="4.71977">
        <ele>272.70175</ele>
        <time>2023-05-01T11:51:46.000Z</time>
      </trkpt>
      <trkpt lat="45.83338" lon="4.71973">
        <ele>272.42232</ele>
        <time>2023-05-01T11:51:47.000Z</time>
      </trkpt>
      <trkpt lat="45.83334" lon="4.71969">
        <ele>272.14234</ele>
        <time>2023-05-01T11:51:48.000Z</time>
      </trkpt>
      <trkpt lat="45.83331" lon="4.71965">
        <ele>271.87793</ele>
        <time>2023-05-01T11:51:49.000Z</time>
      </trkpt>
      <trkpt lat="45.83328" lon="4.7196">
        <ele>271.58872</ele>
        <time>2023-05-01T11:51:50.000Z</time>
      </trkpt>
      <trkpt lat="45.83326" lon="4.71956">
        <ele>271.34733</ele>
        <time>2023-05-01T11:51:51.000Z</time>
      </trkpt>
      <trkpt lat="45.83323" lon="4.71951">
        <ele>271.07196</ele>
        <time>2023-05-01T11:51:52.000Z</time>
      </trkpt>
      <trkpt lat="45.83321" lon="4.71947">
        <ele>270.77927</ele>
        <time>2023-05-01T11:51:53.000Z</time>
      </trkpt>
      <trkpt lat="45.83319" lon="4.71942">
        <ele>270.496</ele>
        <time>2023-05-01T11:51:54.000Z</time>
      </trkpt>
      <trkpt lat="45.83315" lon="4.71937">
        <ele>270.22966</ele>
        <time>2023-05-01T11:51:55.000Z</time>
      </trkpt>
      <trkpt lat="45.83313" lon="4.71931">
        <ele>269.93772</ele>
        <time>2023-05-01T11:51:56.000Z</time>
      </trkpt>
      <trkpt lat="45.83309" lon="4.71927">
        <ele>269.77446</ele>
        <time>2023-05-01T11:51:57.000Z</time>
      </trkpt>
      <trkpt lat="45.83306" lon="4.71921">
        <ele>269.65465</ele>
        <time>2023-05-01T11:51:58.000Z</time>
      </trkpt>
      <trkpt lat="45.83301" lon="4.71917">
        <ele>269.671</ele>
        <time>2023-05-01T11:51:59.000Z</time>
      </trkpt>
      <trkpt lat="45.83297" lon="4.71914">
        <ele>269.76786</ele>
        <time>2023-05-01T11:52:00.000Z</time>
      </trkpt>
      <trkpt lat="45.83293" lon="4.71911">
        <ele>269.91545</ele>
        <time>2023-05-01T11:52:01.000Z</time>
      </trkpt>
      <trkpt lat="45.83288" lon="4.71908">
        <ele>270.08514</ele>
        <time>2023-05-01T11:52:02.000Z</time>
      </trkpt>
      <trkpt lat="45.83284" lon="4.71905">
        <ele>270.32079</ele>
        <time>2023-05-01T11:52:03.000Z</time>
      </trkpt>
      <trkpt lat="45.8328" lon="4.71902">
        <ele>270.58019</ele>
        <time>2023-05-01T11:52:04.000Z</time>
      </trkpt>
      <trkpt lat="45.83276" lon="4.71899">
        <ele>270.867</ele>
        <time>2023-05-01T11:52:05.000Z</time>
      </trkpt>
      <trkpt lat="45.83272" lon="4.71896">
        <ele>271.16384</ele>
        <time>2023-05-01T11:52:06.000Z</time>
      </trkpt>
      <trkpt lat="45.83268" lon="4.71893">
        <ele>271.54537</ele>
        <time>2023-05-01T11:52:07.000Z</time>
      </trkpt>
      <trkpt lat="45.83263" lon="4.7189">
        <ele>272.02416</ele>
        <time>2023-05-01T11:52:08.000Z</time>
      </trkpt>
      <trkpt lat="45.83259" lon="4.71887">
        <ele>272.53234</ele>
        <time>2023-05-01T11:52:09.000Z</time>
      </trkpt>
      <trkpt lat="45.83255" lon="4.71884">
        <ele>272.98486</ele>
        <time>2023-05-01T11:52:10.000Z</time>
      </trkpt>
      <trkpt lat="45.83251" lon="4.71882">
        <ele>273.43148</ele>
        <time>2023-05-01T11:52:11.000Z</time>
      </trkpt>
      <trkpt lat="45.83248" lon="4.71879">
        <ele>273.73858</ele>
        <time>2023-05-01T11:52:12.000Z</time>
      </trkpt>
      <trkpt lat="45.83245" lon="4.71877">
        <ele>274.04317</ele>
        <time>2023-05-01T11:52:13.000Z</time>
      </trkpt>
      <trkpt lat="45.83241" lon="4.71875">
        <ele>274.35937</ele>
        <time>2023-05-01T11:52:14.000Z</time>
      </trkpt>
      <trkpt lat="45.83238" lon="4.71872">
        <ele>274.63588</ele>
        <time>2023-05-01T11:52:15.000Z</time>
      </trkpt>
      <trkpt lat="45.83235" lon="4.7187">
        <ele>274.93535</ele>
        <time>2023-05-01T11:52:16.000Z</time>
      </trkpt>
      <trkpt lat="45.83231" lon="4.71867">
        <ele>275.18922</ele>
        <time>2023-05-01T11:52:17.000Z</time>
      </trkpt>
      <trkpt lat="45.83228" lon="4.71865">
        <ele>275.44604</ele>
        <time>2023-05-01T11:52:18.000Z</time>
      </trkpt>
      <trkpt lat="45.83224" lon="4.71862">
        <ele>275.64565</ele>
        <time>2023-05-01T11:52:19.000Z</time>
      </trkpt>
      <trkpt lat="45.83221" lon="4.71861">
        <ele>275.7327</ele>
        <time>2023-05-01T11:52:20.000Z</time>
      </trkpt>
      <trkpt lat="45.83218" lon="4.71859">
        <ele>275.76157</ele>
        <time>2023-05-01T11:52:21.000Z</time>
      </trkpt>
      <trkpt lat="45.83216" lon="4.71859">
        <ele>275.72166</ele>
        <time>2023-05-01T11:52:22.000Z</time>
      </trkpt>
      <trkpt lat="45.83212" lon="4.71858">
        <ele>275.73243</ele>
        <time>2023-05-01T11:52:23.000Z</time>
      </trkpt>
      <trkpt lat="45.83209" lon="4.71857">
        <ele>275.76793</ele>
        <time>2023-05-01T11:52:24.000Z</time>
      </trkpt>
      <trkpt lat="45.83206" lon="4.71856">
        <ele>275.89138</ele>
        <time>2023-05-01T11:52:25.000Z</time>
      </trkpt>
      <trkpt lat="45.83203" lon="4.71855">
        <ele>276.08351</ele>
        <time>2023-05-01T11:52:26.000Z</time>
      </trkpt>
      <trkpt lat="45.83201" lon="4.71854">
        <ele>276.31021</ele>
        <time>2023-05-01T11:52:27.000Z</time>
      </trkpt>
      <trkpt lat="45.83198" lon="4.71853">
        <ele>276.57938</ele>
        <time>2023-05-01T11:52:28.000Z</time>
      </trkpt>
      <trkpt lat="45.83195" lon="4.71851">
        <ele>276.92288</ele>
        <time>2023-05-01T11:52:29.000Z</time>
      </trkpt>
      <trkpt lat="45.83193" lon="4.71849">
        <ele>277.25373</ele>
        <time>2023-05-01T11:52:30.000Z</time>
      </trkpt>
      <trkpt lat="45.83191" lon="4.71848">
        <ele>277.5411</ele>
        <time>2023-05-01T11:52:31.000Z</time>
      </trkpt>
      <trkpt lat="45.83188" lon="4.71847">
        <ele>277.76092</ele>
        <time>2023-05-01T11:52:32.000Z</time>
      </trkpt>
      <trkpt lat="45.83186" lon="4.71847">
        <ele>277.94761</ele>
        <time>2023-05-01T11:52:33.000Z</time>
      </trkpt>
      <trkpt lat="45.83183" lon="4.71847">
        <ele>278.08692</ele>
        <time>2023-05-01T11:52:34.000Z</time>
      </trkpt>
      <trkpt lat="45.8318" lon="4.71847">
        <ele>278.25652</ele>
        <time>2023-05-01T11:52:35.000Z</time>
      </trkpt>
      <trkpt lat="45.83177" lon="4.71846">
        <ele>278.43223</ele>
        <time>2023-05-01T11:52:36.000Z</time>
      </trkpt>
      <trkpt lat="45.83174" lon="4.71847">
        <ele>278.57891</ele>
        <time>2023-05-01T11:52:37.000Z</time>
      </trkpt>
      <trkpt lat="45.83171" lon="4.71847">
        <ele>278.71842</ele>
        <time>2023-05-01T11:52:38.000Z</time>
      </trkpt>
      <trkpt lat="45.83168" lon="4.71847">
        <ele>278.86382</ele>
        <time>2023-05-01T11:52:39.000Z</time>
      </trkpt>
      <trkpt lat="45.83165" lon="4.71848">
        <ele>278.9622</ele>
        <time>2023-05-01T11:52:40.000Z</time>
      </trkpt>
      <trkpt lat="45.83162" lon="4.71848">
        <ele>279.0939</ele>
        <time>2023-05-01T11:52:41.000Z</time>
      </trkpt>
      <trkpt lat="45.8316" lon="4.71848">
        <ele>279.24792</ele>
        <time>2023-05-01T11:52:42.000Z</time>
      </trkpt>
      <trkpt lat="45.83157" lon="4.71848">
        <ele>279.38884</ele>
        <time>2023-05-01T11:52:43.000Z</time>
      </trkpt>
      <trkpt lat="45.83155" lon="4.71849">
        <ele>279.49655</ele>
        <time>2023-05-01T11:52:44.000Z</time>
      </trkpt>
      <trkpt lat="45.83153" lon="4.7185">
        <ele>279.55051</ele>
        <time>2023-05-01T11:52:45.000Z</time>
      </trkpt>
      <trkpt lat="45.8315" lon="4.7185">
        <ele>279.65211</ele>
        <time>2023-05-01T11:52:46.000Z</time>
      </trkpt>
      <trkpt lat="45.83147" lon="4.71851">
        <ele>279.7905</ele>
        <time>2023-05-01T11:52:47.000Z</time>
      </trkpt>
      <trkpt lat="45.83145" lon="4.71851">
        <ele>279.98905</ele>
        <time>2023-05-01T11:52:48.000Z</time>
      </trkpt>
      <trkpt lat="45.83142" lon="4.7185">
        <ele>280.24184</ele>
        <time>2023-05-01T11:52:49.000Z</time>
      </trkpt>
      <trkpt lat="45.83139" lon="4.71849">
        <ele>280.44651</ele>
        <time>2023-05-01T11:52:50.000Z</time>
      </trkpt>
      <trkpt lat="45.83135" lon="4.71849">
        <ele>280.5935</ele>
        <time>2023-05-01T11:52:51.000Z</time>
      </trkpt>
      <trkpt lat="45.83132" lon="4.71848">
        <ele>280.77155</ele>
        <time>2023-05-01T11:52:52.000Z</time>
      </trkpt>
      <trkpt lat="45.83128" lon="4.71848">
        <ele>280.91564</ele>
        <time>2023-05-01T11:52:53.000Z</time>
      </trkpt>
      <trkpt lat="45.83125" lon="4.71847">
        <ele>281.05616</ele>
        <time>2023-05-01T11:52:54.000Z</time>
      </trkpt>
      <trkpt lat="45.83122" lon="4.71846">
        <ele>281.1475</ele>
        <time>2023-05-01T11:52:55.000Z</time>
      </trkpt>
      <trkpt lat="45.83119" lon="4.71845">
        <ele>281.32104</ele>
        <time>2023-05-01T11:52:56.000Z</time>
      </trkpt>
      <trkpt lat="45.83115" lon="4.71843">
        <ele>281.5431</ele>
        <time>2023-05-01T11:52:57.000Z</time>
      </trkpt>
      <trkpt lat="45.83112" lon="4.71842">
        <ele>281.72373</ele>
        <time>2023-05-01T11:52:58.000Z</time>
      </trkpt>
      <trkpt lat="45.83109" lon="4.7184">
        <ele>281.96132</ele>
        <time>2023-05-01T11:52:59.000Z</time>
      </trkpt>
      <trkpt lat="45.83106" lon="4.71838">
        <ele>282.26575</ele>
        <time>2023-05-01T11:53:00.000Z</time>
      </trkpt>
      <trkpt lat="45.83103" lon="4.71836">
        <ele>282.55035</ele>
        <time>2023-05-01T11:53:01.000Z</time>
      </trkpt>
      <trkpt lat="45.831" lon="4.71835">
        <ele>282.80732</ele>
        <time>2023-05-01T11:53:02.000Z</time>
      </trkpt>
      <trkpt lat="45.83097" lon="4.71833">
        <ele>283.1014</ele>
        <time>2023-05-01T11:53:03.000Z</time>
      </trkpt>
      <trkpt lat="45.83095" lon="4.7183">
        <ele>283.45521</ele>
        <time>2023-05-01T11:53:04.000Z</time>
      </trkpt>
      <trkpt lat="45.83092" lon="4.71828">
        <ele>283.76047</ele>
        <time>2023-05-01T11:53:05.000Z</time>
      </trkpt>
      <trkpt lat="45.83089" lon="4.71826">
        <ele>284.00444</ele>
        <time>2023-05-01T11:53:06.000Z</time>
      </trkpt>
      <trkpt lat="45.83086" lon="4.71825">
        <ele>284.22231</ele>
        <time>2023-05-01T11:53:07.000Z</time>
      </trkpt>
      <trkpt lat="45.83083" lon="4.71823">
        <ele>284.47758</ele>
        <time>2023-05-01T11:53:08.000Z</time>
      </trkpt>
      <trkpt lat="45.8308" lon="4.71821">
        <ele>284.7236</ele>
        <time>2023-05-01T11:53:09.000Z</time>
      </trkpt>
      <trkpt lat="45.83077" lon="4.7182">
        <ele>284.91174</ele>
        <time>2023-05-01T11:53:10.000Z</time>
      </trkpt>
      <trkpt lat="45.83074" lon="4.71818">
        <ele>285.14735</ele>
        <time>2023-05-01T11:53:11.000Z</time>
      </trkpt>
      <trkpt lat="45.83072" lon="4.71816">
        <ele>285.36031</ele>
        <time>2023-05-01T11:53:12.000Z</time>
      </trkpt>
      <trkpt lat="45.8307" lon="4.71814">
        <ele>285.61808</ele>
        <time>2023-05-01T11:53:13.000Z</time>
      </trkpt>
      <trkpt lat="45.83067" lon="4.71812">
        <ele>285.87726</ele>
        <time>2023-05-01T11:53:14.000Z</time>
      </trkpt>
      <trkpt lat="45.83065" lon="4.7181">
        <ele>286.07066</ele>
        <time>2023-05-01T11:53:15.000Z</time>
      </trkpt>
      <trkpt lat="45.83063" lon="4.71808">
        <ele>286.27295</ele>
        <time>2023-05-01T11:53:16.000Z</time>
      </trkpt>
      <trkpt lat="45.83061" lon="4.71807">
        <ele>286.503</ele>
        <time>2023-05-01T11:53:17.000Z</time>
      </trkpt>
      <trkpt lat="45.83058" lon="4.71804">
        <ele>286.75707</ele>
        <time>2023-05-01T11:53:18.000Z</time>
      </trkpt>
      <trkpt lat="45.83055" lon="4.71802">
        <ele>286.97905</ele>
        <time>2023-05-01T11:53:19.000Z</time>
      </trkpt>
      <trkpt lat="45.83053" lon="4.71799">
        <ele>287.20085</ele>
        <time>2023-05-01T11:53:20.000Z</time>
      </trkpt>
      <trkpt lat="45.83051" lon="4.71797">
        <ele>287.3846</ele>
        <time>2023-05-01T11:53:21.000Z</time>
      </trkpt>
      <trkpt lat="45.83049" lon="4.71796">
        <ele>287.48256</ele>
        <time>2023-05-01T11:53:22.000Z</time>
      </trkpt>
      <trkpt lat="45.83047" lon="4.71797">
        <ele>287.52725</ele>
        <time>2023-05-01T11:53:25.000Z</time>
      </trkpt>
      <trkpt lat="45.83045" lon="4.71796">
        <ele>287.62445</ele>
        <time>2023-05-01T11:53:37.000Z</time>
      </trkpt>
      <trkpt lat="45.83043" lon="4.71794">
        <ele>287.75955</ele>
        <time>2023-05-01T11:53:44.000Z</time>
      </trkpt>
      <trkpt lat="45.8304" lon="4.71791">
        <ele>287.93406</ele>
        <time>2023-05-01T11:53:46.000Z</time>
      </trkpt>
      <trkpt lat="45.83038" lon="4.7179">
        <ele>288.03711</ele>
        <time>2023-05-01T11:53:47.000Z</time>
      </trkpt>
      <trkpt lat="45.83035" lon="4.71788">
        <ele>288.12762</ele>
        <time>2023-05-01T11:53:48.000Z</time>
      </trkpt>
      <trkpt lat="45.83033" lon="4.71787">
        <ele>288.23018</ele>
        <time>2023-05-01T11:53:49.000Z</time>
      </trkpt>
      <trkpt lat="45.8303" lon="4.71785">
        <ele>288.34061</ele>
        <time>2023-05-01T11:53:50.000Z</time>
      </trkpt>
      <trkpt lat="45.83028" lon="4.71784">
        <ele>288.42484</ele>
        <time>2023-05-01T11:53:51.000Z</time>
      </trkpt>
      <trkpt lat="45.83026" lon="4.71782">
        <ele>288.49582</ele>
        <time>2023-05-01T11:53:52.000Z</time>
      </trkpt>
      <trkpt lat="45.83024" lon="4.71781">
        <ele>288.58029</ele>
        <time>2023-05-01T11:53:53.000Z</time>
      </trkpt>
      <trkpt lat="45.83022" lon="4.7178">
        <ele>288.65399</ele>
        <time>2023-05-01T11:53:54.000Z</time>
      </trkpt>
      <trkpt lat="45.8302" lon="4.71779">
        <ele>288.72805</ele>
        <time>2023-05-01T11:53:55.000Z</time>
      </trkpt>
      <trkpt lat="45.83017" lon="4.71778">
        <ele>288.79773</ele>
        <time>2023-05-01T11:53:56.000Z</time>
      </trkpt>
      <trkpt lat="45.83015" lon="4.71778">
        <ele>288.86499</ele>
        <time>2023-05-01T11:53:57.000Z</time>
      </trkpt>
      <trkpt lat="45.83012" lon="4.71777">
        <ele>288.9419</ele>
        <time>2023-05-01T11:53:58.000Z</time>
      </trkpt>
      <trkpt lat="45.8301" lon="4.71776">
        <ele>289.01621</ele>
        <time>2023-05-01T11:53:59.000Z</time>
      </trkpt>
      <trkpt lat="45.83007" lon="4.71775">
        <ele>289.09334</ele>
        <time>2023-05-01T11:54:00.000Z</time>
      </trkpt>
      <trkpt lat="45.83005" lon="4.71773">
        <ele>289.17194</ele>
        <time>2023-05-01T11:54:01.000Z</time>
      </trkpt>
      <trkpt lat="45.83002" lon="4.71772">
        <ele>289.24261</ele>
        <time>2023-05-01T11:54:02.000Z</time>
      </trkpt>
      <trkpt lat="45.83" lon="4.71772">
        <ele>289.30317</ele>
        <time>2023-05-01T11:54:03.000Z</time>
      </trkpt>
      <trkpt lat="45.82997" lon="4.71771">
        <ele>289.36811</ele>
        <time>2023-05-01T11:54:04.000Z</time>
      </trkpt>
      <trkpt lat="45.82994" lon="4.7177">
        <ele>289.44019</ele>
        <time>2023-05-01T11:54:05.000Z</time>
      </trkpt>
      <trkpt lat="45.82992" lon="4.7177">
        <ele>289.50266</ele>
        <time>2023-05-01T11:54:06.000Z</time>
      </trkpt>
      <trkpt lat="45.82989" lon="4.71769">
        <ele>289.56001</ele>
        <time>2023-05-01T11:54:07.000Z</time>
      </trkpt>
      <trkpt lat="45.82987" lon="4.71769">
        <ele>289.62318</ele>
        <time>2023-05-01T11:54:08.000Z</time>
      </trkpt>
      <trkpt lat="45.82985" lon="4.71768">
        <ele>289.67273</ele>
        <time>2023-05-01T11:54:09.000Z</time>
      </trkpt>
      <trkpt lat="45.82983" lon="4.71768">
        <ele>289.71303</ele>
        <time>2023-05-01T11:54:10.000Z</time>
      </trkpt>
      <trkpt lat="45.8298" lon="4.71768">
        <ele>289.74903</ele>
        <time>2023-05-01T11:54:11.000Z</time>
      </trkpt>
      <trkpt lat="45.82978" lon="4.71767">
        <ele>289.78712</ele>
        <time>2023-05-01T11:54:12.000Z</time>
      </trkpt>
      <trkpt lat="45.82976" lon="4.71766">
        <ele>289.82794</ele>
        <time>2023-05-01T11:54:13.000Z</time>
      </trkpt>
      <trkpt lat="45.82973" lon="4.71767">
        <ele>289.84923</ele>
        <time>2023-05-01T11:54:15.000Z</time>
      </trkpt>
      <trkpt lat="45.82971" lon="4.71768">
        <ele>289.82713</ele>
        <time>2023-05-01T11:54:20.000Z</time>
      </trkpt>
      <trkpt lat="45.82969" lon="4.71769">
        <ele>289.81347</ele>
        <time>2023-05-01T11:54:23.000Z</time>
      </trkpt>
      <trkpt lat="45.82967" lon="4.71767">
        <ele>289.87047</ele>
        <time>2023-05-01T11:55:15.000Z</time>
      </trkpt>
      <trkpt lat="45.82965" lon="4.71767">
        <ele>289.88523</ele>
        <time>2023-05-01T11:56:44.000Z</time>
      </trkpt>
      <trkpt lat="45.82963" lon="4.71768">
        <ele>289.8813</ele>
        <time>2023-05-01T11:56:45.000Z</time>
      </trkpt>
      <trkpt lat="45.82961" lon="4.71769">
        <ele>289.87327</ele>
        <time>2023-05-01T11:56:46.000Z</time>
      </trkpt>
      <trkpt lat="45.82959" lon="4.7177">
        <ele>289.84809</ele>
        <time>2023-05-01T11:56:48.000Z</time>
      </trkpt>
      <trkpt lat="45.82957" lon="4.71769">
        <ele>289.88085</ele>
        <time>2023-05-01T11:56:50.000Z</time>
      </trkpt>
      <trkpt lat="45.82956" lon="4.71773">
        <ele>289.78352</ele>
        <time>2023-05-01T11:58:20.000Z</time>
      </trkpt>
      <trkpt lat="45.82953" lon="4.71777">
        <ele>289.69464</ele>
        <time>2023-05-01T11:58:22.000Z</time>
      </trkpt>
      <trkpt lat="45.8295" lon="4.71779">
        <ele>289.69305</ele>
        <time>2023-05-01T11:58:23.000Z</time>
      </trkpt>
      <trkpt lat="45.82948" lon="4.71779">
        <ele>289.72707</ele>
        <time>2023-05-01T11:58:24.000Z</time>
      </trkpt>
      <trkpt lat="45.82945" lon="4.7178">
        <ele>289.76</ele>
        <time>2023-05-01T11:58:25.000Z</time>
      </trkpt>
      <trkpt lat="45.82942" lon="4.71781">
        <ele>289.78771</ele>
        <time>2023-05-01T11:58:26.000Z</time>
      </trkpt>
      <trkpt lat="45.82939" lon="4.71781">
        <ele>289.82635</ele>
        <time>2023-05-01T11:58:27.000Z</time>
      </trkpt>
      <trkpt lat="45.82937" lon="4.71781">
        <ele>289.85408</ele>
        <time>2023-05-01T11:58:28.000Z</time>
      </trkpt>
      <trkpt lat="45.82934" lon="4.71782">
        <ele>289.86744</ele>
        <time>2023-05-01T11:58:29.000Z</time>
      </trkpt>
      <trkpt lat="45.82931" lon="4.71782">
        <ele>289.88546</ele>
        <time>2023-05-01T11:58:30.000Z</time>
      </trkpt>
      <trkpt lat="45.82928" lon="4.71782">
        <ele>289.90794</ele>
        <time>2023-05-01T11:58:31.000Z</time>
      </trkpt>
      <trkpt lat="45.82925" lon="4.71782">
        <ele>289.91627</ele>
        <time>2023-05-01T11:58:32.000Z</time>
      </trkpt>
      <trkpt lat="45.82923" lon="4.71782">
        <ele>289.90945</ele>
        <time>2023-05-01T11:58:33.000Z</time>
      </trkpt>
      <trkpt lat="45.82921" lon="4.71782">
        <ele>289.91604</ele>
        <time>2023-05-01T11:58:34.000Z</time>
      </trkpt>
      <trkpt lat="45.82918" lon="4.71782">
        <ele>289.93025</ele>
        <time>2023-05-01T11:58:35.000Z</time>
      </trkpt>
      <trkpt lat="45.82916" lon="4.71782">
        <ele>289.92282</ele>
        <time>2023-05-01T11:58:36.000Z</time>
      </trkpt>
      <trkpt lat="45.82913" lon="4.71782">
        <ele>289.92704</ele>
        <time>2023-05-01T11:58:37.000Z</time>
      </trkpt>
      <trkpt lat="45.82911" lon="4.71782">
        <ele>289.94273</ele>
        <time>2023-05-01T11:58:38.000Z</time>
      </trkpt>
      <trkpt lat="45.82908" lon="4.71781">
        <ele>289.97388</ele>
        <time>2023-05-01T11:58:39.000Z</time>
      </trkpt>
      <trkpt lat="45.82905" lon="4.71781">
        <ele>289.99191</ele>
        <time>2023-05-01T11:58:40.000Z</time>
      </trkpt>
      <trkpt lat="45.82902" lon="4.71782">
        <ele>289.9708</ele>
        <time>2023-05-01T11:58:41.000Z</time>
      </trkpt>
      <trkpt lat="45.82898" lon="4.71783">
        <ele>289.95741</ele>
        <time>2023-05-01T11:58:42.000Z</time>
      </trkpt>
      <trkpt lat="45.82894" lon="4.71783">
        <ele>289.96941</ele>
        <time>2023-05-01T11:58:43.000Z</time>
      </trkpt>
      <trkpt lat="45.8289" lon="4.71783">
        <ele>289.97818</ele>
        <time>2023-05-01T11:58:44.000Z</time>
      </trkpt>
      <trkpt lat="45.82887" lon="4.71782">
        <ele>290.01786</ele>
        <time>2023-05-01T11:58:45.000Z</time>
      </trkpt>
      <trkpt lat="45.82883" lon="4.71782">
        <ele>290.073</ele>
        <time>2023-05-01T11:58:46.000Z</time>
      </trkpt>
      <trkpt lat="45.82879" lon="4.71782">
        <ele>290.10397</ele>
        <time>2023-05-01T11:58:47.000Z</time>
      </trkpt>
      <trkpt lat="45.82875" lon="4.71782">
        <ele>290.12747</ele>
        <time>2023-05-01T11:58:48.000Z</time>
      </trkpt>
      <trkpt lat="45.82871" lon="4.71781">
        <ele>290.14183</ele>
        <time>2023-05-01T11:58:49.000Z</time>
      </trkpt>
      <trkpt lat="45.82868" lon="4.71781">
        <ele>290.09265</ele>
        <time>2023-05-01T11:58:50.000Z</time>
      </trkpt>
      <trkpt lat="45.82864" lon="4.71782">
        <ele>289.98341</ele>
        <time>2023-05-01T11:58:51.000Z</time>
      </trkpt>
      <trkpt lat="45.82861" lon="4.71783">
        <ele>289.85712</ele>
        <time>2023-05-01T11:58:52.000Z</time>
      </trkpt>
      <trkpt lat="45.82857" lon="4.71783">
        <ele>289.74405</ele>
        <time>2023-05-01T11:58:53.000Z</time>
      </trkpt>
      <trkpt lat="45.82854" lon="4.71783">
        <ele>289.63172</ele>
        <time>2023-05-01T11:58:54.000Z</time>
      </trkpt>
      <trkpt lat="45.82851" lon="4.71783">
        <ele>289.52263</ele>
        <time>2023-05-01T11:58:55.000Z</time>
      </trkpt>
      <trkpt lat="45.82848" lon="4.71783">
        <ele>289.4255</ele>
        <time>2023-05-01T11:58:56.000Z</time>
      </trkpt>
      <trkpt lat="45.82845" lon="4.71783">
        <ele>289.34262</ele>
        <time>2023-05-01T11:58:57.000Z</time>
      </trkpt>
      <trkpt lat="45.82842" lon="4.71783">
        <ele>289.24432</ele>
        <time>2023-05-01T11:58:58.000Z</time>
      </trkpt>
      <trkpt lat="45.82839" lon="4.71783">
        <ele>289.14402</ele>
        <time>2023-05-01T11:58:59.000Z</time>
      </trkpt>
      <trkpt lat="45.82837" lon="4.71784">
        <ele>289.05808</ele>
        <time>2023-05-01T11:59:00.000Z</time>
      </trkpt>
      <trkpt lat="45.82834" lon="4.71784">
        <ele>288.9815</ele>
        <time>2023-05-01T11:59:01.000Z</time>
      </trkpt>
      <trkpt lat="45.82832" lon="4.71783">
        <ele>288.91714</ele>
        <time>2023-05-01T11:59:02.000Z</time>
      </trkpt>
      <trkpt lat="45.8283" lon="4.71783">
        <ele>288.86951</ele>
        <time>2023-05-01T11:59:03.000Z</time>
      </trkpt>
      <trkpt lat="45.82826" lon="4.71785">
        <ele>288.86359</ele>
        <time>2023-05-01T11:59:05.000Z</time>
      </trkpt>
      <trkpt lat="45.82823" lon="4.71787">
        <ele>288.94368</ele>
        <time>2023-05-01T11:59:06.000Z</time>
      </trkpt>
      <trkpt lat="45.82821" lon="4.71791">
        <ele>289.06257</ele>
        <time>2023-05-01T11:59:07.000Z</time>
      </trkpt>
      <trkpt lat="45.8282" lon="4.71796">
        <ele>289.16218</ele>
        <time>2023-05-01T11:59:08.000Z</time>
      </trkpt>
      <trkpt lat="45.82819" lon="4.718">
        <ele>289.2386</ele>
        <time>2023-05-01T11:59:09.000Z</time>
      </trkpt>
      <trkpt lat="45.82819" lon="4.71805">
        <ele>289.30263</ele>
        <time>2023-05-01T11:59:10.000Z</time>
      </trkpt>
      <trkpt lat="45.82818" lon="4.7181">
        <ele>289.35134</ele>
        <time>2023-05-01T11:59:11.000Z</time>
      </trkpt>
      <trkpt lat="45.82818" lon="4.71815">
        <ele>289.38718</ele>
        <time>2023-05-01T11:59:12.000Z</time>
      </trkpt>
      <trkpt lat="45.82817" lon="4.71821">
        <ele>289.39396</ele>
        <time>2023-05-01T11:59:13.000Z</time>
      </trkpt>
      <trkpt lat="45.82816" lon="4.71826">
        <ele>289.38954</ele>
        <time>2023-05-01T11:59:14.000Z</time>
      </trkpt>
      <trkpt lat="45.82816" lon="4.71832">
        <ele>289.36098</ele>
        <time>2023-05-01T11:59:15.000Z</time>
      </trkpt>
      <trkpt lat="45.82815" lon="4.71837">
        <ele>289.31421</ele>
        <time>2023-05-01T11:59:16.000Z</time>
      </trkpt>
      <trkpt lat="45.82815" lon="4.71843">
        <ele>289.25864</ele>
        <time>2023-05-01T11:59:17.000Z</time>
      </trkpt>
      <trkpt lat="45.82814" lon="4.71849">
        <ele>289.20251</ele>
        <time>2023-05-01T11:59:18.000Z</time>
      </trkpt>
      <trkpt lat="45.82813" lon="4.71856">
        <ele>289.14015</ele>
        <time>2023-05-01T11:59:19.000Z</time>
      </trkpt>
      <trkpt lat="45.82812" lon="4.71862">
        <ele>289.07795</ele>
        <time>2023-05-01T11:59:20.000Z</time>
      </trkpt>
      <trkpt lat="45.82812" lon="4.71868">
        <ele>289.02209</ele>
        <time>2023-05-01T11:59:21.000Z</time>
      </trkpt>
      <trkpt lat="45.82812" lon="4.71874">
        <ele>288.97482</ele>
        <time>2023-05-01T11:59:22.000Z</time>
      </trkpt>
      <trkpt lat="45.82811" lon="4.71881">
        <ele>288.94847</ele>
        <time>2023-05-01T11:59:23.000Z</time>
      </trkpt>
      <trkpt lat="45.8281" lon="4.71888">
        <ele>288.968</ele>
        <time>2023-05-01T11:59:24.000Z</time>
      </trkpt>
      <trkpt lat="45.82809" lon="4.71894">
        <ele>289.01821</ele>
        <time>2023-05-01T11:59:25.000Z</time>
      </trkpt>
      <trkpt lat="45.82808" lon="4.71901">
        <ele>289.09088</ele>
        <time>2023-05-01T11:59:26.000Z</time>
      </trkpt>
      <trkpt lat="45.82808" lon="4.71908">
        <ele>289.11468</ele>
        <time>2023-05-01T11:59:27.000Z</time>
      </trkpt>
      <trkpt lat="45.82807" lon="4.71915">
        <ele>289.19439</ele>
        <time>2023-05-01T11:59:28.000Z</time>
      </trkpt>
      <trkpt lat="45.82805" lon="4.71921">
        <ele>289.26455</ele>
        <time>2023-05-01T11:59:29.000Z</time>
      </trkpt>
      <trkpt lat="45.82804" lon="4.71928">
        <ele>289.37217</ele>
        <time>2023-05-01T11:59:30.000Z</time>
      </trkpt>
      <trkpt lat="45.82803" lon="4.71934">
        <ele>289.52772</ele>
        <time>2023-05-01T11:59:31.000Z</time>
      </trkpt>
      <trkpt lat="45.82802" lon="4.7194">
        <ele>289.72482</ele>
        <time>2023-05-01T11:59:32.000Z</time>
      </trkpt>
      <trkpt lat="45.82801" lon="4.71946">
        <ele>289.93598</ele>
        <time>2023-05-01T11:59:33.000Z</time>
      </trkpt>
      <trkpt lat="45.828" lon="4.71952">
        <ele>290.17683</ele>
        <time>2023-05-01T11:59:34.000Z</time>
      </trkpt>
      <trkpt lat="45.82799" lon="4.71958">
        <ele>290.38171</ele>
        <time>2023-05-01T11:59:35.000Z</time>
      </trkpt>
      <trkpt lat="45.82799" lon="4.71965">
        <ele>290.60344</ele>
        <time>2023-05-01T11:59:36.000Z</time>
      </trkpt>
      <trkpt lat="45.82798" lon="4.71971">
        <ele>290.83496</ele>
        <time>2023-05-01T11:59:37.000Z</time>
      </trkpt>
      <trkpt lat="45.82798" lon="4.71977">
        <ele>291.11009</ele>
        <time>2023-05-01T11:59:38.000Z</time>
      </trkpt>
      <trkpt lat="45.82798" lon="4.71983">
        <ele>291.40332</ele>
        <time>2023-05-01T11:59:39.000Z</time>
      </trkpt>
      <trkpt lat="45.82798" lon="4.71988">
        <ele>291.72261</ele>
        <time>2023-05-01T11:59:40.000Z</time>
      </trkpt>
      <trkpt lat="45.82798" lon="4.71994">
        <ele>292.00358</ele>
        <time>2023-05-01T11:59:41.000Z</time>
      </trkpt>
      <trkpt lat="45.82797" lon="4.71999">
        <ele>292.30889</ele>
        <time>2023-05-01T11:59:42.000Z</time>
      </trkpt>
      <trkpt lat="45.82797" lon="4.72004">
        <ele>292.60842</ele>
        <time>2023-05-01T11:59:43.000Z</time>
      </trkpt>
      <trkpt lat="45.82796" lon="4.7201">
        <ele>292.94869</ele>
        <time>2023-05-01T11:59:44.000Z</time>
      </trkpt>
      <trkpt lat="45.82795" lon="4.72016">
        <ele>293.28584</ele>
        <time>2023-05-01T11:59:45.000Z</time>
      </trkpt>
      <trkpt lat="45.82794" lon="4.72021">
        <ele>293.60269</ele>
        <time>2023-05-01T11:59:46.000Z</time>
      </trkpt>
      <trkpt lat="45.82793" lon="4.72026">
        <ele>293.9075</ele>
        <time>2023-05-01T11:59:47.000Z</time>
      </trkpt>
      <trkpt lat="45.82792" lon="4.72032">
        <ele>294.22458</ele>
        <time>2023-05-01T11:59:48.000Z</time>
      </trkpt>
      <trkpt lat="45.8279" lon="4.72037">
        <ele>294.54202</ele>
        <time>2023-05-01T11:59:49.000Z</time>
      </trkpt>
      <trkpt lat="45.82789" lon="4.72042">
        <ele>294.85221</ele>
        <time>2023-05-01T11:59:50.000Z</time>
      </trkpt>
      <trkpt lat="45.82787" lon="4.72048">
        <ele>295.13737</ele>
        <time>2023-05-01T11:59:51.000Z</time>
      </trkpt>
      <trkpt lat="45.82786" lon="4.72053">
        <ele>295.43325</ele>
        <time>2023-05-01T11:59:52.000Z</time>
      </trkpt>
      <trkpt lat="45.82784" lon="4.72058">
        <ele>295.73216</ele>
        <time>2023-05-01T11:59:53.000Z</time>
      </trkpt>
      <trkpt lat="45.82783" lon="4.72063">
        <ele>296.0385</ele>
        <time>2023-05-01T11:59:54.000Z</time>
      </trkpt>
      <trkpt lat="45.82781" lon="4.72068">
        <ele>296.38661</ele>
        <time>2023-05-01T11:59:55.000Z</time>
      </trkpt>
      <trkpt lat="45.8278" lon="4.72073">
        <ele>296.77565</ele>
        <time>2023-05-01T11:59:56.000Z</time>
      </trkpt>
      <trkpt lat="45.82778" lon="4.72079">
        <ele>297.16129</ele>
        <time>2023-05-01T11:59:57.000Z</time>
      </trkpt>
      <trkpt lat="45.82777" lon="4.72084">
        <ele>297.55367</ele>
        <time>2023-05-01T11:59:58.000Z</time>
      </trkpt>
      <trkpt lat="45.82776" lon="4.72089">
        <ele>297.94415</ele>
        <time>2023-05-01T11:59:59.000Z</time>
      </trkpt>
      <trkpt lat="45.82775" lon="4.72095">
        <ele>298.37005</ele>
        <time>2023-05-01T12:00:00.000Z</time>
      </trkpt>
      <trkpt lat="45.82774" lon="4.721">
        <ele>298.76878</ele>
        <time>2023-05-01T12:00:01.000Z</time>
      </trkpt>
      <trkpt lat="45.82772" lon="4.72105">
        <ele>299.13502</ele>
        <time>2023-05-01T12:00:02.000Z</time>
      </trkpt>
      <trkpt lat="45.82771" lon="4.72111">
        <ele>299.47706</ele>
        <time>2023-05-01T12:00:03.000Z</time>
      </trkpt>
      <trkpt lat="45.8277" lon="4.72116">
        <ele>299.79682</ele>
        <time>2023-05-01T12:00:04.000Z</time>
      </trkpt>
      <trkpt lat="45.82768" lon="4.72121">
        <ele>300.10175</ele>
        <time>2023-05-01T12:00:05.000Z</time>
      </trkpt>
      <trkpt lat="45.82767" lon="4.72126">
        <ele>300.41182</ele>
        <time>2023-05-01T12:00:06.000Z</time>
      </trkpt>
      <trkpt lat="45.82766" lon="4.72131">
        <ele>300.74209</ele>
        <time>2023-05-01T12:00:07.000Z</time>
      </trkpt>
      <trkpt lat="45.82764" lon="4.72136">
        <ele>301.07288</ele>
        <time>2023-05-01T12:00:08.000Z</time>
      </trkpt>
      <trkpt lat="45.82763" lon="4.72141">
        <ele>301.41629</ele>
        <time>2023-05-01T12:00:09.000Z</time>
      </trkpt>
      <trkpt lat="45.82761" lon="4.72146">
        <ele>301.75698</ele>
        <time>2023-05-01T12:00:10.000Z</time>
      </trkpt>
      <trkpt lat="45.8276" lon="4.72151">
        <ele>302.07197</ele>
        <time>2023-05-01T12:00:11.000Z</time>
      </trkpt>
      <trkpt lat="45.82759" lon="4.72156">
        <ele>302.38437</ele>
        <time>2023-05-01T12:00:12.000Z</time>
      </trkpt>
      <trkpt lat="45.82758" lon="4.72161">
        <ele>302.63555</ele>
        <time>2023-05-01T12:00:13.000Z</time>
      </trkpt>
      <trkpt lat="45.82756" lon="4.72166">
        <ele>302.87898</ele>
        <time>2023-05-01T12:00:14.000Z</time>
      </trkpt>
      <trkpt lat="45.82755" lon="4.72171">
        <ele>303.11704</ele>
        <time>2023-05-01T12:00:15.000Z</time>
      </trkpt>
      <trkpt lat="45.82753" lon="4.72177">
        <ele>303.39992</ele>
        <time>2023-05-01T12:00:16.000Z</time>
      </trkpt>
      <trkpt lat="45.82752" lon="4.72182">
        <ele>303.70544</ele>
        <time>2023-05-01T12:00:17.000Z</time>
      </trkpt>
      <trkpt lat="45.8275" lon="4.72187">
        <ele>304.01457</ele>
        <time>2023-05-01T12:00:18.000Z</time>
      </trkpt>
      <trkpt lat="45.82749" lon="4.72192">
        <ele>304.31722</ele>
        <time>2023-05-01T12:00:19.000Z</time>
      </trkpt>
      <trkpt lat="45.82748" lon="4.72198">
        <ele>304.60122</ele>
        <time>2023-05-01T12:00:20.000Z</time>
      </trkpt>
      <trkpt lat="45.82746" lon="4.72203">
        <ele>304.88142</ele>
        <time>2023-05-01T12:00:21.000Z</time>
      </trkpt>
      <trkpt lat="45.82745" lon="4.72209">
        <ele>305.14779</ele>
        <time>2023-05-01T12:00:22.000Z</time>
      </trkpt>
      <trkpt lat="45.82743" lon="4.72214">
        <ele>305.41479</ele>
        <time>2023-05-01T12:00:23.000Z</time>
      </trkpt>
      <trkpt lat="45.82742" lon="4.7222">
        <ele>305.6883</ele>
        <time>2023-05-01T12:00:24.000Z</time>
      </trkpt>
      <trkpt lat="45.8274" lon="4.72225">
        <ele>305.93397</ele>
        <time>2023-05-01T12:00:25.000Z</time>
      </trkpt>
      <trkpt lat="45.82739" lon="4.7223">
        <ele>306.18067</ele>
        <time>2023-05-01T12:00:26.000Z</time>
      </trkpt>
      <trkpt lat="45.82737" lon="4.72236">
        <ele>306.40907</ele>
        <time>2023-05-01T12:00:27.000Z</time>
      </trkpt>
      <trkpt lat="45.82736" lon="4.72241">
        <ele>306.60778</ele>
        <time>2023-05-01T12:00:28.000Z</time>
      </trkpt>
      <trkpt lat="45.82735" lon="4.72247">
        <ele>306.77796</ele>
        <time>2023-05-01T12:00:29.000Z</time>
      </trkpt>
      <trkpt lat="45.82733" lon="4.72252">
        <ele>306.9519</ele>
        <time>2023-05-01T12:00:30.000Z</time>
      </trkpt>
      <trkpt lat="45.82732" lon="4.72258">
        <ele>307.16502</ele>
        <time>2023-05-01T12:00:31.000Z</time>
      </trkpt>
      <trkpt lat="45.82731" lon="4.72263">
        <ele>307.44586</ele>
        <time>2023-05-01T12:00:32.000Z</time>
      </trkpt>
      <trkpt lat="45.82729" lon="4.72269">
        <ele>307.80056</ele>
        <time>2023-05-01T12:00:33.000Z</time>
      </trkpt>
      <trkpt lat="45.82728" lon="4.72275">
        <ele>308.19694</ele>
        <time>2023-05-01T12:00:34.000Z</time>
      </trkpt>
      <trkpt lat="45.82726" lon="4.7228">
        <ele>308.61875</ele>
        <time>2023-05-01T12:00:35.000Z</time>
      </trkpt>
      <trkpt lat="45.82724" lon="4.72285">
        <ele>309.00546</ele>
        <time>2023-05-01T12:00:36.000Z</time>
      </trkpt>
      <trkpt lat="45.82723" lon="4.7229">
        <ele>309.34847</ele>
        <time>2023-05-01T12:00:37.000Z</time>
      </trkpt>
      <trkpt lat="45.82721" lon="4.72295">
        <ele>309.64766</ele>
        <time>2023-05-01T12:00:38.000Z</time>
      </trkpt>
      <trkpt lat="45.8272" lon="4.72301">
        <ele>309.93447</ele>
        <time>2023-05-01T12:00:39.000Z</time>
      </trkpt>
      <trkpt lat="45.82719" lon="4.72306">
        <ele>310.19912</ele>
        <time>2023-05-01T12:00:40.000Z</time>
      </trkpt>
      <trkpt lat="45.82718" lon="4.72311">
        <ele>310.46271</ele>
        <time>2023-05-01T12:00:41.000Z</time>
      </trkpt>
      <trkpt lat="45.82716" lon="4.72316">
        <ele>310.72002</ele>
        <time>2023-05-01T12:00:42.000Z</time>
      </trkpt>
      <trkpt lat="45.82715" lon="4.72321">
        <ele>310.9645</ele>
        <time>2023-05-01T12:00:43.000Z</time>
      </trkpt>
      <trkpt lat="45.82714" lon="4.72326">
        <ele>311.18986</ele>
        <time>2023-05-01T12:00:44.000Z</time>
      </trkpt>
      <trkpt lat="45.82713" lon="4.72331">
        <ele>311.37635</ele>
        <time>2023-05-01T12:00:45.000Z</time>
      </trkpt>
      <trkpt lat="45.82712" lon="4.72335">
        <ele>311.52985</ele>
        <time>2023-05-01T12:00:46.000Z</time>
      </trkpt>
      <trkpt lat="45.82711" lon="4.7234">
        <ele>311.66364</ele>
        <time>2023-05-01T12:00:47.000Z</time>
      </trkpt>
      <trkpt lat="45.8271" lon="4.72344">
        <ele>311.77213</ele>
        <time>2023-05-01T12:00:48.000Z</time>
      </trkpt>
      <trkpt lat="45.82708" lon="4.72348">
        <ele>311.86142</ele>
        <time>2023-05-01T12:00:49.000Z</time>
      </trkpt>
      <trkpt lat="45.82705" lon="4.72351">
        <ele>311.93479</ele>
        <time>2023-05-01T12:00:50.000Z</time>
      </trkpt>
      <trkpt lat="45.82702" lon="4.72354">
        <ele>312.05012</ele>
        <time>2023-05-01T12:00:51.000Z</time>
      </trkpt>
      <trkpt lat="45.827" lon="4.72358">
        <ele>312.20751</ele>
        <time>2023-05-01T12:00:52.000Z</time>
      </trkpt>
      <trkpt lat="45.82698" lon="4.72362">
        <ele>312.37193</ele>
        <time>2023-05-01T12:00:53.000Z</time>
      </trkpt>
      <trkpt lat="45.82697" lon="4.72366">
        <ele>312.57335</ele>
        <time>2023-05-01T12:00:54.000Z</time>
      </trkpt>
      <trkpt lat="45.82695" lon="4.7237">
        <ele>312.7794</ele>
        <time>2023-05-01T12:00:55.000Z</time>
      </trkpt>
      <trkpt lat="45.82693" lon="4.72375">
        <ele>312.99357</ele>
        <time>2023-05-01T12:00:56.000Z</time>
      </trkpt>
      <trkpt lat="45.82692" lon="4.72379">
        <ele>313.21108</ele>
        <time>2023-05-01T12:00:57.000Z</time>
      </trkpt>
      <trkpt lat="45.8269" lon="4.72384">
        <ele>313.42792</ele>
        <time>2023-05-01T12:00:58.000Z</time>
      </trkpt>
      <trkpt lat="45.82689" lon="4.72388">
        <ele>313.64194</ele>
        <time>2023-05-01T12:00:59.000Z</time>
      </trkpt>
      <trkpt lat="45.82687" lon="4.72391">
        <ele>313.83328</ele>
        <time>2023-05-01T12:01:00.000Z</time>
      </trkpt>
      <trkpt lat="45.82686" lon="4.72395">
        <ele>314.04035</ele>
        <time>2023-05-01T12:01:01.000Z</time>
      </trkpt>
      <trkpt lat="45.82684" lon="4.72399">
        <ele>314.25208</ele>
        <time>2023-05-01T12:01:02.000Z</time>
      </trkpt>
      <trkpt lat="45.82682" lon="4.72403">
        <ele>314.49024</ele>
        <time>2023-05-01T12:01:03.000Z</time>
      </trkpt>
      <trkpt lat="45.82681" lon="4.72408">
        <ele>314.73256</ele>
        <time>2023-05-01T12:01:04.000Z</time>
      </trkpt>
      <trkpt lat="45.82679" lon="4.72412">
        <ele>314.98613</ele>
        <time>2023-05-01T12:01:05.000Z</time>
      </trkpt>
      <trkpt lat="45.82677" lon="4.72416">
        <ele>315.23627</ele>
        <time>2023-05-01T12:01:06.000Z</time>
      </trkpt>
      <trkpt lat="45.82675" lon="4.72421">
        <ele>315.49211</ele>
        <time>2023-05-01T12:01:07.000Z</time>
      </trkpt>
      <trkpt lat="45.82673" lon="4.72425">
        <ele>315.75722</ele>
        <time>2023-05-01T12:01:08.000Z</time>
      </trkpt>
      <trkpt lat="45.82671" lon="4.7243">
        <ele>316.02002</ele>
        <time>2023-05-01T12:01:09.000Z</time>
      </trkpt>
      <trkpt lat="45.82669" lon="4.72434">
        <ele>316.2708</ele>
        <time>2023-05-01T12:01:10.000Z</time>
      </trkpt>
      <trkpt lat="45.82667" lon="4.72439">
        <ele>316.52798</ele>
        <time>2023-05-01T12:01:11.000Z</time>
      </trkpt>
      <trkpt lat="45.82665" lon="4.72443">
        <ele>316.79731</ele>
        <time>2023-05-01T12:01:12.000Z</time>
      </trkpt>
      <trkpt lat="45.82663" lon="4.72448">
        <ele>317.0487</ele>
        <time>2023-05-01T12:01:13.000Z</time>
      </trkpt>
      <trkpt lat="45.82661" lon="4.72452">
        <ele>317.28444</ele>
        <time>2023-05-01T12:01:14.000Z</time>
      </trkpt>
      <trkpt lat="45.82659" lon="4.72457">
        <ele>317.51257</ele>
        <time>2023-05-01T12:01:15.000Z</time>
      </trkpt>
      <trkpt lat="45.82657" lon="4.72461">
        <ele>317.71669</ele>
        <time>2023-05-01T12:01:16.000Z</time>
      </trkpt>
      <trkpt lat="45.82655" lon="4.72465">
        <ele>317.92193</ele>
        <time>2023-05-01T12:01:17.000Z</time>
      </trkpt>
      <trkpt lat="45.82653" lon="4.72469">
        <ele>318.12943</ele>
        <time>2023-05-01T12:01:18.000Z</time>
      </trkpt>
      <trkpt lat="45.82651" lon="4.72473">
        <ele>318.32741</ele>
        <time>2023-05-01T12:01:19.000Z</time>
      </trkpt>
      <trkpt lat="45.8265" lon="4.72477">
        <ele>318.51692</ele>
        <time>2023-05-01T12:01:20.000Z</time>
      </trkpt>
      <trkpt lat="45.82648" lon="4.72481">
        <ele>318.70355</ele>
        <time>2023-05-01T12:01:21.000Z</time>
      </trkpt>
      <trkpt lat="45.82646" lon="4.72484">
        <ele>318.88656</ele>
        <time>2023-05-01T12:01:22.000Z</time>
      </trkpt>
      <trkpt lat="45.82644" lon="4.72488">
        <ele>319.07916</ele>
        <time>2023-05-01T12:01:23.000Z</time>
      </trkpt>
      <trkpt lat="45.82642" lon="4.72492">
        <ele>319.28476</ele>
        <time>2023-05-01T12:01:24.000Z</time>
      </trkpt>
      <trkpt lat="45.8264" lon="4.72496">
        <ele>319.50606</ele>
        <time>2023-05-01T12:01:25.000Z</time>
      </trkpt>
      <trkpt lat="45.82639" lon="4.72501">
        <ele>319.72889</ele>
        <time>2023-05-01T12:01:26.000Z</time>
      </trkpt>
      <trkpt lat="45.82637" lon="4.72505">
        <ele>319.96712</ele>
        <time>2023-05-01T12:01:27.000Z</time>
      </trkpt>
      <trkpt lat="45.82635" lon="4.72509">
        <ele>320.19997</ele>
        <time>2023-05-01T12:01:28.000Z</time>
      </trkpt>
      <trkpt lat="45.82633" lon="4.72513">
        <ele>320.42248</ele>
        <time>2023-05-01T12:01:29.000Z</time>
      </trkpt>
      <trkpt lat="45.82631" lon="4.72517">
        <ele>320.64128</ele>
        <time>2023-05-01T12:01:30.000Z</time>
      </trkpt>
      <trkpt lat="45.8263" lon="4.72521">
        <ele>320.83343</ele>
        <time>2023-05-01T12:01:31.000Z</time>
      </trkpt>
      <trkpt lat="45.8263" lon="4.72526">
        <ele>320.99398</ele>
        <time>2023-05-01T12:01:32.000Z</time>
      </trkpt>
      <trkpt lat="45.8263" lon="4.72531">
        <ele>321.18799</ele>
        <time>2023-05-01T12:01:33.000Z</time>
      </trkpt>
      <trkpt lat="45.82629" lon="4.72536">
        <ele>321.42501</ele>
        <time>2023-05-01T12:01:34.000Z</time>
      </trkpt>
      <trkpt lat="45.82627" lon="4.72541">
        <ele>321.74411</ele>
        <time>2023-05-01T12:01:35.000Z</time>
      </trkpt>
      <trkpt lat="45.82625" lon="4.72545">
        <ele>322.10441</ele>
        <time>2023-05-01T12:01:36.000Z</time>
      </trkpt>
      <trkpt lat="45.82622" lon="4.72549">
        <ele>322.50026</ele>
        <time>2023-05-01T12:01:37.000Z</time>
      </trkpt>
      <trkpt lat="45.8262" lon="4.72553">
        <ele>322.87661</ele>
        <time>2023-05-01T12:01:38.000Z</time>
      </trkpt>
      <trkpt lat="45.82618" lon="4.72558">
        <ele>323.20344</ele>
        <time>2023-05-01T12:01:39.000Z</time>
      </trkpt>
      <trkpt lat="45.82616" lon="4.72562">
        <ele>323.50398</ele>
        <time>2023-05-01T12:01:40.000Z</time>
      </trkpt>
      <trkpt lat="45.82615" lon="4.72567">
        <ele>323.79126</ele>
        <time>2023-05-01T12:01:41.000Z</time>
      </trkpt>
      <trkpt lat="45.82613" lon="4.72572">
        <ele>324.06787</ele>
        <time>2023-05-01T12:01:42.000Z</time>
      </trkpt>
      <trkpt lat="45.82611" lon="4.72576">
        <ele>324.35743</ele>
        <time>2023-05-01T12:01:43.000Z</time>
      </trkpt>
      <trkpt lat="45.82609" lon="4.72581">
        <ele>324.69062</ele>
        <time>2023-05-01T12:01:44.000Z</time>
      </trkpt>
      <trkpt lat="45.82607" lon="4.72585">
        <ele>325.08641</ele>
        <time>2023-05-01T12:01:45.000Z</time>
      </trkpt>
      <trkpt lat="45.82606" lon="4.7259">
        <ele>325.51473</ele>
        <time>2023-05-01T12:01:46.000Z</time>
      </trkpt>
      <trkpt lat="45.82604" lon="4.72595">
        <ele>325.96717</ele>
        <time>2023-05-01T12:01:47.000Z</time>
      </trkpt>
      <trkpt lat="45.82602" lon="4.726">
        <ele>326.42238</ele>
        <time>2023-05-01T12:01:48.000Z</time>
      </trkpt>
      <trkpt lat="45.826" lon="4.72606">
        <ele>326.8434</ele>
        <time>2023-05-01T12:01:49.000Z</time>
      </trkpt>
      <trkpt lat="45.82598" lon="4.7261">
        <ele>327.22849</ele>
        <time>2023-05-01T12:01:50.000Z</time>
      </trkpt>
      <trkpt lat="45.82597" lon="4.72616">
        <ele>327.59556</ele>
        <time>2023-05-01T12:01:51.000Z</time>
      </trkpt>
      <trkpt lat="45.82595" lon="4.72621">
        <ele>327.96655</ele>
        <time>2023-05-01T12:01:52.000Z</time>
      </trkpt>
      <trkpt lat="45.82593" lon="4.72626">
        <ele>328.3474</ele>
        <time>2023-05-01T12:01:53.000Z</time>
      </trkpt>
      <trkpt lat="45.82591" lon="4.72631">
        <ele>328.73986</ele>
        <time>2023-05-01T12:01:54.000Z</time>
      </trkpt>
      <trkpt lat="45.8259" lon="4.72635">
        <ele>329.12206</ele>
        <time>2023-05-01T12:01:55.000Z</time>
      </trkpt>
      <trkpt lat="45.82588" lon="4.7264">
        <ele>329.50165</ele>
        <time>2023-05-01T12:01:56.000Z</time>
      </trkpt>
      <trkpt lat="45.82587" lon="4.72645">
        <ele>329.8836</ele>
        <time>2023-05-01T12:01:57.000Z</time>
      </trkpt>
      <trkpt lat="45.82585" lon="4.7265">
        <ele>330.25492</ele>
        <time>2023-05-01T12:01:58.000Z</time>
      </trkpt>
      <trkpt lat="45.82583" lon="4.72655">
        <ele>330.62404</ele>
        <time>2023-05-01T12:01:59.000Z</time>
      </trkpt>
      <trkpt lat="45.82582" lon="4.7266">
        <ele>330.98019</ele>
        <time>2023-05-01T12:02:00.000Z</time>
      </trkpt>
      <trkpt lat="45.8258" lon="4.72665">
        <ele>331.33339</ele>
        <time>2023-05-01T12:02:01.000Z</time>
      </trkpt>
      <trkpt lat="45.82578" lon="4.72669">
        <ele>331.70078</ele>
        <time>2023-05-01T12:02:02.000Z</time>
      </trkpt>
      <trkpt lat="45.82576" lon="4.72674">
        <ele>332.08517</ele>
        <time>2023-05-01T12:02:03.000Z</time>
      </trkpt>
      <trkpt lat="45.82575" lon="4.72678">
        <ele>332.48703</ele>
        <time>2023-05-01T12:02:04.000Z</time>
      </trkpt>
      <trkpt lat="45.82573" lon="4.72684">
        <ele>332.9416</ele>
        <time>2023-05-01T12:02:05.000Z</time>
      </trkpt>
      <trkpt lat="45.82572" lon="4.72689">
        <ele>333.39103</ele>
        <time>2023-05-01T12:02:06.000Z</time>
      </trkpt>
      <trkpt lat="45.82571" lon="4.72695">
        <ele>333.82227</ele>
        <time>2023-05-01T12:02:07.000Z</time>
      </trkpt>
      <trkpt lat="45.8257" lon="4.727">
        <ele>334.19828</ele>
        <time>2023-05-01T12:02:08.000Z</time>
      </trkpt>
      <trkpt lat="45.82569" lon="4.72706">
        <ele>334.48</ele>
        <time>2023-05-01T12:02:09.000Z</time>
      </trkpt>
      <trkpt lat="45.82568" lon="4.72712">
        <ele>334.61874</ele>
        <time>2023-05-01T12:02:10.000Z</time>
      </trkpt>
      <trkpt lat="45.82567" lon="4.72718">
        <ele>334.58878</ele>
        <time>2023-05-01T12:02:11.000Z</time>
      </trkpt>
      <trkpt lat="45.82567" lon="4.72724">
        <ele>334.48912</ele>
        <time>2023-05-01T12:02:12.000Z</time>
      </trkpt>
      <trkpt lat="45.82566" lon="4.72729">
        <ele>334.37472</ele>
        <time>2023-05-01T12:02:13.000Z</time>
      </trkpt>
      <trkpt lat="45.82565" lon="4.72735">
        <ele>334.3667</ele>
        <time>2023-05-01T12:02:14.000Z</time>
      </trkpt>
      <trkpt lat="45.82565" lon="4.72741">
        <ele>334.4595</ele>
        <time>2023-05-01T12:02:15.000Z</time>
      </trkpt>
      <trkpt lat="45.82564" lon="4.72747">
        <ele>334.64645</ele>
        <time>2023-05-01T12:02:16.000Z</time>
      </trkpt>
      <trkpt lat="45.82563" lon="4.72752">
        <ele>334.90744</ele>
        <time>2023-05-01T12:02:17.000Z</time>
      </trkpt>
      <trkpt lat="45.82563" lon="4.72758">
        <ele>335.19857</ele>
        <time>2023-05-01T12:02:18.000Z</time>
      </trkpt>
      <trkpt lat="45.82563" lon="4.72763">
        <ele>335.47179</ele>
        <time>2023-05-01T12:02:19.000Z</time>
      </trkpt>
      <trkpt lat="45.82562" lon="4.72769">
        <ele>335.74639</ele>
        <time>2023-05-01T12:02:20.000Z</time>
      </trkpt>
      <trkpt lat="45.82562" lon="4.72775">
        <ele>335.9854</ele>
        <time>2023-05-01T12:02:21.000Z</time>
      </trkpt>
      <trkpt lat="45.82562" lon="4.7278">
        <ele>336.23219</ele>
        <time>2023-05-01T12:02:22.000Z</time>
      </trkpt>
      <trkpt lat="45.82561" lon="4.72786">
        <ele>336.49896</ele>
        <time>2023-05-01T12:02:23.000Z</time>
      </trkpt>
      <trkpt lat="45.82561" lon="4.72792">
        <ele>336.74537</ele>
        <time>2023-05-01T12:02:24.000Z</time>
      </trkpt>
      <trkpt lat="45.82561" lon="4.72797">
        <ele>337.00871</ele>
        <time>2023-05-01T12:02:25.000Z</time>
      </trkpt>
      <trkpt lat="45.8256" lon="4.72803">
        <ele>337.25283</ele>
        <time>2023-05-01T12:02:26.000Z</time>
      </trkpt>
      <trkpt lat="45.8256" lon="4.72809">
        <ele>337.48465</ele>
        <time>2023-05-01T12:02:27.000Z</time>
      </trkpt>
      <trkpt lat="45.8256" lon="4.72815">
        <ele>337.73134</ele>
        <time>2023-05-01T12:02:28.000Z</time>
      </trkpt>
      <trkpt lat="45.82561" lon="4.72821">
        <ele>337.92459</ele>
        <time>2023-05-01T12:02:29.000Z</time>
      </trkpt>
      <trkpt lat="45.8256" lon="4.72827">
        <ele>338.16313</ele>
        <time>2023-05-01T12:02:30.000Z</time>
      </trkpt>
      <trkpt lat="45.8256" lon="4.72833">
        <ele>338.40187</ele>
        <time>2023-05-01T12:02:31.000Z</time>
      </trkpt>
      <trkpt lat="45.82561" lon="4.72839">
        <ele>338.58441</ele>
        <time>2023-05-01T12:02:32.000Z</time>
      </trkpt>
      <trkpt lat="45.82561" lon="4.72845">
        <ele>338.81518</ele>
        <time>2023-05-01T12:02:33.000Z</time>
      </trkpt>
      <trkpt lat="45.82561" lon="4.72851">
        <ele>339.03046</ele>
        <time>2023-05-01T12:02:34.000Z</time>
      </trkpt>
      <trkpt lat="45.82561" lon="4.72856">
        <ele>339.23918</ele>
        <time>2023-05-01T12:02:35.000Z</time>
      </trkpt>
      <trkpt lat="45.82561" lon="4.72862">
        <ele>339.46105</ele>
        <time>2023-05-01T12:02:36.000Z</time>
      </trkpt>
      <trkpt lat="45.82561" lon="4.72868">
        <ele>339.70084</ele>
        <time>2023-05-01T12:02:37.000Z</time>
      </trkpt>
      <trkpt lat="45.82561" lon="4.72874">
        <ele>339.92537</ele>
        <time>2023-05-01T12:02:38.000Z</time>
      </trkpt>
      <trkpt lat="45.82561" lon="4.7288">
        <ele>340.18043</ele>
        <time>2023-05-01T12:02:39.000Z</time>
      </trkpt>
      <trkpt lat="45.82562" lon="4.72886">
        <ele>340.4158</ele>
        <time>2023-05-01T12:02:40.000Z</time>
      </trkpt>
      <trkpt lat="45.82562" lon="4.72891">
        <ele>340.62391</ele>
        <time>2023-05-01T12:02:41.000Z</time>
      </trkpt>
      <trkpt lat="45.82563" lon="4.72897">
        <ele>340.86859</ele>
        <time>2023-05-01T12:02:42.000Z</time>
      </trkpt>
      <trkpt lat="45.82564" lon="4.72903">
        <ele>341.09968</ele>
        <time>2023-05-01T12:02:43.000Z</time>
      </trkpt>
      <trkpt lat="45.82565" lon="4.72909">
        <ele>341.32782</ele>
        <time>2023-05-01T12:02:44.000Z</time>
      </trkpt>
      <trkpt lat="45.82565" lon="4.72915">
        <ele>341.60175</ele>
        <time>2023-05-01T12:02:45.000Z</time>
      </trkpt>
      <trkpt lat="45.82566" lon="4.72921">
        <ele>341.82067</ele>
        <time>2023-05-01T12:02:46.000Z</time>
      </trkpt>
      <trkpt lat="45.82567" lon="4.72926">
        <ele>342.01949</ele>
        <time>2023-05-01T12:02:47.000Z</time>
      </trkpt>
      <trkpt lat="45.82568" lon="4.72932">
        <ele>342.24056</ele>
        <time>2023-05-01T12:02:48.000Z</time>
      </trkpt>
      <trkpt lat="45.8257" lon="4.72938">
        <ele>342.37694</ele>
        <time>2023-05-01T12:02:49.000Z</time>
      </trkpt>
      <trkpt lat="45.82571" lon="4.72944">
        <ele>342.49797</ele>
        <time>2023-05-01T12:02:50.000Z</time>
      </trkpt>
      <trkpt lat="45.82572" lon="4.7295">
        <ele>342.65736</ele>
        <time>2023-05-01T12:02:51.000Z</time>
      </trkpt>
      <trkpt lat="45.82574" lon="4.72956">
        <ele>342.74417</ele>
        <time>2023-05-01T12:02:52.000Z</time>
      </trkpt>
      <trkpt lat="45.82575" lon="4.72962">
        <ele>342.79714</ele>
        <time>2023-05-01T12:02:53.000Z</time>
      </trkpt>
      <trkpt lat="45.82577" lon="4.72968">
        <ele>342.82337</ele>
        <time>2023-05-01T12:02:54.000Z</time>
      </trkpt>
      <trkpt lat="45.82579" lon="4.72974">
        <ele>342.86571</ele>
        <time>2023-05-01T12:02:55.000Z</time>
      </trkpt>
      <trkpt lat="45.82581" lon="4.72979">
        <ele>342.90928</ele>
        <time>2023-05-01T12:02:56.000Z</time>
      </trkpt>
      <trkpt lat="45.82582" lon="4.72985">
        <ele>342.96389</ele>
        <time>2023-05-01T12:02:57.000Z</time>
      </trkpt>
      <trkpt lat="45.82584" lon="4.72991">
        <ele>342.9834</ele>
        <time>2023-05-01T12:02:58.000Z</time>
      </trkpt>
      <trkpt lat="45.82586" lon="4.72996">
        <ele>342.97726</ele>
        <time>2023-05-01T12:02:59.000Z</time>
      </trkpt>
      <trkpt lat="45.82588" lon="4.73002">
        <ele>342.98586</ele>
        <time>2023-05-01T12:03:00.000Z</time>
      </trkpt>
      <trkpt lat="45.82589" lon="4.73008">
        <ele>343.01278</ele>
        <time>2023-05-01T12:03:01.000Z</time>
      </trkpt>
      <trkpt lat="45.82591" lon="4.73014">
        <ele>343.03994</ele>
        <time>2023-05-01T12:03:02.000Z</time>
      </trkpt>
      <trkpt lat="45.82593" lon="4.73019">
        <ele>343.1069</ele>
        <time>2023-05-01T12:03:03.000Z</time>
      </trkpt>
      <trkpt lat="45.82596" lon="4.73026">
        <ele>343.2292</ele>
        <time>2023-05-01T12:03:04.000Z</time>
      </trkpt>
      <trkpt lat="45.82598" lon="4.73032">
        <ele>343.36273</ele>
        <time>2023-05-01T12:03:05.000Z</time>
      </trkpt>
      <trkpt lat="45.826" lon="4.73038">
        <ele>343.51839</ele>
        <time>2023-05-01T12:03:06.000Z</time>
      </trkpt>
      <trkpt lat="45.82602" lon="4.73044">
        <ele>343.697</ele>
        <time>2023-05-01T12:03:07.000Z</time>
      </trkpt>
      <trkpt lat="45.82604" lon="4.7305">
        <ele>343.86999</ele>
        <time>2023-05-01T12:03:08.000Z</time>
      </trkpt>
      <trkpt lat="45.82606" lon="4.73056">
        <ele>344.02715</ele>
        <time>2023-05-01T12:03:09.000Z</time>
      </trkpt>
      <trkpt lat="45.82608" lon="4.73061">
        <ele>344.13163</ele>
        <time>2023-05-01T12:03:10.000Z</time>
      </trkpt>
      <trkpt lat="45.8261" lon="4.73067">
        <ele>344.26049</ele>
        <time>2023-05-01T12:03:11.000Z</time>
      </trkpt>
      <trkpt lat="45.82612" lon="4.73072">
        <ele>344.35391</ele>
        <time>2023-05-01T12:03:12.000Z</time>
      </trkpt>
      <trkpt lat="45.82614" lon="4.73078">
        <ele>344.51166</ele>
        <time>2023-05-01T12:03:13.000Z</time>
      </trkpt>
      <trkpt lat="45.82616" lon="4.73084">
        <ele>344.69645</ele>
        <time>2023-05-01T12:03:14.000Z</time>
      </trkpt>
      <trkpt lat="45.82618" lon="4.73089">
        <ele>344.92208</ele>
        <time>2023-05-01T12:03:15.000Z</time>
      </trkpt>
      <trkpt lat="45.82621" lon="4.73095">
        <ele>345.10026</ele>
        <time>2023-05-01T12:03:16.000Z</time>
      </trkpt>
      <trkpt lat="45.82622" lon="4.73101">
        <ele>345.32767</ele>
        <time>2023-05-01T12:03:17.000Z</time>
      </trkpt>
      <trkpt lat="45.82624" lon="4.73107">
        <ele>345.50267</ele>
        <time>2023-05-01T12:03:18.000Z</time>
      </trkpt>
      <trkpt lat="45.82627" lon="4.73113">
        <ele>345.60792</ele>
        <time>2023-05-01T12:03:19.000Z</time>
      </trkpt>
      <trkpt lat="45.82629" lon="4.73119">
        <ele>345.73607</ele>
        <time>2023-05-01T12:03:20.000Z</time>
      </trkpt>
      <trkpt lat="45.82631" lon="4.73124">
        <ele>345.8336</ele>
        <time>2023-05-01T12:03:21.000Z</time>
      </trkpt>
      <trkpt lat="45.82632" lon="4.7313">
        <ele>346.04291</ele>
        <time>2023-05-01T12:03:22.000Z</time>
      </trkpt>
      <trkpt lat="45.82634" lon="4.73135">
        <ele>346.20028</ele>
        <time>2023-05-01T12:03:23.000Z</time>
      </trkpt>
      <trkpt lat="45.82636" lon="4.73142">
        <ele>346.40469</ele>
        <time>2023-05-01T12:03:24.000Z</time>
      </trkpt>
      <trkpt lat="45.82637" lon="4.73147">
        <ele>346.59993</ele>
        <time>2023-05-01T12:03:25.000Z</time>
      </trkpt>
      <trkpt lat="45.82638" lon="4.73153">
        <ele>346.78335</ele>
        <time>2023-05-01T12:03:26.000Z</time>
      </trkpt>
      <trkpt lat="45.82639" lon="4.73159">
        <ele>346.93296</ele>
        <time>2023-05-01T12:03:27.000Z</time>
      </trkpt>
      <trkpt lat="45.82641" lon="4.73165">
        <ele>347.06256</ele>
        <time>2023-05-01T12:03:28.000Z</time>
      </trkpt>
      <trkpt lat="45.82642" lon="4.73171">
        <ele>347.1936</ele>
        <time>2023-05-01T12:03:29.000Z</time>
      </trkpt>
      <trkpt lat="45.82643" lon="4.73177">
        <ele>347.32562</ele>
        <time>2023-05-01T12:03:30.000Z</time>
      </trkpt>
      <trkpt lat="45.82644" lon="4.73184">
        <ele>347.47726</ele>
        <time>2023-05-01T12:03:31.000Z</time>
      </trkpt>
      <trkpt lat="45.82645" lon="4.7319">
        <ele>347.64811</ele>
        <time>2023-05-01T12:03:32.000Z</time>
      </trkpt>
      <trkpt lat="45.82646" lon="4.73196">
        <ele>347.84925</ele>
        <time>2023-05-01T12:03:33.000Z</time>
      </trkpt>
      <trkpt lat="45.82647" lon="4.73202">
        <ele>348.05446</ele>
        <time>2023-05-01T12:03:34.000Z</time>
      </trkpt>
      <trkpt lat="45.82648" lon="4.73208">
        <ele>348.24107</ele>
        <time>2023-05-01T12:03:35.000Z</time>
      </trkpt>
      <trkpt lat="45.82649" lon="4.73214">
        <ele>348.43255</ele>
        <time>2023-05-01T12:03:36.000Z</time>
      </trkpt>
      <trkpt lat="45.8265" lon="4.73221">
        <ele>348.57435</ele>
        <time>2023-05-01T12:03:37.000Z</time>
      </trkpt>
      <trkpt lat="45.8265" lon="4.73227">
        <ele>348.78096</ele>
        <time>2023-05-01T12:03:38.000Z</time>
      </trkpt>
      <trkpt lat="45.82651" lon="4.73233">
        <ele>348.93111</ele>
        <time>2023-05-01T12:03:39.000Z</time>
      </trkpt>
      <trkpt lat="45.82652" lon="4.7324">
        <ele>349.03711</ele>
        <time>2023-05-01T12:03:40.000Z</time>
      </trkpt>
      <trkpt lat="45.82653" lon="4.73246">
        <ele>349.15054</ele>
        <time>2023-05-01T12:03:41.000Z</time>
      </trkpt>
      <trkpt lat="45.82654" lon="4.73252">
        <ele>349.23897</ele>
        <time>2023-05-01T12:03:42.000Z</time>
      </trkpt>
      <trkpt lat="45.82654" lon="4.73259">
        <ele>349.31477</ele>
        <time>2023-05-01T12:03:43.000Z</time>
      </trkpt>
      <trkpt lat="45.82655" lon="4.73265">
        <ele>349.44823</ele>
        <time>2023-05-01T12:03:44.000Z</time>
      </trkpt>
      <trkpt lat="45.82656" lon="4.73271">
        <ele>349.50202</ele>
        <time>2023-05-01T12:03:45.000Z</time>
      </trkpt>
      <trkpt lat="45.82657" lon="4.73278">
        <ele>349.64559</ele>
        <time>2023-05-01T12:03:46.000Z</time>
      </trkpt>
      <trkpt lat="45.82658" lon="4.73284">
        <ele>349.72256</ele>
        <time>2023-05-01T12:03:47.000Z</time>
      </trkpt>
      <trkpt lat="45.82659" lon="4.73291">
        <ele>349.76968</ele>
        <time>2023-05-01T12:03:48.000Z</time>
      </trkpt>
      <trkpt lat="45.82659" lon="4.73297">
        <ele>349.77455</ele>
        <time>2023-05-01T12:03:49.000Z</time>
      </trkpt>
      <trkpt lat="45.8266" lon="4.73303">
        <ele>349.65978</ele>
        <time>2023-05-01T12:03:50.000Z</time>
      </trkpt>
      <trkpt lat="45.82661" lon="4.73309">
        <ele>349.51151</ele>
        <time>2023-05-01T12:03:51.000Z</time>
      </trkpt>
      <trkpt lat="45.82663" lon="4.73316">
        <ele>349.31589</ele>
        <time>2023-05-01T12:03:52.000Z</time>
      </trkpt>
      <trkpt lat="45.82664" lon="4.73323">
        <ele>349.21478</ele>
        <time>2023-05-01T12:03:53.000Z</time>
      </trkpt>
      <trkpt lat="45.82665" lon="4.73329">
        <ele>349.19671</ele>
        <time>2023-05-01T12:03:54.000Z</time>
      </trkpt>
      <trkpt lat="45.82666" lon="4.73337">
        <ele>349.25269</ele>
        <time>2023-05-01T12:03:55.000Z</time>
      </trkpt>
      <trkpt lat="45.82667" lon="4.73343">
        <ele>349.28686</ele>
        <time>2023-05-01T12:03:56.000Z</time>
      </trkpt>
      <trkpt lat="45.82668" lon="4.7335">
        <ele>349.32885</ele>
        <time>2023-05-01T12:03:57.000Z</time>
      </trkpt>
      <trkpt lat="45.82669" lon="4.73357">
        <ele>349.37982</ele>
        <time>2023-05-01T12:03:58.000Z</time>
      </trkpt>
      <trkpt lat="45.82669" lon="4.73364">
        <ele>349.49319</ele>
        <time>2023-05-01T12:03:59.000Z</time>
      </trkpt>
      <trkpt lat="45.8267" lon="4.7337">
        <ele>349.57171</ele>
        <time>2023-05-01T12:04:00.000Z</time>
      </trkpt>
      <trkpt lat="45.82671" lon="4.73377">
        <ele>349.56958</ele>
        <time>2023-05-01T12:04:01.000Z</time>
      </trkpt>
      <trkpt lat="45.82672" lon="4.73383">
        <ele>349.57184</ele>
        <time>2023-05-01T12:04:02.000Z</time>
      </trkpt>
      <trkpt lat="45.82672" lon="4.73389">
        <ele>349.61034</ele>
        <time>2023-05-01T12:04:03.000Z</time>
      </trkpt>
      <trkpt lat="45.82673" lon="4.73395">
        <ele>349.60682</ele>
        <time>2023-05-01T12:04:04.000Z</time>
      </trkpt>
      <trkpt lat="45.82674" lon="4.73401">
        <ele>349.72084</ele>
        <time>2023-05-01T12:04:05.000Z</time>
      </trkpt>
      <trkpt lat="45.82674" lon="4.73407">
        <ele>349.77666</ele>
        <time>2023-05-01T12:04:06.000Z</time>
      </trkpt>
      <trkpt lat="45.82674" lon="4.73414">
        <ele>349.90177</ele>
        <time>2023-05-01T12:04:07.000Z</time>
      </trkpt>
      <trkpt lat="45.82675" lon="4.73421">
        <ele>349.97315</ele>
        <time>2023-05-01T12:04:08.000Z</time>
      </trkpt>
      <trkpt lat="45.82674" lon="4.73428">
        <ele>350.1684</ele>
        <time>2023-05-01T12:04:09.000Z</time>
      </trkpt>
      <trkpt lat="45.82674" lon="4.73435">
        <ele>350.32412</ele>
        <time>2023-05-01T12:04:10.000Z</time>
      </trkpt>
      <trkpt lat="45.82674" lon="4.73441">
        <ele>350.42204</ele>
        <time>2023-05-01T12:04:11.000Z</time>
      </trkpt>
      <trkpt lat="45.82675" lon="4.73448">
        <ele>350.46651</ele>
        <time>2023-05-01T12:04:12.000Z</time>
      </trkpt>
      <trkpt lat="45.82674" lon="4.73455">
        <ele>350.5831</ele>
        <time>2023-05-01T12:04:13.000Z</time>
      </trkpt>
      <trkpt lat="45.82674" lon="4.73462">
        <ele>350.62498</ele>
        <time>2023-05-01T12:04:14.000Z</time>
      </trkpt>
      <trkpt lat="45.82673" lon="4.73469">
        <ele>350.69684</ele>
        <time>2023-05-01T12:04:15.000Z</time>
      </trkpt>
      <trkpt lat="45.82673" lon="4.73475">
        <ele>350.68001</ele>
        <time>2023-05-01T12:04:16.000Z</time>
      </trkpt>
      <trkpt lat="45.82673" lon="4.73481">
        <ele>350.69263</ele>
        <time>2023-05-01T12:04:17.000Z</time>
      </trkpt>
      <trkpt lat="45.82672" lon="4.73487">
        <ele>350.65028</ele>
        <time>2023-05-01T12:04:18.000Z</time>
      </trkpt>
      <trkpt lat="45.82671" lon="4.73494">
        <ele>350.57959</ele>
        <time>2023-05-01T12:04:19.000Z</time>
      </trkpt>
      <trkpt lat="45.8267" lon="4.735">
        <ele>350.5304</ele>
        <time>2023-05-01T12:04:20.000Z</time>
      </trkpt>
      <trkpt lat="45.82669" lon="4.73507">
        <ele>350.42876</ele>
        <time>2023-05-01T12:04:21.000Z</time>
      </trkpt>
      <trkpt lat="45.82667" lon="4.73513">
        <ele>350.32995</ele>
        <time>2023-05-01T12:04:22.000Z</time>
      </trkpt>
      <trkpt lat="45.82666" lon="4.7352">
        <ele>350.20654</ele>
        <time>2023-05-01T12:04:23.000Z</time>
      </trkpt>
      <trkpt lat="45.82663" lon="4.73526">
        <ele>350.0569</ele>
        <time>2023-05-01T12:04:24.000Z</time>
      </trkpt>
      <trkpt lat="45.82662" lon="4.73534">
        <ele>349.80959</ele>
        <time>2023-05-01T12:04:25.000Z</time>
      </trkpt>
      <trkpt lat="45.8266" lon="4.73541">
        <ele>349.60154</ele>
        <time>2023-05-01T12:04:26.000Z</time>
      </trkpt>
      <trkpt lat="45.82658" lon="4.73549">
        <ele>349.45914</ele>
        <time>2023-05-01T12:04:27.000Z</time>
      </trkpt>
      <trkpt lat="45.82656" lon="4.73556">
        <ele>349.40743</ele>
        <time>2023-05-01T12:04:28.000Z</time>
      </trkpt>
      <trkpt lat="45.82653" lon="4.73563">
        <ele>349.41571</ele>
        <time>2023-05-01T12:04:29.000Z</time>
      </trkpt>
      <trkpt lat="45.8265" lon="4.7357">
        <ele>349.38336</ele>
        <time>2023-05-01T12:04:30.000Z</time>
      </trkpt>
      <trkpt lat="45.82648" lon="4.73577">
        <ele>349.1728</ele>
        <time>2023-05-01T12:04:31.000Z</time>
      </trkpt>
      <trkpt lat="45.82645" lon="4.73585">
        <ele>348.60388</ele>
        <time>2023-05-01T12:04:32.000Z</time>
      </trkpt>
      <trkpt lat="45.82642" lon="4.73593">
        <ele>347.64691</ele>
        <time>2023-05-01T12:04:33.000Z</time>
      </trkpt>
      <trkpt lat="45.82639" lon="4.73601">
        <ele>346.65454</ele>
        <time>2023-05-01T12:04:34.000Z</time>
      </trkpt>
      <trkpt lat="45.82635" lon="4.73609">
        <ele>345.82338</ele>
        <time>2023-05-01T12:04:35.000Z</time>
      </trkpt>
      <trkpt lat="45.82631" lon="4.73617">
        <ele>345.36521</ele>
        <time>2023-05-01T12:04:36.000Z</time>
      </trkpt>
      <trkpt lat="45.82627" lon="4.73625">
        <ele>344.85599</ele>
        <time>2023-05-01T12:04:37.000Z</time>
      </trkpt>
      <trkpt lat="45.82624" lon="4.73633">
        <ele>344.02033</ele>
        <time>2023-05-01T12:04:38.000Z</time>
      </trkpt>
      <trkpt lat="45.82622" lon="4.73643">
        <ele>343.0393</ele>
        <time>2023-05-01T12:04:39.000Z</time>
      </trkpt>
      <trkpt lat="45.82621" lon="4.73654">
        <ele>342.29763</ele>
        <time>2023-05-01T12:04:40.000Z</time>
      </trkpt>
      <trkpt lat="45.8262" lon="4.73664">
        <ele>341.78378</ele>
        <time>2023-05-01T12:04:41.000Z</time>
      </trkpt>
      <trkpt lat="45.82619" lon="4.73674">
        <ele>341.30111</ele>
        <time>2023-05-01T12:04:42.000Z</time>
      </trkpt>
      <trkpt lat="45.82617" lon="4.73683">
        <ele>340.81424</ele>
        <time>2023-05-01T12:04:43.000Z</time>
      </trkpt>
      <trkpt lat="45.82615" lon="4.73691">
        <ele>340.34826</ele>
        <time>2023-05-01T12:04:44.000Z</time>
      </trkpt>
      <trkpt lat="45.82612" lon="4.73699">
        <ele>339.77278</ele>
        <time>2023-05-01T12:04:45.000Z</time>
      </trkpt>
      <trkpt lat="45.82608" lon="4.73705">
        <ele>339.04214</ele>
        <time>2023-05-01T12:04:46.000Z</time>
      </trkpt>
      <trkpt lat="45.82605" lon="4.73709">
        <ele>338.30396</ele>
        <time>2023-05-01T12:04:47.000Z</time>
      </trkpt>
      <trkpt lat="45.82601" lon="4.73713">
        <ele>337.75315</ele>
        <time>2023-05-01T12:04:48.000Z</time>
      </trkpt>
      <trkpt lat="45.82599" lon="4.73715">
        <ele>337.39455</ele>
        <time>2023-05-01T12:04:49.000Z</time>
      </trkpt>
      <trkpt lat="45.82596" lon="4.73717">
        <ele>337.16024</ele>
        <time>2023-05-01T12:04:50.000Z</time>
      </trkpt>
      <trkpt lat="45.82593" lon="4.73718">
        <ele>337.0244</ele>
        <time>2023-05-01T12:04:51.000Z</time>
      </trkpt>
      <trkpt lat="45.8259" lon="4.73721">
        <ele>337.05598</ele>
        <time>2023-05-01T12:04:52.000Z</time>
      </trkpt>
      <trkpt lat="45.82586" lon="4.73725">
        <ele>337.07865</ele>
        <time>2023-05-01T12:04:53.000Z</time>
      </trkpt>
      <trkpt lat="45.82583" lon="4.73729">
        <ele>336.98145</ele>
        <time>2023-05-01T12:04:54.000Z</time>
      </trkpt>
      <trkpt lat="45.82581" lon="4.73734">
        <ele>336.76671</ele>
        <time>2023-05-01T12:04:55.000Z</time>
      </trkpt>
      <trkpt lat="45.82579" lon="4.7374">
        <ele>336.50875</ele>
        <time>2023-05-01T12:04:56.000Z</time>
      </trkpt>
      <trkpt lat="45.82578" lon="4.73746">
        <ele>336.19274</ele>
        <time>2023-05-01T12:04:57.000Z</time>
      </trkpt>
      <trkpt lat="45.82577" lon="4.73752">
        <ele>335.80592</ele>
        <time>2023-05-01T12:04:58.000Z</time>
      </trkpt>
      <trkpt lat="45.82575" lon="4.73758">
        <ele>335.50403</ele>
        <time>2023-05-01T12:04:59.000Z</time>
      </trkpt>
      <trkpt lat="45.82573" lon="4.73764">
        <ele>335.33478</ele>
        <time>2023-05-01T12:05:00.000Z</time>
      </trkpt>
      <trkpt lat="45.82572" lon="4.73771">
        <ele>335.42607</ele>
        <time>2023-05-01T12:05:01.000Z</time>
      </trkpt>
      <trkpt lat="45.82569" lon="4.73779">
        <ele>335.76836</ele>
        <time>2023-05-01T12:05:02.000Z</time>
      </trkpt>
      <trkpt lat="45.82566" lon="4.73785">
        <ele>336.37395</ele>
        <time>2023-05-01T12:05:03.000Z</time>
      </trkpt>
      <trkpt lat="45.82564" lon="4.73792">
        <ele>336.82374</ele>
        <time>2023-05-01T12:05:04.000Z</time>
      </trkpt>
      <trkpt lat="45.82562" lon="4.738">
        <ele>337.02566</ele>
        <time>2023-05-01T12:05:05.000Z</time>
      </trkpt>
      <trkpt lat="45.8256" lon="4.73807">
        <ele>337.06503</ele>
        <time>2023-05-01T12:05:06.000Z</time>
      </trkpt>
      <trkpt lat="45.82558" lon="4.73814">
        <ele>337.02385</ele>
        <time>2023-05-01T12:05:07.000Z</time>
      </trkpt>
      <trkpt lat="45.82556" lon="4.7382">
        <ele>337.02129</ele>
        <time>2023-05-01T12:05:08.000Z</time>
      </trkpt>
      <trkpt lat="45.82555" lon="4.73825">
        <ele>337.17905</ele>
        <time>2023-05-01T12:05:09.000Z</time>
      </trkpt>
      <trkpt lat="45.82555" lon="4.73831">
        <ele>337.43194</ele>
        <time>2023-05-01T12:05:10.000Z</time>
      </trkpt>
      <trkpt lat="45.82557" lon="4.73836">
        <ele>337.7999</ele>
        <time>2023-05-01T12:05:11.000Z</time>
      </trkpt>
      <trkpt lat="45.82559" lon="4.7384">
        <ele>338.10807</ele>
        <time>2023-05-01T12:05:12.000Z</time>
      </trkpt>
      <trkpt lat="45.82562" lon="4.73843">
        <ele>338.35236</ele>
        <time>2023-05-01T12:05:13.000Z</time>
      </trkpt>
      <trkpt lat="45.82565" lon="4.73846">
        <ele>338.47872</ele>
        <time>2023-05-01T12:05:14.000Z</time>
      </trkpt>
      <trkpt lat="45.82568" lon="4.73849">
        <ele>338.50736</ele>
        <time>2023-05-01T12:05:15.000Z</time>
      </trkpt>
      <trkpt lat="45.8257" lon="4.73853">
        <ele>338.51852</ele>
        <time>2023-05-01T12:05:16.000Z</time>
      </trkpt>
      <trkpt lat="45.82572" lon="4.73857">
        <ele>338.57025</ele>
        <time>2023-05-01T12:05:17.000Z</time>
      </trkpt>
      <trkpt lat="45.82573" lon="4.73862">
        <ele>338.68016</ele>
        <time>2023-05-01T12:05:18.000Z</time>
      </trkpt>
      <trkpt lat="45.82574" lon="4.73869">
        <ele>338.7817</ele>
        <time>2023-05-01T12:05:19.000Z</time>
      </trkpt>
      <trkpt lat="45.82575" lon="4.73876">
        <ele>338.94659</ele>
        <time>2023-05-01T12:05:20.000Z</time>
      </trkpt>
      <trkpt lat="45.82577" lon="4.73883">
        <ele>339.00178</ele>
        <time>2023-05-01T12:05:21.000Z</time>
      </trkpt>
      <trkpt lat="45.82579" lon="4.73891">
        <ele>338.92723</ele>
        <time>2023-05-01T12:05:22.000Z</time>
      </trkpt>
      <trkpt lat="45.82581" lon="4.73898">
        <ele>338.83758</ele>
        <time>2023-05-01T12:05:23.000Z</time>
      </trkpt>
      <trkpt lat="45.82583" lon="4.73905">
        <ele>338.88343</ele>
        <time>2023-05-01T12:05:24.000Z</time>
      </trkpt>
      <trkpt lat="45.82585" lon="4.73913">
        <ele>339.07392</ele>
        <time>2023-05-01T12:05:25.000Z</time>
      </trkpt>
      <trkpt lat="45.82587" lon="4.7392">
        <ele>339.36811</ele>
        <time>2023-05-01T12:05:26.000Z</time>
      </trkpt>
      <trkpt lat="45.82588" lon="4.73927">
        <ele>339.66264</ele>
        <time>2023-05-01T12:05:27.000Z</time>
      </trkpt>
      <trkpt lat="45.82589" lon="4.73934">
        <ele>339.93813</ele>
        <time>2023-05-01T12:05:28.000Z</time>
      </trkpt>
      <trkpt lat="45.82591" lon="4.73941">
        <ele>340.22152</ele>
        <time>2023-05-01T12:05:29.000Z</time>
      </trkpt>
      <trkpt lat="45.82593" lon="4.73949">
        <ele>340.52196</ele>
        <time>2023-05-01T12:05:30.000Z</time>
      </trkpt>
      <trkpt lat="45.82594" lon="4.73956">
        <ele>340.79402</ele>
        <time>2023-05-01T12:05:31.000Z</time>
      </trkpt>
      <trkpt lat="45.82596" lon="4.73963">
        <ele>341.04478</ele>
        <time>2023-05-01T12:05:32.000Z</time>
      </trkpt>
      <trkpt lat="45.82598" lon="4.7397">
        <ele>341.31604</ele>
        <time>2023-05-01T12:05:33.000Z</time>
      </trkpt>
      <trkpt lat="45.826" lon="4.73977">
        <ele>341.65296</ele>
        <time>2023-05-01T12:05:34.000Z</time>
      </trkpt>
      <trkpt lat="45.82602" lon="4.73984">
        <ele>342.03569</ele>
        <time>2023-05-01T12:05:35.000Z</time>
      </trkpt>
      <trkpt lat="45.82603" lon="4.73992">
        <ele>342.44449</ele>
        <time>2023-05-01T12:05:36.000Z</time>
      </trkpt>
      <trkpt lat="45.82605" lon="4.73998">
        <ele>342.8541</ele>
        <time>2023-05-01T12:05:37.000Z</time>
      </trkpt>
      <trkpt lat="45.82607" lon="4.74005">
        <ele>343.23469</ele>
        <time>2023-05-01T12:05:38.000Z</time>
      </trkpt>
      <trkpt lat="45.82608" lon="4.74012">
        <ele>343.61767</ele>
        <time>2023-05-01T12:05:39.000Z</time>
      </trkpt>
      <trkpt lat="45.82608" lon="4.74019">
        <ele>344.00179</ele>
        <time>2023-05-01T12:05:40.000Z</time>
      </trkpt>
      <trkpt lat="45.82609" lon="4.74025">
        <ele>344.37007</ele>
        <time>2023-05-01T12:05:41.000Z</time>
      </trkpt>
      <trkpt lat="45.82609" lon="4.74032">
        <ele>344.73428</ele>
        <time>2023-05-01T12:05:42.000Z</time>
      </trkpt>
      <trkpt lat="45.82609" lon="4.74038">
        <ele>345.15367</ele>
        <time>2023-05-01T12:05:43.000Z</time>
      </trkpt>
      <trkpt lat="45.82609" lon="4.74044">
        <ele>345.53347</ele>
        <time>2023-05-01T12:05:44.000Z</time>
      </trkpt>
      <trkpt lat="45.82609" lon="4.7405">
        <ele>345.93035</ele>
        <time>2023-05-01T12:05:45.000Z</time>
      </trkpt>
      <trkpt lat="45.8261" lon="4.74056">
        <ele>346.33972</ele>
        <time>2023-05-01T12:05:46.000Z</time>
      </trkpt>
      <trkpt lat="45.8261" lon="4.74063">
        <ele>346.7475</ele>
        <time>2023-05-01T12:05:47.000Z</time>
      </trkpt>
      <trkpt lat="45.82611" lon="4.74069">
        <ele>347.18879</ele>
        <time>2023-05-01T12:05:48.000Z</time>
      </trkpt>
      <trkpt lat="45.82612" lon="4.74074">
        <ele>347.61427</ele>
        <time>2023-05-01T12:05:49.000Z</time>
      </trkpt>
      <trkpt lat="45.82612" lon="4.7408">
        <ele>348.05042</ele>
        <time>2023-05-01T12:05:50.000Z</time>
      </trkpt>
      <trkpt lat="45.82612" lon="4.74086">
        <ele>348.44897</ele>
        <time>2023-05-01T12:05:51.000Z</time>
      </trkpt>
      <trkpt lat="45.82613" lon="4.74091">
        <ele>348.8515</ele>
        <time>2023-05-01T12:05:52.000Z</time>
      </trkpt>
      <trkpt lat="45.82613" lon="4.74095">
        <ele>349.13515</ele>
        <time>2023-05-01T12:05:53.000Z</time>
      </trkpt>
      <trkpt lat="45.82614" lon="4.741">
        <ele>349.44702</ele>
        <time>2023-05-01T12:05:54.000Z</time>
      </trkpt>
      <trkpt lat="45.82615" lon="4.74105">
        <ele>349.80329</ele>
        <time>2023-05-01T12:05:55.000Z</time>
      </trkpt>
      <trkpt lat="45.82615" lon="4.7411">
        <ele>350.158</ele>
        <time>2023-05-01T12:05:56.000Z</time>
      </trkpt>
      <trkpt lat="45.82615" lon="4.74116">
        <ele>350.49881</ele>
        <time>2023-05-01T12:05:57.000Z</time>
      </trkpt>
      <trkpt lat="45.82615" lon="4.74121">
        <ele>350.79432</ele>
        <time>2023-05-01T12:05:58.000Z</time>
      </trkpt>
      <trkpt lat="45.82615" lon="4.74126">
        <ele>351.09034</ele>
        <time>2023-05-01T12:05:59.000Z</time>
      </trkpt>
      <trkpt lat="45.82615" lon="4.74131">
        <ele>351.37521</ele>
        <time>2023-05-01T12:06:00.000Z</time>
      </trkpt>
      <trkpt lat="45.82615" lon="4.74136">
        <ele>351.654</ele>
        <time>2023-05-01T12:06:01.000Z</time>
      </trkpt>
      <trkpt lat="45.82615" lon="4.74142">
        <ele>351.90751</ele>
        <time>2023-05-01T12:06:02.000Z</time>
      </trkpt>
      <trkpt lat="45.82615" lon="4.74147">
        <ele>352.14554</ele>
        <time>2023-05-01T12:06:03.000Z</time>
      </trkpt>
      <trkpt lat="45.82615" lon="4.74152">
        <ele>352.40475</ele>
        <time>2023-05-01T12:06:04.000Z</time>
      </trkpt>
      <trkpt lat="45.82615" lon="4.74158">
        <ele>352.68008</ele>
        <time>2023-05-01T12:06:05.000Z</time>
      </trkpt>
      <trkpt lat="45.82614" lon="4.74165">
        <ele>352.97371</ele>
        <time>2023-05-01T12:06:06.000Z</time>
      </trkpt>
      <trkpt lat="45.82614" lon="4.74171">
        <ele>353.25525</ele>
        <time>2023-05-01T12:06:07.000Z</time>
      </trkpt>
      <trkpt lat="45.82613" lon="4.74177">
        <ele>353.51669</ele>
        <time>2023-05-01T12:06:08.000Z</time>
      </trkpt>
      <trkpt lat="45.82613" lon="4.74184">
        <ele>353.7297</ele>
        <time>2023-05-01T12:06:09.000Z</time>
      </trkpt>
      <trkpt lat="45.82612" lon="4.74191">
        <ele>353.8788</ele>
        <time>2023-05-01T12:06:10.000Z</time>
      </trkpt>
      <trkpt lat="45.82611" lon="4.74197">
        <ele>353.95533</ele>
        <time>2023-05-01T12:06:11.000Z</time>
      </trkpt>
      <trkpt lat="45.8261" lon="4.74203">
        <ele>353.98539</ele>
        <time>2023-05-01T12:06:12.000Z</time>
      </trkpt>
      <trkpt lat="45.8261" lon="4.74209">
        <ele>354.00174</ele>
        <time>2023-05-01T12:06:13.000Z</time>
      </trkpt>
      <trkpt lat="45.82609" lon="4.74216">
        <ele>354.0252</ele>
        <time>2023-05-01T12:06:14.000Z</time>
      </trkpt>
      <trkpt lat="45.82608" lon="4.74222">
        <ele>354.08729</ele>
        <time>2023-05-01T12:06:15.000Z</time>
      </trkpt>
      <trkpt lat="45.82607" lon="4.74229">
        <ele>354.18581</ele>
        <time>2023-05-01T12:06:16.000Z</time>
      </trkpt>
      <trkpt lat="45.82605" lon="4.74235">
        <ele>354.2991</ele>
        <time>2023-05-01T12:06:17.000Z</time>
      </trkpt>
      <trkpt lat="45.82604" lon="4.74242">
        <ele>354.43816</ele>
        <time>2023-05-01T12:06:18.000Z</time>
      </trkpt>
      <trkpt lat="45.82603" lon="4.74249">
        <ele>354.57396</ele>
        <time>2023-05-01T12:06:19.000Z</time>
      </trkpt>
      <trkpt lat="45.82602" lon="4.74255">
        <ele>354.65628</ele>
        <time>2023-05-01T12:06:20.000Z</time>
      </trkpt>
      <trkpt lat="45.82601" lon="4.74262">
        <ele>354.74663</ele>
        <time>2023-05-01T12:06:21.000Z</time>
      </trkpt>
      <trkpt lat="45.826" lon="4.74268">
        <ele>354.80703</ele>
        <time>2023-05-01T12:06:22.000Z</time>
      </trkpt>
      <trkpt lat="45.82598" lon="4.74275">
        <ele>354.89372</ele>
        <time>2023-05-01T12:06:23.000Z</time>
      </trkpt>
      <trkpt lat="45.82597" lon="4.74281">
        <ele>354.98222</ele>
        <time>2023-05-01T12:06:24.000Z</time>
      </trkpt>
      <trkpt lat="45.82596" lon="4.74288">
        <ele>355.10864</ele>
        <time>2023-05-01T12:06:25.000Z</time>
      </trkpt>
      <trkpt lat="45.82595" lon="4.74294">
        <ele>355.23974</ele>
        <time>2023-05-01T12:06:26.000Z</time>
      </trkpt>
      <trkpt lat="45.82594" lon="4.743">
        <ele>355.39185</ele>
        <time>2023-05-01T12:06:27.000Z</time>
      </trkpt>
      <trkpt lat="45.82593" lon="4.74306">
        <ele>355.55093</ele>
        <time>2023-05-01T12:06:28.000Z</time>
      </trkpt>
      <trkpt lat="45.82592" lon="4.74313">
        <ele>355.7031</ele>
        <time>2023-05-01T12:06:29.000Z</time>
      </trkpt>
      <trkpt lat="45.82591" lon="4.74319">
        <ele>355.85112</ele>
        <time>2023-05-01T12:06:30.000Z</time>
      </trkpt>
      <trkpt lat="45.8259" lon="4.74325">
        <ele>355.96902</ele>
        <time>2023-05-01T12:06:31.000Z</time>
      </trkpt>
      <trkpt lat="45.8259" lon="4.74331">
        <ele>356.06542</ele>
        <time>2023-05-01T12:06:32.000Z</time>
      </trkpt>
      <trkpt lat="45.82589" lon="4.74338">
        <ele>356.17395</ele>
        <time>2023-05-01T12:06:33.000Z</time>
      </trkpt>
      <trkpt lat="45.82589" lon="4.74345">
        <ele>356.30961</ele>
        <time>2023-05-01T12:06:34.000Z</time>
      </trkpt>
      <trkpt lat="45.82589" lon="4.74351">
        <ele>356.49722</ele>
        <time>2023-05-01T12:06:35.000Z</time>
      </trkpt>
      <trkpt lat="45.82588" lon="4.74357">
        <ele>356.71403</ele>
        <time>2023-05-01T12:06:36.000Z</time>
      </trkpt>
      <trkpt lat="45.82588" lon="4.74362">
        <ele>356.92417</ele>
        <time>2023-05-01T12:06:37.000Z</time>
      </trkpt>
      <trkpt lat="45.82588" lon="4.74368">
        <ele>357.18845</ele>
        <time>2023-05-01T12:06:38.000Z</time>
      </trkpt>
      <trkpt lat="45.82588" lon="4.74374">
        <ele>357.51327</ele>
        <time>2023-05-01T12:06:39.000Z</time>
      </trkpt>
      <trkpt lat="45.82588" lon="4.7438">
        <ele>357.90475</ele>
        <time>2023-05-01T12:06:40.000Z</time>
      </trkpt>
      <trkpt lat="45.82588" lon="4.74386">
        <ele>358.41585</ele>
        <time>2023-05-01T12:06:41.000Z</time>
      </trkpt>
      <trkpt lat="45.82588" lon="4.74392">
        <ele>358.98756</ele>
        <time>2023-05-01T12:06:42.000Z</time>
      </trkpt>
      <trkpt lat="45.82588" lon="4.74397">
        <ele>359.55627</ele>
        <time>2023-05-01T12:06:43.000Z</time>
      </trkpt>
      <trkpt lat="45.82588" lon="4.74403">
        <ele>360.1628</ele>
        <time>2023-05-01T12:06:44.000Z</time>
      </trkpt>
      <trkpt lat="45.82587" lon="4.74408">
        <ele>360.76926</ele>
        <time>2023-05-01T12:06:45.000Z</time>
      </trkpt>
      <trkpt lat="45.82586" lon="4.74413">
        <ele>361.26109</ele>
        <time>2023-05-01T12:06:46.000Z</time>
      </trkpt>
      <trkpt lat="45.82585" lon="4.74417">
        <ele>361.68569</ele>
        <time>2023-05-01T12:06:47.000Z</time>
      </trkpt>
      <trkpt lat="45.82585" lon="4.74421">
        <ele>362.09757</ele>
        <time>2023-05-01T12:06:48.000Z</time>
      </trkpt>
      <trkpt lat="45.82584" lon="4.74424">
        <ele>362.43817</ele>
        <time>2023-05-01T12:06:49.000Z</time>
      </trkpt>
      <trkpt lat="45.82583" lon="4.74428">
        <ele>362.79902</ele>
        <time>2023-05-01T12:06:50.000Z</time>
      </trkpt>
      <trkpt lat="45.82583" lon="4.74433">
        <ele>363.20511</ele>
        <time>2023-05-01T12:06:51.000Z</time>
      </trkpt>
      <trkpt lat="45.82583" lon="4.74437">
        <ele>363.61599</ele>
        <time>2023-05-01T12:06:52.000Z</time>
      </trkpt>
      <trkpt lat="45.82583" lon="4.74441">
        <ele>363.9851</ele>
        <time>2023-05-01T12:06:53.000Z</time>
      </trkpt>
      <trkpt lat="45.82583" lon="4.74445">
        <ele>364.35026</ele>
        <time>2023-05-01T12:06:54.000Z</time>
      </trkpt>
      <trkpt lat="45.82582" lon="4.7445">
        <ele>364.79655</ele>
        <time>2023-05-01T12:06:55.000Z</time>
      </trkpt>
      <trkpt lat="45.82582" lon="4.74454">
        <ele>365.17519</ele>
        <time>2023-05-01T12:06:56.000Z</time>
      </trkpt>
      <trkpt lat="45.8258" lon="4.74458">
        <ele>365.58612</ele>
        <time>2023-05-01T12:06:57.000Z</time>
      </trkpt>
      <trkpt lat="45.82579" lon="4.74461">
        <ele>365.90228</ele>
        <time>2023-05-01T12:06:58.000Z</time>
      </trkpt>
      <trkpt lat="45.82578" lon="4.74464">
        <ele>366.24271</ele>
        <time>2023-05-01T12:06:59.000Z</time>
      </trkpt>
      <trkpt lat="45.82576" lon="4.74467">
        <ele>366.48127</ele>
        <time>2023-05-01T12:07:00.000Z</time>
      </trkpt>
      <trkpt lat="45.82575" lon="4.74469">
        <ele>366.72598</ele>
        <time>2023-05-01T12:07:01.000Z</time>
      </trkpt>
      <trkpt lat="45.82574" lon="4.74472">
        <ele>366.96611</ele>
        <time>2023-05-01T12:07:02.000Z</time>
      </trkpt>
      <trkpt lat="45.82573" lon="4.74475">
        <ele>367.30997</ele>
        <time>2023-05-01T12:07:03.000Z</time>
      </trkpt>
      <trkpt lat="45.82574" lon="4.74479">
        <ele>367.65403</ele>
        <time>2023-05-01T12:07:04.000Z</time>
      </trkpt>
      <trkpt lat="45.82575" lon="4.74482">
        <ele>367.93664</ele>
        <time>2023-05-01T12:07:05.000Z</time>
      </trkpt>
      <trkpt lat="45.82575" lon="4.74485">
        <ele>368.24645</ele>
        <time>2023-05-01T12:07:37.000Z</time>
      </trkpt>
      <trkpt lat="45.82574" lon="4.74488">
        <ele>368.52933</ele>
        <time>2023-05-01T12:07:44.000Z</time>
      </trkpt>
      <trkpt lat="45.82572" lon="4.74489">
        <ele>368.68365</ele>
        <time>2023-05-01T12:07:47.000Z</time>
      </trkpt>
      <trkpt lat="45.82569" lon="4.74489">
        <ele>368.76172</ele>
        <time>2023-05-01T12:07:48.000Z</time>
      </trkpt>
      <trkpt lat="45.82568" lon="4.74491">
        <ele>368.90179</ele>
        <time>2023-05-01T12:07:49.000Z</time>
      </trkpt>
      <trkpt lat="45.82565" lon="4.74492">
        <ele>369.01936</ele>
        <time>2023-05-01T12:07:50.000Z</time>
      </trkpt>
      <trkpt lat="45.82565" lon="4.74492">
        <ele>369.01936</ele>
        <time>2023-05-01T12:07:50.000Z</time>
      </trkpt>
      <trkpt lat="45.82563" lon="4.74493">
        <ele>369.13137</ele>
        <time>2023-05-01T12:07:51.000Z</time>
      </trkpt>
      <trkpt lat="45.82561" lon="4.74495">
        <ele>369.33688</ele>
        <time>2023-05-01T12:07:52.000Z</time>
      </trkpt>
      <trkpt lat="45.82559" lon="4.74498">
        <ele>369.63806</ele>
        <time>2023-05-01T12:07:53.000Z</time>
      </trkpt>
      <trkpt lat="45.82556" lon="4.745">
        <ele>369.811</ele>
        <time>2023-05-01T12:07:54.000Z</time>
      </trkpt>
      <trkpt lat="45.82554" lon="4.74502">
        <ele>369.90359</ele>
        <time>2023-05-01T12:07:55.000Z</time>
      </trkpt>
      <trkpt lat="45.82551" lon="4.74504">
        <ele>369.98168</ele>
        <time>2023-05-01T12:07:56.000Z</time>
      </trkpt>
      <trkpt lat="45.82548" lon="4.74507">
        <ele>370.05048</ele>
        <time>2023-05-01T12:07:57.000Z</time>
      </trkpt>
      <trkpt lat="45.82546" lon="4.74509">
        <ele>370.06567</ele>
        <time>2023-05-01T12:07:58.000Z</time>
      </trkpt>
      <trkpt lat="45.82542" lon="4.74511">
        <ele>370.07092</ele>
        <time>2023-05-01T12:07:59.000Z</time>
      </trkpt>
      <trkpt lat="45.82538" lon="4.74513">
        <ele>370.14231</ele>
        <time>2023-05-01T12:08:00.000Z</time>
      </trkpt>
      <trkpt lat="45.82534" lon="4.74516">
        <ele>370.33615</ele>
        <time>2023-05-01T12:08:01.000Z</time>
      </trkpt>
      <trkpt lat="45.8253" lon="4.7452">
        <ele>370.59877</ele>
        <time>2023-05-01T12:08:02.000Z</time>
      </trkpt>
      <trkpt lat="45.82526" lon="4.74523">
        <ele>370.83795</ele>
        <time>2023-05-01T12:08:03.000Z</time>
      </trkpt>
      <trkpt lat="45.82522" lon="4.74526">
        <ele>371.10465</ele>
        <time>2023-05-01T12:08:04.000Z</time>
      </trkpt>
      <trkpt lat="45.82519" lon="4.7453">
        <ele>371.29991</ele>
        <time>2023-05-01T12:08:05.000Z</time>
      </trkpt>
      <trkpt lat="45.82516" lon="4.74532">
        <ele>371.39125</ele>
        <time>2023-05-01T12:08:06.000Z</time>
      </trkpt>
      <trkpt lat="45.82514" lon="4.74534">
        <ele>371.41088</ele>
        <time>2023-05-01T12:08:07.000Z</time>
      </trkpt>
      <trkpt lat="45.82511" lon="4.74536">
        <ele>371.42558</ele>
        <time>2023-05-01T12:08:08.000Z</time>
      </trkpt>
      <trkpt lat="45.82509" lon="4.74537">
        <ele>371.45088</ele>
        <time>2023-05-01T12:08:09.000Z</time>
      </trkpt>
      <trkpt lat="45.82507" lon="4.74539">
        <ele>371.44006</ele>
        <time>2023-05-01T12:08:10.000Z</time>
      </trkpt>
      <trkpt lat="45.82505" lon="4.7454">
        <ele>371.37912</ele>
        <time>2023-05-01T12:08:11.000Z</time>
      </trkpt>
      <trkpt lat="45.82503" lon="4.7454">
        <ele>371.29973</ele>
        <time>2023-05-01T12:08:13.000Z</time>
      </trkpt>
      <trkpt lat="45.82501" lon="4.74541">
        <ele>371.21877</ele>
        <time>2023-05-01T12:08:39.000Z</time>
      </trkpt>
      <trkpt lat="45.82499" lon="4.74542">
        <ele>371.10875</ele>
        <time>2023-05-01T12:08:41.000Z</time>
      </trkpt>
      <trkpt lat="45.82497" lon="4.74543">
        <ele>370.99276</ele>
        <time>2023-05-01T12:08:42.000Z</time>
      </trkpt>
      <trkpt lat="45.82495" lon="4.74544">
        <ele>370.83878</ele>
        <time>2023-05-01T12:08:43.000Z</time>
      </trkpt>
      <trkpt lat="45.82492" lon="4.74545">
        <ele>370.66012</ele>
        <time>2023-05-01T12:08:44.000Z</time>
      </trkpt>
      <trkpt lat="45.8249" lon="4.74546">
        <ele>370.51768</ele>
        <time>2023-05-01T12:08:45.000Z</time>
      </trkpt>
      <trkpt lat="45.82488" lon="4.74547">
        <ele>370.42324</ele>
        <time>2023-05-01T12:08:46.000Z</time>
      </trkpt>
      <trkpt lat="45.82485" lon="4.74547">
        <ele>370.36865</ele>
        <time>2023-05-01T12:08:47.000Z</time>
      </trkpt>
      <trkpt lat="45.82482" lon="4.74548">
        <ele>370.49043</ele>
        <time>2023-05-01T12:08:48.000Z</time>
      </trkpt>
      <trkpt lat="45.82479" lon="4.74548">
        <ele>370.70297</ele>
        <time>2023-05-01T12:08:49.000Z</time>
      </trkpt>
      <trkpt lat="45.82476" lon="4.74549">
        <ele>370.94917</ele>
        <time>2023-05-01T12:08:50.000Z</time>
      </trkpt>
      <trkpt lat="45.82473" lon="4.74549">
        <ele>371.24673</ele>
        <time>2023-05-01T12:08:51.000Z</time>
      </trkpt>
      <trkpt lat="45.82469" lon="4.7455">
        <ele>371.61852</ele>
        <time>2023-05-01T12:08:52.000Z</time>
      </trkpt>
      <trkpt lat="45.82466" lon="4.74551">
        <ele>371.90902</ele>
        <time>2023-05-01T12:08:53.000Z</time>
      </trkpt>
      <trkpt lat="45.82463" lon="4.74552">
        <ele>372.07722</ele>
        <time>2023-05-01T12:08:54.000Z</time>
      </trkpt>
      <trkpt lat="45.8246" lon="4.74553">
        <ele>372.2158</ele>
        <time>2023-05-01T12:08:55.000Z</time>
      </trkpt>
      <trkpt lat="45.82456" lon="4.74555">
        <ele>372.3993</ele>
        <time>2023-05-01T12:08:56.000Z</time>
      </trkpt>
      <trkpt lat="45.82453" lon="4.74558">
        <ele>372.50793</ele>
        <time>2023-05-01T12:08:57.000Z</time>
      </trkpt>
      <trkpt lat="45.82451" lon="4.7456">
        <ele>372.57862</ele>
        <time>2023-05-01T12:08:58.000Z</time>
      </trkpt>
      <trkpt lat="45.82448" lon="4.74563">
        <ele>372.60985</ele>
        <time>2023-05-01T12:08:59.000Z</time>
      </trkpt>
      <trkpt lat="45.82446" lon="4.74565">
        <ele>372.57747</ele>
        <time>2023-05-01T12:09:00.000Z</time>
      </trkpt>
      <trkpt lat="45.82443" lon="4.74567">
        <ele>372.59997</ele>
        <time>2023-05-01T12:09:01.000Z</time>
      </trkpt>
      <trkpt lat="45.82441" lon="4.74572">
        <ele>372.835</ele>
        <time>2023-05-01T12:09:02.000Z</time>
      </trkpt>
      <trkpt lat="45.82439" lon="4.74577">
        <ele>373.12924</ele>
        <time>2023-05-01T12:09:03.000Z</time>
      </trkpt>
      <trkpt lat="45.82439" lon="4.74581">
        <ele>373.47743</ele>
        <time>2023-05-01T12:09:04.000Z</time>
      </trkpt>
      <trkpt lat="45.82439" lon="4.74585">
        <ele>373.80773</ele>
        <time>2023-05-01T12:09:05.000Z</time>
      </trkpt>
      <trkpt lat="45.82439" lon="4.74589">
        <ele>374.10127</ele>
        <time>2023-05-01T12:09:06.000Z</time>
      </trkpt>
      <trkpt lat="45.82439" lon="4.74593">
        <ele>374.36316</ele>
        <time>2023-05-01T12:09:07.000Z</time>
      </trkpt>
      <trkpt lat="45.82439" lon="4.74598">
        <ele>374.52409</ele>
        <time>2023-05-01T12:09:08.000Z</time>
      </trkpt>
      <trkpt lat="45.82439" lon="4.74601">
        <ele>374.6079</ele>
        <time>2023-05-01T12:09:09.000Z</time>
      </trkpt>
      <trkpt lat="45.8244" lon="4.74605">
        <ele>374.61262</ele>
        <time>2023-05-01T12:09:10.000Z</time>
      </trkpt>
      <trkpt lat="45.8244" lon="4.74609">
        <ele>374.50463</ele>
        <time>2023-05-01T12:09:11.000Z</time>
      </trkpt>
      <trkpt lat="45.82441" lon="4.74613">
        <ele>374.31835</ele>
        <time>2023-05-01T12:09:12.000Z</time>
      </trkpt>
      <trkpt lat="45.82442" lon="4.74618">
        <ele>374.0156</ele>
        <time>2023-05-01T12:09:13.000Z</time>
      </trkpt>
      <trkpt lat="45.82441" lon="4.74622">
        <ele>373.60132</ele>
        <time>2023-05-01T12:09:14.000Z</time>
      </trkpt>
      <trkpt lat="45.8244" lon="4.74626">
        <ele>373.24981</ele>
        <time>2023-05-01T12:09:15.000Z</time>
      </trkpt>
      <trkpt lat="45.82439" lon="4.74631">
        <ele>372.9583</ele>
        <time>2023-05-01T12:09:16.000Z</time>
      </trkpt>
      <trkpt lat="45.82437" lon="4.74636">
        <ele>372.90862</ele>
        <time>2023-05-01T12:09:17.000Z</time>
      </trkpt>
      <trkpt lat="45.82435" lon="4.7464">
        <ele>372.97131</ele>
        <time>2023-05-01T12:09:18.000Z</time>
      </trkpt>
      <trkpt lat="45.82434" lon="4.74645">
        <ele>373.0801</ele>
        <time>2023-05-01T12:09:19.000Z</time>
      </trkpt>
      <trkpt lat="45.82432" lon="4.7465">
        <ele>373.37113</ele>
        <time>2023-05-01T12:09:20.000Z</time>
      </trkpt>
      <trkpt lat="45.82431" lon="4.74655">
        <ele>374.04161</ele>
        <time>2023-05-01T12:09:21.000Z</time>
      </trkpt>
      <trkpt lat="45.82429" lon="4.74659">
        <ele>375.02586</ele>
        <time>2023-05-01T12:09:22.000Z</time>
      </trkpt>
      <trkpt lat="45.82427" lon="4.74663">
        <ele>376.03746</ele>
        <time>2023-05-01T12:09:23.000Z</time>
      </trkpt>
      <trkpt lat="45.82426" lon="4.74668">
        <ele>377.15178</ele>
        <time>2023-05-01T12:09:24.000Z</time>
      </trkpt>
      <trkpt lat="45.82424" lon="4.74673">
        <ele>378.28355</ele>
        <time>2023-05-01T12:09:25.000Z</time>
      </trkpt>
      <trkpt lat="45.82423" lon="4.74677">
        <ele>379.22129</ele>
        <time>2023-05-01T12:09:26.000Z</time>
      </trkpt>
      <trkpt lat="45.82422" lon="4.74682">
        <ele>379.94969</ele>
        <time>2023-05-01T12:09:27.000Z</time>
      </trkpt>
      <trkpt lat="45.82421" lon="4.74687">
        <ele>380.49234</ele>
        <time>2023-05-01T12:09:28.000Z</time>
      </trkpt>
      <trkpt lat="45.8242" lon="4.74692">
        <ele>380.81843</ele>
        <time>2023-05-01T12:09:29.000Z</time>
      </trkpt>
      <trkpt lat="45.82419" lon="4.74696">
        <ele>381.00267</ele>
        <time>2023-05-01T12:09:30.000Z</time>
      </trkpt>
      <trkpt lat="45.82418" lon="4.74701">
        <ele>381.07502</ele>
        <time>2023-05-01T12:09:31.000Z</time>
      </trkpt>
      <trkpt lat="45.82417" lon="4.74705">
        <ele>381.08255</ele>
        <time>2023-05-01T12:09:32.000Z</time>
      </trkpt>
      <trkpt lat="45.82416" lon="4.74709">
        <ele>381.0901</ele>
        <time>2023-05-01T12:09:33.000Z</time>
      </trkpt>
      <trkpt lat="45.82415" lon="4.74714">
        <ele>381.13167</ele>
        <time>2023-05-01T12:09:34.000Z</time>
      </trkpt>
      <trkpt lat="45.82414" lon="4.74719">
        <ele>381.19965</ele>
        <time>2023-05-01T12:09:35.000Z</time>
      </trkpt>
      <trkpt lat="45.82414" lon="4.74723">
        <ele>381.23737</ele>
        <time>2023-05-01T12:09:36.000Z</time>
      </trkpt>
      <trkpt lat="45.82415" lon="4.74726">
        <ele>381.26156</ele>
        <time>2023-05-01T12:09:37.000Z</time>
      </trkpt>
      <trkpt lat="45.82415" lon="4.74729">
        <ele>381.32177</ele>
        <time>2023-05-01T12:09:38.000Z</time>
      </trkpt>
      <trkpt lat="45.82414" lon="4.74732">
        <ele>381.41852</ele>
        <time>2023-05-01T12:09:39.000Z</time>
      </trkpt>
      <trkpt lat="45.82415" lon="4.74737">
        <ele>381.60521</ele>
        <time>2023-05-01T12:09:41.000Z</time>
      </trkpt>
      <trkpt lat="45.82416" lon="4.74742">
        <ele>381.75976</ele>
        <time>2023-05-01T12:09:43.000Z</time>
      </trkpt>
      <trkpt lat="45.82417" lon="4.74745">
        <ele>381.89322</ele>
        <time>2023-05-01T12:09:44.000Z</time>
      </trkpt>
      <trkpt lat="45.82418" lon="4.74748">
        <ele>382.03847</ele>
        <time>2023-05-01T12:09:45.000Z</time>
      </trkpt>
      <trkpt lat="45.82417" lon="4.74752">
        <ele>382.32106</ele>
        <time>2023-05-01T12:09:46.000Z</time>
      </trkpt>
      <trkpt lat="45.82416" lon="4.74757">
        <ele>382.5657</ele>
        <time>2023-05-01T12:09:47.000Z</time>
      </trkpt>
      <trkpt lat="45.82415" lon="4.74761">
        <ele>382.70331</ele>
        <time>2023-05-01T12:09:48.000Z</time>
      </trkpt>
      <trkpt lat="45.82413" lon="4.74765">
        <ele>382.72621</ele>
        <time>2023-05-01T12:09:49.000Z</time>
      </trkpt>
      <trkpt lat="45.82412" lon="4.74769">
        <ele>382.67061</ele>
        <time>2023-05-01T12:09:50.000Z</time>
      </trkpt>
      <trkpt lat="45.8241" lon="4.74773">
        <ele>382.5596</ele>
        <time>2023-05-01T12:09:51.000Z</time>
      </trkpt>
      <trkpt lat="45.82408" lon="4.74777">
        <ele>382.41379</ele>
        <time>2023-05-01T12:09:52.000Z</time>
      </trkpt>
      <trkpt lat="45.82406" lon="4.74782">
        <ele>382.24798</ele>
        <time>2023-05-01T12:09:53.000Z</time>
      </trkpt>
      <trkpt lat="45.82405" lon="4.74786">
        <ele>382.07545</ele>
        <time>2023-05-01T12:09:54.000Z</time>
      </trkpt>
      <trkpt lat="45.82403" lon="4.74791">
        <ele>381.9099</ele>
        <time>2023-05-01T12:09:55.000Z</time>
      </trkpt>
      <trkpt lat="45.82401" lon="4.74795">
        <ele>381.74356</ele>
        <time>2023-05-01T12:09:56.000Z</time>
      </trkpt>
      <trkpt lat="45.824" lon="4.748">
        <ele>381.55708</ele>
        <time>2023-05-01T12:09:57.000Z</time>
      </trkpt>
      <trkpt lat="45.82398" lon="4.74804">
        <ele>381.35672</ele>
        <time>2023-05-01T12:09:58.000Z</time>
      </trkpt>
      <trkpt lat="45.82396" lon="4.74809">
        <ele>381.0787</ele>
        <time>2023-05-01T12:09:59.000Z</time>
      </trkpt>
      <trkpt lat="45.82393" lon="4.74813">
        <ele>380.71452</ele>
        <time>2023-05-01T12:10:00.000Z</time>
      </trkpt>
      <trkpt lat="45.8239" lon="4.74816">
        <ele>380.26466</ele>
        <time>2023-05-01T12:10:01.000Z</time>
      </trkpt>
      <trkpt lat="45.82387" lon="4.74818">
        <ele>379.69724</ele>
        <time>2023-05-01T12:10:02.000Z</time>
      </trkpt>
      <trkpt lat="45.82383" lon="4.7482">
        <ele>379.03415</ele>
        <time>2023-05-01T12:10:03.000Z</time>
      </trkpt>
      <trkpt lat="45.8238" lon="4.74822">
        <ele>378.23168</ele>
        <time>2023-05-01T12:10:04.000Z</time>
      </trkpt>
      <trkpt lat="45.82376" lon="4.74825">
        <ele>377.3999</ele>
        <time>2023-05-01T12:10:05.000Z</time>
      </trkpt>
      <trkpt lat="45.82372" lon="4.74825">
        <ele>376.69012</ele>
        <time>2023-05-01T12:10:06.000Z</time>
      </trkpt>
      <trkpt lat="45.82366" lon="4.74827">
        <ele>375.91827</ele>
        <time>2023-05-01T12:10:07.000Z</time>
      </trkpt>
      <trkpt lat="45.8236" lon="4.74827">
        <ele>375.17902</ele>
        <time>2023-05-01T12:10:08.000Z</time>
      </trkpt>
      <trkpt lat="45.82354" lon="4.74827">
        <ele>374.54257</ele>
        <time>2023-05-01T12:10:09.000Z</time>
      </trkpt>
      <trkpt lat="45.82346" lon="4.74827">
        <ele>374.03416</ele>
        <time>2023-05-01T12:10:10.000Z</time>
      </trkpt>
      <trkpt lat="45.82339" lon="4.74828">
        <ele>373.66037</ele>
        <time>2023-05-01T12:10:11.000Z</time>
      </trkpt>
      <trkpt lat="45.82332" lon="4.74828">
        <ele>373.41824</ele>
        <time>2023-05-01T12:10:12.000Z</time>
      </trkpt>
      <trkpt lat="45.82324" lon="4.74828">
        <ele>373.34009</ele>
        <time>2023-05-01T12:10:13.000Z</time>
      </trkpt>
      <trkpt lat="45.82317" lon="4.74828">
        <ele>373.41468</ele>
        <time>2023-05-01T12:10:14.000Z</time>
      </trkpt>
      <trkpt lat="45.8231" lon="4.74829">
        <ele>373.52105</ele>
        <time>2023-05-01T12:10:15.000Z</time>
      </trkpt>
      <trkpt lat="45.82304" lon="4.7483">
        <ele>373.48692</ele>
        <time>2023-05-01T12:10:16.000Z</time>
      </trkpt>
      <trkpt lat="45.82299" lon="4.74832">
        <ele>373.3168</ele>
        <time>2023-05-01T12:10:17.000Z</time>
      </trkpt>
      <trkpt lat="45.82293" lon="4.74836">
        <ele>373.03185</ele>
        <time>2023-05-01T12:10:18.000Z</time>
      </trkpt>
      <trkpt lat="45.82289" lon="4.74839">
        <ele>372.76731</ele>
        <time>2023-05-01T12:10:19.000Z</time>
      </trkpt>
      <trkpt lat="45.82284" lon="4.74843">
        <ele>372.5351</ele>
        <time>2023-05-01T12:10:20.000Z</time>
      </trkpt>
      <trkpt lat="45.8228" lon="4.74846">
        <ele>372.33114</ele>
        <time>2023-05-01T12:10:21.000Z</time>
      </trkpt>
      <trkpt lat="45.82277" lon="4.7485">
        <ele>372.1544</ele>
        <time>2023-05-01T12:10:22.000Z</time>
      </trkpt>
      <trkpt lat="45.82274" lon="4.74854">
        <ele>372.00177</ele>
        <time>2023-05-01T12:10:23.000Z</time>
      </trkpt>
      <trkpt lat="45.82271" lon="4.74858">
        <ele>371.88516</ele>
        <time>2023-05-01T12:10:24.000Z</time>
      </trkpt>
      <trkpt lat="45.82268" lon="4.74861">
        <ele>371.74412</ele>
        <time>2023-05-01T12:10:25.000Z</time>
      </trkpt>
      <trkpt lat="45.82265" lon="4.74863">
        <ele>371.60703</ele>
        <time>2023-05-01T12:10:26.000Z</time>
      </trkpt>
      <trkpt lat="45.82261" lon="4.74863">
        <ele>371.44689</ele>
        <time>2023-05-01T12:10:27.000Z</time>
      </trkpt>
      <trkpt lat="45.82258" lon="4.74863">
        <ele>371.28427</ele>
        <time>2023-05-01T12:10:28.000Z</time>
      </trkpt>
      <trkpt lat="45.82254" lon="4.74861">
        <ele>371.10472</ele>
        <time>2023-05-01T12:10:29.000Z</time>
      </trkpt>
      <trkpt lat="45.82251" lon="4.74858">
        <ele>370.89872</ele>
        <time>2023-05-01T12:10:30.000Z</time>
      </trkpt>
      <trkpt lat="45.82249" lon="4.74851">
        <ele>370.65715</ele>
        <time>2023-05-01T12:10:31.000Z</time>
      </trkpt>
      <trkpt lat="45.82247" lon="4.74845">
        <ele>370.37849</ele>
        <time>2023-05-01T12:10:32.000Z</time>
      </trkpt>
      <trkpt lat="45.82245" lon="4.74838">
        <ele>370.07991</ele>
        <time>2023-05-01T12:10:33.000Z</time>
      </trkpt>
      <trkpt lat="45.82243" lon="4.74832">
        <ele>369.78683</ele>
        <time>2023-05-01T12:10:34.000Z</time>
      </trkpt>
      <trkpt lat="45.82242" lon="4.74826">
        <ele>369.60856</ele>
        <time>2023-05-01T12:10:35.000Z</time>
      </trkpt>
      <trkpt lat="45.82241" lon="4.7482">
        <ele>369.37565</ele>
        <time>2023-05-01T12:10:36.000Z</time>
      </trkpt>
      <trkpt lat="45.82239" lon="4.74815">
        <ele>369.11272</ele>
        <time>2023-05-01T12:10:37.000Z</time>
      </trkpt>
      <trkpt lat="45.82237" lon="4.74809">
        <ele>368.82739</ele>
        <time>2023-05-01T12:10:38.000Z</time>
      </trkpt>
      <trkpt lat="45.82235" lon="4.74803">
        <ele>368.58428</ele>
        <time>2023-05-01T12:10:39.000Z</time>
      </trkpt>
      <trkpt lat="45.82233" lon="4.74797">
        <ele>368.41099</ele>
        <time>2023-05-01T12:10:40.000Z</time>
      </trkpt>
      <trkpt lat="45.82231" lon="4.74791">
        <ele>368.29683</ele>
        <time>2023-05-01T12:10:41.000Z</time>
      </trkpt>
      <trkpt lat="45.82229" lon="4.74784">
        <ele>368.21697</ele>
        <time>2023-05-01T12:10:42.000Z</time>
      </trkpt>
      <trkpt lat="45.82227" lon="4.74778">
        <ele>368.11835</ele>
        <time>2023-05-01T12:10:43.000Z</time>
      </trkpt>
      <trkpt lat="45.82226" lon="4.74772">
        <ele>367.9979</ele>
        <time>2023-05-01T12:10:44.000Z</time>
      </trkpt>
      <trkpt lat="45.82224" lon="4.74766">
        <ele>367.86595</ele>
        <time>2023-05-01T12:10:45.000Z</time>
      </trkpt>
      <trkpt lat="45.82222" lon="4.7476">
        <ele>367.79325</ele>
        <time>2023-05-01T12:10:46.000Z</time>
      </trkpt>
      <trkpt lat="45.82221" lon="4.74754">
        <ele>367.80674</ele>
        <time>2023-05-01T12:10:47.000Z</time>
      </trkpt>
      <trkpt lat="45.82218" lon="4.74748">
        <ele>367.95241</ele>
        <time>2023-05-01T12:10:48.000Z</time>
      </trkpt>
      <trkpt lat="45.82217" lon="4.74743">
        <ele>368.19498</ele>
        <time>2023-05-01T12:10:49.000Z</time>
      </trkpt>
      <trkpt lat="45.82215" lon="4.74737">
        <ele>368.47156</ele>
        <time>2023-05-01T12:10:50.000Z</time>
      </trkpt>
      <trkpt lat="45.82213" lon="4.74731">
        <ele>368.62255</ele>
        <time>2023-05-01T12:10:51.000Z</time>
      </trkpt>
      <trkpt lat="45.82211" lon="4.74725">
        <ele>368.60584</ele>
        <time>2023-05-01T12:10:52.000Z</time>
      </trkpt>
      <trkpt lat="45.82209" lon="4.74718">
        <ele>368.3472</ele>
        <time>2023-05-01T12:10:53.000Z</time>
      </trkpt>
      <trkpt lat="45.82207" lon="4.74712">
        <ele>367.92164</ele>
        <time>2023-05-01T12:10:54.000Z</time>
      </trkpt>
      <trkpt lat="45.82205" lon="4.74706">
        <ele>367.29028</ele>
        <time>2023-05-01T12:10:55.000Z</time>
      </trkpt>
      <trkpt lat="45.82202" lon="4.747">
        <ele>366.60924</ele>
        <time>2023-05-01T12:10:56.000Z</time>
      </trkpt>
      <trkpt lat="45.822" lon="4.74694">
        <ele>366.06817</ele>
        <time>2023-05-01T12:10:57.000Z</time>
      </trkpt>
      <trkpt lat="45.82197" lon="4.74688">
        <ele>365.6716</ele>
        <time>2023-05-01T12:10:58.000Z</time>
      </trkpt>
      <trkpt lat="45.82194" lon="4.74682">
        <ele>365.55269</ele>
        <time>2023-05-01T12:10:59.000Z</time>
      </trkpt>
      <trkpt lat="45.82192" lon="4.74677">
        <ele>365.61112</ele>
        <time>2023-05-01T12:11:00.000Z</time>
      </trkpt>
      <trkpt lat="45.8219" lon="4.74672">
        <ele>365.73134</ele>
        <time>2023-05-01T12:11:01.000Z</time>
      </trkpt>
      <trkpt lat="45.82187" lon="4.74666">
        <ele>365.84392</ele>
        <time>2023-05-01T12:11:02.000Z</time>
      </trkpt>
      <trkpt lat="45.82186" lon="4.74661">
        <ele>365.84324</ele>
        <time>2023-05-01T12:11:03.000Z</time>
      </trkpt>
      <trkpt lat="45.82183" lon="4.74656">
        <ele>365.61867</ele>
        <time>2023-05-01T12:11:04.000Z</time>
      </trkpt>
      <trkpt lat="45.82181" lon="4.74651">
        <ele>365.31175</ele>
        <time>2023-05-01T12:11:05.000Z</time>
      </trkpt>
      <trkpt lat="45.82179" lon="4.74644">
        <ele>364.97427</ele>
        <time>2023-05-01T12:11:06.000Z</time>
      </trkpt>
      <trkpt lat="45.82178" lon="4.74637">
        <ele>364.68327</ele>
        <time>2023-05-01T12:11:07.000Z</time>
      </trkpt>
      <trkpt lat="45.82178" lon="4.7463">
        <ele>364.40235</ele>
        <time>2023-05-01T12:11:08.000Z</time>
      </trkpt>
      <trkpt lat="45.82179" lon="4.74623">
        <ele>364.16354</ele>
        <time>2023-05-01T12:11:09.000Z</time>
      </trkpt>
      <trkpt lat="45.82181" lon="4.74617">
        <ele>363.95199</ele>
        <time>2023-05-01T12:11:10.000Z</time>
      </trkpt>
      <trkpt lat="45.82185" lon="4.74612">
        <ele>363.80173</ele>
        <time>2023-05-01T12:11:11.000Z</time>
      </trkpt>
      <trkpt lat="45.82188" lon="4.74605">
        <ele>363.53202</ele>
        <time>2023-05-01T12:11:12.000Z</time>
      </trkpt>
      <trkpt lat="45.82192" lon="4.74599">
        <ele>363.23346</ele>
        <time>2023-05-01T12:11:13.000Z</time>
      </trkpt>
      <trkpt lat="45.82196" lon="4.74593">
        <ele>362.93654</ele>
        <time>2023-05-01T12:11:14.000Z</time>
      </trkpt>
      <trkpt lat="45.82199" lon="4.74586">
        <ele>362.57313</ele>
        <time>2023-05-01T12:11:15.000Z</time>
      </trkpt>
      <trkpt lat="45.82202" lon="4.74579">
        <ele>362.1124</ele>
        <time>2023-05-01T12:11:16.000Z</time>
      </trkpt>
      <trkpt lat="45.82206" lon="4.74572">
        <ele>361.88817</ele>
        <time>2023-05-01T12:11:17.000Z</time>
      </trkpt>
      <trkpt lat="45.82209" lon="4.74565">
        <ele>361.60119</ele>
        <time>2023-05-01T12:11:18.000Z</time>
      </trkpt>
      <trkpt lat="45.82212" lon="4.74557">
        <ele>361.31838</ele>
        <time>2023-05-01T12:11:19.000Z</time>
      </trkpt>
      <trkpt lat="45.82216" lon="4.74547">
        <ele>360.69293</ele>
        <time>2023-05-01T12:11:20.000Z</time>
      </trkpt>
      <trkpt lat="45.82219" lon="4.74539">
        <ele>360.05334</ele>
        <time>2023-05-01T12:11:21.000Z</time>
      </trkpt>
      <trkpt lat="45.82223" lon="4.7453">
        <ele>359.49709</ele>
        <time>2023-05-01T12:11:22.000Z</time>
      </trkpt>
      <trkpt lat="45.82228" lon="4.74521">
        <ele>359.05239</ele>
        <time>2023-05-01T12:11:23.000Z</time>
      </trkpt>
      <trkpt lat="45.82234" lon="4.74514">
        <ele>358.46363</ele>
        <time>2023-05-01T12:11:24.000Z</time>
      </trkpt>
      <trkpt lat="45.82241" lon="4.74507">
        <ele>357.44918</ele>
        <time>2023-05-01T12:11:25.000Z</time>
      </trkpt>
      <trkpt lat="45.82247" lon="4.74499">
        <ele>356.826</ele>
        <time>2023-05-01T12:11:26.000Z</time>
      </trkpt>
      <trkpt lat="45.82254" lon="4.74493">
        <ele>356.89555</ele>
        <time>2023-05-01T12:11:27.000Z</time>
      </trkpt>
      <trkpt lat="45.82262" lon="4.74486">
        <ele>356.64994</ele>
        <time>2023-05-01T12:11:28.000Z</time>
      </trkpt>
      <trkpt lat="45.82269" lon="4.74481">
        <ele>356.26866</ele>
        <time>2023-05-01T12:11:29.000Z</time>
      </trkpt>
      <trkpt lat="45.82277" lon="4.74475">
        <ele>356.14271</ele>
        <time>2023-05-01T12:11:30.000Z</time>
      </trkpt>
      <trkpt lat="45.82284" lon="4.7447">
        <ele>356.165</ele>
        <time>2023-05-01T12:11:31.000Z</time>
      </trkpt>
      <trkpt lat="45.82291" lon="4.74465">
        <ele>356.02131</ele>
        <time>2023-05-01T12:11:32.000Z</time>
      </trkpt>
      <trkpt lat="45.82297" lon="4.74459">
        <ele>355.1977</ele>
        <time>2023-05-01T12:11:33.000Z</time>
      </trkpt>
      <trkpt lat="45.82303" lon="4.74453">
        <ele>353.85811</ele>
        <time>2023-05-01T12:11:34.000Z</time>
      </trkpt>
      <trkpt lat="45.82309" lon="4.74446">
        <ele>352.45901</ele>
        <time>2023-05-01T12:11:35.000Z</time>
      </trkpt>
      <trkpt lat="45.82316" lon="4.74439">
        <ele>351.90133</ele>
        <time>2023-05-01T12:11:36.000Z</time>
      </trkpt>
      <trkpt lat="45.82321" lon="4.74431">
        <ele>352.05789</ele>
        <time>2023-05-01T12:11:37.000Z</time>
      </trkpt>
      <trkpt lat="45.82327" lon="4.74423">
        <ele>351.86675</ele>
        <time>2023-05-01T12:11:38.000Z</time>
      </trkpt>
      <trkpt lat="45.82334" lon="4.74414">
        <ele>350.97859</ele>
        <time>2023-05-01T12:11:39.000Z</time>
      </trkpt>
      <trkpt lat="45.8234" lon="4.74404">
        <ele>350.05194</ele>
        <time>2023-05-01T12:11:40.000Z</time>
      </trkpt>
      <trkpt lat="45.82347" lon="4.74395">
        <ele>349.55308</ele>
        <time>2023-05-01T12:11:41.000Z</time>
      </trkpt>
      <trkpt lat="45.82353" lon="4.74385">
        <ele>348.90924</ele>
        <time>2023-05-01T12:11:42.000Z</time>
      </trkpt>
      <trkpt lat="45.8236" lon="4.74376">
        <ele>348.3509</ele>
        <time>2023-05-01T12:11:43.000Z</time>
      </trkpt>
      <trkpt lat="45.82367" lon="4.74367">
        <ele>348.05843</ele>
        <time>2023-05-01T12:11:44.000Z</time>
      </trkpt>
      <trkpt lat="45.82374" lon="4.74358">
        <ele>347.69406</ele>
        <time>2023-05-01T12:11:45.000Z</time>
      </trkpt>
      <trkpt lat="45.8238" lon="4.74349">
        <ele>347.01097</ele>
        <time>2023-05-01T12:11:46.000Z</time>
      </trkpt>
      <trkpt lat="45.82386" lon="4.74341">
        <ele>346.35414</ele>
        <time>2023-05-01T12:11:47.000Z</time>
      </trkpt>
      <trkpt lat="45.82393" lon="4.74331">
        <ele>345.85311</ele>
        <time>2023-05-01T12:11:48.000Z</time>
      </trkpt>
      <trkpt lat="45.82398" lon="4.74321">
        <ele>345.59972</ele>
        <time>2023-05-01T12:11:49.000Z</time>
      </trkpt>
      <trkpt lat="45.82402" lon="4.74311">
        <ele>345.42407</ele>
        <time>2023-05-01T12:11:50.000Z</time>
      </trkpt>
      <trkpt lat="45.82405" lon="4.743">
        <ele>345.16657</ele>
        <time>2023-05-01T12:11:51.000Z</time>
      </trkpt>
      <trkpt lat="45.82408" lon="4.7429">
        <ele>345.0235</ele>
        <time>2023-05-01T12:11:52.000Z</time>
      </trkpt>
      <trkpt lat="45.8241" lon="4.74279">
        <ele>344.82025</ele>
        <time>2023-05-01T12:11:53.000Z</time>
      </trkpt>
      <trkpt lat="45.8241" lon="4.74268">
        <ele>344.73049</ele>
        <time>2023-05-01T12:11:54.000Z</time>
      </trkpt>
      <trkpt lat="45.82411" lon="4.74256">
        <ele>344.6894</ele>
        <time>2023-05-01T12:11:55.000Z</time>
      </trkpt>
      <trkpt lat="45.82411" lon="4.74245">
        <ele>344.77033</ele>
        <time>2023-05-01T12:11:56.000Z</time>
      </trkpt>
      <trkpt lat="45.82411" lon="4.74233">
        <ele>345.00667</ele>
        <time>2023-05-01T12:11:57.000Z</time>
      </trkpt>
      <trkpt lat="45.82411" lon="4.74223">
        <ele>345.30488</ele>
        <time>2023-05-01T12:11:58.000Z</time>
      </trkpt>
      <trkpt lat="45.82412" lon="4.74212">
        <ele>345.30712</ele>
        <time>2023-05-01T12:11:59.000Z</time>
      </trkpt>
      <trkpt lat="45.82414" lon="4.74202">
        <ele>345.05108</ele>
        <time>2023-05-01T12:12:00.000Z</time>
      </trkpt>
      <trkpt lat="45.82416" lon="4.74192">
        <ele>344.66532</ele>
        <time>2023-05-01T12:12:01.000Z</time>
      </trkpt>
      <trkpt lat="45.82418" lon="4.74183">
        <ele>344.26357</ele>
        <time>2023-05-01T12:12:02.000Z</time>
      </trkpt>
      <trkpt lat="45.8242" lon="4.74173">
        <ele>343.80708</ele>
        <time>2023-05-01T12:12:03.000Z</time>
      </trkpt>
      <trkpt lat="45.82423" lon="4.74164">
        <ele>343.32299</ele>
        <time>2023-05-01T12:12:04.000Z</time>
      </trkpt>
      <trkpt lat="45.82426" lon="4.74155">
        <ele>342.93905</ele>
        <time>2023-05-01T12:12:05.000Z</time>
      </trkpt>
      <trkpt lat="45.8243" lon="4.74147">
        <ele>342.75614</ele>
        <time>2023-05-01T12:12:06.000Z</time>
      </trkpt>
      <trkpt lat="45.82433" lon="4.74139">
        <ele>342.60223</ele>
        <time>2023-05-01T12:12:07.000Z</time>
      </trkpt>
      <trkpt lat="45.82435" lon="4.7413">
        <ele>342.40232</ele>
        <time>2023-05-01T12:12:08.000Z</time>
      </trkpt>
      <trkpt lat="45.82438" lon="4.74123">
        <ele>342.2543</ele>
        <time>2023-05-01T12:12:09.000Z</time>
      </trkpt>
      <trkpt lat="45.82441" lon="4.74115">
        <ele>342.11251</ele>
        <time>2023-05-01T12:12:10.000Z</time>
      </trkpt>
      <trkpt lat="45.82444" lon="4.74107">
        <ele>341.98667</ele>
        <time>2023-05-01T12:12:11.000Z</time>
      </trkpt>
      <trkpt lat="45.82447" lon="4.74099">
        <ele>341.82824</ele>
        <time>2023-05-01T12:12:12.000Z</time>
      </trkpt>
      <trkpt lat="45.8245" lon="4.74093">
        <ele>341.69099</ele>
        <time>2023-05-01T12:12:13.000Z</time>
      </trkpt>
      <trkpt lat="45.82453" lon="4.74086">
        <ele>341.4979</ele>
        <time>2023-05-01T12:12:14.000Z</time>
      </trkpt>
      <trkpt lat="45.82456" lon="4.74079">
        <ele>341.36243</ele>
        <time>2023-05-01T12:12:15.000Z</time>
      </trkpt>
      <trkpt lat="45.82458" lon="4.74072">
        <ele>341.2288</ele>
        <time>2023-05-01T12:12:16.000Z</time>
      </trkpt>
      <trkpt lat="45.82461" lon="4.74065">
        <ele>341.16561</ele>
        <time>2023-05-01T12:12:17.000Z</time>
      </trkpt>
      <trkpt lat="45.82464" lon="4.74058">
        <ele>341.09317</ele>
        <time>2023-05-01T12:12:18.000Z</time>
      </trkpt>
      <trkpt lat="45.82467" lon="4.74052">
        <ele>341.03776</ele>
        <time>2023-05-01T12:12:19.000Z</time>
      </trkpt>
      <trkpt lat="45.82469" lon="4.74045">
        <ele>340.95043</ele>
        <time>2023-05-01T12:12:20.000Z</time>
      </trkpt>
      <trkpt lat="45.82472" lon="4.74038">
        <ele>340.86385</ele>
        <time>2023-05-01T12:12:21.000Z</time>
      </trkpt>
      <trkpt lat="45.82474" lon="4.74031">
        <ele>340.71733</ele>
        <time>2023-05-01T12:12:22.000Z</time>
      </trkpt>
      <trkpt lat="45.82477" lon="4.74023">
        <ele>340.51763</ele>
        <time>2023-05-01T12:12:23.000Z</time>
      </trkpt>
      <trkpt lat="45.82479" lon="4.74015">
        <ele>340.29392</ele>
        <time>2023-05-01T12:12:24.000Z</time>
      </trkpt>
      <trkpt lat="45.82482" lon="4.74008">
        <ele>340.11302</ele>
        <time>2023-05-01T12:12:25.000Z</time>
      </trkpt>
      <trkpt lat="45.82485" lon="4.74001">
        <ele>339.94969</ele>
        <time>2023-05-01T12:12:26.000Z</time>
      </trkpt>
      <trkpt lat="45.82488" lon="4.73993">
        <ele>339.83334</ele>
        <time>2023-05-01T12:12:27.000Z</time>
      </trkpt>
      <trkpt lat="45.82491" lon="4.73986">
        <ele>339.73661</ele>
        <time>2023-05-01T12:12:28.000Z</time>
      </trkpt>
      <trkpt lat="45.82494" lon="4.73979">
        <ele>339.72918</ele>
        <time>2023-05-01T12:12:29.000Z</time>
      </trkpt>
      <trkpt lat="45.82496" lon="4.73973">
        <ele>339.80493</ele>
        <time>2023-05-01T12:12:30.000Z</time>
      </trkpt>
      <trkpt lat="45.82499" lon="4.73966">
        <ele>339.84246</ele>
        <time>2023-05-01T12:12:31.000Z</time>
      </trkpt>
      <trkpt lat="45.82501" lon="4.7396">
        <ele>339.85426</ele>
        <time>2023-05-01T12:12:32.000Z</time>
      </trkpt>
      <trkpt lat="45.82503" lon="4.73955">
        <ele>339.82897</ele>
        <time>2023-05-01T12:12:33.000Z</time>
      </trkpt>
      <trkpt lat="45.82505" lon="4.73949">
        <ele>339.73158</ele>
        <time>2023-05-01T12:12:34.000Z</time>
      </trkpt>
      <trkpt lat="45.82505" lon="4.73943">
        <ele>339.57576</ele>
        <time>2023-05-01T12:12:35.000Z</time>
      </trkpt>
      <trkpt lat="45.82504" lon="4.73937">
        <ele>339.39915</ele>
        <time>2023-05-01T12:12:36.000Z</time>
      </trkpt>
      <trkpt lat="45.82503" lon="4.73932">
        <ele>339.18626</ele>
        <time>2023-05-01T12:12:37.000Z</time>
      </trkpt>
      <trkpt lat="45.825" lon="4.73926">
        <ele>338.87873</ele>
        <time>2023-05-01T12:12:38.000Z</time>
      </trkpt>
      <trkpt lat="45.82499" lon="4.7392">
        <ele>338.6009</ele>
        <time>2023-05-01T12:12:39.000Z</time>
      </trkpt>
      <trkpt lat="45.82498" lon="4.73913">
        <ele>338.36002</ele>
        <time>2023-05-01T12:12:40.000Z</time>
      </trkpt>
      <trkpt lat="45.825" lon="4.73907">
        <ele>338.34374</ele>
        <time>2023-05-01T12:12:41.000Z</time>
      </trkpt>
      <trkpt lat="45.82503" lon="4.73902">
        <ele>338.4244</ele>
        <time>2023-05-01T12:12:42.000Z</time>
      </trkpt>
      <trkpt lat="45.82506" lon="4.73896">
        <ele>338.51918</ele>
        <time>2023-05-01T12:12:43.000Z</time>
      </trkpt>
      <trkpt lat="45.82509" lon="4.73891">
        <ele>338.63738</ele>
        <time>2023-05-01T12:12:44.000Z</time>
      </trkpt>
      <trkpt lat="45.82513" lon="4.73887">
        <ele>338.71411</ele>
        <time>2023-05-01T12:12:45.000Z</time>
      </trkpt>
      <trkpt lat="45.82516" lon="4.73882">
        <ele>338.74302</ele>
        <time>2023-05-01T12:12:46.000Z</time>
      </trkpt>
      <trkpt lat="45.82519" lon="4.73878">
        <ele>338.73417</ele>
        <time>2023-05-01T12:12:47.000Z</time>
      </trkpt>
      <trkpt lat="45.82522" lon="4.73872">
        <ele>338.70499</ele>
        <time>2023-05-01T12:12:48.000Z</time>
      </trkpt>
      <trkpt lat="45.82525" lon="4.73866">
        <ele>338.6541</ele>
        <time>2023-05-01T12:12:49.000Z</time>
      </trkpt>
      <trkpt lat="45.82527" lon="4.7386">
        <ele>338.55065</ele>
        <time>2023-05-01T12:12:50.000Z</time>
      </trkpt>
      <trkpt lat="45.8253" lon="4.73853">
        <ele>338.30499</ele>
        <time>2023-05-01T12:12:51.000Z</time>
      </trkpt>
      <trkpt lat="45.82532" lon="4.73845">
        <ele>337.92863</ele>
        <time>2023-05-01T12:12:52.000Z</time>
      </trkpt>
      <trkpt lat="45.82532" lon="4.73838">
        <ele>337.58838</ele>
        <time>2023-05-01T12:12:53.000Z</time>
      </trkpt>
      <trkpt lat="45.82532" lon="4.7383">
        <ele>337.37403</ele>
        <time>2023-05-01T12:12:54.000Z</time>
      </trkpt>
      <trkpt lat="45.82532" lon="4.73822">
        <ele>337.26106</ele>
        <time>2023-05-01T12:12:55.000Z</time>
      </trkpt>
      <trkpt lat="45.8253" lon="4.73815">
        <ele>337.37547</ele>
        <time>2023-05-01T12:12:56.000Z</time>
      </trkpt>
      <trkpt lat="45.82528" lon="4.73807">
        <ele>337.62837</ele>
        <time>2023-05-01T12:12:57.000Z</time>
      </trkpt>
      <trkpt lat="45.82527" lon="4.738">
        <ele>337.94375</ele>
        <time>2023-05-01T12:12:58.000Z</time>
      </trkpt>
      <trkpt lat="45.82524" lon="4.73793">
        <ele>338.20209</ele>
        <time>2023-05-01T12:12:59.000Z</time>
      </trkpt>
      <trkpt lat="45.82521" lon="4.73787">
        <ele>338.29041</ele>
        <time>2023-05-01T12:13:00.000Z</time>
      </trkpt>
      <trkpt lat="45.82519" lon="4.7378">
        <ele>338.34499</ele>
        <time>2023-05-01T12:13:01.000Z</time>
      </trkpt>
      <trkpt lat="45.82516" lon="4.73774">
        <ele>338.53058</ele>
        <time>2023-05-01T12:13:02.000Z</time>
      </trkpt>
      <trkpt lat="45.82513" lon="4.73768">
        <ele>338.91121</ele>
        <time>2023-05-01T12:13:03.000Z</time>
      </trkpt>
      <trkpt lat="45.82511" lon="4.73761">
        <ele>339.38364</ele>
        <time>2023-05-01T12:13:04.000Z</time>
      </trkpt>
      <trkpt lat="45.82508" lon="4.73755">
        <ele>339.7629</ele>
        <time>2023-05-01T12:13:05.000Z</time>
      </trkpt>
      <trkpt lat="45.82505" lon="4.73749">
        <ele>339.87909</ele>
        <time>2023-05-01T12:13:06.000Z</time>
      </trkpt>
      <trkpt lat="45.82502" lon="4.73743">
        <ele>339.8932</ele>
        <time>2023-05-01T12:13:07.000Z</time>
      </trkpt>
      <trkpt lat="45.82499" lon="4.73738">
        <ele>339.94277</ele>
        <time>2023-05-01T12:13:08.000Z</time>
      </trkpt>
      <trkpt lat="45.82496" lon="4.73732">
        <ele>340.16525</ele>
        <time>2023-05-01T12:13:09.000Z</time>
      </trkpt>
      <trkpt lat="45.82493" lon="4.73726">
        <ele>340.53172</ele>
        <time>2023-05-01T12:13:10.000Z</time>
      </trkpt>
      <trkpt lat="45.8249" lon="4.73721">
        <ele>340.72937</ele>
        <time>2023-05-01T12:13:11.000Z</time>
      </trkpt>
      <trkpt lat="45.82487" lon="4.73715">
        <ele>340.67987</ele>
        <time>2023-05-01T12:13:12.000Z</time>
      </trkpt>
      <trkpt lat="45.82484" lon="4.73709">
        <ele>340.42995</ele>
        <time>2023-05-01T12:13:13.000Z</time>
      </trkpt>
      <trkpt lat="45.82481" lon="4.73704">
        <ele>340.15449</ele>
        <time>2023-05-01T12:13:14.000Z</time>
      </trkpt>
      <trkpt lat="45.82478" lon="4.73698">
        <ele>340.20851</ele>
        <time>2023-05-01T12:13:15.000Z</time>
      </trkpt>
      <trkpt lat="45.82474" lon="4.73693">
        <ele>340.58191</ele>
        <time>2023-05-01T12:13:16.000Z</time>
      </trkpt>
      <trkpt lat="45.82471" lon="4.73687">
        <ele>340.9964</ele>
        <time>2023-05-01T12:13:17.000Z</time>
      </trkpt>
      <trkpt lat="45.82468" lon="4.73682">
        <ele>341.20154</ele>
        <time>2023-05-01T12:13:18.000Z</time>
      </trkpt>
      <trkpt lat="45.82465" lon="4.73676">
        <ele>341.14643</ele>
        <time>2023-05-01T12:13:19.000Z</time>
      </trkpt>
      <trkpt lat="45.82461" lon="4.73671">
        <ele>340.96852</ele>
        <time>2023-05-01T12:13:20.000Z</time>
      </trkpt>
      <trkpt lat="45.82459" lon="4.73664">
        <ele>341.13907</ele>
        <time>2023-05-01T12:13:21.000Z</time>
      </trkpt>
      <trkpt lat="45.82456" lon="4.73657">
        <ele>341.6964</ele>
        <time>2023-05-01T12:13:22.000Z</time>
      </trkpt>
      <trkpt lat="45.82452" lon="4.73652">
        <ele>342.24782</ele>
        <time>2023-05-01T12:13:23.000Z</time>
      </trkpt>
      <trkpt lat="45.8245" lon="4.73646">
        <ele>342.70716</ele>
        <time>2023-05-01T12:13:24.000Z</time>
      </trkpt>
      <trkpt lat="45.82446" lon="4.7364">
        <ele>342.86551</ele>
        <time>2023-05-01T12:13:25.000Z</time>
      </trkpt>
      <trkpt lat="45.82443" lon="4.73635">
        <ele>342.85294</ele>
        <time>2023-05-01T12:13:26.000Z</time>
      </trkpt>
      <trkpt lat="45.82441" lon="4.73629">
        <ele>342.9339</ele>
        <time>2023-05-01T12:13:27.000Z</time>
      </trkpt>
      <trkpt lat="45.82438" lon="4.73623">
        <ele>343.21069</ele>
        <time>2023-05-01T12:13:28.000Z</time>
      </trkpt>
      <trkpt lat="45.82436" lon="4.73618">
        <ele>343.55443</ele>
        <time>2023-05-01T12:13:29.000Z</time>
      </trkpt>
      <trkpt lat="45.82433" lon="4.73612">
        <ele>343.94214</ele>
        <time>2023-05-01T12:13:30.000Z</time>
      </trkpt>
      <trkpt lat="45.82431" lon="4.73607">
        <ele>344.20156</ele>
        <time>2023-05-01T12:13:31.000Z</time>
      </trkpt>
      <trkpt lat="45.82428" lon="4.73602">
        <ele>344.24807</ele>
        <time>2023-05-01T12:13:32.000Z</time>
      </trkpt>
      <trkpt lat="45.82426" lon="4.73596">
        <ele>344.12969</ele>
        <time>2023-05-01T12:13:33.000Z</time>
      </trkpt>
      <trkpt lat="45.82423" lon="4.73591">
        <ele>343.89941</ele>
        <time>2023-05-01T12:13:34.000Z</time>
      </trkpt>
      <trkpt lat="45.82421" lon="4.73586">
        <ele>343.74054</ele>
        <time>2023-05-01T12:13:35.000Z</time>
      </trkpt>
      <trkpt lat="45.82418" lon="4.73581">
        <ele>343.65279</ele>
        <time>2023-05-01T12:13:36.000Z</time>
      </trkpt>
      <trkpt lat="45.82416" lon="4.73576">
        <ele>343.6669</ele>
        <time>2023-05-01T12:13:37.000Z</time>
      </trkpt>
      <trkpt lat="45.82414" lon="4.7357">
        <ele>343.77016</ele>
        <time>2023-05-01T12:13:38.000Z</time>
      </trkpt>
      <trkpt lat="45.82412" lon="4.73564">
        <ele>343.94328</ele>
        <time>2023-05-01T12:13:39.000Z</time>
      </trkpt>
      <trkpt lat="45.82409" lon="4.73559">
        <ele>344.14292</ele>
        <time>2023-05-01T12:13:40.000Z</time>
      </trkpt>
      <trkpt lat="45.82406" lon="4.73554">
        <ele>344.30117</ele>
        <time>2023-05-01T12:13:41.000Z</time>
      </trkpt>
      <trkpt lat="45.82404" lon="4.73548">
        <ele>344.47791</ele>
        <time>2023-05-01T12:13:42.000Z</time>
      </trkpt>
      <trkpt lat="45.82402" lon="4.73543">
        <ele>344.62546</ele>
        <time>2023-05-01T12:13:43.000Z</time>
      </trkpt>
      <trkpt lat="45.82399" lon="4.73538">
        <ele>344.76731</ele>
        <time>2023-05-01T12:13:44.000Z</time>
      </trkpt>
      <trkpt lat="45.82397" lon="4.73532">
        <ele>344.91906</ele>
        <time>2023-05-01T12:13:45.000Z</time>
      </trkpt>
      <trkpt lat="45.82395" lon="4.73526">
        <ele>345.13481</ele>
        <time>2023-05-01T12:13:46.000Z</time>
      </trkpt>
      <trkpt lat="45.82393" lon="4.73521">
        <ele>345.29907</ele>
        <time>2023-05-01T12:13:47.000Z</time>
      </trkpt>
      <trkpt lat="45.8239" lon="4.73515">
        <ele>345.36905</ele>
        <time>2023-05-01T12:13:48.000Z</time>
      </trkpt>
      <trkpt lat="45.82388" lon="4.73509">
        <ele>345.39815</ele>
        <time>2023-05-01T12:13:49.000Z</time>
      </trkpt>
      <trkpt lat="45.82385" lon="4.73504">
        <ele>345.30328</ele>
        <time>2023-05-01T12:13:50.000Z</time>
      </trkpt>
      <trkpt lat="45.82383" lon="4.73499">
        <ele>345.15435</ele>
        <time>2023-05-01T12:13:51.000Z</time>
      </trkpt>
      <trkpt lat="45.8238" lon="4.73493">
        <ele>345.06319</ele>
        <time>2023-05-01T12:13:52.000Z</time>
      </trkpt>
      <trkpt lat="45.82378" lon="4.73487">
        <ele>345.10242</ele>
        <time>2023-05-01T12:13:53.000Z</time>
      </trkpt>
      <trkpt lat="45.82375" lon="4.73482">
        <ele>345.23984</ele>
        <time>2023-05-01T12:13:54.000Z</time>
      </trkpt>
      <trkpt lat="45.82373" lon="4.73476">
        <ele>345.40297</ele>
        <time>2023-05-01T12:13:55.000Z</time>
      </trkpt>
      <trkpt lat="45.8237" lon="4.73471">
        <ele>345.47471</ele>
        <time>2023-05-01T12:13:56.000Z</time>
      </trkpt>
      <trkpt lat="45.82367" lon="4.73466">
        <ele>345.43793</ele>
        <time>2023-05-01T12:13:57.000Z</time>
      </trkpt>
      <trkpt lat="45.82365" lon="4.7346">
        <ele>345.38582</ele>
        <time>2023-05-01T12:13:58.000Z</time>
      </trkpt>
      <trkpt lat="45.82362" lon="4.73454">
        <ele>345.44022</ele>
        <time>2023-05-01T12:13:59.000Z</time>
      </trkpt>
      <trkpt lat="45.82359" lon="4.73449">
        <ele>345.66475</ele>
        <time>2023-05-01T12:14:00.000Z</time>
      </trkpt>
      <trkpt lat="45.82356" lon="4.73444">
        <ele>346.00043</ele>
        <time>2023-05-01T12:14:01.000Z</time>
      </trkpt>
      <trkpt lat="45.82353" lon="4.73438">
        <ele>346.33224</ele>
        <time>2023-05-01T12:14:02.000Z</time>
      </trkpt>
      <trkpt lat="45.8235" lon="4.73433">
        <ele>346.47198</ele>
        <time>2023-05-01T12:14:03.000Z</time>
      </trkpt>
      <trkpt lat="45.82347" lon="4.73428">
        <ele>346.4118</ele>
        <time>2023-05-01T12:14:04.000Z</time>
      </trkpt>
      <trkpt lat="45.82345" lon="4.73423">
        <ele>346.27223</ele>
        <time>2023-05-01T12:14:05.000Z</time>
      </trkpt>
      <trkpt lat="45.82342" lon="4.73418">
        <ele>346.17307</ele>
        <time>2023-05-01T12:14:06.000Z</time>
      </trkpt>
      <trkpt lat="45.82339" lon="4.73412">
        <ele>346.17994</ele>
        <time>2023-05-01T12:14:07.000Z</time>
      </trkpt>
      <trkpt lat="45.82336" lon="4.73407">
        <ele>346.33174</ele>
        <time>2023-05-01T12:14:08.000Z</time>
      </trkpt>
      <trkpt lat="45.82333" lon="4.73402">
        <ele>346.60045</ele>
        <time>2023-05-01T12:14:09.000Z</time>
      </trkpt>
      <trkpt lat="45.8233" lon="4.73396">
        <ele>346.92604</ele>
        <time>2023-05-01T12:14:10.000Z</time>
      </trkpt>
      <trkpt lat="45.82328" lon="4.7339">
        <ele>347.21577</ele>
        <time>2023-05-01T12:14:11.000Z</time>
      </trkpt>
      <trkpt lat="45.82326" lon="4.73385">
        <ele>347.40458</ele>
        <time>2023-05-01T12:14:12.000Z</time>
      </trkpt>
      <trkpt lat="45.82323" lon="4.7338">
        <ele>347.46042</ele>
        <time>2023-05-01T12:14:13.000Z</time>
      </trkpt>
      <trkpt lat="45.8232" lon="4.73375">
        <ele>347.39695</ele>
        <time>2023-05-01T12:14:14.000Z</time>
      </trkpt>
      <trkpt lat="45.82318" lon="4.73369">
        <ele>347.2528</ele>
        <time>2023-05-01T12:14:15.000Z</time>
      </trkpt>
      <trkpt lat="45.82315" lon="4.73364">
        <ele>347.17682</ele>
        <time>2023-05-01T12:14:16.000Z</time>
      </trkpt>
      <trkpt lat="45.82313" lon="4.73359">
        <ele>347.23916</ele>
        <time>2023-05-01T12:14:17.000Z</time>
      </trkpt>
      <trkpt lat="45.82311" lon="4.73354">
        <ele>347.43407</ele>
        <time>2023-05-01T12:14:18.000Z</time>
      </trkpt>
      <trkpt lat="45.8231" lon="4.73348">
        <ele>347.70878</ele>
        <time>2023-05-01T12:14:19.000Z</time>
      </trkpt>
      <trkpt lat="45.82308" lon="4.73342">
        <ele>347.94953</ele>
        <time>2023-05-01T12:14:20.000Z</time>
      </trkpt>
      <trkpt lat="45.82307" lon="4.73338">
        <ele>348.03135</ele>
        <time>2023-05-01T12:14:21.000Z</time>
      </trkpt>
      <trkpt lat="45.82306" lon="4.73334">
        <ele>348.00617</ele>
        <time>2023-05-01T12:14:22.000Z</time>
      </trkpt>
      <trkpt lat="45.82306" lon="4.73331">
        <ele>347.9571</ele>
        <time>2023-05-01T12:14:23.000Z</time>
      </trkpt>
      <trkpt lat="45.82304" lon="4.73327">
        <ele>347.89269</ele>
        <time>2023-05-01T12:14:24.000Z</time>
      </trkpt>
      <trkpt lat="45.82303" lon="4.73324">
        <ele>347.76973</ele>
        <time>2023-05-01T12:14:25.000Z</time>
      </trkpt>
      <trkpt lat="45.82302" lon="4.7332">
        <ele>347.59686</ele>
        <time>2023-05-01T12:14:26.000Z</time>
      </trkpt>
      <trkpt lat="45.82301" lon="4.73315">
        <ele>347.37572</ele>
        <time>2023-05-01T12:14:27.000Z</time>
      </trkpt>
      <trkpt lat="45.823" lon="4.73311">
        <ele>347.12863</ele>
        <time>2023-05-01T12:14:28.000Z</time>
      </trkpt>
      <trkpt lat="45.82298" lon="4.73306">
        <ele>346.85717</ele>
        <time>2023-05-01T12:14:29.000Z</time>
      </trkpt>
      <trkpt lat="45.82297" lon="4.73301">
        <ele>346.52342</ele>
        <time>2023-05-01T12:14:30.000Z</time>
      </trkpt>
      <trkpt lat="45.82296" lon="4.73296">
        <ele>346.22383</ele>
        <time>2023-05-01T12:14:31.000Z</time>
      </trkpt>
      <trkpt lat="45.82295" lon="4.73291">
        <ele>345.99744</ele>
        <time>2023-05-01T12:14:32.000Z</time>
      </trkpt>
      <trkpt lat="45.82294" lon="4.73288">
        <ele>345.97018</ele>
        <time>2023-05-01T12:14:33.000Z</time>
      </trkpt>
      <trkpt lat="45.82292" lon="4.73284">
        <ele>346.09583</ele>
        <time>2023-05-01T12:14:34.000Z</time>
      </trkpt>
      <trkpt lat="45.82292" lon="4.73284">
        <ele>346.09583</ele>
        <time>2023-05-01T12:14:34.000Z</time>
      </trkpt>
      <trkpt lat="45.82291" lon="4.73281">
        <ele>346.23963</ele>
        <time>2023-05-01T12:14:35.000Z</time>
      </trkpt>
      <trkpt lat="45.82289" lon="4.73278">
        <ele>346.46624</ele>
        <time>2023-05-01T12:14:36.000Z</time>
      </trkpt>
      <trkpt lat="45.82287" lon="4.73276">
        <ele>346.81049</ele>
        <time>2023-05-01T12:14:37.000Z</time>
      </trkpt>
      <trkpt lat="45.82284" lon="4.73276">
        <ele>347.13903</ele>
        <time>2023-05-01T12:14:38.000Z</time>
      </trkpt>
      <trkpt lat="45.82281" lon="4.73277">
        <ele>347.27377</ele>
        <time>2023-05-01T12:14:39.000Z</time>
      </trkpt>
      <trkpt lat="45.82277" lon="4.73279">
        <ele>347.24871</ele>
        <time>2023-05-01T12:14:40.000Z</time>
      </trkpt>
      <trkpt lat="45.82274" lon="4.73282">
        <ele>347.03833</ele>
        <time>2023-05-01T12:14:41.000Z</time>
      </trkpt>
      <trkpt lat="45.8227" lon="4.73284">
        <ele>346.68413</ele>
        <time>2023-05-01T12:14:42.000Z</time>
      </trkpt>
      <trkpt lat="45.82265" lon="4.73287">
        <ele>346.22007</ele>
        <time>2023-05-01T12:14:43.000Z</time>
      </trkpt>
      <trkpt lat="45.82261" lon="4.73288">
        <ele>345.87701</ele>
        <time>2023-05-01T12:14:44.000Z</time>
      </trkpt>
      <trkpt lat="45.82257" lon="4.7329">
        <ele>345.63109</ele>
        <time>2023-05-01T12:14:45.000Z</time>
      </trkpt>
      <trkpt lat="45.82253" lon="4.73292">
        <ele>345.41974</ele>
        <time>2023-05-01T12:14:46.000Z</time>
      </trkpt>
      <trkpt lat="45.82249" lon="4.73294">
        <ele>345.18334</ele>
        <time>2023-05-01T12:14:47.000Z</time>
      </trkpt>
      <trkpt lat="45.82244" lon="4.73296">
        <ele>344.92203</ele>
        <time>2023-05-01T12:14:48.000Z</time>
      </trkpt>
      <trkpt lat="45.8224" lon="4.73298">
        <ele>344.65113</ele>
        <time>2023-05-01T12:14:49.000Z</time>
      </trkpt>
      <trkpt lat="45.82236" lon="4.733">
        <ele>344.34615</ele>
        <time>2023-05-01T12:14:50.000Z</time>
      </trkpt>
      <trkpt lat="45.82232" lon="4.73302">
        <ele>343.97114</ele>
        <time>2023-05-01T12:14:51.000Z</time>
      </trkpt>
      <trkpt lat="45.82227" lon="4.73303">
        <ele>343.6025</ele>
        <time>2023-05-01T12:14:52.000Z</time>
      </trkpt>
      <trkpt lat="45.82223" lon="4.73305">
        <ele>343.20813</ele>
        <time>2023-05-01T12:14:53.000Z</time>
      </trkpt>
      <trkpt lat="45.82218" lon="4.73307">
        <ele>342.83802</ele>
        <time>2023-05-01T12:14:54.000Z</time>
      </trkpt>
      <trkpt lat="45.82214" lon="4.73309">
        <ele>342.50358</ele>
        <time>2023-05-01T12:14:55.000Z</time>
      </trkpt>
      <trkpt lat="45.82209" lon="4.73311">
        <ele>342.22858</ele>
        <time>2023-05-01T12:14:56.000Z</time>
      </trkpt>
      <trkpt lat="45.82205" lon="4.73313">
        <ele>341.96924</ele>
        <time>2023-05-01T12:14:57.000Z</time>
      </trkpt>
      <trkpt lat="45.822" lon="4.73316">
        <ele>341.72364</ele>
        <time>2023-05-01T12:14:58.000Z</time>
      </trkpt>
      <trkpt lat="45.82196" lon="4.73318">
        <ele>341.46185</ele>
        <time>2023-05-01T12:14:59.000Z</time>
      </trkpt>
      <trkpt lat="45.82192" lon="4.73319">
        <ele>341.16796</ele>
        <time>2023-05-01T12:15:00.000Z</time>
      </trkpt>
      <trkpt lat="45.82187" lon="4.73321">
        <ele>340.86607</ele>
        <time>2023-05-01T12:15:01.000Z</time>
      </trkpt>
      <trkpt lat="45.82184" lon="4.73322">
        <ele>340.61984</ele>
        <time>2023-05-01T12:15:02.000Z</time>
      </trkpt>
      <trkpt lat="45.8218" lon="4.73321">
        <ele>340.41231</ele>
        <time>2023-05-01T12:15:03.000Z</time>
      </trkpt>
      <trkpt lat="45.82177" lon="4.7332">
        <ele>340.26536</ele>
        <time>2023-05-01T12:15:04.000Z</time>
      </trkpt>
      <trkpt lat="45.82174" lon="4.73316">
        <ele>340.18998</ele>
        <time>2023-05-01T12:15:05.000Z</time>
      </trkpt>
      <trkpt lat="45.82172" lon="4.73312">
        <ele>340.16293</ele>
        <time>2023-05-01T12:15:06.000Z</time>
      </trkpt>
      <trkpt lat="45.8217" lon="4.73308">
        <ele>340.1709</ele>
        <time>2023-05-01T12:15:07.000Z</time>
      </trkpt>
      <trkpt lat="45.82168" lon="4.73304">
        <ele>340.1765</ele>
        <time>2023-05-01T12:15:08.000Z</time>
      </trkpt>
      <trkpt lat="45.82166" lon="4.73299">
        <ele>340.17252</ele>
        <time>2023-05-01T12:15:09.000Z</time>
      </trkpt>
      <trkpt lat="45.82164" lon="4.73295">
        <ele>340.14351</ele>
        <time>2023-05-01T12:15:10.000Z</time>
      </trkpt>
      <trkpt lat="45.82162" lon="4.73292">
        <ele>340.03884</ele>
        <time>2023-05-01T12:15:11.000Z</time>
      </trkpt>
      <trkpt lat="45.82159" lon="4.73289">
        <ele>339.83019</ele>
        <time>2023-05-01T12:15:12.000Z</time>
      </trkpt>
      <trkpt lat="45.82155" lon="4.73287">
        <ele>339.54498</ele>
        <time>2023-05-01T12:15:13.000Z</time>
      </trkpt>
      <trkpt lat="45.82151" lon="4.73287">
        <ele>339.21459</ele>
        <time>2023-05-01T12:15:14.000Z</time>
      </trkpt>
      <trkpt lat="45.82148" lon="4.73287">
        <ele>338.89364</ele>
        <time>2023-05-01T12:15:15.000Z</time>
      </trkpt>
      <trkpt lat="45.82144" lon="4.73288">
        <ele>338.56102</ele>
        <time>2023-05-01T12:15:16.000Z</time>
      </trkpt>
      <trkpt lat="45.8214" lon="4.73289">
        <ele>338.26057</ele>
        <time>2023-05-01T12:15:17.000Z</time>
      </trkpt>
      <trkpt lat="45.82137" lon="4.7329">
        <ele>337.97019</ele>
        <time>2023-05-01T12:15:18.000Z</time>
      </trkpt>
      <trkpt lat="45.82133" lon="4.73291">
        <ele>337.67655</ele>
        <time>2023-05-01T12:15:19.000Z</time>
      </trkpt>
      <trkpt lat="45.82129" lon="4.73292">
        <ele>337.37493</ele>
        <time>2023-05-01T12:15:20.000Z</time>
      </trkpt>
      <trkpt lat="45.82125" lon="4.73293">
        <ele>337.06211</ele>
        <time>2023-05-01T12:15:21.000Z</time>
      </trkpt>
      <trkpt lat="45.8212" lon="4.73293">
        <ele>336.66245</ele>
        <time>2023-05-01T12:15:22.000Z</time>
      </trkpt>
      <trkpt lat="45.82115" lon="4.73294">
        <ele>336.308</ele>
        <time>2023-05-01T12:15:23.000Z</time>
      </trkpt>
      <trkpt lat="45.8211" lon="4.73296">
        <ele>335.97677</ele>
        <time>2023-05-01T12:15:24.000Z</time>
      </trkpt>
      <trkpt lat="45.82106" lon="4.73298">
        <ele>335.63966</ele>
        <time>2023-05-01T12:15:25.000Z</time>
      </trkpt>
      <trkpt lat="45.82101" lon="4.733">
        <ele>335.29839</ele>
        <time>2023-05-01T12:15:26.000Z</time>
      </trkpt>
      <trkpt lat="45.82085" lon="4.73309">
        <ele>334.27128</ele>
        <time>2023-05-01T12:15:27.000Z</time>
      </trkpt>
      <trkpt lat="45.82079" lon="4.73312">
        <ele>333.9328</ele>
        <time>2023-05-01T12:15:28.000Z</time>
      </trkpt>
      <trkpt lat="45.82074" lon="4.73315">
        <ele>333.60697</ele>
        <time>2023-05-01T12:15:29.000Z</time>
      </trkpt>
      <trkpt lat="45.82069" lon="4.73318">
        <ele>333.33595</ele>
        <time>2023-05-01T12:15:30.000Z</time>
      </trkpt>
      <trkpt lat="45.82063" lon="4.73321">
        <ele>333.08519</ele>
        <time>2023-05-01T12:15:31.000Z</time>
      </trkpt>
      <trkpt lat="45.82058" lon="4.73325">
        <ele>332.85042</ele>
        <time>2023-05-01T12:15:32.000Z</time>
      </trkpt>
      <trkpt lat="45.82054" lon="4.73329">
        <ele>332.62997</ele>
        <time>2023-05-01T12:15:33.000Z</time>
      </trkpt>
      <trkpt lat="45.82049" lon="4.73331">
        <ele>332.39997</ele>
        <time>2023-05-01T12:15:34.000Z</time>
      </trkpt>
      <trkpt lat="45.82045" lon="4.73334">
        <ele>332.15027</ele>
        <time>2023-05-01T12:15:35.000Z</time>
      </trkpt>
      <trkpt lat="45.8204" lon="4.73338">
        <ele>331.91054</ele>
        <time>2023-05-01T12:15:36.000Z</time>
      </trkpt>
      <trkpt lat="45.82035" lon="4.73341">
        <ele>331.61312</ele>
        <time>2023-05-01T12:15:37.000Z</time>
      </trkpt>
      <trkpt lat="45.8203" lon="4.73345">
        <ele>331.32117</ele>
        <time>2023-05-01T12:15:38.000Z</time>
      </trkpt>
      <trkpt lat="45.82027" lon="4.73348">
        <ele>331.08791</ele>
        <time>2023-05-01T12:15:39.000Z</time>
      </trkpt>
      <trkpt lat="45.82023" lon="4.73353">
        <ele>330.88864</ele>
        <time>2023-05-01T12:15:40.000Z</time>
      </trkpt>
      <trkpt lat="45.8202" lon="4.73357">
        <ele>330.67698</ele>
        <time>2023-05-01T12:15:41.000Z</time>
      </trkpt>
      <trkpt lat="45.82016" lon="4.73361">
        <ele>330.45556</ele>
        <time>2023-05-01T12:15:42.000Z</time>
      </trkpt>
      <trkpt lat="45.82011" lon="4.73364">
        <ele>330.22228</ele>
        <time>2023-05-01T12:15:43.000Z</time>
      </trkpt>
      <trkpt lat="45.82006" lon="4.73367">
        <ele>329.98869</ele>
        <time>2023-05-01T12:15:44.000Z</time>
      </trkpt>
      <trkpt lat="45.82001" lon="4.73372">
        <ele>329.73261</ele>
        <time>2023-05-01T12:15:45.000Z</time>
      </trkpt>
      <trkpt lat="45.81996" lon="4.73376">
        <ele>329.48763</ele>
        <time>2023-05-01T12:15:46.000Z</time>
      </trkpt>
      <trkpt lat="45.81991" lon="4.73379">
        <ele>329.28507</ele>
        <time>2023-05-01T12:15:47.000Z</time>
      </trkpt>
      <trkpt lat="45.81985" lon="4.73383">
        <ele>329.13248</ele>
        <time>2023-05-01T12:15:48.000Z</time>
      </trkpt>
      <trkpt lat="45.8198" lon="4.73386">
        <ele>329.00513</ele>
        <time>2023-05-01T12:15:49.000Z</time>
      </trkpt>
      <trkpt lat="45.81974" lon="4.7339">
        <ele>328.87522</ele>
        <time>2023-05-01T12:15:50.000Z</time>
      </trkpt>
      <trkpt lat="45.81969" lon="4.73394">
        <ele>328.74677</ele>
        <time>2023-05-01T12:15:51.000Z</time>
      </trkpt>
      <trkpt lat="45.81964" lon="4.73398">
        <ele>328.56674</ele>
        <time>2023-05-01T12:15:52.000Z</time>
      </trkpt>
      <trkpt lat="45.81959" lon="4.73402">
        <ele>328.37813</ele>
        <time>2023-05-01T12:15:53.000Z</time>
      </trkpt>
      <trkpt lat="45.81954" lon="4.73404">
        <ele>328.18852</ele>
        <time>2023-05-01T12:15:54.000Z</time>
      </trkpt>
      <trkpt lat="45.8195" lon="4.73407">
        <ele>328.01329</ele>
        <time>2023-05-01T12:15:55.000Z</time>
      </trkpt>
      <trkpt lat="45.81946" lon="4.7341">
        <ele>327.82857</ele>
        <time>2023-05-01T12:15:56.000Z</time>
      </trkpt>
      <trkpt lat="45.81943" lon="4.73414">
        <ele>327.67837</ele>
        <time>2023-05-01T12:15:57.000Z</time>
      </trkpt>
      <trkpt lat="45.81941" lon="4.73418">
        <ele>327.55536</ele>
        <time>2023-05-01T12:15:58.000Z</time>
      </trkpt>
      <trkpt lat="45.8194" lon="4.73422">
        <ele>327.44165</ele>
        <time>2023-05-01T12:15:59.000Z</time>
      </trkpt>
      <trkpt lat="45.81939" lon="4.73427">
        <ele>327.3319</ele>
        <time>2023-05-01T12:16:00.000Z</time>
      </trkpt>
      <trkpt lat="45.81939" lon="4.73432">
        <ele>327.22828</ele>
        <time>2023-05-01T12:16:01.000Z</time>
      </trkpt>
      <trkpt lat="45.81939" lon="4.73438">
        <ele>327.10374</ele>
        <time>2023-05-01T12:16:02.000Z</time>
      </trkpt>
      <trkpt lat="45.81938" lon="4.73443">
        <ele>326.9523</ele>
        <time>2023-05-01T12:16:03.000Z</time>
      </trkpt>
      <trkpt lat="45.81938" lon="4.73449">
        <ele>326.77206</ele>
        <time>2023-05-01T12:16:04.000Z</time>
      </trkpt>
      <trkpt lat="45.81937" lon="4.73455">
        <ele>326.58543</ele>
        <time>2023-05-01T12:16:05.000Z</time>
      </trkpt>
      <trkpt lat="45.81937" lon="4.7346">
        <ele>326.3806</ele>
        <time>2023-05-01T12:16:06.000Z</time>
      </trkpt>
      <trkpt lat="45.81936" lon="4.73465">
        <ele>326.14954</ele>
        <time>2023-05-01T12:16:07.000Z</time>
      </trkpt>
      <trkpt lat="45.81936" lon="4.7347">
        <ele>325.88529</ele>
        <time>2023-05-01T12:16:08.000Z</time>
      </trkpt>
      <trkpt lat="45.81935" lon="4.73476">
        <ele>325.5578</ele>
        <time>2023-05-01T12:16:09.000Z</time>
      </trkpt>
      <trkpt lat="45.81934" lon="4.73482">
        <ele>325.22089</ele>
        <time>2023-05-01T12:16:10.000Z</time>
      </trkpt>
      <trkpt lat="45.81933" lon="4.73488">
        <ele>324.908</ele>
        <time>2023-05-01T12:16:11.000Z</time>
      </trkpt>
      <trkpt lat="45.81932" lon="4.73493">
        <ele>324.65469</ele>
        <time>2023-05-01T12:16:12.000Z</time>
      </trkpt>
      <trkpt lat="45.8193" lon="4.73499">
        <ele>324.47559</ele>
        <time>2023-05-01T12:16:13.000Z</time>
      </trkpt>
      <trkpt lat="45.81928" lon="4.73505">
        <ele>324.37685</ele>
        <time>2023-05-01T12:16:14.000Z</time>
      </trkpt>
      <trkpt lat="45.81927" lon="4.7351">
        <ele>324.29243</ele>
        <time>2023-05-01T12:16:15.000Z</time>
      </trkpt>
      <trkpt lat="45.81926" lon="4.73515">
        <ele>324.15667</ele>
        <time>2023-05-01T12:16:16.000Z</time>
      </trkpt>
      <trkpt lat="45.81925" lon="4.73519">
        <ele>323.97971</ele>
        <time>2023-05-01T12:16:17.000Z</time>
      </trkpt>
      <trkpt lat="45.81925" lon="4.73522">
        <ele>323.79939</ele>
        <time>2023-05-01T12:16:18.000Z</time>
      </trkpt>
      <trkpt lat="45.81924" lon="4.73528">
        <ele>323.34833</ele>
        <time>2023-05-01T12:16:20.000Z</time>
      </trkpt>
      <trkpt lat="45.81925" lon="4.73532">
        <ele>322.89544</ele>
        <time>2023-05-01T12:16:22.000Z</time>
      </trkpt>
      <trkpt lat="45.81925" lon="4.73536">
        <ele>322.32625</ele>
        <time>2023-05-01T12:16:24.000Z</time>
      </trkpt>
      <trkpt lat="45.81925" lon="4.73541">
        <ele>321.7124</ele>
        <time>2023-05-01T12:16:26.000Z</time>
      </trkpt>
      <trkpt lat="45.81925" lon="4.73546">
        <ele>320.99869</ele>
        <time>2023-05-01T12:16:28.000Z</time>
      </trkpt>
      <trkpt lat="45.81925" lon="4.7355">
        <ele>320.55811</ele>
        <time>2023-05-01T12:16:29.000Z</time>
      </trkpt>
      <trkpt lat="45.81925" lon="4.73553">
        <ele>320.14869</ele>
        <time>2023-05-01T12:16:30.000Z</time>
      </trkpt>
      <trkpt lat="45.81924" lon="4.73555">
        <ele>319.78774</ele>
        <time>2023-05-01T12:16:31.000Z</time>
      </trkpt>
      <trkpt lat="45.81923" lon="4.73559">
        <ele>319.16852</ele>
        <time>2023-05-01T12:16:33.000Z</time>
      </trkpt>
      <trkpt lat="45.81921" lon="4.73564">
        <ele>318.25467</ele>
        <time>2023-05-01T12:16:35.000Z</time>
      </trkpt>
      <trkpt lat="45.81921" lon="4.73568">
        <ele>317.47464</ele>
        <time>2023-05-01T12:16:36.000Z</time>
      </trkpt>
      <trkpt lat="45.8192" lon="4.73572">
        <ele>316.65756</ele>
        <time>2023-05-01T12:16:37.000Z</time>
      </trkpt>
      <trkpt lat="45.8192" lon="4.73577">
        <ele>315.7377</ele>
        <time>2023-05-01T12:16:38.000Z</time>
      </trkpt>
      <trkpt lat="45.81919" lon="4.73583">
        <ele>314.88322</ele>
        <time>2023-05-01T12:16:39.000Z</time>
      </trkpt>
      <trkpt lat="45.81919" lon="4.73588">
        <ele>314.31758</ele>
        <time>2023-05-01T12:16:40.000Z</time>
      </trkpt>
      <trkpt lat="45.81918" lon="4.73594">
        <ele>313.98182</ele>
        <time>2023-05-01T12:16:41.000Z</time>
      </trkpt>
      <trkpt lat="45.81917" lon="4.73598">
        <ele>313.83227</ele>
        <time>2023-05-01T12:16:42.000Z</time>
      </trkpt>
      <trkpt lat="45.81917" lon="4.73603">
        <ele>313.83766</ele>
        <time>2023-05-01T12:16:43.000Z</time>
      </trkpt>
      <trkpt lat="45.81916" lon="4.73609">
        <ele>313.9833</ele>
        <time>2023-05-01T12:16:44.000Z</time>
      </trkpt>
      <trkpt lat="45.81915" lon="4.73616">
        <ele>314.30716</ele>
        <time>2023-05-01T12:16:45.000Z</time>
      </trkpt>
      <trkpt lat="45.81914" lon="4.73623">
        <ele>314.67429</ele>
        <time>2023-05-01T12:16:46.000Z</time>
      </trkpt>
      <trkpt lat="45.81912" lon="4.73629">
        <ele>315.13226</ele>
        <time>2023-05-01T12:16:47.000Z</time>
      </trkpt>
      <trkpt lat="45.8191" lon="4.73634">
        <ele>315.60079</ele>
        <time>2023-05-01T12:16:48.000Z</time>
      </trkpt>
      <trkpt lat="45.81909" lon="4.73639">
        <ele>316.09127</ele>
        <time>2023-05-01T12:16:49.000Z</time>
      </trkpt>
      <trkpt lat="45.81908" lon="4.73644">
        <ele>316.5137</ele>
        <time>2023-05-01T12:16:50.000Z</time>
      </trkpt>
      <trkpt lat="45.81907" lon="4.73647">
        <ele>316.79594</ele>
        <time>2023-05-01T12:16:51.000Z</time>
      </trkpt>
      <trkpt lat="45.81906" lon="4.73652">
        <ele>317.1439</ele>
        <time>2023-05-01T12:16:52.000Z</time>
      </trkpt>
      <trkpt lat="45.81908" lon="4.73657">
        <ele>317.6042</ele>
        <time>2023-05-01T12:16:54.000Z</time>
      </trkpt>
      <trkpt lat="45.81906" lon="4.73661">
        <ele>317.84275</ele>
        <time>2023-05-01T12:16:56.000Z</time>
      </trkpt>
      <trkpt lat="45.81905" lon="4.73663">
        <ele>317.8847</ele>
        <time>2023-05-01T12:16:57.000Z</time>
      </trkpt>
      <trkpt lat="45.81902" lon="4.73664">
        <ele>317.90259</ele>
        <time>2023-05-01T12:16:58.000Z</time>
      </trkpt>
      <trkpt lat="45.81901" lon="4.73666">
        <ele>317.9847</ele>
        <time>2023-05-01T12:16:59.000Z</time>
      </trkpt>
      <trkpt lat="45.81899" lon="4.73669">
        <ele>318.077</ele>
        <time>2023-05-01T12:17:00.000Z</time>
      </trkpt>
      <trkpt lat="45.81897" lon="4.73671">
        <ele>318.20825</ele>
        <time>2023-05-01T12:17:01.000Z</time>
      </trkpt>
      <trkpt lat="45.81895" lon="4.73675">
        <ele>318.36405</ele>
        <time>2023-05-01T12:17:02.000Z</time>
      </trkpt>
      <trkpt lat="45.81892" lon="4.73678">
        <ele>318.51979</ele>
        <time>2023-05-01T12:17:03.000Z</time>
      </trkpt>
      <trkpt lat="45.81887" lon="4.73682">
        <ele>318.77507</ele>
        <time>2023-05-01T12:17:04.000Z</time>
      </trkpt>
      <trkpt lat="45.81885" lon="4.73686">
        <ele>318.97086</ele>
        <time>2023-05-01T12:17:05.000Z</time>
      </trkpt>
      <trkpt lat="45.81882" lon="4.73689">
        <ele>319.18035</ele>
        <time>2023-05-01T12:17:06.000Z</time>
      </trkpt>
      <trkpt lat="45.81879" lon="4.73692">
        <ele>319.26387</ele>
        <time>2023-05-01T12:17:07.000Z</time>
      </trkpt>
      <trkpt lat="45.81877" lon="4.73697">
        <ele>319.56423</ele>
        <time>2023-05-01T12:17:08.000Z</time>
      </trkpt>
      <trkpt lat="45.81876" lon="4.73702">
        <ele>319.90917</ele>
        <time>2023-05-01T12:17:09.000Z</time>
      </trkpt>
      <trkpt lat="45.81875" lon="4.73707">
        <ele>320.20763</ele>
        <time>2023-05-01T12:17:10.000Z</time>
      </trkpt>
      <trkpt lat="45.81874" lon="4.7371">
        <ele>320.48375</ele>
        <time>2023-05-01T12:17:11.000Z</time>
      </trkpt>
      <trkpt lat="45.81874" lon="4.73713">
        <ele>320.73554</ele>
        <time>2023-05-01T12:17:12.000Z</time>
      </trkpt>
      <trkpt lat="45.81875" lon="4.73716">
        <ele>321.01534</ele>
        <time>2023-05-01T12:17:13.000Z</time>
      </trkpt>
      <trkpt lat="45.81875" lon="4.73719">
        <ele>321.31335</ele>
        <time>2023-05-01T12:17:14.000Z</time>
      </trkpt>
      <trkpt lat="45.81875" lon="4.73723">
        <ele>321.72736</ele>
        <time>2023-05-01T12:17:15.000Z</time>
      </trkpt>
      <trkpt lat="45.81876" lon="4.73726">
        <ele>322.1245</ele>
        <time>2023-05-01T12:17:16.000Z</time>
      </trkpt>
      <trkpt lat="45.81877" lon="4.7373">
        <ele>322.61512</ele>
        <time>2023-05-01T12:17:17.000Z</time>
      </trkpt>
      <trkpt lat="45.81878" lon="4.73734">
        <ele>323.09514</ele>
        <time>2023-05-01T12:17:18.000Z</time>
      </trkpt>
      <trkpt lat="45.81879" lon="4.73739">
        <ele>323.62004</ele>
        <time>2023-05-01T12:17:19.000Z</time>
      </trkpt>
      <trkpt lat="45.8188" lon="4.73743">
        <ele>324.04211</ele>
        <time>2023-05-01T12:17:20.000Z</time>
      </trkpt>
      <trkpt lat="45.81881" lon="4.73748">
        <ele>324.39327</ele>
        <time>2023-05-01T12:17:21.000Z</time>
      </trkpt>
      <trkpt lat="45.81882" lon="4.73753">
        <ele>324.68285</ele>
        <time>2023-05-01T12:17:22.000Z</time>
      </trkpt>
      <trkpt lat="45.81883" lon="4.73758">
        <ele>324.86313</ele>
        <time>2023-05-01T12:17:23.000Z</time>
      </trkpt>
      <trkpt lat="45.81884" lon="4.73763">
        <ele>324.99285</ele>
        <time>2023-05-01T12:17:24.000Z</time>
      </trkpt>
      <trkpt lat="45.81885" lon="4.73768">
        <ele>325.07731</ele>
        <time>2023-05-01T12:17:25.000Z</time>
      </trkpt>
      <trkpt lat="45.81886" lon="4.73774">
        <ele>325.14188</ele>
        <time>2023-05-01T12:17:26.000Z</time>
      </trkpt>
      <trkpt lat="45.81887" lon="4.7378">
        <ele>325.16315</ele>
        <time>2023-05-01T12:17:27.000Z</time>
      </trkpt>
      <trkpt lat="45.81888" lon="4.73785">
        <ele>325.1874</ele>
        <time>2023-05-01T12:17:28.000Z</time>
      </trkpt>
      <trkpt lat="45.81888" lon="4.73789">
        <ele>325.17963</ele>
        <time>2023-05-01T12:17:29.000Z</time>
      </trkpt>
      <trkpt lat="45.81888" lon="4.73793">
        <ele>325.12593</ele>
        <time>2023-05-01T12:17:30.000Z</time>
      </trkpt>
      <trkpt lat="45.81887" lon="4.73798">
        <ele>325.01262</ele>
        <time>2023-05-01T12:17:31.000Z</time>
      </trkpt>
      <trkpt lat="45.81885" lon="4.738">
        <ele>324.88884</ele>
        <time>2023-05-01T12:17:32.000Z</time>
      </trkpt>
      <trkpt lat="45.81881" lon="4.73802">
        <ele>324.75115</ele>
        <time>2023-05-01T12:17:33.000Z</time>
      </trkpt>
      <trkpt lat="45.81877" lon="4.73802">
        <ele>324.61853</ele>
        <time>2023-05-01T12:17:34.000Z</time>
      </trkpt>
      <trkpt lat="45.81874" lon="4.73803">
        <ele>324.49968</ele>
        <time>2023-05-01T12:17:35.000Z</time>
      </trkpt>
      <trkpt lat="45.8187" lon="4.73805">
        <ele>324.39075</ele>
        <time>2023-05-01T12:17:36.000Z</time>
      </trkpt>
      <trkpt lat="45.81867" lon="4.73806">
        <ele>324.30667</ele>
        <time>2023-05-01T12:17:37.000Z</time>
      </trkpt>
      <trkpt lat="45.81864" lon="4.73807">
        <ele>324.22721</ele>
        <time>2023-05-01T12:17:38.000Z</time>
      </trkpt>
      <trkpt lat="45.8186" lon="4.73809">
        <ele>324.16852</ele>
        <time>2023-05-01T12:17:39.000Z</time>
      </trkpt>
      <trkpt lat="45.81857" lon="4.7381">
        <ele>324.13153</ele>
        <time>2023-05-01T12:17:40.000Z</time>
      </trkpt>
      <trkpt lat="45.81854" lon="4.73812">
        <ele>324.09034</ele>
        <time>2023-05-01T12:17:41.000Z</time>
      </trkpt>
      <trkpt lat="45.8185" lon="4.73813">
        <ele>324.03153</ele>
        <time>2023-05-01T12:17:42.000Z</time>
      </trkpt>
      <trkpt lat="45.81846" lon="4.73815">
        <ele>323.94334</ele>
        <time>2023-05-01T12:17:43.000Z</time>
      </trkpt>
      <trkpt lat="45.81842" lon="4.73816">
        <ele>323.85472</ele>
        <time>2023-05-01T12:17:44.000Z</time>
      </trkpt>
      <trkpt lat="45.81839" lon="4.73817">
        <ele>323.75433</ele>
        <time>2023-05-01T12:17:45.000Z</time>
      </trkpt>
      <trkpt lat="45.81836" lon="4.73818">
        <ele>323.65152</ele>
        <time>2023-05-01T12:17:46.000Z</time>
      </trkpt>
      <trkpt lat="45.81833" lon="4.73819">
        <ele>323.53986</ele>
        <time>2023-05-01T12:17:47.000Z</time>
      </trkpt>
      <trkpt lat="45.8183" lon="4.7382">
        <ele>323.41991</ele>
        <time>2023-05-01T12:17:48.000Z</time>
      </trkpt>
      <trkpt lat="45.81827" lon="4.73822">
        <ele>323.31849</ele>
        <time>2023-05-01T12:17:49.000Z</time>
      </trkpt>
      <trkpt lat="45.81825" lon="4.73823">
        <ele>323.22314</ele>
        <time>2023-05-01T12:17:50.000Z</time>
      </trkpt>
      <trkpt lat="45.81822" lon="4.73824">
        <ele>323.1225</ele>
        <time>2023-05-01T12:17:52.000Z</time>
      </trkpt>
      <trkpt lat="45.8182" lon="4.73824">
        <ele>323.02157</ele>
        <time>2023-05-01T12:17:54.000Z</time>
      </trkpt>
      <trkpt lat="45.81818" lon="4.73825">
        <ele>322.91589</ele>
        <time>2023-05-01T12:17:56.000Z</time>
      </trkpt>
      <trkpt lat="45.81815" lon="4.73825">
        <ele>322.74406</ele>
        <time>2023-05-01T12:17:58.000Z</time>
      </trkpt>
      <trkpt lat="45.81813" lon="4.73826">
        <ele>322.65176</ele>
        <time>2023-05-01T12:17:59.000Z</time>
      </trkpt>
      <trkpt lat="45.8181" lon="4.73828">
        <ele>322.48251</ele>
        <time>2023-05-01T12:18:01.000Z</time>
      </trkpt>
      <trkpt lat="45.81808" lon="4.73829">
        <ele>322.38713</ele>
        <time>2023-05-01T12:18:02.000Z</time>
      </trkpt>
      <trkpt lat="45.81805" lon="4.7383">
        <ele>322.2344</ele>
        <time>2023-05-01T12:18:04.000Z</time>
      </trkpt>
      <trkpt lat="45.81801" lon="4.73831">
        <ele>322.06987</ele>
        <time>2023-05-01T12:18:06.000Z</time>
      </trkpt>
      <trkpt lat="45.81798" lon="4.73832">
        <ele>321.87741</ele>
        <time>2023-05-01T12:18:08.000Z</time>
      </trkpt>
      <trkpt lat="45.81795" lon="4.73832">
        <ele>321.70964</ele>
        <time>2023-05-01T12:18:10.000Z</time>
      </trkpt>
      <trkpt lat="45.81792" lon="4.73833">
        <ele>321.56962</ele>
        <time>2023-05-01T12:18:12.000Z</time>
      </trkpt>
      <trkpt lat="45.8179" lon="4.73834">
        <ele>321.45308</ele>
        <time>2023-05-01T12:18:14.000Z</time>
      </trkpt>
      <trkpt lat="45.81787" lon="4.73834">
        <ele>321.31719</ele>
        <time>2023-05-01T12:18:16.000Z</time>
      </trkpt>
      <trkpt lat="45.81785" lon="4.73835">
        <ele>321.20915</ele>
        <time>2023-05-01T12:18:18.000Z</time>
      </trkpt>
      <trkpt lat="45.81783" lon="4.73835">
        <ele>321.10327</ele>
        <time>2023-05-01T12:18:19.000Z</time>
      </trkpt>
      <trkpt lat="45.81781" lon="4.73837">
        <ele>321.056</ele>
        <time>2023-05-01T12:18:20.000Z</time>
      </trkpt>
      <trkpt lat="45.8178" lon="4.73838">
        <ele>320.99467</ele>
        <time>2023-05-01T12:18:21.000Z</time>
      </trkpt>
      <trkpt lat="45.81777" lon="4.73837">
        <ele>320.86613</ele>
        <time>2023-05-01T12:18:23.000Z</time>
      </trkpt>
      <trkpt lat="45.81776" lon="4.73838">
        <ele>320.84004</ele>
        <time>2023-05-01T12:18:35.000Z</time>
      </trkpt>
      <trkpt lat="45.81772" lon="4.73836">
        <ele>320.6346</ele>
        <time>2023-05-01T12:18:59.000Z</time>
      </trkpt>
      <trkpt lat="45.8177" lon="4.73834">
        <ele>320.45693</ele>
        <time>2023-05-01T12:19:00.000Z</time>
      </trkpt>
      <trkpt lat="45.81767" lon="4.73829">
        <ele>320.1164</ele>
        <time>2023-05-01T12:19:01.000Z</time>
      </trkpt>
      <trkpt lat="45.81764" lon="4.73823">
        <ele>319.57589</ele>
        <time>2023-05-01T12:19:02.000Z</time>
      </trkpt>
      <trkpt lat="45.8176" lon="4.73816">
        <ele>318.93545</ele>
        <time>2023-05-01T12:19:03.000Z</time>
      </trkpt>
      <trkpt lat="45.81757" lon="4.73807">
        <ele>318.11759</ele>
        <time>2023-05-01T12:19:04.000Z</time>
      </trkpt>
      <trkpt lat="45.81754" lon="4.73798">
        <ele>317.09654</ele>
        <time>2023-05-01T12:19:05.000Z</time>
      </trkpt>
      <trkpt lat="45.8175" lon="4.73789">
        <ele>315.73382</ele>
        <time>2023-05-01T12:19:06.000Z</time>
      </trkpt>
      <trkpt lat="45.81747" lon="4.73778">
        <ele>314.21142</ele>
        <time>2023-05-01T12:19:07.000Z</time>
      </trkpt>
      <trkpt lat="45.81743" lon="4.73766">
        <ele>312.38437</ele>
        <time>2023-05-01T12:19:08.000Z</time>
      </trkpt>
      <trkpt lat="45.8174" lon="4.73755">
        <ele>310.66468</ele>
        <time>2023-05-01T12:19:09.000Z</time>
      </trkpt>
      <trkpt lat="45.81738" lon="4.73743">
        <ele>308.99849</ele>
        <time>2023-05-01T12:19:10.000Z</time>
      </trkpt>
      <trkpt lat="45.81736" lon="4.73731">
        <ele>307.71723</ele>
        <time>2023-05-01T12:19:11.000Z</time>
      </trkpt>
      <trkpt lat="45.81734" lon="4.7372">
        <ele>306.60916</ele>
        <time>2023-05-01T12:19:12.000Z</time>
      </trkpt>
      <trkpt lat="45.8173" lon="4.73708">
        <ele>305.54843</ele>
        <time>2023-05-01T12:19:13.000Z</time>
      </trkpt>
      <trkpt lat="45.81728" lon="4.73697">
        <ele>305.00469</ele>
        <time>2023-05-01T12:19:14.000Z</time>
      </trkpt>
      <trkpt lat="45.81725" lon="4.73685">
        <ele>304.66574</ele>
        <time>2023-05-01T12:19:15.000Z</time>
      </trkpt>
      <trkpt lat="45.81721" lon="4.73675">
        <ele>304.51445</ele>
        <time>2023-05-01T12:19:16.000Z</time>
      </trkpt>
      <trkpt lat="45.81715" lon="4.73666">
        <ele>304.58745</ele>
        <time>2023-05-01T12:19:17.000Z</time>
      </trkpt>
      <trkpt lat="45.81711" lon="4.73658">
        <ele>304.96688</ele>
        <time>2023-05-01T12:19:18.000Z</time>
      </trkpt>
      <trkpt lat="45.81705" lon="4.73651">
        <ele>305.49163</ele>
        <time>2023-05-01T12:19:19.000Z</time>
      </trkpt>
      <trkpt lat="45.817" lon="4.73645">
        <ele>306.12014</ele>
        <time>2023-05-01T12:19:20.000Z</time>
      </trkpt>
      <trkpt lat="45.81696" lon="4.7364">
        <ele>306.69622</ele>
        <time>2023-05-01T12:19:21.000Z</time>
      </trkpt>
      <trkpt lat="45.81693" lon="4.73636">
        <ele>307.22008</ele>
        <time>2023-05-01T12:19:22.000Z</time>
      </trkpt>
      <trkpt lat="45.81689" lon="4.73632">
        <ele>307.71197</ele>
        <time>2023-05-01T12:19:23.000Z</time>
      </trkpt>
      <trkpt lat="45.81685" lon="4.73628">
        <ele>308.21226</ele>
        <time>2023-05-01T12:19:24.000Z</time>
      </trkpt>
      <trkpt lat="45.81682" lon="4.73623">
        <ele>308.7793</ele>
        <time>2023-05-01T12:19:25.000Z</time>
      </trkpt>
      <trkpt lat="45.81679" lon="4.73619">
        <ele>309.23453</ele>
        <time>2023-05-01T12:19:26.000Z</time>
      </trkpt>
      <trkpt lat="45.81676" lon="4.73617">
        <ele>309.59946</ele>
        <time>2023-05-01T12:19:27.000Z</time>
      </trkpt>
      <trkpt lat="45.81672" lon="4.73613">
        <ele>310.02625</ele>
        <time>2023-05-01T12:19:28.000Z</time>
      </trkpt>
      <trkpt lat="45.81669" lon="4.7361">
        <ele>310.43301</ele>
        <time>2023-05-01T12:19:29.000Z</time>
      </trkpt>
      <trkpt lat="45.81666" lon="4.73606">
        <ele>310.82669</ele>
        <time>2023-05-01T12:19:30.000Z</time>
      </trkpt>
      <trkpt lat="45.81663" lon="4.73603">
        <ele>311.16945</ele>
        <time>2023-05-01T12:19:31.000Z</time>
      </trkpt>
      <trkpt lat="45.8166" lon="4.736">
        <ele>311.53945</ele>
        <time>2023-05-01T12:19:32.000Z</time>
      </trkpt>
      <trkpt lat="45.81657" lon="4.73596">
        <ele>311.94043</ele>
        <time>2023-05-01T12:19:33.000Z</time>
      </trkpt>
      <trkpt lat="45.81654" lon="4.73593">
        <ele>312.32657</ele>
        <time>2023-05-01T12:19:34.000Z</time>
      </trkpt>
      <trkpt lat="45.81651" lon="4.73589">
        <ele>312.70075</ele>
        <time>2023-05-01T12:19:35.000Z</time>
      </trkpt>
      <trkpt lat="45.81648" lon="4.73585">
        <ele>313.0839</ele>
        <time>2023-05-01T12:19:36.000Z</time>
      </trkpt>
      <trkpt lat="45.81645" lon="4.73581">
        <ele>313.44662</ele>
        <time>2023-05-01T12:19:37.000Z</time>
      </trkpt>
      <trkpt lat="45.81642" lon="4.73577">
        <ele>313.79351</ele>
        <time>2023-05-01T12:19:38.000Z</time>
      </trkpt>
      <trkpt lat="45.81639" lon="4.73573">
        <ele>314.07817</ele>
        <time>2023-05-01T12:19:39.000Z</time>
      </trkpt>
      <trkpt lat="45.81636" lon="4.73569">
        <ele>314.38393</ele>
        <time>2023-05-01T12:19:40.000Z</time>
      </trkpt>
      <trkpt lat="45.81632" lon="4.73565">
        <ele>314.73285</ele>
        <time>2023-05-01T12:19:41.000Z</time>
      </trkpt>
      <trkpt lat="45.81629" lon="4.73561">
        <ele>315.11061</ele>
        <time>2023-05-01T12:19:42.000Z</time>
      </trkpt>
      <trkpt lat="45.81625" lon="4.73557">
        <ele>315.46381</ele>
        <time>2023-05-01T12:19:43.000Z</time>
      </trkpt>
      <trkpt lat="45.81621" lon="4.73553">
        <ele>315.80093</ele>
        <time>2023-05-01T12:19:44.000Z</time>
      </trkpt>
      <trkpt lat="45.81619" lon="4.73549">
        <ele>316.07774</ele>
        <time>2023-05-01T12:19:45.000Z</time>
      </trkpt>
      <trkpt lat="45.81617" lon="4.73545">
        <ele>316.32902</ele>
        <time>2023-05-01T12:19:46.000Z</time>
      </trkpt>
      <trkpt lat="45.81614" lon="4.73541">
        <ele>316.60914</ele>
        <time>2023-05-01T12:19:47.000Z</time>
      </trkpt>
      <trkpt lat="45.81611" lon="4.73537">
        <ele>316.88299</ele>
        <time>2023-05-01T12:19:48.000Z</time>
      </trkpt>
      <trkpt lat="45.81608" lon="4.73533">
        <ele>317.14866</ele>
        <time>2023-05-01T12:19:49.000Z</time>
      </trkpt>
      <trkpt lat="45.81605" lon="4.73529">
        <ele>317.4161</ele>
        <time>2023-05-01T12:19:50.000Z</time>
      </trkpt>
      <trkpt lat="45.81602" lon="4.73526">
        <ele>317.69013</ele>
        <time>2023-05-01T12:19:51.000Z</time>
      </trkpt>
      <trkpt lat="45.81599" lon="4.73522">
        <ele>317.91552</ele>
        <time>2023-05-01T12:19:52.000Z</time>
      </trkpt>
      <trkpt lat="45.81595" lon="4.73519">
        <ele>318.10212</ele>
        <time>2023-05-01T12:19:53.000Z</time>
      </trkpt>
      <trkpt lat="45.81592" lon="4.73517">
        <ele>318.26992</ele>
        <time>2023-05-01T12:19:54.000Z</time>
      </trkpt>
      <trkpt lat="45.81588" lon="4.73514">
        <ele>318.47477</ele>
        <time>2023-05-01T12:19:55.000Z</time>
      </trkpt>
      <trkpt lat="45.81585" lon="4.73511">
        <ele>318.72284</ele>
        <time>2023-05-01T12:19:56.000Z</time>
      </trkpt>
      <trkpt lat="45.81582" lon="4.73508">
        <ele>319.03803</ele>
        <time>2023-05-01T12:19:57.000Z</time>
      </trkpt>
      <trkpt lat="45.81579" lon="4.73505">
        <ele>319.41021</ele>
        <time>2023-05-01T12:19:58.000Z</time>
      </trkpt>
      <trkpt lat="45.81576" lon="4.73502">
        <ele>319.81866</ele>
        <time>2023-05-01T12:19:59.000Z</time>
      </trkpt>
      <trkpt lat="45.81573" lon="4.735">
        <ele>320.19231</ele>
        <time>2023-05-01T12:20:00.000Z</time>
      </trkpt>
      <trkpt lat="45.8157" lon="4.735">
        <ele>320.4817</ele>
        <time>2023-05-01T12:20:01.000Z</time>
      </trkpt>
      <trkpt lat="45.81568" lon="4.73501">
        <ele>320.59821</ele>
        <time>2023-05-01T12:20:02.000Z</time>
      </trkpt>
      <trkpt lat="45.81566" lon="4.73504">
        <ele>320.61712</ele>
        <time>2023-05-01T12:20:03.000Z</time>
      </trkpt>
      <trkpt lat="45.81565" lon="4.73506">
        <ele>320.60069</ele>
        <time>2023-05-01T12:20:04.000Z</time>
      </trkpt>
      <trkpt lat="45.81564" lon="4.73509">
        <ele>320.55319</ele>
        <time>2023-05-01T12:20:06.000Z</time>
      </trkpt>
      <trkpt lat="45.81563" lon="4.73511">
        <ele>320.5188</ele>
        <time>2023-05-01T12:20:07.000Z</time>
      </trkpt>
      <trkpt lat="45.81562" lon="4.73514">
        <ele>320.47963</ele>
        <time>2023-05-01T12:20:08.000Z</time>
      </trkpt>
      <trkpt lat="45.81561" lon="4.73517">
        <ele>320.41996</ele>
        <time>2023-05-01T12:20:09.000Z</time>
      </trkpt>
      <trkpt lat="45.81559" lon="4.7352">
        <ele>320.29949</ele>
        <time>2023-05-01T12:20:10.000Z</time>
      </trkpt>
      <trkpt lat="45.81557" lon="4.73524">
        <ele>320.30038</ele>
        <time>2023-05-01T12:20:12.000Z</time>
      </trkpt>
      <trkpt lat="45.81557" lon="4.73526">
        <ele>320.19177</ele>
        <time>2023-05-01T12:20:13.000Z</time>
      </trkpt>
      <trkpt lat="45.81556" lon="4.7353">
        <ele>319.98262</ele>
        <time>2023-05-01T12:20:15.000Z</time>
      </trkpt>
      <trkpt lat="45.81556" lon="4.73533">
        <ele>319.83827</ele>
        <time>2023-05-01T12:20:16.000Z</time>
      </trkpt>
      <trkpt lat="45.81555" lon="4.73536">
        <ele>319.69921</ele>
        <time>2023-05-01T12:20:17.000Z</time>
      </trkpt>
      <trkpt lat="45.81555" lon="4.73539">
        <ele>319.58433</ele>
        <time>2023-05-01T12:20:18.000Z</time>
      </trkpt>
      <trkpt lat="45.81554" lon="4.73543">
        <ele>319.49931</ele>
        <time>2023-05-01T12:20:19.000Z</time>
      </trkpt>
      <trkpt lat="45.81552" lon="4.73548">
        <ele>319.41964</ele>
        <time>2023-05-01T12:20:20.000Z</time>
      </trkpt>
      <trkpt lat="45.81551" lon="4.73553">
        <ele>319.32381</ele>
        <time>2023-05-01T12:20:21.000Z</time>
      </trkpt>
      <trkpt lat="45.8155" lon="4.73557">
        <ele>319.25384</ele>
        <time>2023-05-01T12:20:22.000Z</time>
      </trkpt>
      <trkpt lat="45.81549" lon="4.73562">
        <ele>319.23762</ele>
        <time>2023-05-01T12:20:23.000Z</time>
      </trkpt>
      <trkpt lat="45.81548" lon="4.73568">
        <ele>319.11179</ele>
        <time>2023-05-01T12:20:24.000Z</time>
      </trkpt>
      <trkpt lat="45.81546" lon="4.73574">
        <ele>318.98654</ele>
        <time>2023-05-01T12:20:25.000Z</time>
      </trkpt>
      <trkpt lat="45.81544" lon="4.7358">
        <ele>318.88537</ele>
        <time>2023-05-01T12:20:26.000Z</time>
      </trkpt>
      <trkpt lat="45.81543" lon="4.73585">
        <ele>318.70366</ele>
        <time>2023-05-01T12:20:27.000Z</time>
      </trkpt>
      <trkpt lat="45.81542" lon="4.73591">
        <ele>318.3885</ele>
        <time>2023-05-01T12:20:28.000Z</time>
      </trkpt>
      <trkpt lat="45.8154" lon="4.73597">
        <ele>318.05072</ele>
        <time>2023-05-01T12:20:29.000Z</time>
      </trkpt>
      <trkpt lat="45.81538" lon="4.73602">
        <ele>317.73017</ele>
        <time>2023-05-01T12:20:30.000Z</time>
      </trkpt>
      <trkpt lat="45.81537" lon="4.73608">
        <ele>317.37432</ele>
        <time>2023-05-01T12:20:31.000Z</time>
      </trkpt>
      <trkpt lat="45.81535" lon="4.73613">
        <ele>317.05007</ele>
        <time>2023-05-01T12:20:32.000Z</time>
      </trkpt>
      <trkpt lat="45.81533" lon="4.73618">
        <ele>316.81465</ele>
        <time>2023-05-01T12:20:33.000Z</time>
      </trkpt>
      <trkpt lat="45.81531" lon="4.73626">
        <ele>316.40704</ele>
        <time>2023-05-01T12:20:34.000Z</time>
      </trkpt>
      <trkpt lat="45.81529" lon="4.73632">
        <ele>316.11449</ele>
        <time>2023-05-01T12:20:35.000Z</time>
      </trkpt>
      <trkpt lat="45.81526" lon="4.73638">
        <ele>315.87955</ele>
        <time>2023-05-01T12:20:36.000Z</time>
      </trkpt>
      <trkpt lat="45.81524" lon="4.73643">
        <ele>315.6171</ele>
        <time>2023-05-01T12:20:37.000Z</time>
      </trkpt>
      <trkpt lat="45.81523" lon="4.73649">
        <ele>315.36104</ele>
        <time>2023-05-01T12:20:38.000Z</time>
      </trkpt>
      <trkpt lat="45.81522" lon="4.73653">
        <ele>315.1505</ele>
        <time>2023-05-01T12:20:39.000Z</time>
      </trkpt>
      <trkpt lat="45.8152" lon="4.7366">
        <ele>314.83127</ele>
        <time>2023-05-01T12:20:40.000Z</time>
      </trkpt>
      <trkpt lat="45.81518" lon="4.73667">
        <ele>314.46255</ele>
        <time>2023-05-01T12:20:41.000Z</time>
      </trkpt>
      <trkpt lat="45.81517" lon="4.73673">
        <ele>314.10747</ele>
        <time>2023-05-01T12:20:42.000Z</time>
      </trkpt>
      <trkpt lat="45.81515" lon="4.7368">
        <ele>313.75283</ele>
        <time>2023-05-01T12:20:43.000Z</time>
      </trkpt>
      <trkpt lat="45.81513" lon="4.73688">
        <ele>313.359</ele>
        <time>2023-05-01T12:20:44.000Z</time>
      </trkpt>
      <trkpt lat="45.81512" lon="4.73693">
        <ele>313.02618</ele>
        <time>2023-05-01T12:20:45.000Z</time>
      </trkpt>
      <trkpt lat="45.8151" lon="4.73699">
        <ele>312.68658</ele>
        <time>2023-05-01T12:20:46.000Z</time>
      </trkpt>
      <trkpt lat="45.81508" lon="4.73706">
        <ele>312.21641</ele>
        <time>2023-05-01T12:20:47.000Z</time>
      </trkpt>
      <trkpt lat="45.81506" lon="4.73711">
        <ele>311.7676</ele>
        <time>2023-05-01T12:20:48.000Z</time>
      </trkpt>
      <trkpt lat="45.81503" lon="4.7372">
        <ele>311.03439</ele>
        <time>2023-05-01T12:20:49.000Z</time>
      </trkpt>
      <trkpt lat="45.815" lon="4.73727">
        <ele>310.41279</ele>
        <time>2023-05-01T12:20:50.000Z</time>
      </trkpt>
      <trkpt lat="45.81498" lon="4.73733">
        <ele>309.82006</ele>
        <time>2023-05-01T12:20:51.000Z</time>
      </trkpt>
      <trkpt lat="45.81496" lon="4.73737">
        <ele>309.41073</ele>
        <time>2023-05-01T12:20:52.000Z</time>
      </trkpt>
      <trkpt lat="45.81493" lon="4.73743">
        <ele>308.86479</ele>
        <time>2023-05-01T12:20:53.000Z</time>
      </trkpt>
      <trkpt lat="45.81489" lon="4.73749">
        <ele>308.313</ele>
        <time>2023-05-01T12:20:54.000Z</time>
      </trkpt>
      <trkpt lat="45.81488" lon="4.73753">
        <ele>307.9461</ele>
        <time>2023-05-01T12:20:55.000Z</time>
      </trkpt>
      <trkpt lat="45.81485" lon="4.7376">
        <ele>307.46989</ele>
        <time>2023-05-01T12:20:56.000Z</time>
      </trkpt>
      <trkpt lat="45.81484" lon="4.73766">
        <ele>307.1451</ele>
        <time>2023-05-01T12:20:57.000Z</time>
      </trkpt>
      <trkpt lat="45.81483" lon="4.73772">
        <ele>306.92403</ele>
        <time>2023-05-01T12:20:58.000Z</time>
      </trkpt>
      <trkpt lat="45.81483" lon="4.73778">
        <ele>306.72557</ele>
        <time>2023-05-01T12:20:59.000Z</time>
      </trkpt>
      <trkpt lat="45.81484" lon="4.73784">
        <ele>306.54818</ele>
        <time>2023-05-01T12:21:00.000Z</time>
      </trkpt>
      <trkpt lat="45.81486" lon="4.7379">
        <ele>306.40156</ele>
        <time>2023-05-01T12:21:01.000Z</time>
      </trkpt>
      <trkpt lat="45.81485" lon="4.73796">
        <ele>306.49122</ele>
        <time>2023-05-01T12:21:02.000Z</time>
      </trkpt>
      <trkpt lat="45.81487" lon="4.73801">
        <ele>306.44911</ele>
        <time>2023-05-01T12:21:03.000Z</time>
      </trkpt>
      <trkpt lat="45.81489" lon="4.73806">
        <ele>306.4782</ele>
        <time>2023-05-01T12:21:04.000Z</time>
      </trkpt>
      <trkpt lat="45.81491" lon="4.73811">
        <ele>306.57876</ele>
        <time>2023-05-01T12:21:05.000Z</time>
      </trkpt>
      <trkpt lat="45.81492" lon="4.73815">
        <ele>306.7584</ele>
        <time>2023-05-01T12:21:06.000Z</time>
      </trkpt>
      <trkpt lat="45.81493" lon="4.73821">
        <ele>307.06043</ele>
        <time>2023-05-01T12:21:07.000Z</time>
      </trkpt>
      <trkpt lat="45.81492" lon="4.73829">
        <ele>307.74544</ele>
        <time>2023-05-01T12:21:08.000Z</time>
      </trkpt>
      <trkpt lat="45.81492" lon="4.73836">
        <ele>308.13482</ele>
        <time>2023-05-01T12:21:09.000Z</time>
      </trkpt>
      <trkpt lat="45.81492" lon="4.73842">
        <ele>308.41798</ele>
        <time>2023-05-01T12:21:10.000Z</time>
      </trkpt>
      <trkpt lat="45.81492" lon="4.73849">
        <ele>308.91963</ele>
        <time>2023-05-01T12:21:11.000Z</time>
      </trkpt>
      <trkpt lat="45.81493" lon="4.73855">
        <ele>309.16325</ele>
        <time>2023-05-01T12:21:12.000Z</time>
      </trkpt>
      <trkpt lat="45.81493" lon="4.73862">
        <ele>309.43567</ele>
        <time>2023-05-01T12:21:13.000Z</time>
      </trkpt>
      <trkpt lat="45.81492" lon="4.73869">
        <ele>309.62494</ele>
        <time>2023-05-01T12:21:14.000Z</time>
      </trkpt>
      <trkpt lat="45.81491" lon="4.73876">
        <ele>309.71389</ele>
        <time>2023-05-01T12:21:15.000Z</time>
      </trkpt>
      <trkpt lat="45.81491" lon="4.73882">
        <ele>309.68717</ele>
        <time>2023-05-01T12:21:16.000Z</time>
      </trkpt>
      <trkpt lat="45.81491" lon="4.73889">
        <ele>309.58676</ele>
        <time>2023-05-01T12:21:17.000Z</time>
      </trkpt>
      <trkpt lat="45.81489" lon="4.73897">
        <ele>309.47872</ele>
        <time>2023-05-01T12:21:18.000Z</time>
      </trkpt>
      <trkpt lat="45.81489" lon="4.73905">
        <ele>309.28737</ele>
        <time>2023-05-01T12:21:19.000Z</time>
      </trkpt>
      <trkpt lat="45.81486" lon="4.73913">
        <ele>309.08607</ele>
        <time>2023-05-01T12:21:20.000Z</time>
      </trkpt>
      <trkpt lat="45.81485" lon="4.73924">
        <ele>308.65212</ele>
        <time>2023-05-01T12:21:21.000Z</time>
      </trkpt>
      <trkpt lat="45.81484" lon="4.73931">
        <ele>308.34751</ele>
        <time>2023-05-01T12:21:22.000Z</time>
      </trkpt>
      <trkpt lat="45.81483" lon="4.73938">
        <ele>307.94043</ele>
        <time>2023-05-01T12:21:23.000Z</time>
      </trkpt>
      <trkpt lat="45.81483" lon="4.73942">
        <ele>307.70896</ele>
        <time>2023-05-01T12:21:24.000Z</time>
      </trkpt>
      <trkpt lat="45.81481" lon="4.73948">
        <ele>307.34918</ele>
        <time>2023-05-01T12:21:25.000Z</time>
      </trkpt>
      <trkpt lat="45.81481" lon="4.73952">
        <ele>307.06581</ele>
        <time>2023-05-01T12:21:26.000Z</time>
      </trkpt>
      <trkpt lat="45.81481" lon="4.73955">
        <ele>306.81716</ele>
        <time>2023-05-01T12:21:27.000Z</time>
      </trkpt>
      <trkpt lat="45.81482" lon="4.73958">
        <ele>306.53389</ele>
        <time>2023-05-01T12:21:28.000Z</time>
      </trkpt>
      <trkpt lat="45.81481" lon="4.73961">
        <ele>306.33213</ele>
        <time>2023-05-01T12:21:29.000Z</time>
      </trkpt>
      <trkpt lat="45.81479" lon="4.73965">
        <ele>306.10356</ele>
        <time>2023-05-01T12:21:31.000Z</time>
      </trkpt>
      <trkpt lat="45.81478" lon="4.73967">
        <ele>305.99461</ele>
        <time>2023-05-01T12:21:33.000Z</time>
      </trkpt>
      <trkpt lat="45.81476" lon="4.73969">
        <ele>305.94525</ele>
        <time>2023-05-01T12:21:38.000Z</time>
      </trkpt>
      <trkpt lat="45.81475" lon="4.73973">
        <ele>305.68821</ele>
        <time>2023-05-01T12:22:06.000Z</time>
      </trkpt>
      <trkpt lat="45.81475" lon="4.73977">
        <ele>305.37837</ele>
        <time>2023-05-01T12:22:08.000Z</time>
      </trkpt>
      <trkpt lat="45.81474" lon="4.73979">
        <ele>305.23444</ele>
        <time>2023-05-01T12:22:10.000Z</time>
      </trkpt>
      <trkpt lat="45.81472" lon="4.73981">
        <ele>305.12543</ele>
        <time>2023-05-01T12:22:12.000Z</time>
      </trkpt>
      <trkpt lat="45.81471" lon="4.73984">
        <ele>304.9393</ele>
        <time>2023-05-01T12:22:14.000Z</time>
      </trkpt>
      <trkpt lat="45.81469" lon="4.73987">
        <ele>304.87762</ele>
        <time>2023-05-01T12:22:16.000Z</time>
      </trkpt>
      <trkpt lat="45.81466" lon="4.73989">
        <ele>304.88477</ele>
        <time>2023-05-01T12:22:18.000Z</time>
      </trkpt>
      <trkpt lat="45.81463" lon="4.73992">
        <ele>304.77225</ele>
        <time>2023-05-01T12:22:20.000Z</time>
      </trkpt>
      <trkpt lat="45.81461" lon="4.73996">
        <ele>304.58593</ele>
        <time>2023-05-01T12:22:21.000Z</time>
      </trkpt>
      <trkpt lat="45.81459" lon="4.73999">
        <ele>304.42278</ele>
        <time>2023-05-01T12:22:22.000Z</time>
      </trkpt>
      <trkpt lat="45.81458" lon="4.74001">
        <ele>304.34598</ele>
        <time>2023-05-01T12:22:23.000Z</time>
      </trkpt>
      <trkpt lat="45.81456" lon="4.74003">
        <ele>304.29276</ele>
        <time>2023-05-01T12:22:24.000Z</time>
      </trkpt>
      <trkpt lat="45.81454" lon="4.74004">
        <ele>304.29179</ele>
        <time>2023-05-01T12:22:25.000Z</time>
      </trkpt>
      <trkpt lat="45.81451" lon="4.74007">
        <ele>304.24834</ele>
        <time>2023-05-01T12:22:27.000Z</time>
      </trkpt>
      <trkpt lat="45.8145" lon="4.74009">
        <ele>304.23376</ele>
        <time>2023-05-01T12:22:28.000Z</time>
      </trkpt>
      <trkpt lat="45.81448" lon="4.7401">
        <ele>304.28326</ele>
        <time>2023-05-01T12:22:29.000Z</time>
      </trkpt>
      <trkpt lat="45.81445" lon="4.74011">
        <ele>304.38722</ele>
        <time>2023-05-01T12:22:30.000Z</time>
      </trkpt>
      <trkpt lat="45.81442" lon="4.74012">
        <ele>304.5348</ele>
        <time>2023-05-01T12:22:31.000Z</time>
      </trkpt>
      <trkpt lat="45.8144" lon="4.74012">
        <ele>304.72218</ele>
        <time>2023-05-01T12:22:32.000Z</time>
      </trkpt>
      <trkpt lat="45.81438" lon="4.74008">
        <ele>305.19774</ele>
        <time>2023-05-01T12:22:34.000Z</time>
      </trkpt>
      <trkpt lat="45.81436" lon="4.74004">
        <ele>305.65501</ele>
        <time>2023-05-01T12:22:36.000Z</time>
      </trkpt>
      <trkpt lat="45.81435" lon="4.74002">
        <ele>305.90088</ele>
        <time>2023-05-01T12:22:37.000Z</time>
      </trkpt>
      <trkpt lat="45.81434" lon="4.73999">
        <ele>306.20255</ele>
        <time>2023-05-01T12:22:38.000Z</time>
      </trkpt>
      <trkpt lat="45.81432" lon="4.73995">
        <ele>306.52754</ele>
        <time>2023-05-01T12:22:39.000Z</time>
      </trkpt>
      <trkpt lat="45.81431" lon="4.73992">
        <ele>306.82551</ele>
        <time>2023-05-01T12:22:40.000Z</time>
      </trkpt>
      <trkpt lat="45.81429" lon="4.73989">
        <ele>307.14841</ele>
        <time>2023-05-01T12:22:41.000Z</time>
      </trkpt>
      <trkpt lat="45.81427" lon="4.73985">
        <ele>307.49328</ele>
        <time>2023-05-01T12:22:42.000Z</time>
      </trkpt>
      <trkpt lat="45.81425" lon="4.73981">
        <ele>307.83536</ele>
        <time>2023-05-01T12:22:43.000Z</time>
      </trkpt>
      <trkpt lat="45.81423" lon="4.73977">
        <ele>308.13207</ele>
        <time>2023-05-01T12:22:44.000Z</time>
      </trkpt>
      <trkpt lat="45.81421" lon="4.73972">
        <ele>308.45593</ele>
        <time>2023-05-01T12:22:45.000Z</time>
      </trkpt>
      <trkpt lat="45.8142" lon="4.73969">
        <ele>308.70135</ele>
        <time>2023-05-01T12:22:46.000Z</time>
      </trkpt>
      <trkpt lat="45.81418" lon="4.73964">
        <ele>309.00386</ele>
        <time>2023-05-01T12:22:47.000Z</time>
      </trkpt>
      <trkpt lat="45.81417" lon="4.73959">
        <ele>309.29066</ele>
        <time>2023-05-01T12:22:48.000Z</time>
      </trkpt>
      <trkpt lat="45.81413" lon="4.73952">
        <ele>309.79815</ele>
        <time>2023-05-01T12:22:49.000Z</time>
      </trkpt>
      <trkpt lat="45.8141" lon="4.73948">
        <ele>310.12291</ele>
        <time>2023-05-01T12:22:50.000Z</time>
      </trkpt>
      <trkpt lat="45.81407" lon="4.73945">
        <ele>310.44396</ele>
        <time>2023-05-01T12:22:51.000Z</time>
      </trkpt>
      <trkpt lat="45.81404" lon="4.7394">
        <ele>310.80027</ele>
        <time>2023-05-01T12:22:52.000Z</time>
      </trkpt>
      <trkpt lat="45.814" lon="4.73936">
        <ele>311.16469</ele>
        <time>2023-05-01T12:22:53.000Z</time>
      </trkpt>
      <trkpt lat="45.81397" lon="4.73932">
        <ele>311.46579</ele>
        <time>2023-05-01T12:22:54.000Z</time>
      </trkpt>
      <trkpt lat="45.81395" lon="4.73927">
        <ele>311.8242</ele>
        <time>2023-05-01T12:22:55.000Z</time>
      </trkpt>
      <trkpt lat="45.81392" lon="4.73922">
        <ele>312.20501</ele>
        <time>2023-05-01T12:22:56.000Z</time>
      </trkpt>
      <trkpt lat="45.8139" lon="4.73918">
        <ele>312.57234</ele>
        <time>2023-05-01T12:22:57.000Z</time>
      </trkpt>
      <trkpt lat="45.81386" lon="4.73913">
        <ele>313.11878</ele>
        <time>2023-05-01T12:22:58.000Z</time>
      </trkpt>
      <trkpt lat="45.81382" lon="4.73908">
        <ele>313.67819</ele>
        <time>2023-05-01T12:22:59.000Z</time>
      </trkpt>
      <trkpt lat="45.81379" lon="4.73904">
        <ele>314.17261</ele>
        <time>2023-05-01T12:23:00.000Z</time>
      </trkpt>
      <trkpt lat="45.81375" lon="4.73899">
        <ele>314.67467</ele>
        <time>2023-05-01T12:23:01.000Z</time>
      </trkpt>
      <trkpt lat="45.81373" lon="4.73895">
        <ele>315.08463</ele>
        <time>2023-05-01T12:23:02.000Z</time>
      </trkpt>
      <trkpt lat="45.81371" lon="4.73891">
        <ele>315.42968</ele>
        <time>2023-05-01T12:23:03.000Z</time>
      </trkpt>
      <trkpt lat="45.81368" lon="4.73887">
        <ele>315.82121</ele>
        <time>2023-05-01T12:23:04.000Z</time>
      </trkpt>
      <trkpt lat="45.81366" lon="4.73883">
        <ele>316.14933</ele>
        <time>2023-05-01T12:23:05.000Z</time>
      </trkpt>
      <trkpt lat="45.81363" lon="4.73879">
        <ele>316.44659</ele>
        <time>2023-05-01T12:23:06.000Z</time>
      </trkpt>
      <trkpt lat="45.81362" lon="4.73876">
        <ele>316.68201</ele>
        <time>2023-05-01T12:23:07.000Z</time>
      </trkpt>
      <trkpt lat="45.8136" lon="4.73873">
        <ele>316.9223</ele>
        <time>2023-05-01T12:23:08.000Z</time>
      </trkpt>
      <trkpt lat="45.81358" lon="4.73869">
        <ele>317.21106</ele>
        <time>2023-05-01T12:23:09.000Z</time>
      </trkpt>
      <trkpt lat="45.81357" lon="4.73867">
        <ele>317.40967</ele>
        <time>2023-05-01T12:23:10.000Z</time>
      </trkpt>
      <trkpt lat="45.81355" lon="4.73863">
        <ele>317.66458</ele>
        <time>2023-05-01T12:23:11.000Z</time>
      </trkpt>
      <trkpt lat="45.81352" lon="4.73859">
        <ele>317.9497</ele>
        <time>2023-05-01T12:23:12.000Z</time>
      </trkpt>
      <trkpt lat="45.8135" lon="4.73855">
        <ele>318.19317</ele>
        <time>2023-05-01T12:23:13.000Z</time>
      </trkpt>
      <trkpt lat="45.81347" lon="4.73851">
        <ele>318.38231</ele>
        <time>2023-05-01T12:23:14.000Z</time>
      </trkpt>
      <trkpt lat="45.81344" lon="4.73849">
        <ele>318.52818</ele>
        <time>2023-05-01T12:23:15.000Z</time>
      </trkpt>
      <trkpt lat="45.81342" lon="4.73845">
        <ele>318.66689</ele>
        <time>2023-05-01T12:23:16.000Z</time>
      </trkpt>
      <trkpt lat="45.81339" lon="4.73841">
        <ele>318.81887</ele>
        <time>2023-05-01T12:23:17.000Z</time>
      </trkpt>
      <trkpt lat="45.81337" lon="4.73838">
        <ele>318.9908</ele>
        <time>2023-05-01T12:23:18.000Z</time>
      </trkpt>
      <trkpt lat="45.81335" lon="4.73835">
        <ele>319.12567</ele>
        <time>2023-05-01T12:23:19.000Z</time>
      </trkpt>
      <trkpt lat="45.81332" lon="4.73832">
        <ele>319.28134</ele>
        <time>2023-05-01T12:23:20.000Z</time>
      </trkpt>
      <trkpt lat="45.8133" lon="4.73829">
        <ele>319.45004</ele>
        <time>2023-05-01T12:23:21.000Z</time>
      </trkpt>
      <trkpt lat="45.81328" lon="4.73825">
        <ele>319.61806</ele>
        <time>2023-05-01T12:23:22.000Z</time>
      </trkpt>
      <trkpt lat="45.81325" lon="4.73822">
        <ele>319.77305</ele>
        <time>2023-05-01T12:23:23.000Z</time>
      </trkpt>
      <trkpt lat="45.81323" lon="4.73819">
        <ele>319.91787</ele>
        <time>2023-05-01T12:23:24.000Z</time>
      </trkpt>
      <trkpt lat="45.8132" lon="4.73816">
        <ele>320.06283</ele>
        <time>2023-05-01T12:23:25.000Z</time>
      </trkpt>
      <trkpt lat="45.81318" lon="4.73812">
        <ele>320.21239</ele>
        <time>2023-05-01T12:23:26.000Z</time>
      </trkpt>
      <trkpt lat="45.81315" lon="4.73809">
        <ele>320.35128</ele>
        <time>2023-05-01T12:23:27.000Z</time>
      </trkpt>
      <trkpt lat="45.81313" lon="4.73805">
        <ele>320.46233</ele>
        <time>2023-05-01T12:23:28.000Z</time>
      </trkpt>
      <trkpt lat="45.81311" lon="4.73802">
        <ele>320.57018</ele>
        <time>2023-05-01T12:23:29.000Z</time>
      </trkpt>
      <trkpt lat="45.81309" lon="4.73799">
        <ele>320.68291</ele>
        <time>2023-05-01T12:23:30.000Z</time>
      </trkpt>
      <trkpt lat="45.81307" lon="4.73796">
        <ele>320.79412</ele>
        <time>2023-05-01T12:23:31.000Z</time>
      </trkpt>
      <trkpt lat="45.81305" lon="4.73792">
        <ele>320.87659</ele>
        <time>2023-05-01T12:23:32.000Z</time>
      </trkpt>
      <trkpt lat="45.81302" lon="4.73788">
        <ele>320.95203</ele>
        <time>2023-05-01T12:23:33.000Z</time>
      </trkpt>
      <trkpt lat="45.813" lon="4.73784">
        <ele>321.06177</ele>
        <time>2023-05-01T12:23:34.000Z</time>
      </trkpt>
      <trkpt lat="45.81297" lon="4.73781">
        <ele>321.14959</ele>
        <time>2023-05-01T12:23:35.000Z</time>
      </trkpt>
      <trkpt lat="45.81295" lon="4.73777">
        <ele>321.23095</ele>
        <time>2023-05-01T12:23:36.000Z</time>
      </trkpt>
      <trkpt lat="45.81291" lon="4.73774">
        <ele>321.37722</ele>
        <time>2023-05-01T12:23:37.000Z</time>
      </trkpt>
      <trkpt lat="45.81288" lon="4.7377">
        <ele>321.52608</ele>
        <time>2023-05-01T12:23:38.000Z</time>
      </trkpt>
      <trkpt lat="45.81285" lon="4.73767">
        <ele>321.64798</ele>
        <time>2023-05-01T12:23:39.000Z</time>
      </trkpt>
      <trkpt lat="45.81282" lon="4.73763">
        <ele>321.79055</ele>
        <time>2023-05-01T12:23:40.000Z</time>
      </trkpt>
      <trkpt lat="45.81279" lon="4.7376">
        <ele>322.03054</ele>
        <time>2023-05-01T12:23:41.000Z</time>
      </trkpt>
      <trkpt lat="45.81276" lon="4.73757">
        <ele>322.24955</ele>
        <time>2023-05-01T12:23:42.000Z</time>
      </trkpt>
      <trkpt lat="45.81273" lon="4.73753">
        <ele>322.41617</ele>
        <time>2023-05-01T12:23:43.000Z</time>
      </trkpt>
      <trkpt lat="45.8127" lon="4.73749">
        <ele>322.51847</ele>
        <time>2023-05-01T12:23:44.000Z</time>
      </trkpt>
      <trkpt lat="45.81267" lon="4.73745">
        <ele>322.57273</ele>
        <time>2023-05-01T12:23:45.000Z</time>
      </trkpt>
      <trkpt lat="45.81264" lon="4.73741">
        <ele>322.60049</ele>
        <time>2023-05-01T12:23:46.000Z</time>
      </trkpt>
      <trkpt lat="45.8126" lon="4.73737">
        <ele>322.65065</ele>
        <time>2023-05-01T12:23:47.000Z</time>
      </trkpt>
      <trkpt lat="45.81256" lon="4.73733">
        <ele>322.79001</ele>
        <time>2023-05-01T12:23:48.000Z</time>
      </trkpt>
      <trkpt lat="45.81253" lon="4.73729">
        <ele>322.96214</ele>
        <time>2023-05-01T12:23:49.000Z</time>
      </trkpt>
      <trkpt lat="45.81249" lon="4.73726">
        <ele>323.18327</ele>
        <time>2023-05-01T12:23:50.000Z</time>
      </trkpt>
      <trkpt lat="45.81246" lon="4.73722">
        <ele>323.35084</ele>
        <time>2023-05-01T12:23:51.000Z</time>
      </trkpt>
      <trkpt lat="45.81243" lon="4.73718">
        <ele>323.4408</ele>
        <time>2023-05-01T12:23:52.000Z</time>
      </trkpt>
      <trkpt lat="45.8124" lon="4.73715">
        <ele>323.53953</ele>
        <time>2023-05-01T12:23:53.000Z</time>
      </trkpt>
      <trkpt lat="45.81236" lon="4.73711">
        <ele>323.67942</ele>
        <time>2023-05-01T12:23:54.000Z</time>
      </trkpt>
      <trkpt lat="45.81233" lon="4.73709">
        <ele>323.86007</ele>
        <time>2023-05-01T12:23:55.000Z</time>
      </trkpt>
      <trkpt lat="45.81229" lon="4.73706">
        <ele>324.07122</ele>
        <time>2023-05-01T12:23:56.000Z</time>
      </trkpt>
      <trkpt lat="45.81225" lon="4.73704">
        <ele>324.34565</ele>
        <time>2023-05-01T12:23:57.000Z</time>
      </trkpt>
      <trkpt lat="45.81221" lon="4.73704">
        <ele>324.64577</ele>
        <time>2023-05-01T12:23:58.000Z</time>
      </trkpt>
      <trkpt lat="45.81217" lon="4.73704">
        <ele>324.91363</ele>
        <time>2023-05-01T12:23:59.000Z</time>
      </trkpt>
      <trkpt lat="45.81212" lon="4.73703">
        <ele>325.1329</ele>
        <time>2023-05-01T12:24:00.000Z</time>
      </trkpt>
      <trkpt lat="45.81208" lon="4.73702">
        <ele>325.30383</ele>
        <time>2023-05-01T12:24:01.000Z</time>
      </trkpt>
      <trkpt lat="45.81204" lon="4.73701">
        <ele>325.45482</ele>
        <time>2023-05-01T12:24:02.000Z</time>
      </trkpt>
      <trkpt lat="45.812" lon="4.737">
        <ele>325.59485</ele>
        <time>2023-05-01T12:24:03.000Z</time>
      </trkpt>
      <trkpt lat="45.81196" lon="4.73699">
        <ele>325.74534</ele>
        <time>2023-05-01T12:24:04.000Z</time>
      </trkpt>
      <trkpt lat="45.81192" lon="4.73698">
        <ele>325.91114</ele>
        <time>2023-05-01T12:24:05.000Z</time>
      </trkpt>
      <trkpt lat="45.81188" lon="4.73697">
        <ele>326.08301</ele>
        <time>2023-05-01T12:24:06.000Z</time>
      </trkpt>
      <trkpt lat="45.81184" lon="4.73697">
        <ele>326.26431</ele>
        <time>2023-05-01T12:24:07.000Z</time>
      </trkpt>
      <trkpt lat="45.8118" lon="4.73697">
        <ele>326.43812</ele>
        <time>2023-05-01T12:24:08.000Z</time>
      </trkpt>
      <trkpt lat="45.81176" lon="4.73697">
        <ele>326.585</ele>
        <time>2023-05-01T12:24:09.000Z</time>
      </trkpt>
      <trkpt lat="45.81172" lon="4.73696">
        <ele>326.68529</ele>
        <time>2023-05-01T12:24:10.000Z</time>
      </trkpt>
      <trkpt lat="45.81168" lon="4.73694">
        <ele>326.75134</ele>
        <time>2023-05-01T12:24:11.000Z</time>
      </trkpt>
      <trkpt lat="45.81165" lon="4.73693">
        <ele>326.81326</ele>
        <time>2023-05-01T12:24:12.000Z</time>
      </trkpt>
      <trkpt lat="45.8116" lon="4.73692">
        <ele>326.87254</ele>
        <time>2023-05-01T12:24:13.000Z</time>
      </trkpt>
      <trkpt lat="45.81156" lon="4.7369">
        <ele>326.91293</ele>
        <time>2023-05-01T12:24:14.000Z</time>
      </trkpt>
      <trkpt lat="45.81151" lon="4.73689">
        <ele>326.93097</ele>
        <time>2023-05-01T12:24:15.000Z</time>
      </trkpt>
      <trkpt lat="45.81147" lon="4.73688">
        <ele>326.91705</ele>
        <time>2023-05-01T12:24:16.000Z</time>
      </trkpt>
      <trkpt lat="45.81143" lon="4.73687">
        <ele>326.8692</ele>
        <time>2023-05-01T12:24:17.000Z</time>
      </trkpt>
      <trkpt lat="45.81138" lon="4.73685">
        <ele>326.80503</ele>
        <time>2023-05-01T12:24:18.000Z</time>
      </trkpt>
      <trkpt lat="45.81134" lon="4.73684">
        <ele>326.72727</ele>
        <time>2023-05-01T12:24:19.000Z</time>
      </trkpt>
      <trkpt lat="45.81129" lon="4.73681">
        <ele>326.65959</ele>
        <time>2023-05-01T12:24:20.000Z</time>
      </trkpt>
      <trkpt lat="45.81124" lon="4.7368">
        <ele>326.5904</ele>
        <time>2023-05-01T12:24:21.000Z</time>
      </trkpt>
      <trkpt lat="45.81119" lon="4.73678">
        <ele>326.50579</ele>
        <time>2023-05-01T12:24:22.000Z</time>
      </trkpt>
      <trkpt lat="45.81114" lon="4.73677">
        <ele>326.4036</ele>
        <time>2023-05-01T12:24:23.000Z</time>
      </trkpt>
      <trkpt lat="45.81109" lon="4.73676">
        <ele>326.27812</ele>
        <time>2023-05-01T12:24:24.000Z</time>
      </trkpt>
      <trkpt lat="45.81103" lon="4.73675">
        <ele>326.13396</ele>
        <time>2023-05-01T12:24:25.000Z</time>
      </trkpt>
      <trkpt lat="45.81098" lon="4.73675">
        <ele>325.98312</ele>
        <time>2023-05-01T12:24:26.000Z</time>
      </trkpt>
      <trkpt lat="45.81093" lon="4.73674">
        <ele>325.80085</ele>
        <time>2023-05-01T12:24:27.000Z</time>
      </trkpt>
      <trkpt lat="45.81088" lon="4.73672">
        <ele>325.63148</ele>
        <time>2023-05-01T12:24:28.000Z</time>
      </trkpt>
      <trkpt lat="45.81083" lon="4.73672">
        <ele>325.42038</ele>
        <time>2023-05-01T12:24:29.000Z</time>
      </trkpt>
      <trkpt lat="45.81078" lon="4.73671">
        <ele>325.19435</ele>
        <time>2023-05-01T12:24:30.000Z</time>
      </trkpt>
      <trkpt lat="45.81073" lon="4.7367">
        <ele>324.93693</ele>
        <time>2023-05-01T12:24:31.000Z</time>
      </trkpt>
      <trkpt lat="45.81068" lon="4.7367">
        <ele>324.70191</ele>
        <time>2023-05-01T12:24:32.000Z</time>
      </trkpt>
      <trkpt lat="45.81064" lon="4.73669">
        <ele>324.51459</ele>
        <time>2023-05-01T12:24:33.000Z</time>
      </trkpt>
      <trkpt lat="45.8106" lon="4.73667">
        <ele>324.36323</ele>
        <time>2023-05-01T12:24:34.000Z</time>
      </trkpt>
      <trkpt lat="45.81057" lon="4.73666">
        <ele>324.2684</ele>
        <time>2023-05-01T12:24:35.000Z</time>
      </trkpt>
      <trkpt lat="45.81055" lon="4.73665">
        <ele>324.20952</ele>
        <time>2023-05-01T12:24:36.000Z</time>
      </trkpt>
      <trkpt lat="45.81052" lon="4.73664">
        <ele>324.16102</ele>
        <time>2023-05-01T12:24:37.000Z</time>
      </trkpt>
      <trkpt lat="45.8105" lon="4.73664">
        <ele>324.12957</ele>
        <time>2023-05-01T12:24:38.000Z</time>
      </trkpt>
      <trkpt lat="45.81049" lon="4.73663">
        <ele>324.09781</ele>
        <time>2023-05-01T12:24:39.000Z</time>
      </trkpt>
      <trkpt lat="45.81047" lon="4.73662">
        <ele>324.0679</ele>
        <time>2023-05-01T12:24:40.000Z</time>
      </trkpt>
      <trkpt lat="45.81045" lon="4.73662">
        <ele>324.04163</ele>
        <time>2023-05-01T12:24:41.000Z</time>
      </trkpt>
      <trkpt lat="45.81043" lon="4.73662">
        <ele>324.01402</ele>
        <time>2023-05-01T12:24:42.000Z</time>
      </trkpt>
      <trkpt lat="45.81041" lon="4.73663">
        <ele>323.99607</ele>
        <time>2023-05-01T12:24:43.000Z</time>
      </trkpt>
      <trkpt lat="45.81039" lon="4.73665">
        <ele>323.97643</ele>
        <time>2023-05-01T12:24:44.000Z</time>
      </trkpt>
      <trkpt lat="45.81038" lon="4.73668">
        <ele>323.96618</ele>
        <time>2023-05-01T12:24:45.000Z</time>
      </trkpt>
      <trkpt lat="45.81036" lon="4.73671">
        <ele>323.95461</ele>
        <time>2023-05-01T12:24:46.000Z</time>
      </trkpt>
      <trkpt lat="45.81034" lon="4.73675">
        <ele>323.89838</ele>
        <time>2023-05-01T12:24:47.000Z</time>
      </trkpt>
      <trkpt lat="45.81031" lon="4.73679">
        <ele>323.7476</ele>
        <time>2023-05-01T12:24:48.000Z</time>
      </trkpt>
      <trkpt lat="45.81028" lon="4.73683">
        <ele>323.51202</ele>
        <time>2023-05-01T12:24:49.000Z</time>
      </trkpt>
      <trkpt lat="45.81025" lon="4.73687">
        <ele>323.26809</ele>
        <time>2023-05-01T12:24:50.000Z</time>
      </trkpt>
      <trkpt lat="45.81022" lon="4.73691">
        <ele>323.10623</ele>
        <time>2023-05-01T12:24:51.000Z</time>
      </trkpt>
      <trkpt lat="45.8102" lon="4.73696">
        <ele>323.06415</ele>
        <time>2023-05-01T12:24:52.000Z</time>
      </trkpt>
      <trkpt lat="45.81017" lon="4.73699">
        <ele>323.09321</ele>
        <time>2023-05-01T12:24:53.000Z</time>
      </trkpt>
      <trkpt lat="45.81015" lon="4.73703">
        <ele>323.17642</ele>
        <time>2023-05-01T12:24:54.000Z</time>
      </trkpt>
      <trkpt lat="45.81013" lon="4.73706">
        <ele>323.26465</ele>
        <time>2023-05-01T12:24:55.000Z</time>
      </trkpt>
      <trkpt lat="45.81011" lon="4.73709">
        <ele>323.32333</ele>
        <time>2023-05-01T12:24:56.000Z</time>
      </trkpt>
      <trkpt lat="45.81009" lon="4.73712">
        <ele>323.31108</ele>
        <time>2023-05-01T12:24:57.000Z</time>
      </trkpt>
      <trkpt lat="45.81008" lon="4.73714">
        <ele>323.25191</ele>
        <time>2023-05-01T12:24:58.000Z</time>
      </trkpt>
      <trkpt lat="45.81006" lon="4.73716">
        <ele>323.14046</ele>
        <time>2023-05-01T12:24:59.000Z</time>
      </trkpt>
      <trkpt lat="45.81005" lon="4.73718">
        <ele>323.06174</ele>
        <time>2023-05-01T12:25:00.000Z</time>
      </trkpt>
      <trkpt lat="45.81003" lon="4.7372">
        <ele>322.93007</ele>
        <time>2023-05-01T12:25:01.000Z</time>
      </trkpt>
      <trkpt lat="45.81" lon="4.73723">
        <ele>322.73986</ele>
        <time>2023-05-01T12:25:02.000Z</time>
      </trkpt>
      <trkpt lat="45.80998" lon="4.73725">
        <ele>322.52725</ele>
        <time>2023-05-01T12:25:03.000Z</time>
      </trkpt>
      <trkpt lat="45.80995" lon="4.73725">
        <ele>322.23643</ele>
        <time>2023-05-01T12:25:04.000Z</time>
      </trkpt>
      <trkpt lat="45.80992" lon="4.73724">
        <ele>321.91102</ele>
        <time>2023-05-01T12:25:05.000Z</time>
      </trkpt>
      <trkpt lat="45.8099" lon="4.73721">
        <ele>321.57322</ele>
        <time>2023-05-01T12:25:06.000Z</time>
      </trkpt>
      <trkpt lat="45.80988" lon="4.73718">
        <ele>321.30329</ele>
        <time>2023-05-01T12:25:07.000Z</time>
      </trkpt>
      <trkpt lat="45.80988" lon="4.73712">
        <ele>321.12081</ele>
        <time>2023-05-01T12:25:08.000Z</time>
      </trkpt>
      <trkpt lat="45.80987" lon="4.73706">
        <ele>320.9858</ele>
        <time>2023-05-01T12:25:09.000Z</time>
      </trkpt>
      <trkpt lat="45.80986" lon="4.737">
        <ele>320.89544</ele>
        <time>2023-05-01T12:25:10.000Z</time>
      </trkpt>
      <trkpt lat="45.80985" lon="4.73694">
        <ele>320.90173</ele>
        <time>2023-05-01T12:25:11.000Z</time>
      </trkpt>
      <trkpt lat="45.80985" lon="4.73689">
        <ele>321.00027</ele>
        <time>2023-05-01T12:25:12.000Z</time>
      </trkpt>
      <trkpt lat="45.80984" lon="4.73683">
        <ele>321.17644</ele>
        <time>2023-05-01T12:25:13.000Z</time>
      </trkpt>
      <trkpt lat="45.80984" lon="4.73677">
        <ele>321.56604</ele>
        <time>2023-05-01T12:25:14.000Z</time>
      </trkpt>
      <trkpt lat="45.80983" lon="4.73672">
        <ele>322.08933</ele>
        <time>2023-05-01T12:25:15.000Z</time>
      </trkpt>
      <trkpt lat="45.80983" lon="4.73666">
        <ele>322.69494</ele>
        <time>2023-05-01T12:25:16.000Z</time>
      </trkpt>
      <trkpt lat="45.80982" lon="4.73661">
        <ele>323.37054</ele>
        <time>2023-05-01T12:25:17.000Z</time>
      </trkpt>
      <trkpt lat="45.80982" lon="4.73656">
        <ele>324.02188</ele>
        <time>2023-05-01T12:25:18.000Z</time>
      </trkpt>
      <trkpt lat="45.80982" lon="4.73651">
        <ele>324.62107</ele>
        <time>2023-05-01T12:25:19.000Z</time>
      </trkpt>
      <trkpt lat="45.80981" lon="4.73646">
        <ele>325.31005</ele>
        <time>2023-05-01T12:25:20.000Z</time>
      </trkpt>
      <trkpt lat="45.8098" lon="4.73641">
        <ele>325.90408</ele>
        <time>2023-05-01T12:25:21.000Z</time>
      </trkpt>
      <trkpt lat="45.8098" lon="4.73636">
        <ele>326.45085</ele>
        <time>2023-05-01T12:25:22.000Z</time>
      </trkpt>
      <trkpt lat="45.8098" lon="4.7363">
        <ele>326.92626</ele>
        <time>2023-05-01T12:25:23.000Z</time>
      </trkpt>
      <trkpt lat="45.80979" lon="4.73625">
        <ele>327.39965</ele>
        <time>2023-05-01T12:25:24.000Z</time>
      </trkpt>
      <trkpt lat="45.8098" lon="4.73621">
        <ele>327.77814</ele>
        <time>2023-05-01T12:25:25.000Z</time>
      </trkpt>
      <trkpt lat="45.80981" lon="4.73617">
        <ele>327.97665</ele>
        <time>2023-05-01T12:25:26.000Z</time>
      </trkpt>
      <trkpt lat="45.80981" lon="4.73614">
        <ele>328.13378</ele>
        <time>2023-05-01T12:25:27.000Z</time>
      </trkpt>
      <trkpt lat="45.80981" lon="4.73614">
        <ele>328.13378</ele>
        <time>2023-05-01T12:25:27.000Z</time>
      </trkpt>
      <trkpt lat="45.80982" lon="4.73611">
        <ele>328.29904</ele>
        <time>2023-05-01T12:25:28.000Z</time>
      </trkpt>
      <trkpt lat="45.80983" lon="4.73609">
        <ele>328.43536</ele>
        <time>2023-05-01T12:25:29.000Z</time>
      </trkpt>
      <trkpt lat="45.80984" lon="4.73606">
        <ele>328.62512</ele>
        <time>2023-05-01T12:25:30.000Z</time>
      </trkpt>
      <trkpt lat="45.80986" lon="4.73604">
        <ele>328.66512</ele>
        <time>2023-05-01T12:25:31.000Z</time>
      </trkpt>
      <trkpt lat="45.80987" lon="4.73601">
        <ele>328.76495</ele>
        <time>2023-05-01T12:25:32.000Z</time>
      </trkpt>
      <trkpt lat="45.80988" lon="4.73599">
        <ele>328.87314</ele>
        <time>2023-05-01T12:25:33.000Z</time>
      </trkpt>
      <trkpt lat="45.8099" lon="4.73596">
        <ele>329.04412</ele>
        <time>2023-05-01T12:25:35.000Z</time>
      </trkpt>
      <trkpt lat="45.80991" lon="4.73593">
        <ele>329.1968</ele>
        <time>2023-05-01T12:25:36.000Z</time>
      </trkpt>
      <trkpt lat="45.80992" lon="4.7359">
        <ele>329.28811</ele>
        <time>2023-05-01T12:25:37.000Z</time>
      </trkpt>
      <trkpt lat="45.80994" lon="4.73588">
        <ele>329.28413</ele>
        <time>2023-05-01T12:25:38.000Z</time>
      </trkpt>
      <trkpt lat="45.80996" lon="4.73585">
        <ele>329.28743</ele>
        <time>2023-05-01T12:25:39.000Z</time>
      </trkpt>
      <trkpt lat="45.80997" lon="4.73582">
        <ele>329.30614</ele>
        <time>2023-05-01T12:25:40.000Z</time>
      </trkpt>
      <trkpt lat="45.80999" lon="4.73579">
        <ele>329.31902</ele>
        <time>2023-05-01T12:25:41.000Z</time>
      </trkpt>
      <trkpt lat="45.81001" lon="4.73575">
        <ele>329.32593</ele>
        <time>2023-05-01T12:25:42.000Z</time>
      </trkpt>
      <trkpt lat="45.81004" lon="4.73571">
        <ele>329.36085</ele>
        <time>2023-05-01T12:25:43.000Z</time>
      </trkpt>
      <trkpt lat="45.81006" lon="4.73568">
        <ele>329.45671</ele>
        <time>2023-05-01T12:25:44.000Z</time>
      </trkpt>
      <trkpt lat="45.81009" lon="4.73564">
        <ele>329.61718</ele>
        <time>2023-05-01T12:25:45.000Z</time>
      </trkpt>
      <trkpt lat="45.81012" lon="4.7356">
        <ele>329.83345</ele>
        <time>2023-05-01T12:25:46.000Z</time>
      </trkpt>
      <trkpt lat="45.81015" lon="4.73556">
        <ele>330.03148</ele>
        <time>2023-05-01T12:25:47.000Z</time>
      </trkpt>
      <trkpt lat="45.81018" lon="4.73552">
        <ele>330.21533</ele>
        <time>2023-05-01T12:25:48.000Z</time>
      </trkpt>
      <trkpt lat="45.81021" lon="4.73547">
        <ele>330.32211</ele>
        <time>2023-05-01T12:25:49.000Z</time>
      </trkpt>
      <trkpt lat="45.81024" lon="4.73544">
        <ele>330.26433</ele>
        <time>2023-05-01T12:25:50.000Z</time>
      </trkpt>
      <trkpt lat="45.81027" lon="4.7354">
        <ele>330.1098</ele>
        <time>2023-05-01T12:25:51.000Z</time>
      </trkpt>
      <trkpt lat="45.8103" lon="4.73536">
        <ele>329.86193</ele>
        <time>2023-05-01T12:25:52.000Z</time>
      </trkpt>
      <trkpt lat="45.81033" lon="4.73532">
        <ele>329.59322</ele>
        <time>2023-05-01T12:25:53.000Z</time>
      </trkpt>
      <trkpt lat="45.81036" lon="4.73527">
        <ele>329.377</ele>
        <time>2023-05-01T12:25:54.000Z</time>
      </trkpt>
      <trkpt lat="45.8104" lon="4.73523">
        <ele>329.31321</ele>
        <time>2023-05-01T12:25:55.000Z</time>
      </trkpt>
      <trkpt lat="45.81043" lon="4.73519">
        <ele>329.4328</ele>
        <time>2023-05-01T12:25:56.000Z</time>
      </trkpt>
      <trkpt lat="45.81046" lon="4.73515">
        <ele>329.62869</ele>
        <time>2023-05-01T12:25:57.000Z</time>
      </trkpt>
      <trkpt lat="45.8105" lon="4.73511">
        <ele>329.76632</ele>
        <time>2023-05-01T12:25:58.000Z</time>
      </trkpt>
      <trkpt lat="45.81053" lon="4.73506">
        <ele>329.75585</ele>
        <time>2023-05-01T12:25:59.000Z</time>
      </trkpt>
      <trkpt lat="45.81056" lon="4.73502">
        <ele>329.61982</ele>
        <time>2023-05-01T12:26:00.000Z</time>
      </trkpt>
      <trkpt lat="45.8106" lon="4.73498">
        <ele>329.44201</ele>
        <time>2023-05-01T12:26:01.000Z</time>
      </trkpt>
      <trkpt lat="45.81064" lon="4.73494">
        <ele>329.31391</ele>
        <time>2023-05-01T12:26:02.000Z</time>
      </trkpt>
      <trkpt lat="45.81067" lon="4.73489">
        <ele>329.31095</ele>
        <time>2023-05-01T12:26:03.000Z</time>
      </trkpt>
      <trkpt lat="45.81071" lon="4.73486">
        <ele>329.45001</ele>
        <time>2023-05-01T12:26:04.000Z</time>
      </trkpt>
      <trkpt lat="45.81075" lon="4.73481">
        <ele>329.59818</ele>
        <time>2023-05-01T12:26:05.000Z</time>
      </trkpt>
      <trkpt lat="45.81079" lon="4.73478">
        <ele>329.81077</ele>
        <time>2023-05-01T12:26:06.000Z</time>
      </trkpt>
      <trkpt lat="45.81083" lon="4.73474">
        <ele>329.94584</ele>
        <time>2023-05-01T12:26:07.000Z</time>
      </trkpt>
      <trkpt lat="45.81087" lon="4.7347">
        <ele>330.13509</ele>
        <time>2023-05-01T12:26:08.000Z</time>
      </trkpt>
      <trkpt lat="45.81092" lon="4.73466">
        <ele>330.5167</ele>
        <time>2023-05-01T12:26:09.000Z</time>
      </trkpt>
      <trkpt lat="45.81097" lon="4.73463">
        <ele>330.98961</ele>
        <time>2023-05-01T12:26:10.000Z</time>
      </trkpt>
      <trkpt lat="45.81101" lon="4.73459">
        <ele>331.24504</ele>
        <time>2023-05-01T12:26:11.000Z</time>
      </trkpt>
      <trkpt lat="45.81106" lon="4.73455">
        <ele>331.29555</ele>
        <time>2023-05-01T12:26:12.000Z</time>
      </trkpt>
      <trkpt lat="45.8111" lon="4.73452">
        <ele>331.07341</ele>
        <time>2023-05-01T12:26:13.000Z</time>
      </trkpt>
      <trkpt lat="45.81115" lon="4.73449">
        <ele>330.91167</ele>
        <time>2023-05-01T12:26:14.000Z</time>
      </trkpt>
      <trkpt lat="45.81119" lon="4.73445">
        <ele>330.62924</ele>
        <time>2023-05-01T12:26:15.000Z</time>
      </trkpt>
      <trkpt lat="45.81124" lon="4.73442">
        <ele>330.49266</ele>
        <time>2023-05-01T12:26:16.000Z</time>
      </trkpt>
      <trkpt lat="45.81129" lon="4.73439">
        <ele>330.39926</ele>
        <time>2023-05-01T12:26:17.000Z</time>
      </trkpt>
      <trkpt lat="45.81134" lon="4.73436">
        <ele>330.43209</ele>
        <time>2023-05-01T12:26:18.000Z</time>
      </trkpt>
      <trkpt lat="45.81138" lon="4.73432">
        <ele>330.7566</ele>
        <time>2023-05-01T12:26:19.000Z</time>
      </trkpt>
      <trkpt lat="45.81143" lon="4.73429">
        <ele>331.08777</ele>
        <time>2023-05-01T12:26:20.000Z</time>
      </trkpt>
      <trkpt lat="45.81148" lon="4.73426">
        <ele>331.28464</ele>
        <time>2023-05-01T12:26:21.000Z</time>
      </trkpt>
      <trkpt lat="45.81152" lon="4.73423">
        <ele>331.36195</ele>
        <time>2023-05-01T12:26:22.000Z</time>
      </trkpt>
      <trkpt lat="45.81157" lon="4.7342">
        <ele>331.12987</ele>
        <time>2023-05-01T12:26:23.000Z</time>
      </trkpt>
      <trkpt lat="45.81162" lon="4.73416">
        <ele>330.84559</ele>
        <time>2023-05-01T12:26:24.000Z</time>
      </trkpt>
      <trkpt lat="45.81166" lon="4.73414">
        <ele>330.68163</ele>
        <time>2023-05-01T12:26:25.000Z</time>
      </trkpt>
      <trkpt lat="45.81171" lon="4.7341">
        <ele>330.52091</ele>
        <time>2023-05-01T12:26:26.000Z</time>
      </trkpt>
      <trkpt lat="45.81176" lon="4.73407">
        <ele>330.56333</ele>
        <time>2023-05-01T12:26:27.000Z</time>
      </trkpt>
      <trkpt lat="45.81181" lon="4.73404">
        <ele>330.74818</ele>
        <time>2023-05-01T12:26:28.000Z</time>
      </trkpt>
      <trkpt lat="45.81186" lon="4.73399">
        <ele>330.96435</ele>
        <time>2023-05-01T12:26:29.000Z</time>
      </trkpt>
      <trkpt lat="45.81192" lon="4.73396">
        <ele>331.14663</ele>
        <time>2023-05-01T12:26:30.000Z</time>
      </trkpt>
      <trkpt lat="45.81197" lon="4.73392">
        <ele>331.13938</ele>
        <time>2023-05-01T12:26:31.000Z</time>
      </trkpt>
      <trkpt lat="45.81202" lon="4.73389">
        <ele>330.85977</ele>
        <time>2023-05-01T12:26:32.000Z</time>
      </trkpt>
      <trkpt lat="45.81208" lon="4.73385">
        <ele>330.58225</ele>
        <time>2023-05-01T12:26:33.000Z</time>
      </trkpt>
      <trkpt lat="45.81214" lon="4.73381">
        <ele>330.44039</ele>
        <time>2023-05-01T12:26:34.000Z</time>
      </trkpt>
      <trkpt lat="45.81219" lon="4.73377">
        <ele>330.45321</ele>
        <time>2023-05-01T12:26:35.000Z</time>
      </trkpt>
      <trkpt lat="45.81225" lon="4.73373">
        <ele>330.55424</ele>
        <time>2023-05-01T12:26:36.000Z</time>
      </trkpt>
      <trkpt lat="45.81231" lon="4.73369">
        <ele>330.55773</ele>
        <time>2023-05-01T12:26:37.000Z</time>
      </trkpt>
      <trkpt lat="45.81236" lon="4.73365">
        <ele>330.41779</ele>
        <time>2023-05-01T12:26:38.000Z</time>
      </trkpt>
      <trkpt lat="45.81242" lon="4.73361">
        <ele>330.18502</ele>
        <time>2023-05-01T12:26:39.000Z</time>
      </trkpt>
      <trkpt lat="45.81248" lon="4.73357">
        <ele>329.9676</ele>
        <time>2023-05-01T12:26:40.000Z</time>
      </trkpt>
      <trkpt lat="45.81253" lon="4.73353">
        <ele>329.95537</ele>
        <time>2023-05-01T12:26:41.000Z</time>
      </trkpt>
      <trkpt lat="45.81259" lon="4.73349">
        <ele>330.1949</ele>
        <time>2023-05-01T12:26:42.000Z</time>
      </trkpt>
      <trkpt lat="45.81265" lon="4.73345">
        <ele>330.50461</ele>
        <time>2023-05-01T12:26:43.000Z</time>
      </trkpt>
      <trkpt lat="45.81271" lon="4.73341">
        <ele>330.67914</ele>
        <time>2023-05-01T12:26:44.000Z</time>
      </trkpt>
      <trkpt lat="45.81277" lon="4.73338">
        <ele>330.64176</ele>
        <time>2023-05-01T12:26:45.000Z</time>
      </trkpt>
      <trkpt lat="45.81282" lon="4.73333">
        <ele>330.48086</ele>
        <time>2023-05-01T12:26:46.000Z</time>
      </trkpt>
      <trkpt lat="45.81289" lon="4.73329">
        <ele>330.29212</ele>
        <time>2023-05-01T12:26:47.000Z</time>
      </trkpt>
      <trkpt lat="45.81295" lon="4.73326">
        <ele>330.15575</ele>
        <time>2023-05-01T12:26:48.000Z</time>
      </trkpt>
      <trkpt lat="45.81301" lon="4.73322">
        <ele>329.97057</ele>
        <time>2023-05-01T12:26:49.000Z</time>
      </trkpt>
      <trkpt lat="45.81307" lon="4.73318">
        <ele>329.77829</ele>
        <time>2023-05-01T12:26:50.000Z</time>
      </trkpt>
      <trkpt lat="45.81314" lon="4.73315">
        <ele>329.62887</ele>
        <time>2023-05-01T12:26:51.000Z</time>
      </trkpt>
      <trkpt lat="45.81321" lon="4.73311">
        <ele>329.53198</ele>
        <time>2023-05-01T12:26:52.000Z</time>
      </trkpt>
      <trkpt lat="45.81328" lon="4.73308">
        <ele>329.48917</ele>
        <time>2023-05-01T12:26:53.000Z</time>
      </trkpt>
      <trkpt lat="45.81334" lon="4.73304">
        <ele>329.45394</ele>
        <time>2023-05-01T12:26:54.000Z</time>
      </trkpt>
      <trkpt lat="45.81341" lon="4.73301">
        <ele>329.36459</ele>
        <time>2023-05-01T12:26:55.000Z</time>
      </trkpt>
      <trkpt lat="45.81348" lon="4.73298">
        <ele>329.17192</ele>
        <time>2023-05-01T12:26:56.000Z</time>
      </trkpt>
      <trkpt lat="45.81355" lon="4.73294">
        <ele>328.8704</ele>
        <time>2023-05-01T12:26:57.000Z</time>
      </trkpt>
      <trkpt lat="45.81362" lon="4.73291">
        <ele>328.61498</ele>
        <time>2023-05-01T12:26:58.000Z</time>
      </trkpt>
      <trkpt lat="45.81369" lon="4.73288">
        <ele>328.51034</ele>
        <time>2023-05-01T12:26:59.000Z</time>
      </trkpt>
      <trkpt lat="45.81376" lon="4.73283">
        <ele>328.56325</ele>
        <time>2023-05-01T12:27:00.000Z</time>
      </trkpt>
      <trkpt lat="45.81382" lon="4.7328">
        <ele>328.66217</ele>
        <time>2023-05-01T12:27:01.000Z</time>
      </trkpt>
      <trkpt lat="45.81388" lon="4.73276">
        <ele>328.75377</ele>
        <time>2023-05-01T12:27:02.000Z</time>
      </trkpt>
      <trkpt lat="45.81394" lon="4.73273">
        <ele>328.75124</ele>
        <time>2023-05-01T12:27:03.000Z</time>
      </trkpt>
      <trkpt lat="45.81401" lon="4.73269">
        <ele>328.60952</ele>
        <time>2023-05-01T12:27:04.000Z</time>
      </trkpt>
      <trkpt lat="45.81406" lon="4.73265">
        <ele>328.39598</ele>
        <time>2023-05-01T12:27:05.000Z</time>
      </trkpt>
      <trkpt lat="45.81411" lon="4.73259">
        <ele>328.17884</ele>
        <time>2023-05-01T12:27:06.000Z</time>
      </trkpt>
      <trkpt lat="45.81416" lon="4.73253">
        <ele>328.04945</ele>
        <time>2023-05-01T12:27:07.000Z</time>
      </trkpt>
      <trkpt lat="45.81421" lon="4.73247">
        <ele>328.08744</ele>
        <time>2023-05-01T12:27:08.000Z</time>
      </trkpt>
      <trkpt lat="45.81426" lon="4.73241">
        <ele>328.24237</ele>
        <time>2023-05-01T12:27:09.000Z</time>
      </trkpt>
      <trkpt lat="45.8143" lon="4.73235">
        <ele>328.36872</ele>
        <time>2023-05-01T12:27:10.000Z</time>
      </trkpt>
      <trkpt lat="45.81435" lon="4.7323">
        <ele>328.40588</ele>
        <time>2023-05-01T12:27:11.000Z</time>
      </trkpt>
      <trkpt lat="45.81439" lon="4.73225">
        <ele>328.25894</ele>
        <time>2023-05-01T12:27:12.000Z</time>
      </trkpt>
      <trkpt lat="45.81444" lon="4.7322">
        <ele>328.11096</ele>
        <time>2023-05-01T12:27:13.000Z</time>
      </trkpt>
      <trkpt lat="45.81448" lon="4.73215">
        <ele>328.10774</ele>
        <time>2023-05-01T12:27:14.000Z</time>
      </trkpt>
      <trkpt lat="45.81452" lon="4.7321">
        <ele>328.22342</ele>
        <time>2023-05-01T12:27:15.000Z</time>
      </trkpt>
      <trkpt lat="45.81456" lon="4.73205">
        <ele>328.35662</ele>
        <time>2023-05-01T12:27:16.000Z</time>
      </trkpt>
      <trkpt lat="45.8146" lon="4.73202">
        <ele>328.30994</ele>
        <time>2023-05-01T12:27:17.000Z</time>
      </trkpt>
      <trkpt lat="45.81464" lon="4.73202">
        <ele>328.10102</ele>
        <time>2023-05-01T12:27:18.000Z</time>
      </trkpt>
      <trkpt lat="45.81467" lon="4.73204">
        <ele>327.93302</ele>
        <time>2023-05-01T12:27:19.000Z</time>
      </trkpt>
      <trkpt lat="45.81471" lon="4.73206">
        <ele>327.85725</ele>
        <time>2023-05-01T12:27:20.000Z</time>
      </trkpt>
      <trkpt lat="45.81474" lon="4.73207">
        <ele>327.81888</ele>
        <time>2023-05-01T12:27:21.000Z</time>
      </trkpt>
      <trkpt lat="45.81477" lon="4.73207">
        <ele>327.78706</ele>
        <time>2023-05-01T12:27:22.000Z</time>
      </trkpt>
      <trkpt lat="45.8148" lon="4.73205">
        <ele>327.75422</ele>
        <time>2023-05-01T12:27:23.000Z</time>
      </trkpt>
      <trkpt lat="45.81482" lon="4.73203">
        <ele>327.7465</ele>
        <time>2023-05-01T12:27:24.000Z</time>
      </trkpt>
      <trkpt lat="45.81485" lon="4.73201">
        <ele>327.75517</ele>
        <time>2023-05-01T12:27:25.000Z</time>
      </trkpt>
      <trkpt lat="45.81488" lon="4.73199">
        <ele>327.79248</ele>
        <time>2023-05-01T12:27:26.000Z</time>
      </trkpt>
      <trkpt lat="45.8149" lon="4.73196">
        <ele>327.84489</ele>
        <time>2023-05-01T12:27:27.000Z</time>
      </trkpt>
      <trkpt lat="45.81493" lon="4.73194">
        <ele>327.899</ele>
        <time>2023-05-01T12:27:28.000Z</time>
      </trkpt>
      <trkpt lat="45.81496" lon="4.73192">
        <ele>327.92758</ele>
        <time>2023-05-01T12:27:29.000Z</time>
      </trkpt>
      <trkpt lat="45.81499" lon="4.73189">
        <ele>327.93192</ele>
        <time>2023-05-01T12:27:30.000Z</time>
      </trkpt>
      <trkpt lat="45.81502" lon="4.73187">
        <ele>327.92961</ele>
        <time>2023-05-01T12:27:31.000Z</time>
      </trkpt>
      <trkpt lat="45.81505" lon="4.73185">
        <ele>327.92075</ele>
        <time>2023-05-01T12:27:32.000Z</time>
      </trkpt>
      <trkpt lat="45.81509" lon="4.73183">
        <ele>327.92165</ele>
        <time>2023-05-01T12:27:33.000Z</time>
      </trkpt>
      <trkpt lat="45.81512" lon="4.7318">
        <ele>327.95012</ele>
        <time>2023-05-01T12:27:34.000Z</time>
      </trkpt>
      <trkpt lat="45.81515" lon="4.73178">
        <ele>328.0138</ele>
        <time>2023-05-01T12:27:35.000Z</time>
      </trkpt>
      <trkpt lat="45.81519" lon="4.73175">
        <ele>328.08515</ele>
        <time>2023-05-01T12:27:36.000Z</time>
      </trkpt>
      <trkpt lat="45.81523" lon="4.73173">
        <ele>328.15432</ele>
        <time>2023-05-01T12:27:37.000Z</time>
      </trkpt>
      <trkpt lat="45.81526" lon="4.73171">
        <ele>328.22624</ele>
        <time>2023-05-01T12:27:38.000Z</time>
      </trkpt>
      <trkpt lat="45.8153" lon="4.73168">
        <ele>328.28017</ele>
        <time>2023-05-01T12:27:39.000Z</time>
      </trkpt>
      <trkpt lat="45.81534" lon="4.73166">
        <ele>328.30943</ele>
        <time>2023-05-01T12:27:40.000Z</time>
      </trkpt>
      <trkpt lat="45.81537" lon="4.73164">
        <ele>328.31235</ele>
        <time>2023-05-01T12:27:41.000Z</time>
      </trkpt>
      <trkpt lat="45.81541" lon="4.73161">
        <ele>328.30259</ele>
        <time>2023-05-01T12:27:42.000Z</time>
      </trkpt>
      <trkpt lat="45.81544" lon="4.73158">
        <ele>328.27935</ele>
        <time>2023-05-01T12:27:43.000Z</time>
      </trkpt>
      <trkpt lat="45.81548" lon="4.73155">
        <ele>328.24089</ele>
        <time>2023-05-01T12:27:44.000Z</time>
      </trkpt>
      <trkpt lat="45.81552" lon="4.73153">
        <ele>328.21045</ele>
        <time>2023-05-01T12:27:45.000Z</time>
      </trkpt>
      <trkpt lat="45.81555" lon="4.7315">
        <ele>328.21043</ele>
        <time>2023-05-01T12:27:46.000Z</time>
      </trkpt>
      <trkpt lat="45.81558" lon="4.73147">
        <ele>328.2737</ele>
        <time>2023-05-01T12:27:47.000Z</time>
      </trkpt>
      <trkpt lat="45.81561" lon="4.73143">
        <ele>328.40113</ele>
        <time>2023-05-01T12:27:48.000Z</time>
      </trkpt>
      <trkpt lat="45.81564" lon="4.73139">
        <ele>328.56406</ele>
        <time>2023-05-01T12:27:49.000Z</time>
      </trkpt>
      <trkpt lat="45.81568" lon="4.73135">
        <ele>328.71448</ele>
        <time>2023-05-01T12:27:50.000Z</time>
      </trkpt>
      <trkpt lat="45.81571" lon="4.7313">
        <ele>328.85601</ele>
        <time>2023-05-01T12:27:51.000Z</time>
      </trkpt>
      <trkpt lat="45.81575" lon="4.73126">
        <ele>328.94406</ele>
        <time>2023-05-01T12:27:52.000Z</time>
      </trkpt>
      <trkpt lat="45.81578" lon="4.73121">
        <ele>328.96388</ele>
        <time>2023-05-01T12:27:53.000Z</time>
      </trkpt>
      <trkpt lat="45.81581" lon="4.73116">
        <ele>328.89744</ele>
        <time>2023-05-01T12:27:54.000Z</time>
      </trkpt>
      <trkpt lat="45.81584" lon="4.73111">
        <ele>328.76249</ele>
        <time>2023-05-01T12:27:55.000Z</time>
      </trkpt>
      <trkpt lat="45.81588" lon="4.73106">
        <ele>328.64239</ele>
        <time>2023-05-01T12:27:56.000Z</time>
      </trkpt>
      <trkpt lat="45.8159" lon="4.731">
        <ele>328.61792</ele>
        <time>2023-05-01T12:27:57.000Z</time>
      </trkpt>
      <trkpt lat="45.81593" lon="4.73095">
        <ele>328.72491</ele>
        <time>2023-05-01T12:27:58.000Z</time>
      </trkpt>
      <trkpt lat="45.81596" lon="4.7309">
        <ele>328.93582</ele>
        <time>2023-05-01T12:27:59.000Z</time>
      </trkpt>
      <trkpt lat="45.81598" lon="4.73085">
        <ele>329.17311</ele>
        <time>2023-05-01T12:28:00.000Z</time>
      </trkpt>
      <trkpt lat="45.81602" lon="4.7308">
        <ele>329.38155</ele>
        <time>2023-05-01T12:28:01.000Z</time>
      </trkpt>
      <trkpt lat="45.81604" lon="4.73075">
        <ele>329.50519</ele>
        <time>2023-05-01T12:28:02.000Z</time>
      </trkpt>
      <trkpt lat="45.81607" lon="4.7307">
        <ele>329.58612</ele>
        <time>2023-05-01T12:28:03.000Z</time>
      </trkpt>
      <trkpt lat="45.81609" lon="4.73065">
        <ele>329.66534</ele>
        <time>2023-05-01T12:28:04.000Z</time>
      </trkpt>
      <trkpt lat="45.81611" lon="4.73061">
        <ele>329.77793</ele>
        <time>2023-05-01T12:28:05.000Z</time>
      </trkpt>
      <trkpt lat="45.81614" lon="4.73057">
        <ele>329.98191</ele>
        <time>2023-05-01T12:28:06.000Z</time>
      </trkpt>
      <trkpt lat="45.81617" lon="4.73052">
        <ele>330.19877</ele>
        <time>2023-05-01T12:28:07.000Z</time>
      </trkpt>
      <trkpt lat="45.8162" lon="4.73047">
        <ele>330.38679</ele>
        <time>2023-05-01T12:28:08.000Z</time>
      </trkpt>
      <trkpt lat="45.81622" lon="4.73042">
        <ele>330.51783</ele>
        <time>2023-05-01T12:28:09.000Z</time>
      </trkpt>
      <trkpt lat="45.81625" lon="4.73037">
        <ele>330.58554</ele>
        <time>2023-05-01T12:28:10.000Z</time>
      </trkpt>
      <trkpt lat="45.81628" lon="4.73032">
        <ele>330.59235</ele>
        <time>2023-05-01T12:28:11.000Z</time>
      </trkpt>
      <trkpt lat="45.8163" lon="4.73027">
        <ele>330.61884</ele>
        <time>2023-05-01T12:28:12.000Z</time>
      </trkpt>
      <trkpt lat="45.81633" lon="4.73022">
        <ele>330.69211</ele>
        <time>2023-05-01T12:28:13.000Z</time>
      </trkpt>
      <trkpt lat="45.81636" lon="4.73016">
        <ele>330.84565</ele>
        <time>2023-05-01T12:28:14.000Z</time>
      </trkpt>
      <trkpt lat="45.81639" lon="4.7301">
        <ele>331.05355</ele>
        <time>2023-05-01T12:28:15.000Z</time>
      </trkpt>
      <trkpt lat="45.81643" lon="4.73005">
        <ele>331.26008</ele>
        <time>2023-05-01T12:28:16.000Z</time>
      </trkpt>
      <trkpt lat="45.81645" lon="4.72999">
        <ele>331.42181</ele>
        <time>2023-05-01T12:28:17.000Z</time>
      </trkpt>
      <trkpt lat="45.81648" lon="4.72993">
        <ele>331.51813</ele>
        <time>2023-05-01T12:28:18.000Z</time>
      </trkpt>
      <trkpt lat="45.81652" lon="4.72988">
        <ele>331.54923</ele>
        <time>2023-05-01T12:28:19.000Z</time>
      </trkpt>
      <trkpt lat="45.81655" lon="4.72983">
        <ele>331.54079</ele>
        <time>2023-05-01T12:28:20.000Z</time>
      </trkpt>
      <trkpt lat="45.81658" lon="4.72979">
        <ele>331.53876</ele>
        <time>2023-05-01T12:28:21.000Z</time>
      </trkpt>
      <trkpt lat="45.81662" lon="4.72974">
        <ele>331.58872</ele>
        <time>2023-05-01T12:28:22.000Z</time>
      </trkpt>
      <trkpt lat="45.81664" lon="4.72968">
        <ele>331.6803</ele>
        <time>2023-05-01T12:28:23.000Z</time>
      </trkpt>
      <trkpt lat="45.81666" lon="4.72963">
        <ele>331.83241</ele>
        <time>2023-05-01T12:28:24.000Z</time>
      </trkpt>
      <trkpt lat="45.81669" lon="4.72959">
        <ele>332.0036</ele>
        <time>2023-05-01T12:28:25.000Z</time>
      </trkpt>
      <trkpt lat="45.81672" lon="4.72954">
        <ele>332.118</ele>
        <time>2023-05-01T12:28:26.000Z</time>
      </trkpt>
      <trkpt lat="45.81675" lon="4.72949">
        <ele>332.16767</ele>
        <time>2023-05-01T12:28:27.000Z</time>
      </trkpt>
      <trkpt lat="45.81678" lon="4.72944">
        <ele>332.15826</ele>
        <time>2023-05-01T12:28:28.000Z</time>
      </trkpt>
      <trkpt lat="45.8168" lon="4.72938">
        <ele>332.14694</ele>
        <time>2023-05-01T12:28:29.000Z</time>
      </trkpt>
      <trkpt lat="45.81682" lon="4.72933">
        <ele>332.19507</ele>
        <time>2023-05-01T12:28:30.000Z</time>
      </trkpt>
      <trkpt lat="45.81685" lon="4.72928">
        <ele>332.31922</ele>
        <time>2023-05-01T12:28:31.000Z</time>
      </trkpt>
      <trkpt lat="45.81688" lon="4.72923">
        <ele>332.4724</ele>
        <time>2023-05-01T12:28:32.000Z</time>
      </trkpt>
      <trkpt lat="45.81691" lon="4.72918">
        <ele>332.60157</ele>
        <time>2023-05-01T12:28:33.000Z</time>
      </trkpt>
      <trkpt lat="45.81693" lon="4.72914">
        <ele>332.66894</ele>
        <time>2023-05-01T12:28:34.000Z</time>
      </trkpt>
      <trkpt lat="45.81696" lon="4.72909">
        <ele>332.70514</ele>
        <time>2023-05-01T12:28:35.000Z</time>
      </trkpt>
      <trkpt lat="45.81699" lon="4.72904">
        <ele>332.73251</ele>
        <time>2023-05-01T12:28:36.000Z</time>
      </trkpt>
      <trkpt lat="45.81702" lon="4.72901">
        <ele>332.78912</ele>
        <time>2023-05-01T12:28:37.000Z</time>
      </trkpt>
      <trkpt lat="45.81705" lon="4.72898">
        <ele>332.89307</ele>
        <time>2023-05-01T12:28:38.000Z</time>
      </trkpt>
      <trkpt lat="45.81708" lon="4.72896">
        <ele>333.0189</ele>
        <time>2023-05-01T12:28:39.000Z</time>
      </trkpt>
      <trkpt lat="45.81711" lon="4.72894">
        <ele>333.15526</ele>
        <time>2023-05-01T12:28:40.000Z</time>
      </trkpt>
      <trkpt lat="45.81714" lon="4.72893">
        <ele>333.28146</ele>
        <time>2023-05-01T12:28:41.000Z</time>
      </trkpt>
      <trkpt lat="45.81717" lon="4.72893">
        <ele>333.40469</ele>
        <time>2023-05-01T12:28:42.000Z</time>
      </trkpt>
      <trkpt lat="45.81721" lon="4.72893">
        <ele>333.50819</ele>
        <time>2023-05-01T12:28:43.000Z</time>
      </trkpt>
      <trkpt lat="45.81724" lon="4.72892">
        <ele>333.59039</ele>
        <time>2023-05-01T12:28:44.000Z</time>
      </trkpt>
      <trkpt lat="45.81728" lon="4.72891">
        <ele>333.64939</ele>
        <time>2023-05-01T12:28:45.000Z</time>
      </trkpt>
      <trkpt lat="45.81732" lon="4.7289">
        <ele>333.69323</ele>
        <time>2023-05-01T12:28:46.000Z</time>
      </trkpt>
      <trkpt lat="45.81736" lon="4.7289">
        <ele>333.72194</ele>
        <time>2023-05-01T12:28:47.000Z</time>
      </trkpt>
      <trkpt lat="45.8174" lon="4.7289">
        <ele>333.74866</ele>
        <time>2023-05-01T12:28:48.000Z</time>
      </trkpt>
      <trkpt lat="45.81745" lon="4.72889">
        <ele>333.78962</ele>
        <time>2023-05-01T12:28:49.000Z</time>
      </trkpt>
      <trkpt lat="45.8175" lon="4.72888">
        <ele>333.86817</ele>
        <time>2023-05-01T12:28:50.000Z</time>
      </trkpt>
      <trkpt lat="45.81754" lon="4.72888">
        <ele>333.97449</ele>
        <time>2023-05-01T12:28:51.000Z</time>
      </trkpt>
      <trkpt lat="45.81759" lon="4.72888">
        <ele>334.10792</ele>
        <time>2023-05-01T12:28:52.000Z</time>
      </trkpt>
      <trkpt lat="45.81764" lon="4.72887">
        <ele>334.25047</ele>
        <time>2023-05-01T12:28:53.000Z</time>
      </trkpt>
      <trkpt lat="45.81769" lon="4.72886">
        <ele>334.39051</ele>
        <time>2023-05-01T12:28:54.000Z</time>
      </trkpt>
      <trkpt lat="45.81773" lon="4.72885">
        <ele>334.50732</ele>
        <time>2023-05-01T12:28:55.000Z</time>
      </trkpt>
      <trkpt lat="45.81778" lon="4.72885">
        <ele>334.60163</ele>
        <time>2023-05-01T12:28:56.000Z</time>
      </trkpt>
      <trkpt lat="45.81782" lon="4.72884">
        <ele>334.69623</ele>
        <time>2023-05-01T12:28:57.000Z</time>
      </trkpt>
      <trkpt lat="45.81787" lon="4.72883">
        <ele>334.79578</ele>
        <time>2023-05-01T12:28:58.000Z</time>
      </trkpt>
      <trkpt lat="45.81792" lon="4.72883">
        <ele>334.89855</ele>
        <time>2023-05-01T12:28:59.000Z</time>
      </trkpt>
      <trkpt lat="45.81797" lon="4.72882">
        <ele>335.01576</ele>
        <time>2023-05-01T12:29:00.000Z</time>
      </trkpt>
      <trkpt lat="45.81802" lon="4.72882">
        <ele>335.1388</ele>
        <time>2023-05-01T12:29:01.000Z</time>
      </trkpt>
      <trkpt lat="45.81807" lon="4.72881">
        <ele>335.26705</ele>
        <time>2023-05-01T12:29:02.000Z</time>
      </trkpt>
      <trkpt lat="45.81811" lon="4.7288">
        <ele>335.4195</ele>
        <time>2023-05-01T12:29:03.000Z</time>
      </trkpt>
      <trkpt lat="45.81815" lon="4.72879">
        <ele>335.55412</ele>
        <time>2023-05-01T12:29:04.000Z</time>
      </trkpt>
      <trkpt lat="45.8182" lon="4.72879">
        <ele>335.7413</ele>
        <time>2023-05-01T12:29:05.000Z</time>
      </trkpt>
      <trkpt lat="45.81825" lon="4.72879">
        <ele>335.94189</ele>
        <time>2023-05-01T12:29:06.000Z</time>
      </trkpt>
      <trkpt lat="45.81829" lon="4.72878">
        <ele>336.14994</ele>
        <time>2023-05-01T12:29:07.000Z</time>
      </trkpt>
      <trkpt lat="45.81834" lon="4.72877">
        <ele>336.35465</ele>
        <time>2023-05-01T12:29:08.000Z</time>
      </trkpt>
      <trkpt lat="45.81838" lon="4.72876">
        <ele>336.51809</ele>
        <time>2023-05-01T12:29:09.000Z</time>
      </trkpt>
      <trkpt lat="45.81843" lon="4.72876">
        <ele>336.64267</ele>
        <time>2023-05-01T12:29:10.000Z</time>
      </trkpt>
      <trkpt lat="45.81847" lon="4.72875">
        <ele>336.71253</ele>
        <time>2023-05-01T12:29:11.000Z</time>
      </trkpt>
      <trkpt lat="45.81851" lon="4.72875">
        <ele>336.75668</ele>
        <time>2023-05-01T12:29:12.000Z</time>
      </trkpt>
      <trkpt lat="45.81855" lon="4.72874">
        <ele>336.78417</ele>
        <time>2023-05-01T12:29:13.000Z</time>
      </trkpt>
      <trkpt lat="45.8186" lon="4.72873">
        <ele>336.79693</ele>
        <time>2023-05-01T12:29:14.000Z</time>
      </trkpt>
      <trkpt lat="45.81864" lon="4.72872">
        <ele>336.79309</ele>
        <time>2023-05-01T12:29:15.000Z</time>
      </trkpt>
      <trkpt lat="45.81868" lon="4.72872">
        <ele>336.75299</ele>
        <time>2023-05-01T12:29:16.000Z</time>
      </trkpt>
      <trkpt lat="45.81872" lon="4.72871">
        <ele>336.69772</ele>
        <time>2023-05-01T12:29:17.000Z</time>
      </trkpt>
      <trkpt lat="45.81875" lon="4.72871">
        <ele>336.64499</ele>
        <time>2023-05-01T12:29:18.000Z</time>
      </trkpt>
      <trkpt lat="45.81879" lon="4.7287">
        <ele>336.60996</ele>
        <time>2023-05-01T12:29:19.000Z</time>
      </trkpt>
      <trkpt lat="45.81884" lon="4.7287">
        <ele>336.61864</ele>
        <time>2023-05-01T12:29:20.000Z</time>
      </trkpt>
      <trkpt lat="45.81888" lon="4.7287">
        <ele>336.67324</ele>
        <time>2023-05-01T12:29:21.000Z</time>
      </trkpt>
      <trkpt lat="45.81892" lon="4.7287">
        <ele>336.76343</ele>
        <time>2023-05-01T12:29:22.000Z</time>
      </trkpt>
      <trkpt lat="45.81896" lon="4.72869">
        <ele>336.87967</ele>
        <time>2023-05-01T12:29:23.000Z</time>
      </trkpt>
      <trkpt lat="45.819" lon="4.72869">
        <ele>337.00398</ele>
        <time>2023-05-01T12:29:24.000Z</time>
      </trkpt>
      <trkpt lat="45.81904" lon="4.72869">
        <ele>337.11378</ele>
        <time>2023-05-01T12:29:25.000Z</time>
      </trkpt>
      <trkpt lat="45.81908" lon="4.72868">
        <ele>337.20185</ele>
        <time>2023-05-01T12:29:26.000Z</time>
      </trkpt>
      <trkpt lat="45.81912" lon="4.72868">
        <ele>337.28068</ele>
        <time>2023-05-01T12:29:27.000Z</time>
      </trkpt>
      <trkpt lat="45.81916" lon="4.72867">
        <ele>337.35855</ele>
        <time>2023-05-01T12:29:28.000Z</time>
      </trkpt>
      <trkpt lat="45.8192" lon="4.72867">
        <ele>337.42109</ele>
        <time>2023-05-01T12:29:29.000Z</time>
      </trkpt>
      <trkpt lat="45.81924" lon="4.72866">
        <ele>337.47599</ele>
        <time>2023-05-01T12:29:30.000Z</time>
      </trkpt>
      <trkpt lat="45.81927" lon="4.72866">
        <ele>337.55115</ele>
        <time>2023-05-01T12:29:31.000Z</time>
      </trkpt>
      <trkpt lat="45.81931" lon="4.72865">
        <ele>337.61453</ele>
        <time>2023-05-01T12:29:32.000Z</time>
      </trkpt>
      <trkpt lat="45.81933" lon="4.72865">
        <ele>337.64349</ele>
        <time>2023-05-01T12:29:33.000Z</time>
      </trkpt>
      <trkpt lat="45.81936" lon="4.72865">
        <ele>337.64882</ele>
        <time>2023-05-01T12:29:57.000Z</time>
      </trkpt>
      <trkpt lat="45.81936" lon="4.72865">
        <ele>337.64882</ele>
        <time>2023-05-01T12:29:57.000Z</time>
      </trkpt>
      <trkpt lat="45.81938" lon="4.72865">
        <ele>337.62654</ele>
        <time>2023-05-01T12:29:58.000Z</time>
      </trkpt>
      <trkpt lat="45.8194" lon="4.72866">
        <ele>337.62289</ele>
        <time>2023-05-01T12:29:59.000Z</time>
      </trkpt>
      <trkpt lat="45.81942" lon="4.72866">
        <ele>337.62701</ele>
        <time>2023-05-01T12:30:00.000Z</time>
      </trkpt>
      <trkpt lat="45.81945" lon="4.72865">
        <ele>337.65715</ele>
        <time>2023-05-01T12:30:01.000Z</time>
      </trkpt>
      <trkpt lat="45.81947" lon="4.72864">
        <ele>337.70685</ele>
        <time>2023-05-01T12:30:02.000Z</time>
      </trkpt>
      <trkpt lat="45.8195" lon="4.72862">
        <ele>337.74885</ele>
        <time>2023-05-01T12:30:03.000Z</time>
      </trkpt>
      <trkpt lat="45.81953" lon="4.72862">
        <ele>337.7717</ele>
        <time>2023-05-01T12:30:04.000Z</time>
      </trkpt>
      <trkpt lat="45.81956" lon="4.72861">
        <ele>337.80392</ele>
        <time>2023-05-01T12:30:05.000Z</time>
      </trkpt>
      <trkpt lat="45.81959" lon="4.72861">
        <ele>337.83194</ele>
        <time>2023-05-01T12:30:06.000Z</time>
      </trkpt>
      <trkpt lat="45.81962" lon="4.72861">
        <ele>337.85804</ele>
        <time>2023-05-01T12:30:07.000Z</time>
      </trkpt>
      <trkpt lat="45.81965" lon="4.72861">
        <ele>337.88765</ele>
        <time>2023-05-01T12:30:08.000Z</time>
      </trkpt>
      <trkpt lat="45.81968" lon="4.72861">
        <ele>337.92799</ele>
        <time>2023-05-01T12:30:09.000Z</time>
      </trkpt>
      <trkpt lat="45.81972" lon="4.7286">
        <ele>337.99533</ele>
        <time>2023-05-01T12:30:10.000Z</time>
      </trkpt>
      <trkpt lat="45.81975" lon="4.7286">
        <ele>338.05537</ele>
        <time>2023-05-01T12:30:11.000Z</time>
      </trkpt>
      <trkpt lat="45.81978" lon="4.72859">
        <ele>338.13254</ele>
        <time>2023-05-01T12:30:12.000Z</time>
      </trkpt>
      <trkpt lat="45.81982" lon="4.72859">
        <ele>338.23767</ele>
        <time>2023-05-01T12:30:13.000Z</time>
      </trkpt>
      <trkpt lat="45.81985" lon="4.72858">
        <ele>338.3353</ele>
        <time>2023-05-01T12:30:14.000Z</time>
      </trkpt>
      <trkpt lat="45.81989" lon="4.72858">
        <ele>338.42945</ele>
        <time>2023-05-01T12:30:15.000Z</time>
      </trkpt>
      <trkpt lat="45.81993" lon="4.72858">
        <ele>338.51646</ele>
        <time>2023-05-01T12:30:16.000Z</time>
      </trkpt>
      <trkpt lat="45.81997" lon="4.72857">
        <ele>338.57577</ele>
        <time>2023-05-01T12:30:17.000Z</time>
      </trkpt>
      <trkpt lat="45.82" lon="4.72857">
        <ele>338.63414</ele>
        <time>2023-05-01T12:30:18.000Z</time>
      </trkpt>
      <trkpt lat="45.82004" lon="4.72856">
        <ele>338.69546</ele>
        <time>2023-05-01T12:30:19.000Z</time>
      </trkpt>
      <trkpt lat="45.82008" lon="4.72855">
        <ele>338.73428</ele>
        <time>2023-05-01T12:30:20.000Z</time>
      </trkpt>
      <trkpt lat="45.82012" lon="4.72854">
        <ele>338.74595</ele>
        <time>2023-05-01T12:30:21.000Z</time>
      </trkpt>
      <trkpt lat="45.82016" lon="4.72854">
        <ele>338.75266</ele>
        <time>2023-05-01T12:30:22.000Z</time>
      </trkpt>
      <trkpt lat="45.8202" lon="4.72853">
        <ele>338.75725</ele>
        <time>2023-05-01T12:30:23.000Z</time>
      </trkpt>
      <trkpt lat="45.82024" lon="4.72853">
        <ele>338.74394</ele>
        <time>2023-05-01T12:30:24.000Z</time>
      </trkpt>
      <trkpt lat="45.82028" lon="4.72852">
        <ele>338.72337</ele>
        <time>2023-05-01T12:30:25.000Z</time>
      </trkpt>
      <trkpt lat="45.82032" lon="4.72851">
        <ele>338.69937</ele>
        <time>2023-05-01T12:30:26.000Z</time>
      </trkpt>
      <trkpt lat="45.82036" lon="4.7285">
        <ele>338.66995</ele>
        <time>2023-05-01T12:30:27.000Z</time>
      </trkpt>
      <trkpt lat="45.8204" lon="4.72849">
        <ele>338.64977</ele>
        <time>2023-05-01T12:30:28.000Z</time>
      </trkpt>
      <trkpt lat="45.82045" lon="4.72849">
        <ele>338.65329</ele>
        <time>2023-05-01T12:30:29.000Z</time>
      </trkpt>
      <trkpt lat="45.82049" lon="4.72848">
        <ele>338.67958</ele>
        <time>2023-05-01T12:30:30.000Z</time>
      </trkpt>
      <trkpt lat="45.82053" lon="4.72848">
        <ele>338.72281</ele>
        <time>2023-05-01T12:30:31.000Z</time>
      </trkpt>
      <trkpt lat="45.82057" lon="4.72848">
        <ele>338.76444</ele>
        <time>2023-05-01T12:30:32.000Z</time>
      </trkpt>
      <trkpt lat="45.82062" lon="4.72848">
        <ele>338.78941</ele>
        <time>2023-05-01T12:30:33.000Z</time>
      </trkpt>
      <trkpt lat="45.82066" lon="4.72848">
        <ele>338.79428</ele>
        <time>2023-05-01T12:30:34.000Z</time>
      </trkpt>
      <trkpt lat="45.8207" lon="4.72849">
        <ele>338.80319</ele>
        <time>2023-05-01T12:30:35.000Z</time>
      </trkpt>
      <trkpt lat="45.82074" lon="4.7285">
        <ele>338.8201</ele>
        <time>2023-05-01T12:30:36.000Z</time>
      </trkpt>
      <trkpt lat="45.82078" lon="4.72852">
        <ele>338.84813</ele>
        <time>2023-05-01T12:30:37.000Z</time>
      </trkpt>
      <trkpt lat="45.82081" lon="4.72856">
        <ele>338.87257</ele>
        <time>2023-05-01T12:30:38.000Z</time>
      </trkpt>
      <trkpt lat="45.82085" lon="4.7286">
        <ele>338.89183</ele>
        <time>2023-05-01T12:30:39.000Z</time>
      </trkpt>
      <trkpt lat="45.82088" lon="4.72863">
        <ele>338.90136</ele>
        <time>2023-05-01T12:30:40.000Z</time>
      </trkpt>
      <trkpt lat="45.8209" lon="4.72868">
        <ele>338.89466</ele>
        <time>2023-05-01T12:30:41.000Z</time>
      </trkpt>
      <trkpt lat="45.82094" lon="4.72871">
        <ele>338.90005</ele>
        <time>2023-05-01T12:30:42.000Z</time>
      </trkpt>
      <trkpt lat="45.82097" lon="4.72875">
        <ele>338.96155</ele>
        <time>2023-05-01T12:30:43.000Z</time>
      </trkpt>
      <trkpt lat="45.821" lon="4.72879">
        <ele>339.05846</ele>
        <time>2023-05-01T12:30:44.000Z</time>
      </trkpt>
      <trkpt lat="45.82104" lon="4.72883">
        <ele>339.17584</ele>
        <time>2023-05-01T12:30:45.000Z</time>
      </trkpt>
      <trkpt lat="45.82107" lon="4.72887">
        <ele>339.23256</ele>
        <time>2023-05-01T12:30:46.000Z</time>
      </trkpt>
      <trkpt lat="45.8211" lon="4.72892">
        <ele>339.20418</ele>
        <time>2023-05-01T12:30:47.000Z</time>
      </trkpt>
      <trkpt lat="45.82114" lon="4.72896">
        <ele>339.10009</ele>
        <time>2023-05-01T12:30:48.000Z</time>
      </trkpt>
      <trkpt lat="45.82117" lon="4.72901">
        <ele>339.01533</ele>
        <time>2023-05-01T12:30:49.000Z</time>
      </trkpt>
      <trkpt lat="45.82121" lon="4.72905">
        <ele>339.01673</ele>
        <time>2023-05-01T12:30:50.000Z</time>
      </trkpt>
      <trkpt lat="45.82124" lon="4.7291">
        <ele>339.08599</ele>
        <time>2023-05-01T12:30:51.000Z</time>
      </trkpt>
      <trkpt lat="45.82127" lon="4.72915">
        <ele>339.18179</ele>
        <time>2023-05-01T12:30:52.000Z</time>
      </trkpt>
      <trkpt lat="45.82131" lon="4.72919">
        <ele>339.21633</ele>
        <time>2023-05-01T12:30:53.000Z</time>
      </trkpt>
      <trkpt lat="45.82133" lon="4.72923">
        <ele>339.13203</ele>
        <time>2023-05-01T12:30:54.000Z</time>
      </trkpt>
      <trkpt lat="45.82137" lon="4.72927">
        <ele>338.97112</ele>
        <time>2023-05-01T12:30:55.000Z</time>
      </trkpt>
      <trkpt lat="45.8214" lon="4.72932">
        <ele>338.8295</ele>
        <time>2023-05-01T12:30:56.000Z</time>
      </trkpt>
      <trkpt lat="45.82143" lon="4.72937">
        <ele>338.76238</ele>
        <time>2023-05-01T12:30:57.000Z</time>
      </trkpt>
      <trkpt lat="45.82146" lon="4.72941">
        <ele>338.78192</ele>
        <time>2023-05-01T12:30:58.000Z</time>
      </trkpt>
      <trkpt lat="45.82149" lon="4.72946">
        <ele>338.86664</ele>
        <time>2023-05-01T12:30:59.000Z</time>
      </trkpt>
      <trkpt lat="45.82153" lon="4.72951">
        <ele>338.90215</ele>
        <time>2023-05-01T12:31:00.000Z</time>
      </trkpt>
      <trkpt lat="45.82156" lon="4.72957">
        <ele>338.78131</ele>
        <time>2023-05-01T12:31:01.000Z</time>
      </trkpt>
      <trkpt lat="45.82159" lon="4.72963">
        <ele>338.64349</ele>
        <time>2023-05-01T12:31:02.000Z</time>
      </trkpt>
      <trkpt lat="45.82162" lon="4.7297">
        <ele>338.62046</ele>
        <time>2023-05-01T12:31:03.000Z</time>
      </trkpt>
      <trkpt lat="45.82166" lon="4.72977">
        <ele>338.68906</ele>
        <time>2023-05-01T12:31:04.000Z</time>
      </trkpt>
      <trkpt lat="45.82169" lon="4.72985">
        <ele>338.72068</ele>
        <time>2023-05-01T12:31:05.000Z</time>
      </trkpt>
      <trkpt lat="45.82173" lon="4.72993">
        <ele>338.43391</ele>
        <time>2023-05-01T12:31:06.000Z</time>
      </trkpt>
      <trkpt lat="45.82177" lon="4.73001">
        <ele>337.88164</ele>
        <time>2023-05-01T12:31:07.000Z</time>
      </trkpt>
      <trkpt lat="45.8218" lon="4.73011">
        <ele>337.59322</ele>
        <time>2023-05-01T12:31:08.000Z</time>
      </trkpt>
      <trkpt lat="45.82183" lon="4.7302">
        <ele>337.49662</ele>
        <time>2023-05-01T12:31:09.000Z</time>
      </trkpt>
      <trkpt lat="45.82187" lon="4.7303">
        <ele>337.1657</ele>
        <time>2023-05-01T12:31:10.000Z</time>
      </trkpt>
      <trkpt lat="45.82191" lon="4.73041">
        <ele>336.28108</ele>
        <time>2023-05-01T12:31:11.000Z</time>
      </trkpt>
      <trkpt lat="45.82194" lon="4.73052">
        <ele>335.24259</ele>
        <time>2023-05-01T12:31:12.000Z</time>
      </trkpt>
      <trkpt lat="45.82198" lon="4.73063">
        <ele>334.67762</ele>
        <time>2023-05-01T12:31:13.000Z</time>
      </trkpt>
      <trkpt lat="45.82202" lon="4.73074">
        <ele>334.63095</ele>
        <time>2023-05-01T12:31:14.000Z</time>
      </trkpt>
      <trkpt lat="45.82207" lon="4.73086">
        <ele>335.22537</ele>
        <time>2023-05-01T12:31:15.000Z</time>
      </trkpt>
      <trkpt lat="45.82211" lon="4.73096">
        <ele>335.35871</ele>
        <time>2023-05-01T12:31:16.000Z</time>
      </trkpt>
      <trkpt lat="45.82215" lon="4.73106">
        <ele>335.38588</ele>
        <time>2023-05-01T12:31:17.000Z</time>
      </trkpt>
      <trkpt lat="45.82219" lon="4.73115">
        <ele>335.87822</ele>
        <time>2023-05-01T12:31:18.000Z</time>
      </trkpt>
      <trkpt lat="45.82224" lon="4.73123">
        <ele>337.27853</ele>
        <time>2023-05-01T12:31:19.000Z</time>
      </trkpt>
      <trkpt lat="45.82228" lon="4.73129">
        <ele>338.5001</ele>
        <time>2023-05-01T12:31:20.000Z</time>
      </trkpt>
      <trkpt lat="45.82231" lon="4.73135">
        <ele>339.27932</ele>
        <time>2023-05-01T12:31:21.000Z</time>
      </trkpt>
      <trkpt lat="45.82234" lon="4.7314">
        <ele>339.6616</ele>
        <time>2023-05-01T12:31:22.000Z</time>
      </trkpt>
      <trkpt lat="45.82236" lon="4.73145">
        <ele>339.88924</ele>
        <time>2023-05-01T12:31:23.000Z</time>
      </trkpt>
      <trkpt lat="45.82239" lon="4.73149">
        <ele>340.21162</ele>
        <time>2023-05-01T12:31:24.000Z</time>
      </trkpt>
      <trkpt lat="45.82242" lon="4.73153">
        <ele>340.58653</ele>
        <time>2023-05-01T12:31:25.000Z</time>
      </trkpt>
      <trkpt lat="45.82244" lon="4.73157">
        <ele>340.98104</ele>
        <time>2023-05-01T12:31:26.000Z</time>
      </trkpt>
      <trkpt lat="45.82246" lon="4.73162">
        <ele>341.38323</ele>
        <time>2023-05-01T12:31:27.000Z</time>
      </trkpt>
      <trkpt lat="45.82248" lon="4.73166">
        <ele>341.78446</ele>
        <time>2023-05-01T12:31:28.000Z</time>
      </trkpt>
      <trkpt lat="45.8225" lon="4.73171">
        <ele>342.15416</ele>
        <time>2023-05-01T12:31:29.000Z</time>
      </trkpt>
      <trkpt lat="45.82252" lon="4.73176">
        <ele>342.49366</ele>
        <time>2023-05-01T12:31:30.000Z</time>
      </trkpt>
      <trkpt lat="45.82254" lon="4.73181">
        <ele>342.81121</ele>
        <time>2023-05-01T12:31:31.000Z</time>
      </trkpt>
      <trkpt lat="45.82256" lon="4.73186">
        <ele>343.21362</ele>
        <time>2023-05-01T12:31:32.000Z</time>
      </trkpt>
      <trkpt lat="45.82258" lon="4.73192">
        <ele>343.73196</ele>
        <time>2023-05-01T12:31:33.000Z</time>
      </trkpt>
      <trkpt lat="45.8226" lon="4.73197">
        <ele>344.2803</ele>
        <time>2023-05-01T12:31:34.000Z</time>
      </trkpt>
      <trkpt lat="45.82262" lon="4.73202">
        <ele>344.74369</ele>
        <time>2023-05-01T12:31:35.000Z</time>
      </trkpt>
      <trkpt lat="45.82264" lon="4.73207">
        <ele>345.02609</ele>
        <time>2023-05-01T12:31:36.000Z</time>
      </trkpt>
      <trkpt lat="45.82266" lon="4.73212">
        <ele>345.12535</ele>
        <time>2023-05-01T12:31:37.000Z</time>
      </trkpt>
      <trkpt lat="45.82268" lon="4.73218">
        <ele>345.16222</ele>
        <time>2023-05-01T12:31:38.000Z</time>
      </trkpt>
      <trkpt lat="45.82269" lon="4.73223">
        <ele>345.17474</ele>
        <time>2023-05-01T12:31:39.000Z</time>
      </trkpt>
      <trkpt lat="45.82271" lon="4.73227">
        <ele>345.19948</ele>
        <time>2023-05-01T12:31:40.000Z</time>
      </trkpt>
      <trkpt lat="45.82272" lon="4.73231">
        <ele>345.30626</ele>
        <time>2023-05-01T12:31:41.000Z</time>
      </trkpt>
      <trkpt lat="45.82273" lon="4.73236">
        <ele>345.42304</ele>
        <time>2023-05-01T12:31:42.000Z</time>
      </trkpt>
      <trkpt lat="45.82275" lon="4.7324">
        <ele>345.52718</ele>
        <time>2023-05-01T12:31:43.000Z</time>
      </trkpt>
      <trkpt lat="45.82276" lon="4.73244">
        <ele>345.69447</ele>
        <time>2023-05-01T12:31:44.000Z</time>
      </trkpt>
      <trkpt lat="45.82278" lon="4.73248">
        <ele>345.85507</ele>
        <time>2023-05-01T12:31:45.000Z</time>
      </trkpt>
      <trkpt lat="45.82279" lon="4.73252">
        <ele>346.05993</ele>
        <time>2023-05-01T12:31:46.000Z</time>
      </trkpt>
      <trkpt lat="45.82281" lon="4.73257">
        <ele>346.29609</ele>
        <time>2023-05-01T12:31:47.000Z</time>
      </trkpt>
      <trkpt lat="45.82282" lon="4.73261">
        <ele>346.5477</ele>
        <time>2023-05-01T12:31:48.000Z</time>
      </trkpt>
      <trkpt lat="45.82283" lon="4.73266">
        <ele>346.7731</ele>
        <time>2023-05-01T12:31:49.000Z</time>
      </trkpt>
      <trkpt lat="45.82284" lon="4.7327">
        <ele>346.90266</ele>
        <time>2023-05-01T12:31:50.000Z</time>
      </trkpt>
      <trkpt lat="45.82286" lon="4.73274">
        <ele>346.88791</ele>
        <time>2023-05-01T12:31:51.000Z</time>
      </trkpt>
      <trkpt lat="45.82287" lon="4.73278">
        <ele>346.78599</ele>
        <time>2023-05-01T12:31:52.000Z</time>
      </trkpt>
      <trkpt lat="45.82289" lon="4.73282">
        <ele>346.59368</ele>
        <time>2023-05-01T12:31:53.000Z</time>
      </trkpt>
      <trkpt lat="45.82291" lon="4.73287">
        <ele>346.43488</ele>
        <time>2023-05-01T12:31:54.000Z</time>
      </trkpt>
      <trkpt lat="45.82293" lon="4.73291">
        <ele>346.31809</ele>
        <time>2023-05-01T12:31:55.000Z</time>
      </trkpt>
      <trkpt lat="45.82294" lon="4.73295">
        <ele>346.35025</ele>
        <time>2023-05-01T12:31:56.000Z</time>
      </trkpt>
      <trkpt lat="45.82296" lon="4.73299">
        <ele>346.51976</ele>
        <time>2023-05-01T12:31:57.000Z</time>
      </trkpt>
      <trkpt lat="45.82298" lon="4.73303">
        <ele>346.71218</ele>
        <time>2023-05-01T12:31:58.000Z</time>
      </trkpt>
      <trkpt lat="45.82299" lon="4.73308">
        <ele>346.99495</ele>
        <time>2023-05-01T12:31:59.000Z</time>
      </trkpt>
      <trkpt lat="45.82299" lon="4.73312">
        <ele>347.23073</ele>
        <time>2023-05-01T12:32:00.000Z</time>
      </trkpt>
      <trkpt lat="45.823" lon="4.73317">
        <ele>347.45346</ele>
        <time>2023-05-01T12:32:01.000Z</time>
      </trkpt>
      <trkpt lat="45.82301" lon="4.73321">
        <ele>347.66802</ele>
        <time>2023-05-01T12:32:02.000Z</time>
      </trkpt>
      <trkpt lat="45.82302" lon="4.73326">
        <ele>347.87119</ele>
        <time>2023-05-01T12:32:03.000Z</time>
      </trkpt>
      <trkpt lat="45.82304" lon="4.7333">
        <ele>348.03101</ele>
        <time>2023-05-01T12:32:04.000Z</time>
      </trkpt>
      <trkpt lat="45.82305" lon="4.73335">
        <ele>348.13564</ele>
        <time>2023-05-01T12:32:05.000Z</time>
      </trkpt>
      <trkpt lat="45.82306" lon="4.7334">
        <ele>348.15026</ele>
        <time>2023-05-01T12:32:06.000Z</time>
      </trkpt>
      <trkpt lat="45.82307" lon="4.73345">
        <ele>348.06337</ele>
        <time>2023-05-01T12:32:07.000Z</time>
      </trkpt>
      <trkpt lat="45.82309" lon="4.7335">
        <ele>347.81802</ele>
        <time>2023-05-01T12:32:08.000Z</time>
      </trkpt>
      <trkpt lat="45.82311" lon="4.73355">
        <ele>347.5044</ele>
        <time>2023-05-01T12:32:09.000Z</time>
      </trkpt>
      <trkpt lat="45.82313" lon="4.7336">
        <ele>347.29811</ele>
        <time>2023-05-01T12:32:10.000Z</time>
      </trkpt>
      <trkpt lat="45.82315" lon="4.73366">
        <ele>347.24097</ele>
        <time>2023-05-01T12:32:11.000Z</time>
      </trkpt>
      <trkpt lat="45.82317" lon="4.73372">
        <ele>347.32604</ele>
        <time>2023-05-01T12:32:12.000Z</time>
      </trkpt>
      <trkpt lat="45.8232" lon="4.73378">
        <ele>347.43306</ele>
        <time>2023-05-01T12:32:13.000Z</time>
      </trkpt>
      <trkpt lat="45.82322" lon="4.73384">
        <ele>347.44915</ele>
        <time>2023-05-01T12:32:14.000Z</time>
      </trkpt>
      <trkpt lat="45.82325" lon="4.7339">
        <ele>347.32242</ele>
        <time>2023-05-01T12:32:15.000Z</time>
      </trkpt>
      <trkpt lat="45.82329" lon="4.73395">
        <ele>347.04343</ele>
        <time>2023-05-01T12:32:16.000Z</time>
      </trkpt>
      <trkpt lat="45.82332" lon="4.73401">
        <ele>346.71467</ele>
        <time>2023-05-01T12:32:17.000Z</time>
      </trkpt>
      <trkpt lat="45.82335" lon="4.73407">
        <ele>346.4071</ele>
        <time>2023-05-01T12:32:18.000Z</time>
      </trkpt>
      <trkpt lat="45.82338" lon="4.73412">
        <ele>346.20374</ele>
        <time>2023-05-01T12:32:19.000Z</time>
      </trkpt>
      <trkpt lat="45.82342" lon="4.73418">
        <ele>346.17523</ele>
        <time>2023-05-01T12:32:20.000Z</time>
      </trkpt>
      <trkpt lat="45.82345" lon="4.73424">
        <ele>346.29395</ele>
        <time>2023-05-01T12:32:21.000Z</time>
      </trkpt>
      <trkpt lat="45.82348" lon="4.7343">
        <ele>346.43954</ele>
        <time>2023-05-01T12:32:22.000Z</time>
      </trkpt>
      <trkpt lat="45.82351" lon="4.73435">
        <ele>346.44357</ele>
        <time>2023-05-01T12:32:23.000Z</time>
      </trkpt>
      <trkpt lat="45.82355" lon="4.73441">
        <ele>346.1883</ele>
        <time>2023-05-01T12:32:24.000Z</time>
      </trkpt>
      <trkpt lat="45.82358" lon="4.73447">
        <ele>345.81296</ele>
        <time>2023-05-01T12:32:25.000Z</time>
      </trkpt>
      <trkpt lat="45.82361" lon="4.73452">
        <ele>345.50691</ele>
        <time>2023-05-01T12:32:26.000Z</time>
      </trkpt>
      <trkpt lat="45.82364" lon="4.73458">
        <ele>345.38504</ele>
        <time>2023-05-01T12:32:27.000Z</time>
      </trkpt>
      <trkpt lat="45.82366" lon="4.73463">
        <ele>345.41042</ele>
        <time>2023-05-01T12:32:28.000Z</time>
      </trkpt>
      <trkpt lat="45.82369" lon="4.73469">
        <ele>345.46795</ele>
        <time>2023-05-01T12:32:29.000Z</time>
      </trkpt>
      <trkpt lat="45.82372" lon="4.73475">
        <ele>345.42174</ele>
        <time>2023-05-01T12:32:30.000Z</time>
      </trkpt>
      <trkpt lat="45.82375" lon="4.73481">
        <ele>345.24465</ele>
        <time>2023-05-01T12:32:31.000Z</time>
      </trkpt>
      <trkpt lat="45.82378" lon="4.73488">
        <ele>345.08606</ele>
        <time>2023-05-01T12:32:32.000Z</time>
      </trkpt>
      <trkpt lat="45.8238" lon="4.73494">
        <ele>345.0613</ele>
        <time>2023-05-01T12:32:33.000Z</time>
      </trkpt>
      <trkpt lat="45.82383" lon="4.735">
        <ele>345.18038</ele>
        <time>2023-05-01T12:32:34.000Z</time>
      </trkpt>
      <trkpt lat="45.82386" lon="4.73507">
        <ele>345.36077</ele>
        <time>2023-05-01T12:32:35.000Z</time>
      </trkpt>
      <trkpt lat="45.82389" lon="4.73513">
        <ele>345.35833</ele>
        <time>2023-05-01T12:32:36.000Z</time>
      </trkpt>
      <trkpt lat="45.82392" lon="4.7352">
        <ele>345.28203</ele>
        <time>2023-05-01T12:32:37.000Z</time>
      </trkpt>
      <trkpt lat="45.82395" lon="4.73527">
        <ele>345.09749</ele>
        <time>2023-05-01T12:32:38.000Z</time>
      </trkpt>
      <trkpt lat="45.82397" lon="4.73533">
        <ele>344.88382</ele>
        <time>2023-05-01T12:32:39.000Z</time>
      </trkpt>
      <trkpt lat="45.82401" lon="4.7354">
        <ele>344.70709</ele>
        <time>2023-05-01T12:32:40.000Z</time>
      </trkpt>
      <trkpt lat="45.82403" lon="4.73547">
        <ele>344.52763</ele>
        <time>2023-05-01T12:32:41.000Z</time>
      </trkpt>
      <trkpt lat="45.82407" lon="4.73554">
        <ele>344.31494</ele>
        <time>2023-05-01T12:32:42.000Z</time>
      </trkpt>
      <trkpt lat="45.82409" lon="4.73561">
        <ele>344.05406</ele>
        <time>2023-05-01T12:32:43.000Z</time>
      </trkpt>
      <trkpt lat="45.82413" lon="4.73568">
        <ele>343.81307</ele>
        <time>2023-05-01T12:32:44.000Z</time>
      </trkpt>
      <trkpt lat="45.82416" lon="4.73576">
        <ele>343.6691</ele>
        <time>2023-05-01T12:32:45.000Z</time>
      </trkpt>
      <trkpt lat="45.82419" lon="4.73583">
        <ele>343.68422</ele>
        <time>2023-05-01T12:32:46.000Z</time>
      </trkpt>
      <trkpt lat="45.82423" lon="4.7359">
        <ele>343.89264</ele>
        <time>2023-05-01T12:32:47.000Z</time>
      </trkpt>
      <trkpt lat="45.82426" lon="4.73598">
        <ele>344.15587</ele>
        <time>2023-05-01T12:32:48.000Z</time>
      </trkpt>
      <trkpt lat="45.8243" lon="4.73606">
        <ele>344.21396</ele>
        <time>2023-05-01T12:32:49.000Z</time>
      </trkpt>
      <trkpt lat="45.82433" lon="4.73613">
        <ele>343.86513</ele>
        <time>2023-05-01T12:32:50.000Z</time>
      </trkpt>
      <trkpt lat="45.82437" lon="4.73622">
        <ele>343.26708</ele>
        <time>2023-05-01T12:32:51.000Z</time>
      </trkpt>
      <trkpt lat="45.8244" lon="4.73629">
        <ele>342.86714</ele>
        <time>2023-05-01T12:32:52.000Z</time>
      </trkpt>
      <trkpt lat="45.82444" lon="4.73637">
        <ele>342.71429</ele>
        <time>2023-05-01T12:32:53.000Z</time>
      </trkpt>
      <trkpt lat="45.82448" lon="4.73644">
        <ele>342.65427</ele>
        <time>2023-05-01T12:32:54.000Z</time>
      </trkpt>
      <trkpt lat="45.82451" lon="4.73652">
        <ele>342.12971</ele>
        <time>2023-05-01T12:32:55.000Z</time>
      </trkpt>
      <trkpt lat="45.82455" lon="4.7366">
        <ele>341.38283</ele>
        <time>2023-05-01T12:32:56.000Z</time>
      </trkpt>
      <trkpt lat="45.82459" lon="4.73667">
        <ele>340.91833</ele>
        <time>2023-05-01T12:32:57.000Z</time>
      </trkpt>
      <trkpt lat="45.82463" lon="4.73674">
        <ele>341.04227</ele>
        <time>2023-05-01T12:32:58.000Z</time>
      </trkpt>
      <trkpt lat="45.82468" lon="4.73682">
        <ele>341.16647</ele>
        <time>2023-05-01T12:32:59.000Z</time>
      </trkpt>
      <trkpt lat="45.82472" lon="4.7369">
        <ele>340.77128</ele>
        <time>2023-05-01T12:33:00.000Z</time>
      </trkpt>
      <trkpt lat="45.82476" lon="4.73698">
        <ele>340.16801</ele>
        <time>2023-05-01T12:33:01.000Z</time>
      </trkpt>
      <trkpt lat="45.82481" lon="4.73705">
        <ele>340.06071</ele>
        <time>2023-05-01T12:33:02.000Z</time>
      </trkpt>
      <trkpt lat="45.82485" lon="4.73712">
        <ele>340.44535</ele>
        <time>2023-05-01T12:33:03.000Z</time>
      </trkpt>
      <trkpt lat="45.82489" lon="4.7372">
        <ele>340.66692</ele>
        <time>2023-05-01T12:33:04.000Z</time>
      </trkpt>
      <trkpt lat="45.82493" lon="4.73727">
        <ele>340.47718</ele>
        <time>2023-05-01T12:33:05.000Z</time>
      </trkpt>
      <trkpt lat="45.82497" lon="4.73734">
        <ele>340.05512</ele>
        <time>2023-05-01T12:33:06.000Z</time>
      </trkpt>
      <trkpt lat="45.82501" lon="4.73742">
        <ele>339.87979</ele>
        <time>2023-05-01T12:33:07.000Z</time>
      </trkpt>
      <trkpt lat="45.82506" lon="4.7375">
        <ele>339.9167</ele>
        <time>2023-05-01T12:33:08.000Z</time>
      </trkpt>
      <trkpt lat="45.8251" lon="4.73758">
        <ele>339.6246</ele>
        <time>2023-05-01T12:33:09.000Z</time>
      </trkpt>
      <trkpt lat="45.82514" lon="4.73766">
        <ele>338.98239</ele>
        <time>2023-05-01T12:33:10.000Z</time>
      </trkpt>
      <trkpt lat="45.82517" lon="4.73774">
        <ele>338.49406</ele>
        <time>2023-05-01T12:33:11.000Z</time>
      </trkpt>
      <trkpt lat="45.8252" lon="4.73782">
        <ele>338.31817</ele>
        <time>2023-05-01T12:33:12.000Z</time>
      </trkpt>
      <trkpt lat="45.82523" lon="4.73789">
        <ele>338.25889</ele>
        <time>2023-05-01T12:33:13.000Z</time>
      </trkpt>
      <trkpt lat="45.82526" lon="4.73796">
        <ele>338.07535</ele>
        <time>2023-05-01T12:33:14.000Z</time>
      </trkpt>
      <trkpt lat="45.82528" lon="4.73802">
        <ele>337.77093</ele>
        <time>2023-05-01T12:33:15.000Z</time>
      </trkpt>
      <trkpt lat="45.8253" lon="4.73809">
        <ele>337.42702</ele>
        <time>2023-05-01T12:33:16.000Z</time>
      </trkpt>
      <trkpt lat="45.82532" lon="4.73815">
        <ele>337.20471</ele>
        <time>2023-05-01T12:33:17.000Z</time>
      </trkpt>
      <trkpt lat="45.82532" lon="4.7382">
        <ele>337.1722</ele>
        <time>2023-05-01T12:33:18.000Z</time>
      </trkpt>
      <trkpt lat="45.82533" lon="4.73824">
        <ele>337.20578</ele>
        <time>2023-05-01T12:33:19.000Z</time>
      </trkpt>
      <trkpt lat="45.82533" lon="4.73828">
        <ele>337.22448</ele>
        <time>2023-05-01T12:33:20.000Z</time>
      </trkpt>
      <trkpt lat="45.82533" lon="4.73832">
        <ele>337.31708</ele>
        <time>2023-05-01T12:33:21.000Z</time>
      </trkpt>
      <trkpt lat="45.82533" lon="4.73835">
        <ele>337.47088</ele>
        <time>2023-05-01T12:33:22.000Z</time>
      </trkpt>
      <trkpt lat="45.82532" lon="4.73839">
        <ele>337.62822</ele>
        <time>2023-05-01T12:33:23.000Z</time>
      </trkpt>
      <trkpt lat="45.82531" lon="4.73842">
        <ele>337.81826</ele>
        <time>2023-05-01T12:33:24.000Z</time>
      </trkpt>
      <trkpt lat="45.8253" lon="4.73846">
        <ele>338.01076</ele>
        <time>2023-05-01T12:33:25.000Z</time>
      </trkpt>
      <trkpt lat="45.82529" lon="4.7385">
        <ele>338.21665</ele>
        <time>2023-05-01T12:33:26.000Z</time>
      </trkpt>
      <trkpt lat="45.82528" lon="4.73855">
        <ele>338.39122</ele>
        <time>2023-05-01T12:33:27.000Z</time>
      </trkpt>
      <trkpt lat="45.82527" lon="4.73859">
        <ele>338.51958</ele>
        <time>2023-05-01T12:33:28.000Z</time>
      </trkpt>
      <trkpt lat="45.82525" lon="4.73863">
        <ele>338.59264</ele>
        <time>2023-05-01T12:33:29.000Z</time>
      </trkpt>
      <trkpt lat="45.82523" lon="4.73867">
        <ele>338.63531</ele>
        <time>2023-05-01T12:33:30.000Z</time>
      </trkpt>
      <trkpt lat="45.82521" lon="4.73871">
        <ele>338.6599</ele>
        <time>2023-05-01T12:33:31.000Z</time>
      </trkpt>
      <trkpt lat="45.82518" lon="4.73875">
        <ele>338.66589</ele>
        <time>2023-05-01T12:33:32.000Z</time>
      </trkpt>
      <trkpt lat="45.82516" lon="4.73879">
        <ele>338.66508</ele>
        <time>2023-05-01T12:33:33.000Z</time>
      </trkpt>
      <trkpt lat="45.82513" lon="4.73884">
        <ele>338.65203</ele>
        <time>2023-05-01T12:33:34.000Z</time>
      </trkpt>
      <trkpt lat="45.8251" lon="4.73888">
        <ele>338.60555</ele>
        <time>2023-05-01T12:33:35.000Z</time>
      </trkpt>
      <trkpt lat="45.82507" lon="4.73892">
        <ele>338.52489</ele>
        <time>2023-05-01T12:33:36.000Z</time>
      </trkpt>
      <trkpt lat="45.82504" lon="4.73897">
        <ele>338.43</ele>
        <time>2023-05-01T12:33:37.000Z</time>
      </trkpt>
      <trkpt lat="45.82502" lon="4.73902">
        <ele>338.38676</ele>
        <time>2023-05-01T12:33:38.000Z</time>
      </trkpt>
      <trkpt lat="45.82501" lon="4.73909">
        <ele>338.43769</ele>
        <time>2023-05-01T12:33:39.000Z</time>
      </trkpt>
      <trkpt lat="45.82501" lon="4.73915">
        <ele>338.61042</ele>
        <time>2023-05-01T12:33:40.000Z</time>
      </trkpt>
      <trkpt lat="45.82501" lon="4.7392">
        <ele>338.81617</ele>
        <time>2023-05-01T12:33:41.000Z</time>
      </trkpt>
      <trkpt lat="45.82503" lon="4.73924">
        <ele>339.01325</ele>
        <time>2023-05-01T12:33:42.000Z</time>
      </trkpt>
      <trkpt lat="45.82505" lon="4.73925">
        <ele>339.14007</ele>
        <time>2023-05-01T12:33:43.000Z</time>
      </trkpt>
      <trkpt lat="45.82507" lon="4.73925">
        <ele>339.2032</ele>
        <time>2023-05-01T12:33:44.000Z</time>
      </trkpt>
      <trkpt lat="45.82509" lon="4.73924">
        <ele>339.23493</ele>
        <time>2023-05-01T12:33:45.000Z</time>
      </trkpt>
      <trkpt lat="45.82512" lon="4.73923">
        <ele>339.26281</ele>
        <time>2023-05-01T12:33:46.000Z</time>
      </trkpt>
      <trkpt lat="45.82512" lon="4.73923">
        <ele>339.26281</ele>
        <time>2023-05-01T12:33:46.000Z</time>
      </trkpt>
      <trkpt lat="45.82515" lon="4.73922">
        <ele>339.29945</ele>
        <time>2023-05-01T12:33:47.000Z</time>
      </trkpt>
      <trkpt lat="45.82519" lon="4.73921">
        <ele>339.33691</ele>
        <time>2023-05-01T12:33:48.000Z</time>
      </trkpt>
      <trkpt lat="45.82522" lon="4.73918">
        <ele>339.37884</ele>
        <time>2023-05-01T12:33:49.000Z</time>
      </trkpt>
      <trkpt lat="45.82524" lon="4.73912">
        <ele>339.39618</ele>
        <time>2023-05-01T12:33:50.000Z</time>
      </trkpt>
      <trkpt lat="45.82526" lon="4.73907">
        <ele>339.40409</ele>
        <time>2023-05-01T12:33:51.000Z</time>
      </trkpt>
      <trkpt lat="45.82527" lon="4.739">
        <ele>339.38506</ele>
        <time>2023-05-01T12:33:52.000Z</time>
      </trkpt>
      <trkpt lat="45.82529" lon="4.73894">
        <ele>339.32533</ele>
        <time>2023-05-01T12:33:53.000Z</time>
      </trkpt>
      <trkpt lat="45.82532" lon="4.73888">
        <ele>339.24974</ele>
        <time>2023-05-01T12:33:54.000Z</time>
      </trkpt>
      <trkpt lat="45.82535" lon="4.73882">
        <ele>339.17943</ele>
        <time>2023-05-01T12:33:55.000Z</time>
      </trkpt>
      <trkpt lat="45.82538" lon="4.73874">
        <ele>339.0825</ele>
        <time>2023-05-01T12:33:56.000Z</time>
      </trkpt>
      <trkpt lat="45.8254" lon="4.73866">
        <ele>338.89195</ele>
        <time>2023-05-01T12:33:57.000Z</time>
      </trkpt>
      <trkpt lat="45.82543" lon="4.73859">
        <ele>338.50628</ele>
        <time>2023-05-01T12:33:58.000Z</time>
      </trkpt>
      <trkpt lat="45.82546" lon="4.7385">
        <ele>337.90553</ele>
        <time>2023-05-01T12:33:59.000Z</time>
      </trkpt>
      <trkpt lat="45.82549" lon="4.73842">
        <ele>337.42991</ele>
        <time>2023-05-01T12:34:00.000Z</time>
      </trkpt>
      <trkpt lat="45.82552" lon="4.73834">
        <ele>337.20023</ele>
        <time>2023-05-01T12:34:01.000Z</time>
      </trkpt>
      <trkpt lat="45.82555" lon="4.73826">
        <ele>337.20737</ele>
        <time>2023-05-01T12:34:02.000Z</time>
      </trkpt>
      <trkpt lat="45.82558" lon="4.73816">
        <ele>337.14412</ele>
        <time>2023-05-01T12:34:03.000Z</time>
      </trkpt>
      <trkpt lat="45.8256" lon="4.73808">
        <ele>337.12275</ele>
        <time>2023-05-01T12:34:04.000Z</time>
      </trkpt>
      <trkpt lat="45.82563" lon="4.73799">
        <ele>337.10258</ele>
        <time>2023-05-01T12:34:05.000Z</time>
      </trkpt>
      <trkpt lat="45.82566" lon="4.73792">
        <ele>336.80446</ele>
        <time>2023-05-01T12:34:06.000Z</time>
      </trkpt>
      <trkpt lat="45.82568" lon="4.73785">
        <ele>336.26132</ele>
        <time>2023-05-01T12:34:07.000Z</time>
      </trkpt>
      <trkpt lat="45.8257" lon="4.73778">
        <ele>335.70485</ele>
        <time>2023-05-01T12:34:08.000Z</time>
      </trkpt>
      <trkpt lat="45.82572" lon="4.73771">
        <ele>335.35508</ele>
        <time>2023-05-01T12:34:09.000Z</time>
      </trkpt>
      <trkpt lat="45.82574" lon="4.73764">
        <ele>335.41076</ele>
        <time>2023-05-01T12:34:10.000Z</time>
      </trkpt>
      <trkpt lat="45.82577" lon="4.73757">
        <ele>335.86916</ele>
        <time>2023-05-01T12:34:11.000Z</time>
      </trkpt>
      <trkpt lat="45.82581" lon="4.73751">
        <ele>336.54531</ele>
        <time>2023-05-01T12:34:12.000Z</time>
      </trkpt>
      <trkpt lat="45.82585" lon="4.73745">
        <ele>337.24967</ele>
        <time>2023-05-01T12:34:13.000Z</time>
      </trkpt>
      <trkpt lat="45.82588" lon="4.73738">
        <ele>337.72892</ele>
        <time>2023-05-01T12:34:14.000Z</time>
      </trkpt>
      <trkpt lat="45.82592" lon="4.73734">
        <ele>337.89554</ele>
        <time>2023-05-01T12:34:15.000Z</time>
      </trkpt>
      <trkpt lat="45.82597" lon="4.73731">
        <ele>337.95839</ele>
        <time>2023-05-01T12:34:16.000Z</time>
      </trkpt>
      <trkpt lat="45.82601" lon="4.73727">
        <ele>338.02197</ele>
        <time>2023-05-01T12:34:17.000Z</time>
      </trkpt>
      <trkpt lat="45.82605" lon="4.73722">
        <ele>338.27907</ele>
        <time>2023-05-01T12:34:18.000Z</time>
      </trkpt>
      <trkpt lat="45.82609" lon="4.7372">
        <ele>338.70915</ele>
        <time>2023-05-01T12:34:19.000Z</time>
      </trkpt>
      <trkpt lat="45.82613" lon="4.73719">
        <ele>339.04345</ele>
        <time>2023-05-01T12:34:20.000Z</time>
      </trkpt>
      <trkpt lat="45.82618" lon="4.73719">
        <ele>339.203</ele>
        <time>2023-05-01T12:34:21.000Z</time>
      </trkpt>
      <trkpt lat="45.82623" lon="4.73719">
        <ele>339.23055</ele>
        <time>2023-05-01T12:34:22.000Z</time>
      </trkpt>
      <trkpt lat="45.82627" lon="4.73719">
        <ele>339.17835</ele>
        <time>2023-05-01T12:34:23.000Z</time>
      </trkpt>
      <trkpt lat="45.82632" lon="4.73719">
        <ele>339.10885</ele>
        <time>2023-05-01T12:34:24.000Z</time>
      </trkpt>
      <trkpt lat="45.82637" lon="4.73718">
        <ele>339.14074</ele>
        <time>2023-05-01T12:34:25.000Z</time>
      </trkpt>
      <trkpt lat="45.82642" lon="4.73718">
        <ele>339.2464</ele>
        <time>2023-05-01T12:34:26.000Z</time>
      </trkpt>
      <trkpt lat="45.82647" lon="4.73718">
        <ele>339.35353</ele>
        <time>2023-05-01T12:34:27.000Z</time>
      </trkpt>
      <trkpt lat="45.82652" lon="4.73717">
        <ele>339.47868</ele>
        <time>2023-05-01T12:34:28.000Z</time>
      </trkpt>
      <trkpt lat="45.82657" lon="4.73715">
        <ele>339.67627</ele>
        <time>2023-05-01T12:34:29.000Z</time>
      </trkpt>
      <trkpt lat="45.82662" lon="4.73713">
        <ele>339.88321</ele>
        <time>2023-05-01T12:34:30.000Z</time>
      </trkpt>
      <trkpt lat="45.82667" lon="4.7371">
        <ele>340.11661</ele>
        <time>2023-05-01T12:34:31.000Z</time>
      </trkpt>
      <trkpt lat="45.82671" lon="4.73706">
        <ele>340.37045</ele>
        <time>2023-05-01T12:34:32.000Z</time>
      </trkpt>
      <trkpt lat="45.82675" lon="4.73703">
        <ele>340.59262</ele>
        <time>2023-05-01T12:34:33.000Z</time>
      </trkpt>
      <trkpt lat="45.82678" lon="4.737">
        <ele>340.76921</ele>
        <time>2023-05-01T12:34:34.000Z</time>
      </trkpt>
      <trkpt lat="45.82683" lon="4.73696">
        <ele>340.95076</ele>
        <time>2023-05-01T12:34:35.000Z</time>
      </trkpt>
      <trkpt lat="45.82687" lon="4.73693">
        <ele>341.03226</ele>
        <time>2023-05-01T12:34:36.000Z</time>
      </trkpt>
      <trkpt lat="45.82691" lon="4.7369">
        <ele>341.10131</ele>
        <time>2023-05-01T12:34:37.000Z</time>
      </trkpt>
      <trkpt lat="45.82694" lon="4.73687">
        <ele>341.16318</ele>
        <time>2023-05-01T12:34:38.000Z</time>
      </trkpt>
      <trkpt lat="45.82699" lon="4.73684">
        <ele>341.17511</ele>
        <time>2023-05-01T12:34:39.000Z</time>
      </trkpt>
      <trkpt lat="45.82703" lon="4.73682">
        <ele>341.15235</ele>
        <time>2023-05-01T12:34:40.000Z</time>
      </trkpt>
      <trkpt lat="45.82707" lon="4.73678">
        <ele>341.13928</ele>
        <time>2023-05-01T12:34:41.000Z</time>
      </trkpt>
      <trkpt lat="45.82711" lon="4.73674">
        <ele>341.09047</ele>
        <time>2023-05-01T12:34:42.000Z</time>
      </trkpt>
      <trkpt lat="45.82715" lon="4.73671">
        <ele>341.00048</ele>
        <time>2023-05-01T12:34:43.000Z</time>
      </trkpt>
      <trkpt lat="45.82719" lon="4.73667">
        <ele>340.93225</ele>
        <time>2023-05-01T12:34:44.000Z</time>
      </trkpt>
      <trkpt lat="45.82723" lon="4.73663">
        <ele>340.88091</ele>
        <time>2023-05-01T12:34:45.000Z</time>
      </trkpt>
      <trkpt lat="45.82727" lon="4.73659">
        <ele>340.79981</ele>
        <time>2023-05-01T12:34:46.000Z</time>
      </trkpt>
      <trkpt lat="45.82731" lon="4.73655">
        <ele>340.67826</ele>
        <time>2023-05-01T12:34:47.000Z</time>
      </trkpt>
      <trkpt lat="45.82735" lon="4.73651">
        <ele>340.47476</ele>
        <time>2023-05-01T12:34:48.000Z</time>
      </trkpt>
      <trkpt lat="45.82739" lon="4.73647">
        <ele>340.16939</ele>
        <time>2023-05-01T12:34:49.000Z</time>
      </trkpt>
      <trkpt lat="45.82743" lon="4.73644">
        <ele>339.85476</ele>
        <time>2023-05-01T12:34:50.000Z</time>
      </trkpt>
      <trkpt lat="45.82746" lon="4.7364">
        <ele>339.73573</ele>
        <time>2023-05-01T12:34:51.000Z</time>
      </trkpt>
      <trkpt lat="45.82748" lon="4.73637">
        <ele>339.61196</ele>
        <time>2023-05-01T12:34:52.000Z</time>
      </trkpt>
      <trkpt lat="45.82751" lon="4.73636">
        <ele>339.43047</ele>
        <time>2023-05-01T12:34:53.000Z</time>
      </trkpt>
      <trkpt lat="45.82752" lon="4.73633">
        <ele>339.47177</ele>
        <time>2023-05-01T12:34:54.000Z</time>
      </trkpt>
      <trkpt lat="45.82754" lon="4.73631">
        <ele>339.38076</ele>
        <time>2023-05-01T12:34:55.000Z</time>
      </trkpt>
      <trkpt lat="45.82756" lon="4.73629">
        <ele>339.23225</ele>
        <time>2023-05-01T12:34:56.000Z</time>
      </trkpt>
      <trkpt lat="45.82759" lon="4.73627">
        <ele>339.02368</ele>
        <time>2023-05-01T12:34:57.000Z</time>
      </trkpt>
      <trkpt lat="45.82762" lon="4.73624">
        <ele>338.73414</ele>
        <time>2023-05-01T12:34:58.000Z</time>
      </trkpt>
      <trkpt lat="45.82765" lon="4.73621">
        <ele>338.39748</ele>
        <time>2023-05-01T12:34:59.000Z</time>
      </trkpt>
      <trkpt lat="45.82768" lon="4.73618">
        <ele>338.05371</ele>
        <time>2023-05-01T12:35:00.000Z</time>
      </trkpt>
      <trkpt lat="45.82771" lon="4.73614">
        <ele>337.80555</ele>
        <time>2023-05-01T12:35:01.000Z</time>
      </trkpt>
      <trkpt lat="45.82773" lon="4.73611">
        <ele>337.6261</ele>
        <time>2023-05-01T12:35:02.000Z</time>
      </trkpt>
      <trkpt lat="45.82774" lon="4.73609">
        <ele>337.45224</ele>
        <time>2023-05-01T12:35:03.000Z</time>
      </trkpt>
      <trkpt lat="45.82776" lon="4.73606">
        <ele>337.28682</ele>
        <time>2023-05-01T12:35:04.000Z</time>
      </trkpt>
      <trkpt lat="45.82778" lon="4.73604">
        <ele>337.10727</ele>
        <time>2023-05-01T12:35:05.000Z</time>
      </trkpt>
      <trkpt lat="45.82781" lon="4.73601">
        <ele>336.91387</ele>
        <time>2023-05-01T12:35:06.000Z</time>
      </trkpt>
      <trkpt lat="45.82783" lon="4.73598">
        <ele>336.7078</ele>
        <time>2023-05-01T12:35:07.000Z</time>
      </trkpt>
      <trkpt lat="45.82786" lon="4.73594">
        <ele>336.4504</ele>
        <time>2023-05-01T12:35:08.000Z</time>
      </trkpt>
      <trkpt lat="45.82789" lon="4.7359">
        <ele>336.16842</ele>
        <time>2023-05-01T12:35:09.000Z</time>
      </trkpt>
      <trkpt lat="45.82792" lon="4.73587">
        <ele>335.86843</ele>
        <time>2023-05-01T12:35:10.000Z</time>
      </trkpt>
      <trkpt lat="45.82795" lon="4.73584">
        <ele>335.54843</ele>
        <time>2023-05-01T12:35:11.000Z</time>
      </trkpt>
      <trkpt lat="45.82798" lon="4.7358">
        <ele>335.22232</ele>
        <time>2023-05-01T12:35:12.000Z</time>
      </trkpt>
      <trkpt lat="45.82801" lon="4.73577">
        <ele>334.98021</ele>
        <time>2023-05-01T12:35:13.000Z</time>
      </trkpt>
      <trkpt lat="45.82802" lon="4.73575">
        <ele>334.83858</ele>
        <time>2023-05-01T12:35:14.000Z</time>
      </trkpt>
      <trkpt lat="45.82805" lon="4.73573">
        <ele>334.47353</ele>
        <time>2023-05-01T12:35:16.000Z</time>
      </trkpt>
      <trkpt lat="45.82808" lon="4.7357">
        <ele>334.1681</ele>
        <time>2023-05-01T12:35:17.000Z</time>
      </trkpt>
      <trkpt lat="45.82811" lon="4.73566">
        <ele>333.81536</ele>
        <time>2023-05-01T12:35:18.000Z</time>
      </trkpt>
      <trkpt lat="45.82814" lon="4.73563">
        <ele>333.43404</ele>
        <time>2023-05-01T12:35:19.000Z</time>
      </trkpt>
      <trkpt lat="45.82816" lon="4.73561">
        <ele>333.19724</ele>
        <time>2023-05-01T12:35:20.000Z</time>
      </trkpt>
      <trkpt lat="45.82818" lon="4.7356">
        <ele>333.00194</ele>
        <time>2023-05-01T12:35:21.000Z</time>
      </trkpt>
      <trkpt lat="45.8282" lon="4.73558">
        <ele>332.75575</ele>
        <time>2023-05-01T12:35:22.000Z</time>
      </trkpt>
      <trkpt lat="45.82822" lon="4.73556">
        <ele>332.48447</ele>
        <time>2023-05-01T12:35:23.000Z</time>
      </trkpt>
      <trkpt lat="45.82824" lon="4.73554">
        <ele>332.24564</ele>
        <time>2023-05-01T12:35:24.000Z</time>
      </trkpt>
      <trkpt lat="45.82826" lon="4.73551">
        <ele>331.99702</ele>
        <time>2023-05-01T12:35:25.000Z</time>
      </trkpt>
      <trkpt lat="45.82828" lon="4.73549">
        <ele>331.73649</ele>
        <time>2023-05-01T12:35:26.000Z</time>
      </trkpt>
      <trkpt lat="45.82831" lon="4.73545">
        <ele>331.47953</ele>
        <time>2023-05-01T12:35:27.000Z</time>
      </trkpt>
      <trkpt lat="45.82833" lon="4.73541">
        <ele>331.25605</ele>
        <time>2023-05-01T12:35:28.000Z</time>
      </trkpt>
      <trkpt lat="45.82836" lon="4.73537">
        <ele>330.99718</ele>
        <time>2023-05-01T12:35:29.000Z</time>
      </trkpt>
      <trkpt lat="45.82838" lon="4.73534">
        <ele>330.77187</ele>
        <time>2023-05-01T12:35:30.000Z</time>
      </trkpt>
      <trkpt lat="45.82841" lon="4.73531">
        <ele>330.56255</ele>
        <time>2023-05-01T12:35:31.000Z</time>
      </trkpt>
      <trkpt lat="45.82843" lon="4.73529">
        <ele>330.27903</ele>
        <time>2023-05-01T12:35:32.000Z</time>
      </trkpt>
      <trkpt lat="45.82846" lon="4.73527">
        <ele>329.95706</ele>
        <time>2023-05-01T12:35:33.000Z</time>
      </trkpt>
      <trkpt lat="45.82849" lon="4.73524">
        <ele>329.61741</ele>
        <time>2023-05-01T12:35:34.000Z</time>
      </trkpt>
      <trkpt lat="45.82852" lon="4.73521">
        <ele>329.22236</ele>
        <time>2023-05-01T12:35:35.000Z</time>
      </trkpt>
      <trkpt lat="45.82855" lon="4.73518">
        <ele>328.88382</ele>
        <time>2023-05-01T12:35:36.000Z</time>
      </trkpt>
      <trkpt lat="45.82859" lon="4.73513">
        <ele>328.40422</ele>
        <time>2023-05-01T12:35:37.000Z</time>
      </trkpt>
      <trkpt lat="45.82862" lon="4.73509">
        <ele>328.08354</ele>
        <time>2023-05-01T12:35:38.000Z</time>
      </trkpt>
      <trkpt lat="45.82866" lon="4.73504">
        <ele>327.67077</ele>
        <time>2023-05-01T12:35:39.000Z</time>
      </trkpt>
      <trkpt lat="45.82871" lon="4.73499">
        <ele>327.23343</ele>
        <time>2023-05-01T12:35:40.000Z</time>
      </trkpt>
      <trkpt lat="45.82874" lon="4.73496">
        <ele>326.89405</ele>
        <time>2023-05-01T12:35:41.000Z</time>
      </trkpt>
      <trkpt lat="45.82878" lon="4.7349">
        <ele>326.34699</ele>
        <time>2023-05-01T12:35:42.000Z</time>
      </trkpt>
      <trkpt lat="45.82882" lon="4.73487">
        <ele>325.82443</ele>
        <time>2023-05-01T12:35:43.000Z</time>
      </trkpt>
      <trkpt lat="45.82886" lon="4.73482">
        <ele>325.39591</ele>
        <time>2023-05-01T12:35:44.000Z</time>
      </trkpt>
      <trkpt lat="45.82889" lon="4.73479">
        <ele>325.03449</ele>
        <time>2023-05-01T12:35:45.000Z</time>
      </trkpt>
      <trkpt lat="45.82892" lon="4.73476">
        <ele>324.68675</ele>
        <time>2023-05-01T12:35:46.000Z</time>
      </trkpt>
      <trkpt lat="45.82894" lon="4.73473">
        <ele>324.37614</ele>
        <time>2023-05-01T12:35:47.000Z</time>
      </trkpt>
      <trkpt lat="45.82897" lon="4.7347">
        <ele>324.02502</ele>
        <time>2023-05-01T12:35:48.000Z</time>
      </trkpt>
      <trkpt lat="45.829" lon="4.73467">
        <ele>323.73021</ele>
        <time>2023-05-01T12:35:49.000Z</time>
      </trkpt>
      <trkpt lat="45.82903" lon="4.73463">
        <ele>323.38788</ele>
        <time>2023-05-01T12:35:50.000Z</time>
      </trkpt>
      <trkpt lat="45.82906" lon="4.73461">
        <ele>323.00031</ele>
        <time>2023-05-01T12:35:51.000Z</time>
      </trkpt>
      <trkpt lat="45.8291" lon="4.73458">
        <ele>322.64057</ele>
        <time>2023-05-01T12:35:52.000Z</time>
      </trkpt>
      <trkpt lat="45.82913" lon="4.73456">
        <ele>322.29838</ele>
        <time>2023-05-01T12:35:53.000Z</time>
      </trkpt>
      <trkpt lat="45.82916" lon="4.73452">
        <ele>321.96822</ele>
        <time>2023-05-01T12:35:54.000Z</time>
      </trkpt>
      <trkpt lat="45.82919" lon="4.73448">
        <ele>321.58677</ele>
        <time>2023-05-01T12:35:55.000Z</time>
      </trkpt>
      <trkpt lat="45.82922" lon="4.73445">
        <ele>321.23626</ele>
        <time>2023-05-01T12:35:56.000Z</time>
      </trkpt>
      <trkpt lat="45.82926" lon="4.73442">
        <ele>320.86</ele>
        <time>2023-05-01T12:35:57.000Z</time>
      </trkpt>
      <trkpt lat="45.8293" lon="4.73438">
        <ele>320.49936</ele>
        <time>2023-05-01T12:35:58.000Z</time>
      </trkpt>
      <trkpt lat="45.82934" lon="4.73434">
        <ele>320.13745</ele>
        <time>2023-05-01T12:35:59.000Z</time>
      </trkpt>
      <trkpt lat="45.82939" lon="4.7343">
        <ele>319.68057</ele>
        <time>2023-05-01T12:36:00.000Z</time>
      </trkpt>
      <trkpt lat="45.82943" lon="4.73426">
        <ele>319.35722</ele>
        <time>2023-05-01T12:36:01.000Z</time>
      </trkpt>
      <trkpt lat="45.82948" lon="4.73422">
        <ele>319.01194</ele>
        <time>2023-05-01T12:36:02.000Z</time>
      </trkpt>
      <trkpt lat="45.82951" lon="4.73418">
        <ele>318.7488</ele>
        <time>2023-05-01T12:36:03.000Z</time>
      </trkpt>
      <trkpt lat="45.82954" lon="4.73415">
        <ele>318.53122</ele>
        <time>2023-05-01T12:36:04.000Z</time>
      </trkpt>
      <trkpt lat="45.82957" lon="4.73413">
        <ele>318.34706</ele>
        <time>2023-05-01T12:36:05.000Z</time>
      </trkpt>
      <trkpt lat="45.82959" lon="4.73412">
        <ele>318.21355</ele>
        <time>2023-05-01T12:36:06.000Z</time>
      </trkpt>
      <trkpt lat="45.82961" lon="4.73411">
        <ele>318.09091</ele>
        <time>2023-05-01T12:36:07.000Z</time>
      </trkpt>
      <trkpt lat="45.82963" lon="4.73409">
        <ele>317.97844</ele>
        <time>2023-05-01T12:36:08.000Z</time>
      </trkpt>
      <trkpt lat="45.82964" lon="4.73408">
        <ele>317.8903</ele>
        <time>2023-05-01T12:36:09.000Z</time>
      </trkpt>
      <trkpt lat="45.82966" lon="4.73406">
        <ele>317.78424</ele>
        <time>2023-05-01T12:36:10.000Z</time>
      </trkpt>
      <trkpt lat="45.82969" lon="4.73405">
        <ele>317.65048</ele>
        <time>2023-05-01T12:36:11.000Z</time>
      </trkpt>
      <trkpt lat="45.82972" lon="4.73403">
        <ele>317.50791</ele>
        <time>2023-05-01T12:36:12.000Z</time>
      </trkpt>
      <trkpt lat="45.82974" lon="4.73401">
        <ele>317.37387</ele>
        <time>2023-05-01T12:36:13.000Z</time>
      </trkpt>
      <trkpt lat="45.82976" lon="4.73398">
        <ele>317.22663</ele>
        <time>2023-05-01T12:36:14.000Z</time>
      </trkpt>
      <trkpt lat="45.82979" lon="4.73395">
        <ele>317.04412</ele>
        <time>2023-05-01T12:36:15.000Z</time>
      </trkpt>
      <trkpt lat="45.8298" lon="4.73393">
        <ele>316.89967</ele>
        <time>2023-05-01T12:36:16.000Z</time>
      </trkpt>
      <trkpt lat="45.82984" lon="4.7339">
        <ele>316.55489</ele>
        <time>2023-05-01T12:36:18.000Z</time>
      </trkpt>
      <trkpt lat="45.82986" lon="4.73387">
        <ele>316.27307</ele>
        <time>2023-05-01T12:36:19.000Z</time>
      </trkpt>
      <trkpt lat="45.82989" lon="4.73385">
        <ele>315.99452</ele>
        <time>2023-05-01T12:36:20.000Z</time>
      </trkpt>
      <trkpt lat="45.82992" lon="4.73382">
        <ele>315.73631</ele>
        <time>2023-05-01T12:36:21.000Z</time>
      </trkpt>
      <trkpt lat="45.82994" lon="4.7338">
        <ele>315.55554</ele>
        <time>2023-05-01T12:36:22.000Z</time>
      </trkpt>
      <trkpt lat="45.82996" lon="4.73379">
        <ele>315.40119</ele>
        <time>2023-05-01T12:36:23.000Z</time>
      </trkpt>
      <trkpt lat="45.82998" lon="4.73378">
        <ele>315.24292</ele>
        <time>2023-05-01T12:36:24.000Z</time>
      </trkpt>
      <trkpt lat="45.83001" lon="4.73377">
        <ele>315.06386</ele>
        <time>2023-05-01T12:36:25.000Z</time>
      </trkpt>
      <trkpt lat="45.83003" lon="4.73375">
        <ele>314.90105</ele>
        <time>2023-05-01T12:36:26.000Z</time>
      </trkpt>
      <trkpt lat="45.83005" lon="4.73373">
        <ele>314.75113</ele>
        <time>2023-05-01T12:36:27.000Z</time>
      </trkpt>
      <trkpt lat="45.83007" lon="4.73372">
        <ele>314.62445</ele>
        <time>2023-05-01T12:36:28.000Z</time>
      </trkpt>
      <trkpt lat="45.83009" lon="4.7337">
        <ele>314.47718</ele>
        <time>2023-05-01T12:36:29.000Z</time>
      </trkpt>
      <trkpt lat="45.83011" lon="4.73369">
        <ele>314.35407</ele>
        <time>2023-05-01T12:36:30.000Z</time>
      </trkpt>
      <trkpt lat="45.83013" lon="4.73367">
        <ele>314.22052</ele>
        <time>2023-05-01T12:36:38.000Z</time>
      </trkpt>
      <trkpt lat="45.83015" lon="4.73363">
        <ele>313.98391</ele>
        <time>2023-05-01T12:36:40.000Z</time>
      </trkpt>
      <trkpt lat="45.83017" lon="4.73361">
        <ele>313.82835</ele>
        <time>2023-05-01T12:36:41.000Z</time>
      </trkpt>
      <trkpt lat="45.83019" lon="4.73359">
        <ele>313.64631</ele>
        <time>2023-05-01T12:36:42.000Z</time>
      </trkpt>
      <trkpt lat="45.83021" lon="4.73357">
        <ele>313.45735</ele>
        <time>2023-05-01T12:36:43.000Z</time>
      </trkpt>
      <trkpt lat="45.83024" lon="4.73354">
        <ele>313.21548</ele>
        <time>2023-05-01T12:36:44.000Z</time>
      </trkpt>
      <trkpt lat="45.83026" lon="4.73352">
        <ele>312.94439</ele>
        <time>2023-05-01T12:36:45.000Z</time>
      </trkpt>
      <trkpt lat="45.83029" lon="4.73349">
        <ele>312.6851</ele>
        <time>2023-05-01T12:36:46.000Z</time>
      </trkpt>
      <trkpt lat="45.83031" lon="4.73347">
        <ele>312.44503</ele>
        <time>2023-05-01T12:36:47.000Z</time>
      </trkpt>
      <trkpt lat="45.83033" lon="4.73344">
        <ele>312.19671</ele>
        <time>2023-05-01T12:36:48.000Z</time>
      </trkpt>
      <trkpt lat="45.83036" lon="4.73342">
        <ele>311.92237</ele>
        <time>2023-05-01T12:36:49.000Z</time>
      </trkpt>
      <trkpt lat="45.8304" lon="4.7334">
        <ele>311.65273</ele>
        <time>2023-05-01T12:36:50.000Z</time>
      </trkpt>
      <trkpt lat="45.83043" lon="4.73338">
        <ele>311.38787</ele>
        <time>2023-05-01T12:36:51.000Z</time>
      </trkpt>
      <trkpt lat="45.83046" lon="4.73336">
        <ele>311.13245</ele>
        <time>2023-05-01T12:36:52.000Z</time>
      </trkpt>
      <trkpt lat="45.83049" lon="4.73334">
        <ele>310.8275</ele>
        <time>2023-05-01T12:36:53.000Z</time>
      </trkpt>
      <trkpt lat="45.83052" lon="4.73331">
        <ele>310.50528</ele>
        <time>2023-05-01T12:36:54.000Z</time>
      </trkpt>
      <trkpt lat="45.83055" lon="4.73328">
        <ele>310.18046</ele>
        <time>2023-05-01T12:36:55.000Z</time>
      </trkpt>
      <trkpt lat="45.83058" lon="4.73325">
        <ele>309.84526</ele>
        <time>2023-05-01T12:36:56.000Z</time>
      </trkpt>
      <trkpt lat="45.83061" lon="4.73322">
        <ele>309.50521</ele>
        <time>2023-05-01T12:36:57.000Z</time>
      </trkpt>
      <trkpt lat="45.83064" lon="4.73319">
        <ele>309.1593</ele>
        <time>2023-05-01T12:36:58.000Z</time>
      </trkpt>
      <trkpt lat="45.83067" lon="4.73316">
        <ele>308.85366</ele>
        <time>2023-05-01T12:36:59.000Z</time>
      </trkpt>
      <trkpt lat="45.8307" lon="4.73314">
        <ele>308.59898</ele>
        <time>2023-05-01T12:37:00.000Z</time>
      </trkpt>
      <trkpt lat="45.83072" lon="4.73312">
        <ele>308.36953</ele>
        <time>2023-05-01T12:37:01.000Z</time>
      </trkpt>
      <trkpt lat="45.83075" lon="4.73309">
        <ele>308.07733</ele>
        <time>2023-05-01T12:37:02.000Z</time>
      </trkpt>
      <trkpt lat="45.83078" lon="4.73306">
        <ele>307.76693</ele>
        <time>2023-05-01T12:37:03.000Z</time>
      </trkpt>
      <trkpt lat="45.83081" lon="4.73301">
        <ele>307.31024</ele>
        <time>2023-05-01T12:37:04.000Z</time>
      </trkpt>
      <trkpt lat="45.83085" lon="4.73297">
        <ele>306.92324</ele>
        <time>2023-05-01T12:37:05.000Z</time>
      </trkpt>
      <trkpt lat="45.83088" lon="4.73294">
        <ele>306.57307</ele>
        <time>2023-05-01T12:37:06.000Z</time>
      </trkpt>
      <trkpt lat="45.83091" lon="4.7329">
        <ele>306.11584</ele>
        <time>2023-05-01T12:37:07.000Z</time>
      </trkpt>
      <trkpt lat="45.83095" lon="4.73286">
        <ele>305.64881</ele>
        <time>2023-05-01T12:37:08.000Z</time>
      </trkpt>
      <trkpt lat="45.83099" lon="4.73283">
        <ele>305.2744</ele>
        <time>2023-05-01T12:37:09.000Z</time>
      </trkpt>
      <trkpt lat="45.83102" lon="4.73279">
        <ele>304.91939</ele>
        <time>2023-05-01T12:37:10.000Z</time>
      </trkpt>
      <trkpt lat="45.83105" lon="4.73275">
        <ele>304.55991</ele>
        <time>2023-05-01T12:37:11.000Z</time>
      </trkpt>
      <trkpt lat="45.83109" lon="4.73271">
        <ele>304.22193</ele>
        <time>2023-05-01T12:37:12.000Z</time>
      </trkpt>
      <trkpt lat="45.83112" lon="4.73267">
        <ele>303.87222</ele>
        <time>2023-05-01T12:37:13.000Z</time>
      </trkpt>
      <trkpt lat="45.83115" lon="4.73263">
        <ele>303.53386</ele>
        <time>2023-05-01T12:37:14.000Z</time>
      </trkpt>
      <trkpt lat="45.83117" lon="4.7326">
        <ele>303.19772</ele>
        <time>2023-05-01T12:37:15.000Z</time>
      </trkpt>
      <trkpt lat="45.8312" lon="4.73256">
        <ele>302.85859</ele>
        <time>2023-05-01T12:37:16.000Z</time>
      </trkpt>
      <trkpt lat="45.83122" lon="4.73254">
        <ele>302.55854</ele>
        <time>2023-05-01T12:37:17.000Z</time>
      </trkpt>
      <trkpt lat="45.83125" lon="4.73251">
        <ele>302.23622</ele>
        <time>2023-05-01T12:37:18.000Z</time>
      </trkpt>
      <trkpt lat="45.83127" lon="4.73247">
        <ele>301.91187</ele>
        <time>2023-05-01T12:37:19.000Z</time>
      </trkpt>
      <trkpt lat="45.83131" lon="4.73244">
        <ele>301.57781</ele>
        <time>2023-05-01T12:37:20.000Z</time>
      </trkpt>
      <trkpt lat="45.83135" lon="4.73242">
        <ele>301.20931</ele>
        <time>2023-05-01T12:37:21.000Z</time>
      </trkpt>
      <trkpt lat="45.83138" lon="4.7324">
        <ele>300.93668</ele>
        <time>2023-05-01T12:37:22.000Z</time>
      </trkpt>
      <trkpt lat="45.83141" lon="4.73238">
        <ele>300.64233</ele>
        <time>2023-05-01T12:37:23.000Z</time>
      </trkpt>
      <trkpt lat="45.83143" lon="4.73235">
        <ele>300.34843</ele>
        <time>2023-05-01T12:37:24.000Z</time>
      </trkpt>
      <trkpt lat="45.83146" lon="4.73231">
        <ele>299.96792</ele>
        <time>2023-05-01T12:37:25.000Z</time>
      </trkpt>
      <trkpt lat="45.83149" lon="4.73228">
        <ele>299.60564</ele>
        <time>2023-05-01T12:37:26.000Z</time>
      </trkpt>
      <trkpt lat="45.83153" lon="4.73225">
        <ele>299.2426</ele>
        <time>2023-05-01T12:37:27.000Z</time>
      </trkpt>
      <trkpt lat="45.83157" lon="4.73222">
        <ele>298.88275</ele>
        <time>2023-05-01T12:37:28.000Z</time>
      </trkpt>
      <trkpt lat="45.83162" lon="4.73217">
        <ele>298.40637</ele>
        <time>2023-05-01T12:37:29.000Z</time>
      </trkpt>
      <trkpt lat="45.83167" lon="4.73213">
        <ele>298.0812</ele>
        <time>2023-05-01T12:37:30.000Z</time>
      </trkpt>
      <trkpt lat="45.83171" lon="4.73209">
        <ele>297.74562</ele>
        <time>2023-05-01T12:37:31.000Z</time>
      </trkpt>
      <trkpt lat="45.83174" lon="4.73207">
        <ele>297.51959</ele>
        <time>2023-05-01T12:37:32.000Z</time>
      </trkpt>
      <trkpt lat="45.83178" lon="4.73203">
        <ele>297.24967</ele>
        <time>2023-05-01T12:37:33.000Z</time>
      </trkpt>
      <trkpt lat="45.83182" lon="4.73199">
        <ele>296.98285</ele>
        <time>2023-05-01T12:37:34.000Z</time>
      </trkpt>
      <trkpt lat="45.83186" lon="4.73195">
        <ele>296.78527</ele>
        <time>2023-05-01T12:37:35.000Z</time>
      </trkpt>
      <trkpt lat="45.83189" lon="4.7319">
        <ele>296.57901</ele>
        <time>2023-05-01T12:37:36.000Z</time>
      </trkpt>
      <trkpt lat="45.83192" lon="4.73187">
        <ele>296.40462</ele>
        <time>2023-05-01T12:37:37.000Z</time>
      </trkpt>
      <trkpt lat="45.83195" lon="4.73182">
        <ele>296.22768</ele>
        <time>2023-05-01T12:37:38.000Z</time>
      </trkpt>
      <trkpt lat="45.83198" lon="4.73177">
        <ele>296.01985</ele>
        <time>2023-05-01T12:37:39.000Z</time>
      </trkpt>
      <trkpt lat="45.83198" lon="4.73171">
        <ele>295.86406</ele>
        <time>2023-05-01T12:37:40.000Z</time>
      </trkpt>
      <trkpt lat="45.83199" lon="4.73166">
        <ele>295.72444</ele>
        <time>2023-05-01T12:37:41.000Z</time>
      </trkpt>
      <trkpt lat="45.83202" lon="4.7316">
        <ele>295.579</ele>
        <time>2023-05-01T12:37:42.000Z</time>
      </trkpt>
      <trkpt lat="45.83203" lon="4.73156">
        <ele>295.47049</ele>
        <time>2023-05-01T12:37:43.000Z</time>
      </trkpt>
      <trkpt lat="45.83204" lon="4.73152">
        <ele>295.38256</ele>
        <time>2023-05-01T12:37:44.000Z</time>
      </trkpt>
      <trkpt lat="45.83205" lon="4.73147">
        <ele>295.25672</ele>
        <time>2023-05-01T12:37:45.000Z</time>
      </trkpt>
      <trkpt lat="45.83206" lon="4.73142">
        <ele>295.11709</ele>
        <time>2023-05-01T12:37:46.000Z</time>
      </trkpt>
      <trkpt lat="45.83207" lon="4.73138">
        <ele>295.00016</ele>
        <time>2023-05-01T12:37:47.000Z</time>
      </trkpt>
      <trkpt lat="45.83207" lon="4.73133">
        <ele>294.85141</ele>
        <time>2023-05-01T12:37:48.000Z</time>
      </trkpt>
      <trkpt lat="45.83206" lon="4.73127">
        <ele>294.61831</ele>
        <time>2023-05-01T12:37:49.000Z</time>
      </trkpt>
      <trkpt lat="45.83207" lon="4.73118">
        <ele>294.30846</ele>
        <time>2023-05-01T12:37:50.000Z</time>
      </trkpt>
      <trkpt lat="45.83209" lon="4.73112">
        <ele>294.05742</ele>
        <time>2023-05-01T12:37:51.000Z</time>
      </trkpt>
      <trkpt lat="45.83211" lon="4.73105">
        <ele>293.81853</ele>
        <time>2023-05-01T12:37:52.000Z</time>
      </trkpt>
      <trkpt lat="45.83213" lon="4.73099">
        <ele>293.63528</ele>
        <time>2023-05-01T12:37:53.000Z</time>
      </trkpt>
      <trkpt lat="45.83215" lon="4.73094">
        <ele>293.49637</ele>
        <time>2023-05-01T12:37:54.000Z</time>
      </trkpt>
      <trkpt lat="45.83218" lon="4.73088">
        <ele>293.35802</ele>
        <time>2023-05-01T12:37:55.000Z</time>
      </trkpt>
      <trkpt lat="45.83221" lon="4.73082">
        <ele>293.25914</ele>
        <time>2023-05-01T12:37:56.000Z</time>
      </trkpt>
      <trkpt lat="45.83225" lon="4.73077">
        <ele>293.27007</ele>
        <time>2023-05-01T12:37:57.000Z</time>
      </trkpt>
      <trkpt lat="45.83228" lon="4.73072">
        <ele>293.24781</ele>
        <time>2023-05-01T12:37:58.000Z</time>
      </trkpt>
      <trkpt lat="45.83231" lon="4.73066">
        <ele>293.2123</ele>
        <time>2023-05-01T12:37:59.000Z</time>
      </trkpt>
      <trkpt lat="45.83233" lon="4.73061">
        <ele>293.18766</ele>
        <time>2023-05-01T12:38:00.000Z</time>
      </trkpt>
      <trkpt lat="45.83236" lon="4.73056">
        <ele>293.16214</ele>
        <time>2023-05-01T12:38:01.000Z</time>
      </trkpt>
      <trkpt lat="45.83239" lon="4.7305">
        <ele>293.14151</ele>
        <time>2023-05-01T12:38:02.000Z</time>
      </trkpt>
      <trkpt lat="45.83241" lon="4.73045">
        <ele>293.12757</ele>
        <time>2023-05-01T12:38:03.000Z</time>
      </trkpt>
      <trkpt lat="45.83243" lon="4.7304">
        <ele>293.11762</ele>
        <time>2023-05-01T12:38:04.000Z</time>
      </trkpt>
      <trkpt lat="45.83245" lon="4.73034">
        <ele>293.1085</ele>
        <time>2023-05-01T12:38:05.000Z</time>
      </trkpt>
      <trkpt lat="45.83247" lon="4.73028">
        <ele>293.08854</ele>
        <time>2023-05-01T12:38:06.000Z</time>
      </trkpt>
      <trkpt lat="45.83249" lon="4.73023">
        <ele>293.06333</ele>
        <time>2023-05-01T12:38:07.000Z</time>
      </trkpt>
      <trkpt lat="45.83251" lon="4.73017">
        <ele>293.02197</ele>
        <time>2023-05-01T12:38:08.000Z</time>
      </trkpt>
      <trkpt lat="45.83253" lon="4.73012">
        <ele>292.97385</ele>
        <time>2023-05-01T12:38:09.000Z</time>
      </trkpt>
      <trkpt lat="45.83255" lon="4.73007">
        <ele>292.93063</ele>
        <time>2023-05-01T12:38:10.000Z</time>
      </trkpt>
      <trkpt lat="45.83258" lon="4.73001">
        <ele>292.87452</ele>
        <time>2023-05-01T12:38:11.000Z</time>
      </trkpt>
      <trkpt lat="45.8326" lon="4.72996">
        <ele>292.77824</ele>
        <time>2023-05-01T12:38:12.000Z</time>
      </trkpt>
      <trkpt lat="45.83262" lon="4.7299">
        <ele>292.64424</ele>
        <time>2023-05-01T12:38:13.000Z</time>
      </trkpt>
      <trkpt lat="45.83264" lon="4.72984">
        <ele>292.43421</ele>
        <time>2023-05-01T12:38:14.000Z</time>
      </trkpt>
      <trkpt lat="45.83266" lon="4.7298">
        <ele>292.2601</ele>
        <time>2023-05-01T12:38:15.000Z</time>
      </trkpt>
      <trkpt lat="45.83267" lon="4.72977">
        <ele>292.09876</ele>
        <time>2023-05-01T12:38:16.000Z</time>
      </trkpt>
      <trkpt lat="45.83269" lon="4.72972">
        <ele>291.88628</ele>
        <time>2023-05-01T12:38:17.000Z</time>
      </trkpt>
      <trkpt lat="45.8327" lon="4.72969">
        <ele>291.64972</ele>
        <time>2023-05-01T12:38:18.000Z</time>
      </trkpt>
      <trkpt lat="45.83272" lon="4.72965">
        <ele>291.41595</ele>
        <time>2023-05-01T12:38:19.000Z</time>
      </trkpt>
      <trkpt lat="45.83274" lon="4.7296">
        <ele>291.13485</ele>
        <time>2023-05-01T12:38:20.000Z</time>
      </trkpt>
      <trkpt lat="45.83275" lon="4.72957">
        <ele>290.91022</ele>
        <time>2023-05-01T12:38:21.000Z</time>
      </trkpt>
      <trkpt lat="45.83276" lon="4.72953">
        <ele>290.67285</ele>
        <time>2023-05-01T12:38:22.000Z</time>
      </trkpt>
      <trkpt lat="45.83278" lon="4.7295">
        <ele>290.44694</ele>
        <time>2023-05-01T12:38:23.000Z</time>
      </trkpt>
      <trkpt lat="45.83279" lon="4.72947">
        <ele>290.23109</ele>
        <time>2023-05-01T12:38:24.000Z</time>
      </trkpt>
      <trkpt lat="45.8328" lon="4.72944">
        <ele>289.9881</ele>
        <time>2023-05-01T12:38:25.000Z</time>
      </trkpt>
      <trkpt lat="45.83281" lon="4.7294">
        <ele>289.74485</ele>
        <time>2023-05-01T12:38:26.000Z</time>
      </trkpt>
      <trkpt lat="45.83282" lon="4.72937">
        <ele>289.51916</ele>
        <time>2023-05-01T12:38:27.000Z</time>
      </trkpt>
      <trkpt lat="45.83283" lon="4.72934">
        <ele>289.30216</ele>
        <time>2023-05-01T12:38:28.000Z</time>
      </trkpt>
      <trkpt lat="45.83285" lon="4.7293">
        <ele>288.99081</ele>
        <time>2023-05-01T12:38:29.000Z</time>
      </trkpt>
      <trkpt lat="45.83286" lon="4.72926">
        <ele>288.67347</ele>
        <time>2023-05-01T12:38:30.000Z</time>
      </trkpt>
      <trkpt lat="45.83288" lon="4.72922">
        <ele>288.38573</ele>
        <time>2023-05-01T12:38:31.000Z</time>
      </trkpt>
      <trkpt lat="45.83289" lon="4.72917">
        <ele>287.9985</ele>
        <time>2023-05-01T12:38:32.000Z</time>
      </trkpt>
      <trkpt lat="45.83291" lon="4.72912">
        <ele>287.54683</ele>
        <time>2023-05-01T12:38:33.000Z</time>
      </trkpt>
      <trkpt lat="45.83293" lon="4.72907">
        <ele>287.12623</ele>
        <time>2023-05-01T12:38:34.000Z</time>
      </trkpt>
      <trkpt lat="45.83295" lon="4.72903">
        <ele>286.7707</ele>
        <time>2023-05-01T12:38:35.000Z</time>
      </trkpt>
      <trkpt lat="45.83297" lon="4.72899">
        <ele>286.35893</ele>
        <time>2023-05-01T12:38:36.000Z</time>
      </trkpt>
      <trkpt lat="45.83298" lon="4.72894">
        <ele>285.83327</ele>
        <time>2023-05-01T12:38:37.000Z</time>
      </trkpt>
      <trkpt lat="45.833" lon="4.72889">
        <ele>285.25538</ele>
        <time>2023-05-01T12:38:38.000Z</time>
      </trkpt>
      <trkpt lat="45.83303" lon="4.72886">
        <ele>284.64817</ele>
        <time>2023-05-01T12:38:39.000Z</time>
      </trkpt>
      <trkpt lat="45.83307" lon="4.72884">
        <ele>284.15143</ele>
        <time>2023-05-01T12:38:40.000Z</time>
      </trkpt>
      <trkpt lat="45.83309" lon="4.72885">
        <ele>283.97474</ele>
        <time>2023-05-01T12:38:45.000Z</time>
      </trkpt>
      <trkpt lat="45.83312" lon="4.72883">
        <ele>283.44392</ele>
        <time>2023-05-01T12:38:47.000Z</time>
      </trkpt>
      <trkpt lat="45.83314" lon="4.72882">
        <ele>283.09517</ele>
        <time>2023-05-01T12:38:48.000Z</time>
      </trkpt>
      <trkpt lat="45.83316" lon="4.72881">
        <ele>282.79203</ele>
        <time>2023-05-01T12:38:49.000Z</time>
      </trkpt>
      <trkpt lat="45.83319" lon="4.72879">
        <ele>282.17855</ele>
        <time>2023-05-01T12:38:51.000Z</time>
      </trkpt>
      <trkpt lat="45.83322" lon="4.72878">
        <ele>281.77312</ele>
        <time>2023-05-01T12:38:52.000Z</time>
      </trkpt>
      <trkpt lat="45.83326" lon="4.72878">
        <ele>281.39233</ele>
        <time>2023-05-01T12:38:53.000Z</time>
      </trkpt>
      <trkpt lat="45.8333" lon="4.72879">
        <ele>280.96785</ele>
        <time>2023-05-01T12:38:54.000Z</time>
      </trkpt>
      <trkpt lat="45.83334" lon="4.72877">
        <ele>280.35784</ele>
        <time>2023-05-01T12:38:55.000Z</time>
      </trkpt>
      <trkpt lat="45.83338" lon="4.72877">
        <ele>279.94534</ele>
        <time>2023-05-01T12:38:56.000Z</time>
      </trkpt>
      <trkpt lat="45.83343" lon="4.72877">
        <ele>279.45182</ele>
        <time>2023-05-01T12:38:57.000Z</time>
      </trkpt>
      <trkpt lat="45.83347" lon="4.72877">
        <ele>278.95974</ele>
        <time>2023-05-01T12:38:58.000Z</time>
      </trkpt>
      <trkpt lat="45.8335" lon="4.72877">
        <ele>278.55291</ele>
        <time>2023-05-01T12:38:59.000Z</time>
      </trkpt>
      <trkpt lat="45.83353" lon="4.72877">
        <ele>278.20406</ele>
        <time>2023-05-01T12:39:00.000Z</time>
      </trkpt>
      <trkpt lat="45.83357" lon="4.72877">
        <ele>277.69812</ele>
        <time>2023-05-01T12:39:01.000Z</time>
      </trkpt>
      <trkpt lat="45.83361" lon="4.72877">
        <ele>277.19807</ele>
        <time>2023-05-01T12:39:02.000Z</time>
      </trkpt>
      <trkpt lat="45.83363" lon="4.72878">
        <ele>276.88</ele>
        <time>2023-05-01T12:39:03.000Z</time>
      </trkpt>
      <trkpt lat="45.83369" lon="4.7288">
        <ele>276.15665</ele>
        <time>2023-05-01T12:39:04.000Z</time>
      </trkpt>
      <trkpt lat="45.83373" lon="4.7288">
        <ele>275.66765</ele>
        <time>2023-05-01T12:39:05.000Z</time>
      </trkpt>
      <trkpt lat="45.83376" lon="4.72882">
        <ele>275.35271</ele>
        <time>2023-05-01T12:39:06.000Z</time>
      </trkpt>
      <trkpt lat="45.83379" lon="4.72881">
        <ele>274.83</ele>
        <time>2023-05-01T12:39:07.000Z</time>
      </trkpt>
      <trkpt lat="45.83383" lon="4.72881">
        <ele>274.2469</ele>
        <time>2023-05-01T12:39:08.000Z</time>
      </trkpt>
      <trkpt lat="45.83387" lon="4.72879">
        <ele>273.52158</ele>
        <time>2023-05-01T12:39:09.000Z</time>
      </trkpt>
      <trkpt lat="45.83392" lon="4.72878">
        <ele>272.83529</ele>
        <time>2023-05-01T12:39:10.000Z</time>
      </trkpt>
      <trkpt lat="45.83395" lon="4.72876">
        <ele>272.27838</ele>
        <time>2023-05-01T12:39:11.000Z</time>
      </trkpt>
      <trkpt lat="45.83398" lon="4.72875">
        <ele>271.76601</ele>
        <time>2023-05-01T12:39:12.000Z</time>
      </trkpt>
      <trkpt lat="45.834" lon="4.72873">
        <ele>271.35756</ele>
        <time>2023-05-01T12:39:13.000Z</time>
      </trkpt>
      <trkpt lat="45.83404" lon="4.72871">
        <ele>270.72555</ele>
        <time>2023-05-01T12:39:14.000Z</time>
      </trkpt>
      <trkpt lat="45.83409" lon="4.72867">
        <ele>269.99907</ele>
        <time>2023-05-01T12:39:15.000Z</time>
      </trkpt>
      <trkpt lat="45.83413" lon="4.72863">
        <ele>269.38225</ele>
        <time>2023-05-01T12:39:16.000Z</time>
      </trkpt>
      <trkpt lat="45.83416" lon="4.72859">
        <ele>268.88808</ele>
        <time>2023-05-01T12:39:17.000Z</time>
      </trkpt>
      <trkpt lat="45.83419" lon="4.72854">
        <ele>268.48362</ele>
        <time>2023-05-01T12:39:18.000Z</time>
      </trkpt>
      <trkpt lat="45.83423" lon="4.7285">
        <ele>268.09594</ele>
        <time>2023-05-01T12:39:19.000Z</time>
      </trkpt>
      <trkpt lat="45.83425" lon="4.72847">
        <ele>267.80217</ele>
        <time>2023-05-01T12:39:20.000Z</time>
      </trkpt>
      <trkpt lat="45.83428" lon="4.72844">
        <ele>267.52128</ele>
        <time>2023-05-01T12:39:21.000Z</time>
      </trkpt>
      <trkpt lat="45.83431" lon="4.72837">
        <ele>267.23432</ele>
        <time>2023-05-01T12:39:22.000Z</time>
      </trkpt>
      <trkpt lat="45.83431" lon="4.72831">
        <ele>267.25518</ele>
        <time>2023-05-01T12:39:23.000Z</time>
      </trkpt>
      <trkpt lat="45.83431" lon="4.72826">
        <ele>267.30105</ele>
        <time>2023-05-01T12:39:24.000Z</time>
      </trkpt>
      <trkpt lat="45.83431" lon="4.72819">
        <ele>267.47471</ele>
        <time>2023-05-01T12:39:25.000Z</time>
      </trkpt>
      <trkpt lat="45.83431" lon="4.72812">
        <ele>267.74009</ele>
        <time>2023-05-01T12:39:26.000Z</time>
      </trkpt>
      <trkpt lat="45.8343" lon="4.72805">
        <ele>268.15191</ele>
        <time>2023-05-01T12:39:27.000Z</time>
      </trkpt>
      <trkpt lat="45.8343" lon="4.72799">
        <ele>268.4186</ele>
        <time>2023-05-01T12:39:28.000Z</time>
      </trkpt>
      <trkpt lat="45.8343" lon="4.72793">
        <ele>268.75485</ele>
        <time>2023-05-01T12:39:29.000Z</time>
      </trkpt>
      <trkpt lat="45.83432" lon="4.72789">
        <ele>268.78476</ele>
        <time>2023-05-01T12:39:30.000Z</time>
      </trkpt>
      <trkpt lat="45.83435" lon="4.72784">
        <ele>268.79166</ele>
        <time>2023-05-01T12:39:31.000Z</time>
      </trkpt>
      <trkpt lat="45.83438" lon="4.72781">
        <ele>268.64684</ele>
        <time>2023-05-01T12:39:32.000Z</time>
      </trkpt>
      <trkpt lat="45.83442" lon="4.7278">
        <ele>268.44361</ele>
        <time>2023-05-01T12:39:33.000Z</time>
      </trkpt>
      <trkpt lat="45.83447" lon="4.72778">
        <ele>268.10022</ele>
        <time>2023-05-01T12:39:34.000Z</time>
      </trkpt>
      <trkpt lat="45.83451" lon="4.72776">
        <ele>267.96777</ele>
        <time>2023-05-01T12:39:35.000Z</time>
      </trkpt>
      <trkpt lat="45.83454" lon="4.72774">
        <ele>267.83628</ele>
        <time>2023-05-01T12:39:36.000Z</time>
      </trkpt>
      <trkpt lat="45.83458" lon="4.72772">
        <ele>267.6745</ele>
        <time>2023-05-01T12:39:37.000Z</time>
      </trkpt>
      <trkpt lat="45.83463" lon="4.7277">
        <ele>267.57927</ele>
        <time>2023-05-01T12:39:38.000Z</time>
      </trkpt>
      <trkpt lat="45.83468" lon="4.72768">
        <ele>267.46452</ele>
        <time>2023-05-01T12:39:39.000Z</time>
      </trkpt>
      <trkpt lat="45.83472" lon="4.72766">
        <ele>267.3176</ele>
        <time>2023-05-01T12:39:40.000Z</time>
      </trkpt>
      <trkpt lat="45.83475" lon="4.72765">
        <ele>267.27136</ele>
        <time>2023-05-01T12:39:41.000Z</time>
      </trkpt>
      <trkpt lat="45.83479" lon="4.72763">
        <ele>267.17525</ele>
        <time>2023-05-01T12:39:42.000Z</time>
      </trkpt>
      <trkpt lat="45.83483" lon="4.72762">
        <ele>267.01763</ele>
        <time>2023-05-01T12:39:43.000Z</time>
      </trkpt>
      <trkpt lat="45.83487" lon="4.72761">
        <ele>266.99649</ele>
        <time>2023-05-01T12:39:44.000Z</time>
      </trkpt>
      <trkpt lat="45.8349" lon="4.72759">
        <ele>267.11476</ele>
        <time>2023-05-01T12:39:45.000Z</time>
      </trkpt>
      <trkpt lat="45.83493" lon="4.72756">
        <ele>267.3235</ele>
        <time>2023-05-01T12:39:46.000Z</time>
      </trkpt>
      <trkpt lat="45.83498" lon="4.72755">
        <ele>267.37971</ele>
        <time>2023-05-01T12:39:47.000Z</time>
      </trkpt>
      <trkpt lat="45.83503" lon="4.72753">
        <ele>267.28225</ele>
        <time>2023-05-01T12:39:48.000Z</time>
      </trkpt>
      <trkpt lat="45.83508" lon="4.72752">
        <ele>267.18531</ele>
        <time>2023-05-01T12:39:49.000Z</time>
      </trkpt>
      <trkpt lat="45.83512" lon="4.72751">
        <ele>267.01668</ele>
        <time>2023-05-01T12:39:50.000Z</time>
      </trkpt>
      <trkpt lat="45.83517" lon="4.7275">
        <ele>266.89917</ele>
        <time>2023-05-01T12:39:51.000Z</time>
      </trkpt>
      <trkpt lat="45.83521" lon="4.72749">
        <ele>266.77288</ele>
        <time>2023-05-01T12:39:52.000Z</time>
      </trkpt>
      <trkpt lat="45.83525" lon="4.72748">
        <ele>266.69119</ele>
        <time>2023-05-01T12:39:53.000Z</time>
      </trkpt>
      <trkpt lat="45.8353" lon="4.72747">
        <ele>266.51247</ele>
        <time>2023-05-01T12:39:54.000Z</time>
      </trkpt>
      <trkpt lat="45.83534" lon="4.72746">
        <ele>266.40734</ele>
        <time>2023-05-01T12:39:55.000Z</time>
      </trkpt>
      <trkpt lat="45.83538" lon="4.72744">
        <ele>266.52347</ele>
        <time>2023-05-01T12:39:56.000Z</time>
      </trkpt>
      <trkpt lat="45.8354" lon="4.72743">
        <ele>266.44347</ele>
        <time>2023-05-01T12:39:57.000Z</time>
      </trkpt>
      <trkpt lat="45.83545" lon="4.72741">
        <ele>266.38662</ele>
        <time>2023-05-01T12:39:58.000Z</time>
      </trkpt>
      <trkpt lat="45.83549" lon="4.7274">
        <ele>266.19417</ele>
        <time>2023-05-01T12:39:59.000Z</time>
      </trkpt>
      <trkpt lat="45.83553" lon="4.7274">
        <ele>265.84327</ele>
        <time>2023-05-01T12:40:00.000Z</time>
      </trkpt>
      <trkpt lat="45.83558" lon="4.72738">
        <ele>265.7644</ele>
        <time>2023-05-01T12:40:01.000Z</time>
      </trkpt>
      <trkpt lat="45.83563" lon="4.72735">
        <ele>265.57442</ele>
        <time>2023-05-01T12:40:02.000Z</time>
      </trkpt>
      <trkpt lat="45.83568" lon="4.72732">
        <ele>265.67462</ele>
        <time>2023-05-01T12:40:03.000Z</time>
      </trkpt>
      <trkpt lat="45.83573" lon="4.72728">
        <ele>265.83046</ele>
        <time>2023-05-01T12:40:04.000Z</time>
      </trkpt>
      <trkpt lat="45.83578" lon="4.72725">
        <ele>265.79074</ele>
        <time>2023-05-01T12:40:05.000Z</time>
      </trkpt>
      <trkpt lat="45.83583" lon="4.7272">
        <ele>265.96856</ele>
        <time>2023-05-01T12:40:06.000Z</time>
      </trkpt>
      <trkpt lat="45.83586" lon="4.72719">
        <ele>265.79359</ele>
        <time>2023-05-01T12:40:07.000Z</time>
      </trkpt>
      <trkpt lat="45.83588" lon="4.72717">
        <ele>265.84514</ele>
        <time>2023-05-01T12:40:08.000Z</time>
      </trkpt>
      <trkpt lat="45.83591" lon="4.72716">
        <ele>265.67326</ele>
        <time>2023-05-01T12:40:09.000Z</time>
      </trkpt>
      <trkpt lat="45.83594" lon="4.72713">
        <ele>265.63747</ele>
        <time>2023-05-01T12:40:10.000Z</time>
      </trkpt>
      <trkpt lat="45.83596" lon="4.72714">
        <ele>265.26397</ele>
        <time>2023-05-01T12:40:12.000Z</time>
      </trkpt>
      <trkpt lat="45.836" lon="4.72713">
        <ele>265.02233</ele>
        <time>2023-05-01T12:40:14.000Z</time>
      </trkpt>
      <trkpt lat="45.83602" lon="4.72712">
        <ele>264.86593</ele>
        <time>2023-05-01T12:40:16.000Z</time>
      </trkpt>
      <trkpt lat="45.83604" lon="4.72711">
        <ele>264.81709</ele>
        <time>2023-05-01T12:40:17.000Z</time>
      </trkpt>
      <trkpt lat="45.83606" lon="4.72708">
        <ele>264.84116</ele>
        <time>2023-05-01T12:40:19.000Z</time>
      </trkpt>
      <trkpt lat="45.83608" lon="4.72707">
        <ele>264.81511</ele>
        <time>2023-05-01T12:40:22.000Z</time>
      </trkpt>
      <trkpt lat="45.8361" lon="4.72707">
        <ele>264.6474</ele>
        <time>2023-05-01T12:40:26.000Z</time>
      </trkpt>
      <trkpt lat="45.83612" lon="4.72706">
        <ele>264.48249</ele>
        <time>2023-05-01T12:40:36.000Z</time>
      </trkpt>
      <trkpt lat="45.83614" lon="4.72703">
        <ele>264.56252</ele>
        <time>2023-05-01T12:40:55.000Z</time>
      </trkpt>
      <trkpt lat="45.83614" lon="4.72703">
        <ele>264.56252</ele>
        <time>2023-05-01T12:40:55.000Z</time>
      </trkpt>
      <trkpt lat="45.83616" lon="4.72701">
        <ele>264.48425</ele>
        <time>2023-05-01T12:40:57.000Z</time>
      </trkpt>
      <trkpt lat="45.83618" lon="4.72698">
        <ele>264.49233</ele>
        <time>2023-05-01T12:40:58.000Z</time>
      </trkpt>
      <trkpt lat="45.8362" lon="4.72696">
        <ele>264.49414</ele>
        <time>2023-05-01T12:40:59.000Z</time>
      </trkpt>
      <trkpt lat="45.83622" lon="4.72693">
        <ele>264.45773</ele>
        <time>2023-05-01T12:41:00.000Z</time>
      </trkpt>
      <trkpt lat="45.83624" lon="4.72691">
        <ele>264.41345</ele>
        <time>2023-05-01T12:41:01.000Z</time>
      </trkpt>
      <trkpt lat="45.83626" lon="4.72688">
        <ele>264.36545</ele>
        <time>2023-05-01T12:41:02.000Z</time>
      </trkpt>
      <trkpt lat="45.83628" lon="4.72685">
        <ele>264.22636</ele>
        <time>2023-05-01T12:41:03.000Z</time>
      </trkpt>
      <trkpt lat="45.83631" lon="4.72683">
        <ele>264.07062</ele>
        <time>2023-05-01T12:41:04.000Z</time>
      </trkpt>
      <trkpt lat="45.83633" lon="4.7268">
        <ele>263.88483</ele>
        <time>2023-05-01T12:41:05.000Z</time>
      </trkpt>
      <trkpt lat="45.83636" lon="4.72678">
        <ele>263.66834</ele>
        <time>2023-05-01T12:41:06.000Z</time>
      </trkpt>
      <trkpt lat="45.83639" lon="4.72675">
        <ele>263.39592</ele>
        <time>2023-05-01T12:41:07.000Z</time>
      </trkpt>
      <trkpt lat="45.83643" lon="4.72674">
        <ele>263.11721</ele>
        <time>2023-05-01T12:41:08.000Z</time>
      </trkpt>
      <trkpt lat="45.83647" lon="4.72673">
        <ele>262.85143</ele>
        <time>2023-05-01T12:41:09.000Z</time>
      </trkpt>
      <trkpt lat="45.8365" lon="4.72671">
        <ele>262.6106</ele>
        <time>2023-05-01T12:41:10.000Z</time>
      </trkpt>
      <trkpt lat="45.83655" lon="4.7267">
        <ele>262.36864</ele>
        <time>2023-05-01T12:41:11.000Z</time>
      </trkpt>
      <trkpt lat="45.83659" lon="4.72669">
        <ele>262.1468</ele>
        <time>2023-05-01T12:41:12.000Z</time>
      </trkpt>
      <trkpt lat="45.83662" lon="4.72668">
        <ele>261.98898</ele>
        <time>2023-05-01T12:41:13.000Z</time>
      </trkpt>
      <trkpt lat="45.83665" lon="4.72667">
        <ele>261.77618</ele>
        <time>2023-05-01T12:41:14.000Z</time>
      </trkpt>
      <trkpt lat="45.8367" lon="4.72665">
        <ele>261.49796</ele>
        <time>2023-05-01T12:41:15.000Z</time>
      </trkpt>
      <trkpt lat="45.83675" lon="4.72663">
        <ele>261.22315</ele>
        <time>2023-05-01T12:41:16.000Z</time>
      </trkpt>
      <trkpt lat="45.83679" lon="4.72662">
        <ele>260.97347</ele>
        <time>2023-05-01T12:41:17.000Z</time>
      </trkpt>
      <trkpt lat="45.83685" lon="4.7266">
        <ele>260.64818</ele>
        <time>2023-05-01T12:41:18.000Z</time>
      </trkpt>
      <trkpt lat="45.8369" lon="4.72659">
        <ele>260.3435</ele>
        <time>2023-05-01T12:41:19.000Z</time>
      </trkpt>
      <trkpt lat="45.83694" lon="4.72658">
        <ele>260.0855</ele>
        <time>2023-05-01T12:41:20.000Z</time>
      </trkpt>
      <trkpt lat="45.83698" lon="4.72656">
        <ele>259.77109</ele>
        <time>2023-05-01T12:41:21.000Z</time>
      </trkpt>
      <trkpt lat="45.83703" lon="4.72654">
        <ele>259.41825</ele>
        <time>2023-05-01T12:41:22.000Z</time>
      </trkpt>
      <trkpt lat="45.83707" lon="4.72652">
        <ele>259.07104</ele>
        <time>2023-05-01T12:41:23.000Z</time>
      </trkpt>
      <trkpt lat="45.83711" lon="4.7265">
        <ele>258.76649</ele>
        <time>2023-05-01T12:41:24.000Z</time>
      </trkpt>
      <trkpt lat="45.83715" lon="4.72647">
        <ele>258.51378</ele>
        <time>2023-05-01T12:41:25.000Z</time>
      </trkpt>
      <trkpt lat="45.83719" lon="4.72644">
        <ele>258.29713</ele>
        <time>2023-05-01T12:41:26.000Z</time>
      </trkpt>
      <trkpt lat="45.83723" lon="4.72642">
        <ele>258.10792</ele>
        <time>2023-05-01T12:41:27.000Z</time>
      </trkpt>
      <trkpt lat="45.83727" lon="4.7264">
        <ele>257.9077</ele>
        <time>2023-05-01T12:41:28.000Z</time>
      </trkpt>
      <trkpt lat="45.83732" lon="4.72637">
        <ele>257.64815</ele>
        <time>2023-05-01T12:41:29.000Z</time>
      </trkpt>
      <trkpt lat="45.83736" lon="4.72636">
        <ele>257.37313</ele>
        <time>2023-05-01T12:41:30.000Z</time>
      </trkpt>
      <trkpt lat="45.83742" lon="4.72634">
        <ele>257.07351</ele>
        <time>2023-05-01T12:41:31.000Z</time>
      </trkpt>
      <trkpt lat="45.83747" lon="4.72633">
        <ele>256.77862</ele>
        <time>2023-05-01T12:41:32.000Z</time>
      </trkpt>
      <trkpt lat="45.83753" lon="4.72632">
        <ele>256.47083</ele>
        <time>2023-05-01T12:41:33.000Z</time>
      </trkpt>
      <trkpt lat="45.83758" lon="4.72631">
        <ele>256.16741</ele>
        <time>2023-05-01T12:41:34.000Z</time>
      </trkpt>
      <trkpt lat="45.83764" lon="4.7263">
        <ele>255.88892</ele>
        <time>2023-05-01T12:41:35.000Z</time>
      </trkpt>
      <trkpt lat="45.83769" lon="4.72628">
        <ele>255.639</ele>
        <time>2023-05-01T12:41:36.000Z</time>
      </trkpt>
      <trkpt lat="45.83774" lon="4.72626">
        <ele>255.38331</ele>
        <time>2023-05-01T12:41:37.000Z</time>
      </trkpt>
      <trkpt lat="45.8378" lon="4.72624">
        <ele>255.09437</ele>
        <time>2023-05-01T12:41:38.000Z</time>
      </trkpt>
      <trkpt lat="45.83786" lon="4.72622">
        <ele>254.76448</ele>
        <time>2023-05-01T12:41:39.000Z</time>
      </trkpt>
      <trkpt lat="45.83792" lon="4.72621">
        <ele>254.44085</ele>
        <time>2023-05-01T12:41:40.000Z</time>
      </trkpt>
      <trkpt lat="45.83797" lon="4.72619">
        <ele>254.13438</ele>
        <time>2023-05-01T12:41:41.000Z</time>
      </trkpt>
      <trkpt lat="45.83803" lon="4.72617">
        <ele>253.83821</ele>
        <time>2023-05-01T12:41:42.000Z</time>
      </trkpt>
      <trkpt lat="45.83808" lon="4.72613">
        <ele>253.54801</ele>
        <time>2023-05-01T12:41:43.000Z</time>
      </trkpt>
      <trkpt lat="45.83813" lon="4.7261">
        <ele>253.26598</ele>
        <time>2023-05-01T12:41:44.000Z</time>
      </trkpt>
      <trkpt lat="45.83817" lon="4.72604">
        <ele>252.97265</ele>
        <time>2023-05-01T12:41:45.000Z</time>
      </trkpt>
      <trkpt lat="45.83822" lon="4.72598">
        <ele>252.68443</ele>
        <time>2023-05-01T12:41:46.000Z</time>
      </trkpt>
      <trkpt lat="45.83824" lon="4.72593">
        <ele>252.51345</ele>
        <time>2023-05-01T12:41:47.000Z</time>
      </trkpt>
      <trkpt lat="45.83826" lon="4.72588">
        <ele>252.40961</ele>
        <time>2023-05-01T12:41:48.000Z</time>
      </trkpt>
      <trkpt lat="45.83828" lon="4.72583">
        <ele>252.35089</ele>
        <time>2023-05-01T12:41:49.000Z</time>
      </trkpt>
      <trkpt lat="45.8383" lon="4.72577">
        <ele>252.35956</ele>
        <time>2023-05-01T12:41:50.000Z</time>
      </trkpt>
      <trkpt lat="45.8383" lon="4.72573">
        <ele>252.37688</ele>
        <time>2023-05-01T12:41:51.000Z</time>
      </trkpt>
      <trkpt lat="45.83832" lon="4.72569">
        <ele>252.39011</ele>
        <time>2023-05-01T12:41:52.000Z</time>
      </trkpt>
      <trkpt lat="45.83833" lon="4.72567">
        <ele>252.39809</ele>
        <time>2023-05-01T12:41:53.000Z</time>
      </trkpt>
      <trkpt lat="45.83834" lon="4.72564">
        <ele>252.41237</ele>
        <time>2023-05-01T12:41:54.000Z</time>
      </trkpt>
      <trkpt lat="45.83835" lon="4.72561">
        <ele>252.45024</ele>
        <time>2023-05-01T12:41:55.000Z</time>
      </trkpt>
      <trkpt lat="45.83835" lon="4.72557">
        <ele>252.50879</ele>
        <time>2023-05-01T12:41:56.000Z</time>
      </trkpt>
      <trkpt lat="45.83836" lon="4.72552">
        <ele>252.57875</ele>
        <time>2023-05-01T12:41:57.000Z</time>
      </trkpt>
      <trkpt lat="45.83838" lon="4.72547">
        <ele>252.64804</ele>
        <time>2023-05-01T12:41:58.000Z</time>
      </trkpt>
      <trkpt lat="45.83839" lon="4.72542">
        <ele>252.73126</ele>
        <time>2023-05-01T12:41:59.000Z</time>
      </trkpt>
      <trkpt lat="45.8384" lon="4.72536">
        <ele>252.83765</ele>
        <time>2023-05-01T12:42:00.000Z</time>
      </trkpt>
      <trkpt lat="45.83841" lon="4.7253">
        <ele>252.9495</ele>
        <time>2023-05-01T12:42:01.000Z</time>
      </trkpt>
      <trkpt lat="45.83841" lon="4.72525">
        <ele>253.08017</ele>
        <time>2023-05-01T12:42:02.000Z</time>
      </trkpt>
      <trkpt lat="45.83842" lon="4.72519">
        <ele>253.2281</ele>
        <time>2023-05-01T12:42:03.000Z</time>
      </trkpt>
      <trkpt lat="45.83841" lon="4.72512">
        <ele>253.40311</ele>
        <time>2023-05-01T12:42:04.000Z</time>
      </trkpt>
      <trkpt lat="45.83841" lon="4.72506">
        <ele>253.58706</ele>
        <time>2023-05-01T12:42:05.000Z</time>
      </trkpt>
      <trkpt lat="45.8384" lon="4.725">
        <ele>253.78526</ele>
        <time>2023-05-01T12:42:06.000Z</time>
      </trkpt>
      <trkpt lat="45.83839" lon="4.72494">
        <ele>253.98972</ele>
        <time>2023-05-01T12:42:07.000Z</time>
      </trkpt>
      <trkpt lat="45.83839" lon="4.72488">
        <ele>254.18916</ele>
        <time>2023-05-01T12:42:08.000Z</time>
      </trkpt>
      <trkpt lat="45.83839" lon="4.72482">
        <ele>254.38297</ele>
        <time>2023-05-01T12:42:09.000Z</time>
      </trkpt>
      <trkpt lat="45.83839" lon="4.72477">
        <ele>254.55865</ele>
        <time>2023-05-01T12:42:10.000Z</time>
      </trkpt>
      <trkpt lat="45.83838" lon="4.72471">
        <ele>254.84719</ele>
        <time>2023-05-01T12:42:11.000Z</time>
      </trkpt>
      <trkpt lat="45.83838" lon="4.72464">
        <ele>255.10733</ele>
        <time>2023-05-01T12:42:12.000Z</time>
      </trkpt>
      <trkpt lat="45.83838" lon="4.72458">
        <ele>255.3395</ele>
        <time>2023-05-01T12:42:13.000Z</time>
      </trkpt>
      <trkpt lat="45.83838" lon="4.72452">
        <ele>255.50337</ele>
        <time>2023-05-01T12:42:14.000Z</time>
      </trkpt>
      <trkpt lat="45.8384" lon="4.72449">
        <ele>255.56603</ele>
        <time>2023-05-01T12:42:15.000Z</time>
      </trkpt>
      <trkpt lat="45.83842" lon="4.72444">
        <ele>255.62991</ele>
        <time>2023-05-01T12:42:16.000Z</time>
      </trkpt>
      <trkpt lat="45.83844" lon="4.72439">
        <ele>255.71975</ele>
        <time>2023-05-01T12:42:17.000Z</time>
      </trkpt>
      <trkpt lat="45.83846" lon="4.72435">
        <ele>255.74605</ele>
        <time>2023-05-01T12:42:18.000Z</time>
      </trkpt>
      <trkpt lat="45.83849" lon="4.72432">
        <ele>255.75612</ele>
        <time>2023-05-01T12:42:19.000Z</time>
      </trkpt>
      <trkpt lat="45.83852" lon="4.72429">
        <ele>255.79458</ele>
        <time>2023-05-01T12:42:20.000Z</time>
      </trkpt>
      <trkpt lat="45.83855" lon="4.72426">
        <ele>255.86854</ele>
        <time>2023-05-01T12:42:21.000Z</time>
      </trkpt>
      <trkpt lat="45.83858" lon="4.72424">
        <ele>255.91871</ele>
        <time>2023-05-01T12:42:22.000Z</time>
      </trkpt>
      <trkpt lat="45.83861" lon="4.72422">
        <ele>255.96657</ele>
        <time>2023-05-01T12:42:23.000Z</time>
      </trkpt>
      <trkpt lat="45.83865" lon="4.72419">
        <ele>256.11648</ele>
        <time>2023-05-01T12:42:24.000Z</time>
      </trkpt>
      <trkpt lat="45.83868" lon="4.72417">
        <ele>256.27182</ele>
        <time>2023-05-01T12:42:25.000Z</time>
      </trkpt>
      <trkpt lat="45.83871" lon="4.72416">
        <ele>256.37491</ele>
        <time>2023-05-01T12:42:26.000Z</time>
      </trkpt>
      <trkpt lat="45.83875" lon="4.72414">
        <ele>256.60024</ele>
        <time>2023-05-01T12:42:27.000Z</time>
      </trkpt>
      <trkpt lat="45.8388" lon="4.72412">
        <ele>256.94916</ele>
        <time>2023-05-01T12:42:28.000Z</time>
      </trkpt>
      <trkpt lat="45.83884" lon="4.72411">
        <ele>257.33931</ele>
        <time>2023-05-01T12:42:29.000Z</time>
      </trkpt>
      <trkpt lat="45.83888" lon="4.72409">
        <ele>257.74987</ele>
        <time>2023-05-01T12:42:30.000Z</time>
      </trkpt>
      <trkpt lat="45.83893" lon="4.72407">
        <ele>258.20742</ele>
        <time>2023-05-01T12:42:31.000Z</time>
      </trkpt>
      <trkpt lat="45.83897" lon="4.72405">
        <ele>258.51366</ele>
        <time>2023-05-01T12:42:32.000Z</time>
      </trkpt>
      <trkpt lat="45.83901" lon="4.72403">
        <ele>258.76528</ele>
        <time>2023-05-01T12:42:33.000Z</time>
      </trkpt>
      <trkpt lat="45.83905" lon="4.724">
        <ele>259.02419</ele>
        <time>2023-05-01T12:42:34.000Z</time>
      </trkpt>
      <trkpt lat="45.8391" lon="4.72398">
        <ele>259.22723</ele>
        <time>2023-05-01T12:42:35.000Z</time>
      </trkpt>
      <trkpt lat="45.83914" lon="4.72397">
        <ele>259.42493</ele>
        <time>2023-05-01T12:42:36.000Z</time>
      </trkpt>
      <trkpt lat="45.83917" lon="4.72395">
        <ele>259.67228</ele>
        <time>2023-05-01T12:42:37.000Z</time>
      </trkpt>
      <trkpt lat="45.83921" lon="4.72393">
        <ele>260.00213</ele>
        <time>2023-05-01T12:42:38.000Z</time>
      </trkpt>
      <trkpt lat="45.83925" lon="4.7239">
        <ele>260.36212</ele>
        <time>2023-05-01T12:42:39.000Z</time>
      </trkpt>
      <trkpt lat="45.83929" lon="4.72389">
        <ele>260.70928</ele>
        <time>2023-05-01T12:42:40.000Z</time>
      </trkpt>
      <trkpt lat="45.83933" lon="4.72387">
        <ele>261.00249</ele>
        <time>2023-05-01T12:42:41.000Z</time>
      </trkpt>
      <trkpt lat="45.83937" lon="4.72386">
        <ele>261.33589</ele>
        <time>2023-05-01T12:42:42.000Z</time>
      </trkpt>
      <trkpt lat="45.83941" lon="4.72384">
        <ele>261.67281</ele>
        <time>2023-05-01T12:42:43.000Z</time>
      </trkpt>
      <trkpt lat="45.83945" lon="4.72382">
        <ele>262.07818</ele>
        <time>2023-05-01T12:42:44.000Z</time>
      </trkpt>
      <trkpt lat="45.83948" lon="4.7238">
        <ele>262.44386</ele>
        <time>2023-05-01T12:42:45.000Z</time>
      </trkpt>
      <trkpt lat="45.83952" lon="4.72377">
        <ele>262.78431</ele>
        <time>2023-05-01T12:42:46.000Z</time>
      </trkpt>
      <trkpt lat="45.83955" lon="4.72374">
        <ele>263.07711</ele>
        <time>2023-05-01T12:42:47.000Z</time>
      </trkpt>
      <trkpt lat="45.83958" lon="4.72372">
        <ele>263.32151</ele>
        <time>2023-05-01T12:42:48.000Z</time>
      </trkpt>
      <trkpt lat="45.83961" lon="4.72369">
        <ele>263.59512</ele>
        <time>2023-05-01T12:42:49.000Z</time>
      </trkpt>
      <trkpt lat="45.83965" lon="4.72365">
        <ele>263.95574</ele>
        <time>2023-05-01T12:42:50.000Z</time>
      </trkpt>
      <trkpt lat="45.83968" lon="4.72361">
        <ele>264.47833</ele>
        <time>2023-05-01T12:42:51.000Z</time>
      </trkpt>
      <trkpt lat="45.83971" lon="4.72357">
        <ele>264.98317</ele>
        <time>2023-05-01T12:42:52.000Z</time>
      </trkpt>
      <trkpt lat="45.83975" lon="4.72354">
        <ele>265.45349</ele>
        <time>2023-05-01T12:42:53.000Z</time>
      </trkpt>
      <trkpt lat="45.83979" lon="4.72351">
        <ele>265.85391</ele>
        <time>2023-05-01T12:42:54.000Z</time>
      </trkpt>
      <trkpt lat="45.83983" lon="4.72348">
        <ele>266.20586</ele>
        <time>2023-05-01T12:42:55.000Z</time>
      </trkpt>
      <trkpt lat="45.83986" lon="4.72345">
        <ele>266.40385</ele>
        <time>2023-05-01T12:42:56.000Z</time>
      </trkpt>
      <trkpt lat="45.83989" lon="4.72343">
        <ele>266.52256</ele>
        <time>2023-05-01T12:42:57.000Z</time>
      </trkpt>
      <trkpt lat="45.83992" lon="4.7234">
        <ele>266.67218</ele>
        <time>2023-05-01T12:42:58.000Z</time>
      </trkpt>
      <trkpt lat="45.83994" lon="4.72336">
        <ele>266.8254</ele>
        <time>2023-05-01T12:42:59.000Z</time>
      </trkpt>
      <trkpt lat="45.83997" lon="4.72333">
        <ele>266.94909</ele>
        <time>2023-05-01T12:43:00.000Z</time>
      </trkpt>
      <trkpt lat="45.84" lon="4.7233">
        <ele>267.06233</ele>
        <time>2023-05-01T12:43:01.000Z</time>
      </trkpt>
      <trkpt lat="45.84003" lon="4.72326">
        <ele>267.1657</ele>
        <time>2023-05-01T12:43:02.000Z</time>
      </trkpt>
      <trkpt lat="45.84005" lon="4.72323">
        <ele>267.26099</ele>
        <time>2023-05-01T12:43:03.000Z</time>
      </trkpt>
      <trkpt lat="45.84007" lon="4.7232">
        <ele>267.34929</ele>
        <time>2023-05-01T12:43:04.000Z</time>
      </trkpt>
      <trkpt lat="45.8401" lon="4.72318">
        <ele>267.44588</ele>
        <time>2023-05-01T12:43:05.000Z</time>
      </trkpt>
      <trkpt lat="45.84011" lon="4.72316">
        <ele>267.52712</ele>
        <time>2023-05-01T12:43:06.000Z</time>
      </trkpt>
      <trkpt lat="45.84012" lon="4.72313">
        <ele>267.63682</ele>
        <time>2023-05-01T12:43:07.000Z</time>
      </trkpt>
      <trkpt lat="45.84013" lon="4.72308">
        <ele>267.89899</ele>
        <time>2023-05-01T12:43:09.000Z</time>
      </trkpt>
      <trkpt lat="45.84013" lon="4.72305">
        <ele>268.1129</ele>
        <time>2023-05-01T12:43:10.000Z</time>
      </trkpt>
      <trkpt lat="45.84012" lon="4.723">
        <ele>268.35676</ele>
        <time>2023-05-01T12:43:11.000Z</time>
      </trkpt>
      <trkpt lat="45.8401" lon="4.72296">
        <ele>268.56342</ele>
        <time>2023-05-01T12:43:12.000Z</time>
      </trkpt>
      <trkpt lat="45.84007" lon="4.72293">
        <ele>268.74546</ele>
        <time>2023-05-01T12:43:13.000Z</time>
      </trkpt>
      <trkpt lat="45.84005" lon="4.72289">
        <ele>268.91369</ele>
        <time>2023-05-01T12:43:14.000Z</time>
      </trkpt>
      <trkpt lat="45.84003" lon="4.72285">
        <ele>269.06814</ele>
        <time>2023-05-01T12:43:15.000Z</time>
      </trkpt>
      <trkpt lat="45.84001" lon="4.72281">
        <ele>269.18534</ele>
        <time>2023-05-01T12:43:16.000Z</time>
      </trkpt>
      <trkpt lat="45.83999" lon="4.72276">
        <ele>269.26988</ele>
        <time>2023-05-01T12:43:17.000Z</time>
      </trkpt>
      <trkpt lat="45.83997" lon="4.72272">
        <ele>269.32332</ele>
        <time>2023-05-01T12:43:18.000Z</time>
      </trkpt>
      <trkpt lat="45.83995" lon="4.72267">
        <ele>269.37319</ele>
        <time>2023-05-01T12:43:19.000Z</time>
      </trkpt>
      <trkpt lat="45.83993" lon="4.72262">
        <ele>269.44343</ele>
        <time>2023-05-01T12:43:20.000Z</time>
      </trkpt>
      <trkpt lat="45.8399" lon="4.72257">
        <ele>269.52572</ele>
        <time>2023-05-01T12:43:21.000Z</time>
      </trkpt>
      <trkpt lat="45.83988" lon="4.72251">
        <ele>269.63236</ele>
        <time>2023-05-01T12:43:22.000Z</time>
      </trkpt>
      <trkpt lat="45.83985" lon="4.72246">
        <ele>269.74204</ele>
        <time>2023-05-01T12:43:23.000Z</time>
      </trkpt>
      <trkpt lat="45.83982" lon="4.72241">
        <ele>269.7881</ele>
        <time>2023-05-01T12:43:24.000Z</time>
      </trkpt>
      <trkpt lat="45.83979" lon="4.72236">
        <ele>269.82236</ele>
        <time>2023-05-01T12:43:25.000Z</time>
      </trkpt>
      <trkpt lat="45.83977" lon="4.7223">
        <ele>269.82406</ele>
        <time>2023-05-01T12:43:26.000Z</time>
      </trkpt>
      <trkpt lat="45.83974" lon="4.72225">
        <ele>269.82567</ele>
        <time>2023-05-01T12:43:27.000Z</time>
      </trkpt>
      <trkpt lat="45.83972" lon="4.7222">
        <ele>269.82439</ele>
        <time>2023-05-01T12:43:28.000Z</time>
      </trkpt>
      <trkpt lat="45.83969" lon="4.72216">
        <ele>269.8202</ele>
        <time>2023-05-01T12:43:29.000Z</time>
      </trkpt>
      <trkpt lat="45.83967" lon="4.72211">
        <ele>269.81849</ele>
        <time>2023-05-01T12:43:30.000Z</time>
      </trkpt>
      <trkpt lat="45.83965" lon="4.72207">
        <ele>269.8166</ele>
        <time>2023-05-01T12:43:31.000Z</time>
      </trkpt>
      <trkpt lat="45.83963" lon="4.72202">
        <ele>269.81492</ele>
        <time>2023-05-01T12:43:32.000Z</time>
      </trkpt>
      <trkpt lat="45.83961" lon="4.72197">
        <ele>269.78526</ele>
        <time>2023-05-01T12:43:33.000Z</time>
      </trkpt>
      <trkpt lat="45.83959" lon="4.72192">
        <ele>269.74933</ele>
        <time>2023-05-01T12:43:34.000Z</time>
      </trkpt>
      <trkpt lat="45.83956" lon="4.72188">
        <ele>269.71161</ele>
        <time>2023-05-01T12:43:35.000Z</time>
      </trkpt>
      <trkpt lat="45.83953" lon="4.72183">
        <ele>269.68618</ele>
        <time>2023-05-01T12:43:36.000Z</time>
      </trkpt>
      <trkpt lat="45.83951" lon="4.72179">
        <ele>269.67616</ele>
        <time>2023-05-01T12:43:37.000Z</time>
      </trkpt>
      <trkpt lat="45.83948" lon="4.72174">
        <ele>269.67621</ele>
        <time>2023-05-01T12:43:38.000Z</time>
      </trkpt>
      <trkpt lat="45.83945" lon="4.7217">
        <ele>269.67483</ele>
        <time>2023-05-01T12:43:39.000Z</time>
      </trkpt>
      <trkpt lat="45.83942" lon="4.72167">
        <ele>269.66636</ele>
        <time>2023-05-01T12:43:40.000Z</time>
      </trkpt>
      <trkpt lat="45.8394" lon="4.72163">
        <ele>269.65426</ele>
        <time>2023-05-01T12:43:41.000Z</time>
      </trkpt>
      <trkpt lat="45.83937" lon="4.7216">
        <ele>269.64285</ele>
        <time>2023-05-01T12:43:42.000Z</time>
      </trkpt>
      <trkpt lat="45.83934" lon="4.72157">
        <ele>269.6408</ele>
        <time>2023-05-01T12:43:43.000Z</time>
      </trkpt>
      <trkpt lat="45.83931" lon="4.72154">
        <ele>269.64771</ele>
        <time>2023-05-01T12:43:44.000Z</time>
      </trkpt>
      <trkpt lat="45.83928" lon="4.72153">
        <ele>269.66284</ele>
        <time>2023-05-01T12:43:45.000Z</time>
      </trkpt>
      <trkpt lat="45.83925" lon="4.72151">
        <ele>269.6877</ele>
        <time>2023-05-01T12:43:46.000Z</time>
      </trkpt>
      <trkpt lat="45.83922" lon="4.7215">
        <ele>269.72767</ele>
        <time>2023-05-01T12:43:47.000Z</time>
      </trkpt>
      <trkpt lat="45.83919" lon="4.72149">
        <ele>269.78784</ele>
        <time>2023-05-01T12:43:48.000Z</time>
      </trkpt>
      <trkpt lat="45.83916" lon="4.72147">
        <ele>269.86655</ele>
        <time>2023-05-01T12:43:49.000Z</time>
      </trkpt>
      <trkpt lat="45.83913" lon="4.72145">
        <ele>269.94539</ele>
        <time>2023-05-01T12:43:50.000Z</time>
      </trkpt>
      <trkpt lat="45.8391" lon="4.72143">
        <ele>270.02489</ele>
        <time>2023-05-01T12:43:51.000Z</time>
      </trkpt>
      <trkpt lat="45.83907" lon="4.72141">
        <ele>270.09888</ele>
        <time>2023-05-01T12:43:52.000Z</time>
      </trkpt>
      <trkpt lat="45.83904" lon="4.7214">
        <ele>270.16201</ele>
        <time>2023-05-01T12:43:53.000Z</time>
      </trkpt>
      <trkpt lat="45.83902" lon="4.72138">
        <ele>270.21792</ele>
        <time>2023-05-01T12:43:54.000Z</time>
      </trkpt>
      <trkpt lat="45.83899" lon="4.72136">
        <ele>270.26789</ele>
        <time>2023-05-01T12:43:55.000Z</time>
      </trkpt>
      <trkpt lat="45.83896" lon="4.72135">
        <ele>270.31044</ele>
        <time>2023-05-01T12:43:56.000Z</time>
      </trkpt>
      <trkpt lat="45.83893" lon="4.72133">
        <ele>270.34646</ele>
        <time>2023-05-01T12:43:57.000Z</time>
      </trkpt>
      <trkpt lat="45.8389" lon="4.72132">
        <ele>270.3768</ele>
        <time>2023-05-01T12:43:58.000Z</time>
      </trkpt>
      <trkpt lat="45.83887" lon="4.7213">
        <ele>270.40637</ele>
        <time>2023-05-01T12:43:59.000Z</time>
      </trkpt>
      <trkpt lat="45.83884" lon="4.72128">
        <ele>270.44024</ele>
        <time>2023-05-01T12:44:00.000Z</time>
      </trkpt>
      <trkpt lat="45.83881" lon="4.72126">
        <ele>270.47444</ele>
        <time>2023-05-01T12:44:01.000Z</time>
      </trkpt>
      <trkpt lat="45.83878" lon="4.72124">
        <ele>270.51248</ele>
        <time>2023-05-01T12:44:02.000Z</time>
      </trkpt>
      <trkpt lat="45.83875" lon="4.72123">
        <ele>270.55586</ele>
        <time>2023-05-01T12:44:03.000Z</time>
      </trkpt>
      <trkpt lat="45.83871" lon="4.72121">
        <ele>270.61044</ele>
        <time>2023-05-01T12:44:04.000Z</time>
      </trkpt>
      <trkpt lat="45.83868" lon="4.72118">
        <ele>270.67744</ele>
        <time>2023-05-01T12:44:05.000Z</time>
      </trkpt>
      <trkpt lat="45.83864" lon="4.72116">
        <ele>270.75053</ele>
        <time>2023-05-01T12:44:06.000Z</time>
      </trkpt>
      <trkpt lat="45.83861" lon="4.72114">
        <ele>270.83486</ele>
        <time>2023-05-01T12:44:07.000Z</time>
      </trkpt>
      <trkpt lat="45.83857" lon="4.72112">
        <ele>270.92296</ele>
        <time>2023-05-01T12:44:08.000Z</time>
      </trkpt>
      <trkpt lat="45.83853" lon="4.7211">
        <ele>271.00075</ele>
        <time>2023-05-01T12:44:09.000Z</time>
      </trkpt>
      <trkpt lat="45.8385" lon="4.72108">
        <ele>271.07908</ele>
        <time>2023-05-01T12:44:10.000Z</time>
      </trkpt>
      <trkpt lat="45.83846" lon="4.72105">
        <ele>271.15601</ele>
        <time>2023-05-01T12:44:11.000Z</time>
      </trkpt>
      <trkpt lat="45.83842" lon="4.72103">
        <ele>271.22872</ele>
        <time>2023-05-01T12:44:12.000Z</time>
      </trkpt>
      <trkpt lat="45.83839" lon="4.72101">
        <ele>271.28491</ele>
        <time>2023-05-01T12:44:13.000Z</time>
      </trkpt>
      <trkpt lat="45.83835" lon="4.72099">
        <ele>271.32425</ele>
        <time>2023-05-01T12:44:14.000Z</time>
      </trkpt>
      <trkpt lat="45.83831" lon="4.72097">
        <ele>271.36345</ele>
        <time>2023-05-01T12:44:15.000Z</time>
      </trkpt>
      <trkpt lat="45.83828" lon="4.72094">
        <ele>271.406</ele>
        <time>2023-05-01T12:44:16.000Z</time>
      </trkpt>
      <trkpt lat="45.83824" lon="4.72091">
        <ele>271.45055</ele>
        <time>2023-05-01T12:44:17.000Z</time>
      </trkpt>
      <trkpt lat="45.8382" lon="4.72089">
        <ele>271.50765</ele>
        <time>2023-05-01T12:44:18.000Z</time>
      </trkpt>
      <trkpt lat="45.83816" lon="4.72087">
        <ele>271.59676</ele>
        <time>2023-05-01T12:44:19.000Z</time>
      </trkpt>
      <trkpt lat="45.83813" lon="4.72084">
        <ele>271.71242</ele>
        <time>2023-05-01T12:44:20.000Z</time>
      </trkpt>
      <trkpt lat="45.83809" lon="4.72082">
        <ele>271.84338</ele>
        <time>2023-05-01T12:44:21.000Z</time>
      </trkpt>
      <trkpt lat="45.83805" lon="4.72079">
        <ele>271.96941</ele>
        <time>2023-05-01T12:44:22.000Z</time>
      </trkpt>
      <trkpt lat="45.838" lon="4.72077">
        <ele>272.08001</ele>
        <time>2023-05-01T12:44:23.000Z</time>
      </trkpt>
      <trkpt lat="45.83796" lon="4.72074">
        <ele>272.18202</ele>
        <time>2023-05-01T12:44:24.000Z</time>
      </trkpt>
      <trkpt lat="45.83792" lon="4.72072">
        <ele>272.2521</ele>
        <time>2023-05-01T12:44:25.000Z</time>
      </trkpt>
      <trkpt lat="45.83787" lon="4.72069">
        <ele>272.33165</ele>
        <time>2023-05-01T12:44:26.000Z</time>
      </trkpt>
      <trkpt lat="45.83783" lon="4.72067">
        <ele>272.41905</ele>
        <time>2023-05-01T12:44:27.000Z</time>
      </trkpt>
      <trkpt lat="45.83779" lon="4.72063">
        <ele>272.56469</ele>
        <time>2023-05-01T12:44:28.000Z</time>
      </trkpt>
      <trkpt lat="45.83775" lon="4.7206">
        <ele>272.70716</ele>
        <time>2023-05-01T12:44:29.000Z</time>
      </trkpt>
      <trkpt lat="45.83771" lon="4.72056">
        <ele>272.983</ele>
        <time>2023-05-01T12:44:30.000Z</time>
      </trkpt>
      <trkpt lat="45.83766" lon="4.72053">
        <ele>273.25826</ele>
        <time>2023-05-01T12:44:31.000Z</time>
      </trkpt>
      <trkpt lat="45.83762" lon="4.72051">
        <ele>273.464</ele>
        <time>2023-05-01T12:44:32.000Z</time>
      </trkpt>
      <trkpt lat="45.83757" lon="4.72047">
        <ele>273.6457</ele>
        <time>2023-05-01T12:44:33.000Z</time>
      </trkpt>
      <trkpt lat="45.83753" lon="4.72045">
        <ele>273.70103</ele>
        <time>2023-05-01T12:44:34.000Z</time>
      </trkpt>
      <trkpt lat="45.83748" lon="4.72043">
        <ele>273.69209</ele>
        <time>2023-05-01T12:44:35.000Z</time>
      </trkpt>
      <trkpt lat="45.83744" lon="4.72041">
        <ele>273.66954</ele>
        <time>2023-05-01T12:44:36.000Z</time>
      </trkpt>
      <trkpt lat="45.83739" lon="4.72041">
        <ele>273.6333</ele>
        <time>2023-05-01T12:44:37.000Z</time>
      </trkpt>
      <trkpt lat="45.83734" lon="4.72039">
        <ele>273.63348</ele>
        <time>2023-05-01T12:44:38.000Z</time>
      </trkpt>
      <trkpt lat="45.83729" lon="4.72037">
        <ele>273.64953</ele>
        <time>2023-05-01T12:44:39.000Z</time>
      </trkpt>
      <trkpt lat="45.83724" lon="4.72036">
        <ele>273.67734</ele>
        <time>2023-05-01T12:44:40.000Z</time>
      </trkpt>
      <trkpt lat="45.83719" lon="4.72035">
        <ele>273.7426</ele>
        <time>2023-05-01T12:44:41.000Z</time>
      </trkpt>
      <trkpt lat="45.83714" lon="4.72034">
        <ele>273.84959</ele>
        <time>2023-05-01T12:44:42.000Z</time>
      </trkpt>
      <trkpt lat="45.83709" lon="4.72034">
        <ele>273.9617</ele>
        <time>2023-05-01T12:44:43.000Z</time>
      </trkpt>
      <trkpt lat="45.83705" lon="4.72034">
        <ele>274.08995</ele>
        <time>2023-05-01T12:44:44.000Z</time>
      </trkpt>
      <trkpt lat="45.837" lon="4.72033">
        <ele>274.23669</ele>
        <time>2023-05-01T12:44:45.000Z</time>
      </trkpt>
      <trkpt lat="45.83695" lon="4.72033">
        <ele>274.31435</ele>
        <time>2023-05-01T12:44:46.000Z</time>
      </trkpt>
      <trkpt lat="45.8369" lon="4.72033">
        <ele>274.40227</ele>
        <time>2023-05-01T12:44:47.000Z</time>
      </trkpt>
      <trkpt lat="45.83685" lon="4.72033">
        <ele>274.48497</ele>
        <time>2023-05-01T12:44:48.000Z</time>
      </trkpt>
      <trkpt lat="45.8368" lon="4.72033">
        <ele>274.57477</ele>
        <time>2023-05-01T12:44:49.000Z</time>
      </trkpt>
      <trkpt lat="45.83675" lon="4.72033">
        <ele>274.66698</ele>
        <time>2023-05-01T12:44:50.000Z</time>
      </trkpt>
      <trkpt lat="45.83669" lon="4.72033">
        <ele>274.76729</ele>
        <time>2023-05-01T12:44:51.000Z</time>
      </trkpt>
      <trkpt lat="45.83664" lon="4.72033">
        <ele>274.86235</ele>
        <time>2023-05-01T12:44:52.000Z</time>
      </trkpt>
      <trkpt lat="45.83658" lon="4.72034">
        <ele>274.9706</ele>
        <time>2023-05-01T12:44:53.000Z</time>
      </trkpt>
      <trkpt lat="45.83652" lon="4.72035">
        <ele>275.14653</ele>
        <time>2023-05-01T12:44:54.000Z</time>
      </trkpt>
      <trkpt lat="45.83646" lon="4.72036">
        <ele>275.38266</ele>
        <time>2023-05-01T12:44:55.000Z</time>
      </trkpt>
      <trkpt lat="45.83641" lon="4.72037">
        <ele>275.63682</ele>
        <time>2023-05-01T12:44:56.000Z</time>
      </trkpt>
      <trkpt lat="45.83635" lon="4.72038">
        <ele>275.86791</ele>
        <time>2023-05-01T12:44:57.000Z</time>
      </trkpt>
      <trkpt lat="45.83629" lon="4.72039">
        <ele>276.02069</ele>
        <time>2023-05-01T12:44:58.000Z</time>
      </trkpt>
      <trkpt lat="45.83623" lon="4.7204">
        <ele>276.12729</ele>
        <time>2023-05-01T12:44:59.000Z</time>
      </trkpt>
      <trkpt lat="45.83618" lon="4.72041">
        <ele>276.19938</ele>
        <time>2023-05-01T12:45:00.000Z</time>
      </trkpt>
      <trkpt lat="45.83612" lon="4.72041">
        <ele>276.27731</ele>
        <time>2023-05-01T12:45:01.000Z</time>
      </trkpt>
      <trkpt lat="45.83606" lon="4.72042">
        <ele>276.32336</ele>
        <time>2023-05-01T12:45:02.000Z</time>
      </trkpt>
      <trkpt lat="45.836" lon="4.72043">
        <ele>276.35882</ele>
        <time>2023-05-01T12:45:03.000Z</time>
      </trkpt>
      <trkpt lat="45.83594" lon="4.72044">
        <ele>276.38541</ele>
        <time>2023-05-01T12:45:04.000Z</time>
      </trkpt>
      <trkpt lat="45.83588" lon="4.72044">
        <ele>276.42246</ele>
        <time>2023-05-01T12:45:05.000Z</time>
      </trkpt>
      <trkpt lat="45.83582" lon="4.72046">
        <ele>276.45572</ele>
        <time>2023-05-01T12:45:06.000Z</time>
      </trkpt>
      <trkpt lat="45.83576" lon="4.72047">
        <ele>276.51797</ele>
        <time>2023-05-01T12:45:07.000Z</time>
      </trkpt>
      <trkpt lat="45.8357" lon="4.72049">
        <ele>276.56322</ele>
        <time>2023-05-01T12:45:08.000Z</time>
      </trkpt>
      <trkpt lat="45.83564" lon="4.72049">
        <ele>276.64611</ele>
        <time>2023-05-01T12:45:09.000Z</time>
      </trkpt>
      <trkpt lat="45.83558" lon="4.7205">
        <ele>276.74439</ele>
        <time>2023-05-01T12:45:10.000Z</time>
      </trkpt>
      <trkpt lat="45.83552" lon="4.72051">
        <ele>276.83434</ele>
        <time>2023-05-01T12:45:11.000Z</time>
      </trkpt>
      <trkpt lat="45.83546" lon="4.72053">
        <ele>276.91646</ele>
        <time>2023-05-01T12:45:12.000Z</time>
      </trkpt>
      <trkpt lat="45.8354" lon="4.72054">
        <ele>277.00124</ele>
        <time>2023-05-01T12:45:13.000Z</time>
      </trkpt>
      <trkpt lat="45.83533" lon="4.72055">
        <ele>277.10074</ele>
        <time>2023-05-01T12:45:14.000Z</time>
      </trkpt>
      <trkpt lat="45.83527" lon="4.72055">
        <ele>277.18228</ele>
        <time>2023-05-01T12:45:15.000Z</time>
      </trkpt>
      <trkpt lat="45.83521" lon="4.72055">
        <ele>277.27006</ele>
        <time>2023-05-01T12:45:16.000Z</time>
      </trkpt>
      <trkpt lat="45.83514" lon="4.72056">
        <ele>277.36808</ele>
        <time>2023-05-01T12:45:17.000Z</time>
      </trkpt>
      <trkpt lat="45.83508" lon="4.72056">
        <ele>277.47409</ele>
        <time>2023-05-01T12:45:18.000Z</time>
      </trkpt>
      <trkpt lat="45.83502" lon="4.72056">
        <ele>277.57304</ele>
        <time>2023-05-01T12:45:19.000Z</time>
      </trkpt>
      <trkpt lat="45.83496" lon="4.72056">
        <ele>277.66311</ele>
        <time>2023-05-01T12:45:20.000Z</time>
      </trkpt>
      <trkpt lat="45.8349" lon="4.72056">
        <ele>277.7379</ele>
        <time>2023-05-01T12:45:21.000Z</time>
      </trkpt>
      <trkpt lat="45.83484" lon="4.72056">
        <ele>277.79556</ele>
        <time>2023-05-01T12:45:22.000Z</time>
      </trkpt>
      <trkpt lat="45.83478" lon="4.72056">
        <ele>277.84227</ele>
        <time>2023-05-01T12:45:23.000Z</time>
      </trkpt>
      <trkpt lat="45.83473" lon="4.72056">
        <ele>277.8804</ele>
        <time>2023-05-01T12:45:24.000Z</time>
      </trkpt>
      <trkpt lat="45.83467" lon="4.72054">
        <ele>277.90841</ele>
        <time>2023-05-01T12:45:25.000Z</time>
      </trkpt>
      <trkpt lat="45.83462" lon="4.72053">
        <ele>277.92172</ele>
        <time>2023-05-01T12:45:26.000Z</time>
      </trkpt>
      <trkpt lat="45.83457" lon="4.72051">
        <ele>277.95355</ele>
        <time>2023-05-01T12:45:27.000Z</time>
      </trkpt>
      <trkpt lat="45.83453" lon="4.72047">
        <ele>278.02128</ele>
        <time>2023-05-01T12:45:28.000Z</time>
      </trkpt>
      <trkpt lat="45.8345" lon="4.72042">
        <ele>278.10314</ele>
        <time>2023-05-01T12:45:29.000Z</time>
      </trkpt>
      <trkpt lat="45.83448" lon="4.72035">
        <ele>278.15307</ele>
        <time>2023-05-01T12:45:30.000Z</time>
      </trkpt>
      <trkpt lat="45.83448" lon="4.72027">
        <ele>278.14444</ele>
        <time>2023-05-01T12:45:31.000Z</time>
      </trkpt>
      <trkpt lat="45.83449" lon="4.72018">
        <ele>277.99268</ele>
        <time>2023-05-01T12:45:32.000Z</time>
      </trkpt>
      <trkpt lat="45.83451" lon="4.7201">
        <ele>277.77011</ele>
        <time>2023-05-01T12:45:33.000Z</time>
      </trkpt>
      <trkpt lat="45.83453" lon="4.72001">
        <ele>277.51503</ele>
        <time>2023-05-01T12:45:34.000Z</time>
      </trkpt>
      <trkpt lat="45.83455" lon="4.71992">
        <ele>277.35387</ele>
        <time>2023-05-01T12:45:35.000Z</time>
      </trkpt>
      <trkpt lat="45.83458" lon="4.71983">
        <ele>277.28542</ele>
        <time>2023-05-01T12:45:36.000Z</time>
      </trkpt>
      <trkpt lat="45.8346" lon="4.71974">
        <ele>277.2531</ele>
        <time>2023-05-01T12:45:37.000Z</time>
      </trkpt>
      <trkpt lat="45.83462" lon="4.71964">
        <ele>277.18579</ele>
        <time>2023-05-01T12:45:38.000Z</time>
      </trkpt>
      <trkpt lat="45.83464" lon="4.71954">
        <ele>277.10759</ele>
        <time>2023-05-01T12:45:39.000Z</time>
      </trkpt>
      <trkpt lat="45.83467" lon="4.71944">
        <ele>276.87242</ele>
        <time>2023-05-01T12:45:40.000Z</time>
      </trkpt>
      <trkpt lat="45.8347" lon="4.71934">
        <ele>276.40535</ele>
        <time>2023-05-01T12:45:41.000Z</time>
      </trkpt>
      <trkpt lat="45.83472" lon="4.71923">
        <ele>275.72519</ele>
        <time>2023-05-01T12:45:42.000Z</time>
      </trkpt>
      <trkpt lat="45.83474" lon="4.71913">
        <ele>274.89905</ele>
        <time>2023-05-01T12:45:43.000Z</time>
      </trkpt>
      <trkpt lat="45.83477" lon="4.71903">
        <ele>274.31423</ele>
        <time>2023-05-01T12:45:44.000Z</time>
      </trkpt>
      <trkpt lat="45.83478" lon="4.71892">
        <ele>274.06544</ele>
        <time>2023-05-01T12:45:45.000Z</time>
      </trkpt>
      <trkpt lat="45.83478" lon="4.71881">
        <ele>274.05566</ele>
        <time>2023-05-01T12:45:46.000Z</time>
      </trkpt>
      <trkpt lat="45.83476" lon="4.71871">
        <ele>274.08222</ele>
        <time>2023-05-01T12:45:47.000Z</time>
      </trkpt>
      <trkpt lat="45.83472" lon="4.71861">
        <ele>273.7781</ele>
        <time>2023-05-01T12:45:48.000Z</time>
      </trkpt>
      <trkpt lat="45.83468" lon="4.71852">
        <ele>273.23784</ele>
        <time>2023-05-01T12:45:49.000Z</time>
      </trkpt>
      <trkpt lat="45.83464" lon="4.71841">
        <ele>272.25225</ele>
        <time>2023-05-01T12:45:50.000Z</time>
      </trkpt>
      <trkpt lat="45.8346" lon="4.7183">
        <ele>271.11475</ele>
        <time>2023-05-01T12:45:51.000Z</time>
      </trkpt>
      <trkpt lat="45.83455" lon="4.71818">
        <ele>270.34858</ele>
        <time>2023-05-01T12:45:52.000Z</time>
      </trkpt>
      <trkpt lat="45.83451" lon="4.71804">
        <ele>270.35481</ele>
        <time>2023-05-01T12:45:53.000Z</time>
      </trkpt>
      <trkpt lat="45.83447" lon="4.71792">
        <ele>269.61385</ele>
        <time>2023-05-01T12:45:54.000Z</time>
      </trkpt>
      <trkpt lat="45.83442" lon="4.71778">
        <ele>268.47038</ele>
        <time>2023-05-01T12:45:55.000Z</time>
      </trkpt>
      <trkpt lat="45.83438" lon="4.71765">
        <ele>267.14154</ele>
        <time>2023-05-01T12:45:56.000Z</time>
      </trkpt>
      <trkpt lat="45.83434" lon="4.71752">
        <ele>265.58264</ele>
        <time>2023-05-01T12:45:57.000Z</time>
      </trkpt>
      <trkpt lat="45.83431" lon="4.71738">
        <ele>264.51669</ele>
        <time>2023-05-01T12:45:58.000Z</time>
      </trkpt>
      <trkpt lat="45.83429" lon="4.71725">
        <ele>264.34381</ele>
        <time>2023-05-01T12:45:59.000Z</time>
      </trkpt>
      <trkpt lat="45.83425" lon="4.71712">
        <ele>264.90626</ele>
        <time>2023-05-01T12:46:00.000Z</time>
      </trkpt>
      <trkpt lat="45.83423" lon="4.71701">
        <ele>266.14308</ele>
        <time>2023-05-01T12:46:01.000Z</time>
      </trkpt>
      <trkpt lat="45.8342" lon="4.71691">
        <ele>267.80999</ele>
        <time>2023-05-01T12:46:02.000Z</time>
      </trkpt>
      <trkpt lat="45.83419" lon="4.71682">
        <ele>269.22602</ele>
        <time>2023-05-01T12:46:03.000Z</time>
      </trkpt>
      <trkpt lat="45.83418" lon="4.71675">
        <ele>270.25573</ele>
        <time>2023-05-01T12:46:04.000Z</time>
      </trkpt>
      <trkpt lat="45.83416" lon="4.71666">
        <ele>270.79264</ele>
        <time>2023-05-01T12:46:05.000Z</time>
      </trkpt>
      <trkpt lat="45.83415" lon="4.7166">
        <ele>271.14901</ele>
        <time>2023-05-01T12:46:06.000Z</time>
      </trkpt>
      <trkpt lat="45.83413" lon="4.71653">
        <ele>271.54461</ele>
        <time>2023-05-01T12:46:07.000Z</time>
      </trkpt>
      <trkpt lat="45.83411" lon="4.71646">
        <ele>271.96817</ele>
        <time>2023-05-01T12:46:08.000Z</time>
      </trkpt>
      <trkpt lat="45.8341" lon="4.7164">
        <ele>272.5167</ele>
        <time>2023-05-01T12:46:09.000Z</time>
      </trkpt>
      <trkpt lat="45.83409" lon="4.71633">
        <ele>273.14288</ele>
        <time>2023-05-01T12:46:10.000Z</time>
      </trkpt>
      <trkpt lat="45.83406" lon="4.71626">
        <ele>273.67568</ele>
        <time>2023-05-01T12:46:11.000Z</time>
      </trkpt>
      <trkpt lat="45.83405" lon="4.7162">
        <ele>274.17669</ele>
        <time>2023-05-01T12:46:12.000Z</time>
      </trkpt>
      <trkpt lat="45.83403" lon="4.71613">
        <ele>274.75611</ele>
        <time>2023-05-01T12:46:13.000Z</time>
      </trkpt>
      <trkpt lat="45.83402" lon="4.71606">
        <ele>275.35841</ele>
        <time>2023-05-01T12:46:14.000Z</time>
      </trkpt>
      <trkpt lat="45.83402" lon="4.71599">
        <ele>276.10568</ele>
        <time>2023-05-01T12:46:15.000Z</time>
      </trkpt>
      <trkpt lat="45.834" lon="4.71593">
        <ele>276.75534</ele>
        <time>2023-05-01T12:46:16.000Z</time>
      </trkpt>
      <trkpt lat="45.83398" lon="4.71587">
        <ele>277.2125</ele>
        <time>2023-05-01T12:46:17.000Z</time>
      </trkpt>
      <trkpt lat="45.83394" lon="4.71583">
        <ele>277.33197</ele>
        <time>2023-05-01T12:46:18.000Z</time>
      </trkpt>
      <trkpt lat="45.83389" lon="4.7158">
        <ele>277.56508</ele>
        <time>2023-05-01T12:46:19.000Z</time>
      </trkpt>
      <trkpt lat="45.83385" lon="4.71581">
        <ele>278.04902</ele>
        <time>2023-05-01T12:46:20.000Z</time>
      </trkpt>
      <trkpt lat="45.83382" lon="4.71583">
        <ele>278.79664</ele>
        <time>2023-05-01T12:46:21.000Z</time>
      </trkpt>
      <trkpt lat="45.83378" lon="4.71587">
        <ele>279.531</ele>
        <time>2023-05-01T12:46:22.000Z</time>
      </trkpt>
      <trkpt lat="45.83376" lon="4.71594">
        <ele>279.97513</ele>
        <time>2023-05-01T12:46:23.000Z</time>
      </trkpt>
      <trkpt lat="45.83374" lon="4.716">
        <ele>280.31719</ele>
        <time>2023-05-01T12:46:24.000Z</time>
      </trkpt>
      <trkpt lat="45.83372" lon="4.71607">
        <ele>280.5669</ele>
        <time>2023-05-01T12:46:25.000Z</time>
      </trkpt>
      <trkpt lat="45.83371" lon="4.71611">
        <ele>280.7199</ele>
        <time>2023-05-01T12:46:26.000Z</time>
      </trkpt>
      <trkpt lat="45.83369" lon="4.71616">
        <ele>280.84128</ele>
        <time>2023-05-01T12:46:27.000Z</time>
      </trkpt>
      <trkpt lat="45.83367" lon="4.71619">
        <ele>281.1367</ele>
        <time>2023-05-01T12:46:28.000Z</time>
      </trkpt>
      <trkpt lat="45.83363" lon="4.7162">
        <ele>281.48566</ele>
        <time>2023-05-01T12:46:29.000Z</time>
      </trkpt>
      <trkpt lat="45.83361" lon="4.71619">
        <ele>281.6922</ele>
        <time>2023-05-01T12:46:30.000Z</time>
      </trkpt>
      <trkpt lat="45.8336" lon="4.71616">
        <ele>281.88688</ele>
        <time>2023-05-01T12:46:31.000Z</time>
      </trkpt>
      <trkpt lat="45.8336" lon="4.71612">
        <ele>282.06361</ele>
        <time>2023-05-01T12:46:32.000Z</time>
      </trkpt>
      <trkpt lat="45.83361" lon="4.71606">
        <ele>282.21632</ele>
        <time>2023-05-01T12:46:33.000Z</time>
      </trkpt>
      <trkpt lat="45.83363" lon="4.716">
        <ele>282.33179</ele>
        <time>2023-05-01T12:46:34.000Z</time>
      </trkpt>
      <trkpt lat="45.83365" lon="4.71594">
        <ele>282.43504</ele>
        <time>2023-05-01T12:46:35.000Z</time>
      </trkpt>
      <trkpt lat="45.83367" lon="4.71587">
        <ele>282.46748</ele>
        <time>2023-05-01T12:46:36.000Z</time>
      </trkpt>
      <trkpt lat="45.83369" lon="4.71581">
        <ele>282.39534</ele>
        <time>2023-05-01T12:46:37.000Z</time>
      </trkpt>
      <trkpt lat="45.83372" lon="4.71575">
        <ele>282.05218</ele>
        <time>2023-05-01T12:46:38.000Z</time>
      </trkpt>
      <trkpt lat="45.83374" lon="4.71569">
        <ele>281.80071</ele>
        <time>2023-05-01T12:46:39.000Z</time>
      </trkpt>
      <trkpt lat="45.83377" lon="4.71564">
        <ele>281.57763</ele>
        <time>2023-05-01T12:46:40.000Z</time>
      </trkpt>
      <trkpt lat="45.83381" lon="4.7156">
        <ele>281.53322</ele>
        <time>2023-05-01T12:46:41.000Z</time>
      </trkpt>
      <trkpt lat="45.83384" lon="4.71557">
        <ele>281.66792</ele>
        <time>2023-05-01T12:46:42.000Z</time>
      </trkpt>
      <trkpt lat="45.83388" lon="4.71554">
        <ele>282.11214</ele>
        <time>2023-05-01T12:46:43.000Z</time>
      </trkpt>
      <trkpt lat="45.83391" lon="4.71552">
        <ele>282.66006</ele>
        <time>2023-05-01T12:46:44.000Z</time>
      </trkpt>
      <trkpt lat="45.83395" lon="4.71552">
        <ele>282.96061</ele>
        <time>2023-05-01T12:46:45.000Z</time>
      </trkpt>
      <trkpt lat="45.83398" lon="4.71553">
        <ele>283.01273</ele>
        <time>2023-05-01T12:46:46.000Z</time>
      </trkpt>
      <trkpt lat="45.83401" lon="4.71555">
        <ele>283.10411</ele>
        <time>2023-05-01T12:46:47.000Z</time>
      </trkpt>
      <trkpt lat="45.83405" lon="4.71558">
        <ele>283.21664</ele>
        <time>2023-05-01T12:46:48.000Z</time>
      </trkpt>
      <trkpt lat="45.83409" lon="4.71562">
        <ele>283.24495</ele>
        <time>2023-05-01T12:46:49.000Z</time>
      </trkpt>
      <trkpt lat="45.83413" lon="4.71566">
        <ele>283.24111</ele>
        <time>2023-05-01T12:46:50.000Z</time>
      </trkpt>
      <trkpt lat="45.83416" lon="4.71569">
        <ele>283.40956</ele>
        <time>2023-05-01T12:46:51.000Z</time>
      </trkpt>
      <trkpt lat="45.8342" lon="4.71573">
        <ele>283.58376</ele>
        <time>2023-05-01T12:46:52.000Z</time>
      </trkpt>
      <trkpt lat="45.83424" lon="4.71577">
        <ele>283.87128</ele>
        <time>2023-05-01T12:46:53.000Z</time>
      </trkpt>
      <trkpt lat="45.83427" lon="4.71581">
        <ele>284.07265</ele>
        <time>2023-05-01T12:46:54.000Z</time>
      </trkpt>
      <trkpt lat="45.83431" lon="4.71586">
        <ele>284.333</ele>
        <time>2023-05-01T12:46:55.000Z</time>
      </trkpt>
      <trkpt lat="45.83435" lon="4.71589">
        <ele>284.62636</ele>
        <time>2023-05-01T12:46:56.000Z</time>
      </trkpt>
      <trkpt lat="45.8344" lon="4.71592">
        <ele>284.8449</ele>
        <time>2023-05-01T12:46:57.000Z</time>
      </trkpt>
      <trkpt lat="45.83444" lon="4.71595">
        <ele>284.99464</ele>
        <time>2023-05-01T12:46:58.000Z</time>
      </trkpt>
      <trkpt lat="45.83448" lon="4.71597">
        <ele>285.06761</ele>
        <time>2023-05-01T12:46:59.000Z</time>
      </trkpt>
      <trkpt lat="45.83452" lon="4.71599">
        <ele>285.27478</ele>
        <time>2023-05-01T12:47:00.000Z</time>
      </trkpt>
      <trkpt lat="45.83457" lon="4.716">
        <ele>285.36835</ele>
        <time>2023-05-01T12:47:01.000Z</time>
      </trkpt>
      <trkpt lat="45.83461" lon="4.716">
        <ele>285.43057</ele>
        <time>2023-05-01T12:47:02.000Z</time>
      </trkpt>
      <trkpt lat="45.83466" lon="4.71599">
        <ele>285.41131</ele>
        <time>2023-05-01T12:47:03.000Z</time>
      </trkpt>
      <trkpt lat="45.83471" lon="4.71597">
        <ele>285.47819</ele>
        <time>2023-05-01T12:47:04.000Z</time>
      </trkpt>
      <trkpt lat="45.83475" lon="4.71595">
        <ele>285.51957</ele>
        <time>2023-05-01T12:47:05.000Z</time>
      </trkpt>
      <trkpt lat="45.8348" lon="4.71593">
        <ele>285.28849</ele>
        <time>2023-05-01T12:47:06.000Z</time>
      </trkpt>
      <trkpt lat="45.83485" lon="4.7159">
        <ele>285.07459</ele>
        <time>2023-05-01T12:47:07.000Z</time>
      </trkpt>
      <trkpt lat="45.83489" lon="4.71587">
        <ele>285.00774</ele>
        <time>2023-05-01T12:47:08.000Z</time>
      </trkpt>
      <trkpt lat="45.83493" lon="4.71584">
        <ele>284.87119</ele>
        <time>2023-05-01T12:47:09.000Z</time>
      </trkpt>
      <trkpt lat="45.83497" lon="4.71579">
        <ele>284.82929</ele>
        <time>2023-05-01T12:47:10.000Z</time>
      </trkpt>
      <trkpt lat="45.83502" lon="4.71576">
        <ele>284.68145</ele>
        <time>2023-05-01T12:47:11.000Z</time>
      </trkpt>
      <trkpt lat="45.83507" lon="4.71572">
        <ele>284.57832</ele>
        <time>2023-05-01T12:47:12.000Z</time>
      </trkpt>
      <trkpt lat="45.83511" lon="4.71569">
        <ele>284.46867</ele>
        <time>2023-05-01T12:47:13.000Z</time>
      </trkpt>
      <trkpt lat="45.83515" lon="4.71566">
        <ele>284.47065</ele>
        <time>2023-05-01T12:47:14.000Z</time>
      </trkpt>
      <trkpt lat="45.8352" lon="4.71563">
        <ele>284.60407</ele>
        <time>2023-05-01T12:47:15.000Z</time>
      </trkpt>
      <trkpt lat="45.83524" lon="4.71559">
        <ele>285.0973</ele>
        <time>2023-05-01T12:47:16.000Z</time>
      </trkpt>
      <trkpt lat="45.83528" lon="4.71555">
        <ele>285.62042</ele>
        <time>2023-05-01T12:47:17.000Z</time>
      </trkpt>
      <trkpt lat="45.83532" lon="4.71552">
        <ele>285.97034</ele>
        <time>2023-05-01T12:47:18.000Z</time>
      </trkpt>
      <trkpt lat="45.83536" lon="4.71548">
        <ele>286.31264</ele>
        <time>2023-05-01T12:47:19.000Z</time>
      </trkpt>
      <trkpt lat="45.83541" lon="4.71545">
        <ele>286.58682</ele>
        <time>2023-05-01T12:47:20.000Z</time>
      </trkpt>
      <trkpt lat="45.83545" lon="4.71542">
        <ele>286.74509</ele>
        <time>2023-05-01T12:47:21.000Z</time>
      </trkpt>
      <trkpt lat="45.83549" lon="4.71539">
        <ele>286.86446</ele>
        <time>2023-05-01T12:47:22.000Z</time>
      </trkpt>
      <trkpt lat="45.83553" lon="4.71536">
        <ele>286.87503</ele>
        <time>2023-05-01T12:47:23.000Z</time>
      </trkpt>
      <trkpt lat="45.83557" lon="4.71533">
        <ele>286.89757</ele>
        <time>2023-05-01T12:47:24.000Z</time>
      </trkpt>
      <trkpt lat="45.8356" lon="4.7153">
        <ele>286.89067</ele>
        <time>2023-05-01T12:47:25.000Z</time>
      </trkpt>
      <trkpt lat="45.83563" lon="4.71528">
        <ele>287.00451</ele>
        <time>2023-05-01T12:47:26.000Z</time>
      </trkpt>
      <trkpt lat="45.83565" lon="4.71525">
        <ele>287.20496</ele>
        <time>2023-05-01T12:47:27.000Z</time>
      </trkpt>
      <trkpt lat="45.83568" lon="4.71521">
        <ele>287.5069</ele>
        <time>2023-05-01T12:47:28.000Z</time>
      </trkpt>
      <trkpt lat="45.8357" lon="4.71517">
        <ele>287.89579</ele>
        <time>2023-05-01T12:47:29.000Z</time>
      </trkpt>
      <trkpt lat="45.83571" lon="4.71512">
        <ele>288.40894</ele>
        <time>2023-05-01T12:47:30.000Z</time>
      </trkpt>
      <trkpt lat="45.83571" lon="4.71507">
        <ele>288.95962</ele>
        <time>2023-05-01T12:47:31.000Z</time>
      </trkpt>
      <trkpt lat="45.8357" lon="4.71503">
        <ele>289.34157</ele>
        <time>2023-05-01T12:47:32.000Z</time>
      </trkpt>
      <trkpt lat="45.83567" lon="4.71502">
        <ele>289.53337</ele>
        <time>2023-05-01T12:47:33.000Z</time>
      </trkpt>
      <trkpt lat="45.83564" lon="4.71503">
        <ele>289.5974</ele>
        <time>2023-05-01T12:47:34.000Z</time>
      </trkpt>
      <trkpt lat="45.8356" lon="4.71504">
        <ele>289.63108</ele>
        <time>2023-05-01T12:47:35.000Z</time>
      </trkpt>
      <trkpt lat="45.83555" lon="4.71506">
        <ele>289.73511</ele>
        <time>2023-05-01T12:47:36.000Z</time>
      </trkpt>
      <trkpt lat="45.83551" lon="4.71507">
        <ele>289.83734</ele>
        <time>2023-05-01T12:47:37.000Z</time>
      </trkpt>
      <trkpt lat="45.83547" lon="4.71507">
        <ele>289.98419</ele>
        <time>2023-05-01T12:47:38.000Z</time>
      </trkpt>
      <trkpt lat="45.83542" lon="4.71506">
        <ele>290.21217</ele>
        <time>2023-05-01T12:47:39.000Z</time>
      </trkpt>
      <trkpt lat="45.83536" lon="4.71505">
        <ele>290.37244</ele>
        <time>2023-05-01T12:47:40.000Z</time>
      </trkpt>
      <trkpt lat="45.83531" lon="4.71505">
        <ele>290.5139</ele>
        <time>2023-05-01T12:47:41.000Z</time>
      </trkpt>
      <trkpt lat="45.83526" lon="4.71504">
        <ele>290.6529</ele>
        <time>2023-05-01T12:47:42.000Z</time>
      </trkpt>
      <trkpt lat="45.83521" lon="4.71503">
        <ele>290.87614</ele>
        <time>2023-05-01T12:47:43.000Z</time>
      </trkpt>
      <trkpt lat="45.83516" lon="4.71502">
        <ele>291.07314</ele>
        <time>2023-05-01T12:47:44.000Z</time>
      </trkpt>
      <trkpt lat="45.83511" lon="4.71502">
        <ele>291.24643</ele>
        <time>2023-05-01T12:47:45.000Z</time>
      </trkpt>
      <trkpt lat="45.83507" lon="4.715">
        <ele>291.43945</ele>
        <time>2023-05-01T12:47:46.000Z</time>
      </trkpt>
      <trkpt lat="45.83502" lon="4.715">
        <ele>291.57646</ele>
        <time>2023-05-01T12:47:47.000Z</time>
      </trkpt>
      <trkpt lat="45.83497" lon="4.71499">
        <ele>291.65261</ele>
        <time>2023-05-01T12:47:48.000Z</time>
      </trkpt>
      <trkpt lat="45.83492" lon="4.71498">
        <ele>291.72662</ele>
        <time>2023-05-01T12:47:49.000Z</time>
      </trkpt>
      <trkpt lat="45.83487" lon="4.71497">
        <ele>291.77064</ele>
        <time>2023-05-01T12:47:50.000Z</time>
      </trkpt>
      <trkpt lat="45.83482" lon="4.71497">
        <ele>291.83127</ele>
        <time>2023-05-01T12:47:51.000Z</time>
      </trkpt>
      <trkpt lat="45.83477" lon="4.71495">
        <ele>291.98844</ele>
        <time>2023-05-01T12:47:52.000Z</time>
      </trkpt>
      <trkpt lat="45.83471" lon="4.71493">
        <ele>292.19688</ele>
        <time>2023-05-01T12:47:53.000Z</time>
      </trkpt>
      <trkpt lat="45.83467" lon="4.71491">
        <ele>292.36259</ele>
        <time>2023-05-01T12:47:54.000Z</time>
      </trkpt>
      <trkpt lat="45.83462" lon="4.71489">
        <ele>292.49946</ele>
        <time>2023-05-01T12:47:55.000Z</time>
      </trkpt>
      <trkpt lat="45.83457" lon="4.71486">
        <ele>292.59493</ele>
        <time>2023-05-01T12:47:56.000Z</time>
      </trkpt>
      <trkpt lat="45.83452" lon="4.71483">
        <ele>292.63908</ele>
        <time>2023-05-01T12:47:57.000Z</time>
      </trkpt>
      <trkpt lat="45.83447" lon="4.7148">
        <ele>292.63164</ele>
        <time>2023-05-01T12:47:58.000Z</time>
      </trkpt>
      <trkpt lat="45.83442" lon="4.71477">
        <ele>292.64587</ele>
        <time>2023-05-01T12:47:59.000Z</time>
      </trkpt>
      <trkpt lat="45.83438" lon="4.71474">
        <ele>292.70252</ele>
        <time>2023-05-01T12:48:00.000Z</time>
      </trkpt>
      <trkpt lat="45.83433" lon="4.7147">
        <ele>292.75277</ele>
        <time>2023-05-01T12:48:01.000Z</time>
      </trkpt>
      <trkpt lat="45.83429" lon="4.71467">
        <ele>292.77835</ele>
        <time>2023-05-01T12:48:02.000Z</time>
      </trkpt>
      <trkpt lat="45.83423" lon="4.71464">
        <ele>292.80045</ele>
        <time>2023-05-01T12:48:03.000Z</time>
      </trkpt>
      <trkpt lat="45.83419" lon="4.7146">
        <ele>292.87466</ele>
        <time>2023-05-01T12:48:04.000Z</time>
      </trkpt>
      <trkpt lat="45.83414" lon="4.71457">
        <ele>292.95047</ele>
        <time>2023-05-01T12:48:05.000Z</time>
      </trkpt>
      <trkpt lat="45.8341" lon="4.71453">
        <ele>293.06686</ele>
        <time>2023-05-01T12:48:06.000Z</time>
      </trkpt>
      <trkpt lat="45.83406" lon="4.71448">
        <ele>293.23408</ele>
        <time>2023-05-01T12:48:07.000Z</time>
      </trkpt>
      <trkpt lat="45.83403" lon="4.71442">
        <ele>293.4542</ele>
        <time>2023-05-01T12:48:08.000Z</time>
      </trkpt>
      <trkpt lat="45.834" lon="4.71435">
        <ele>293.6647</ele>
        <time>2023-05-01T12:48:09.000Z</time>
      </trkpt>
      <trkpt lat="45.83397" lon="4.71429">
        <ele>293.8116</ele>
        <time>2023-05-01T12:48:10.000Z</time>
      </trkpt>
      <trkpt lat="45.83393" lon="4.71423">
        <ele>293.92516</ele>
        <time>2023-05-01T12:48:11.000Z</time>
      </trkpt>
      <trkpt lat="45.8339" lon="4.71416">
        <ele>294.10973</ele>
        <time>2023-05-01T12:48:12.000Z</time>
      </trkpt>
      <trkpt lat="45.83387" lon="4.71409">
        <ele>294.30988</ele>
        <time>2023-05-01T12:48:13.000Z</time>
      </trkpt>
      <trkpt lat="45.83384" lon="4.71403">
        <ele>294.53051</ele>
        <time>2023-05-01T12:48:14.000Z</time>
      </trkpt>
      <trkpt lat="45.83381" lon="4.71398">
        <ele>294.71269</ele>
        <time>2023-05-01T12:48:15.000Z</time>
      </trkpt>
      <trkpt lat="45.83378" lon="4.71393">
        <ele>294.79737</ele>
        <time>2023-05-01T12:48:16.000Z</time>
      </trkpt>
      <trkpt lat="45.83374" lon="4.71388">
        <ele>294.81165</ele>
        <time>2023-05-01T12:48:17.000Z</time>
      </trkpt>
      <trkpt lat="45.83371" lon="4.71384">
        <ele>294.84057</ele>
        <time>2023-05-01T12:48:18.000Z</time>
      </trkpt>
      <trkpt lat="45.83369" lon="4.71379">
        <ele>294.87018</ele>
        <time>2023-05-01T12:48:19.000Z</time>
      </trkpt>
      <trkpt lat="45.83366" lon="4.71375">
        <ele>294.92899</ele>
        <time>2023-05-01T12:48:20.000Z</time>
      </trkpt>
      <trkpt lat="45.83363" lon="4.7137">
        <ele>295.01335</ele>
        <time>2023-05-01T12:48:21.000Z</time>
      </trkpt>
      <trkpt lat="45.83359" lon="4.71365">
        <ele>295.04452</ele>
        <time>2023-05-01T12:48:22.000Z</time>
      </trkpt>
      <trkpt lat="45.83356" lon="4.71359">
        <ele>295.07799</ele>
        <time>2023-05-01T12:48:23.000Z</time>
      </trkpt>
      <trkpt lat="45.83353" lon="4.71355">
        <ele>295.08606</ele>
        <time>2023-05-01T12:48:24.000Z</time>
      </trkpt>
      <trkpt lat="45.8335" lon="4.71349">
        <ele>295.11863</ele>
        <time>2023-05-01T12:48:25.000Z</time>
      </trkpt>
      <trkpt lat="45.83347" lon="4.71343">
        <ele>295.21647</ele>
        <time>2023-05-01T12:48:26.000Z</time>
      </trkpt>
      <trkpt lat="45.83344" lon="4.71338">
        <ele>295.38619</ele>
        <time>2023-05-01T12:48:27.000Z</time>
      </trkpt>
      <trkpt lat="45.83341" lon="4.71333">
        <ele>295.54484</ele>
        <time>2023-05-01T12:48:28.000Z</time>
      </trkpt>
      <trkpt lat="45.83337" lon="4.71327">
        <ele>295.65456</ele>
        <time>2023-05-01T12:48:29.000Z</time>
      </trkpt>
      <trkpt lat="45.83333" lon="4.71322">
        <ele>295.75078</ele>
        <time>2023-05-01T12:48:30.000Z</time>
      </trkpt>
      <trkpt lat="45.8333" lon="4.71317">
        <ele>295.81561</ele>
        <time>2023-05-01T12:48:31.000Z</time>
      </trkpt>
      <trkpt lat="45.83326" lon="4.71312">
        <ele>295.89614</ele>
        <time>2023-05-01T12:48:32.000Z</time>
      </trkpt>
      <trkpt lat="45.83322" lon="4.71307">
        <ele>296.05753</ele>
        <time>2023-05-01T12:48:33.000Z</time>
      </trkpt>
      <trkpt lat="45.83318" lon="4.71302">
        <ele>296.18843</ele>
        <time>2023-05-01T12:48:34.000Z</time>
      </trkpt>
      <trkpt lat="45.83315" lon="4.71297">
        <ele>296.33815</ele>
        <time>2023-05-01T12:48:35.000Z</time>
      </trkpt>
      <trkpt lat="45.83311" lon="4.71292">
        <ele>296.45894</ele>
        <time>2023-05-01T12:48:36.000Z</time>
      </trkpt>
      <trkpt lat="45.83308" lon="4.71286">
        <ele>296.56219</ele>
        <time>2023-05-01T12:48:37.000Z</time>
      </trkpt>
      <trkpt lat="45.83305" lon="4.7128">
        <ele>296.68574</ele>
        <time>2023-05-01T12:48:38.000Z</time>
      </trkpt>
      <trkpt lat="45.83302" lon="4.71275">
        <ele>296.85663</ele>
        <time>2023-05-01T12:48:39.000Z</time>
      </trkpt>
      <trkpt lat="45.833" lon="4.71268">
        <ele>297.11042</ele>
        <time>2023-05-01T12:48:40.000Z</time>
      </trkpt>
      <trkpt lat="45.83299" lon="4.71261">
        <ele>297.42258</ele>
        <time>2023-05-01T12:48:41.000Z</time>
      </trkpt>
      <trkpt lat="45.83297" lon="4.71255">
        <ele>297.70619</ele>
        <time>2023-05-01T12:48:42.000Z</time>
      </trkpt>
      <trkpt lat="45.83295" lon="4.71248">
        <ele>297.97704</ele>
        <time>2023-05-01T12:48:43.000Z</time>
      </trkpt>
      <trkpt lat="45.83294" lon="4.71241">
        <ele>298.25092</ele>
        <time>2023-05-01T12:48:44.000Z</time>
      </trkpt>
      <trkpt lat="45.83293" lon="4.71233">
        <ele>298.55353</ele>
        <time>2023-05-01T12:48:45.000Z</time>
      </trkpt>
      <trkpt lat="45.83291" lon="4.71225">
        <ele>298.84216</ele>
        <time>2023-05-01T12:48:46.000Z</time>
      </trkpt>
      <trkpt lat="45.8329" lon="4.71218">
        <ele>299.10518</ele>
        <time>2023-05-01T12:48:47.000Z</time>
      </trkpt>
      <trkpt lat="45.8329" lon="4.71211">
        <ele>299.37931</ele>
        <time>2023-05-01T12:48:48.000Z</time>
      </trkpt>
      <trkpt lat="45.83289" lon="4.71203">
        <ele>299.61769</ele>
        <time>2023-05-01T12:48:49.000Z</time>
      </trkpt>
      <trkpt lat="45.83287" lon="4.71196">
        <ele>299.82328</ele>
        <time>2023-05-01T12:48:50.000Z</time>
      </trkpt>
      <trkpt lat="45.83286" lon="4.7119">
        <ele>300.01043</ele>
        <time>2023-05-01T12:48:51.000Z</time>
      </trkpt>
      <trkpt lat="45.83285" lon="4.71183">
        <ele>300.18101</ele>
        <time>2023-05-01T12:48:52.000Z</time>
      </trkpt>
      <trkpt lat="45.83285" lon="4.71176">
        <ele>300.33949</ele>
        <time>2023-05-01T12:48:53.000Z</time>
      </trkpt>
      <trkpt lat="45.83284" lon="4.71168">
        <ele>300.49889</ele>
        <time>2023-05-01T12:48:54.000Z</time>
      </trkpt>
      <trkpt lat="45.83283" lon="4.71161">
        <ele>300.65057</ele>
        <time>2023-05-01T12:48:55.000Z</time>
      </trkpt>
      <trkpt lat="45.83283" lon="4.71154">
        <ele>300.82098</ele>
        <time>2023-05-01T12:48:56.000Z</time>
      </trkpt>
      <trkpt lat="45.83282" lon="4.71146">
        <ele>301.03568</ele>
        <time>2023-05-01T12:48:57.000Z</time>
      </trkpt>
      <trkpt lat="45.83281" lon="4.71139">
        <ele>301.26122</ele>
        <time>2023-05-01T12:48:58.000Z</time>
      </trkpt>
      <trkpt lat="45.8328" lon="4.71132">
        <ele>301.49868</ele>
        <time>2023-05-01T12:48:59.000Z</time>
      </trkpt>
      <trkpt lat="45.83279" lon="4.71125">
        <ele>301.78527</ele>
        <time>2023-05-01T12:49:00.000Z</time>
      </trkpt>
      <trkpt lat="45.83278" lon="4.71118">
        <ele>302.09582</ele>
        <time>2023-05-01T12:49:01.000Z</time>
      </trkpt>
      <trkpt lat="45.83278" lon="4.7111">
        <ele>302.38986</ele>
        <time>2023-05-01T12:49:02.000Z</time>
      </trkpt>
      <trkpt lat="45.83278" lon="4.71103">
        <ele>302.67918</ele>
        <time>2023-05-01T12:49:03.000Z</time>
      </trkpt>
      <trkpt lat="45.83278" lon="4.71097">
        <ele>302.94771</ele>
        <time>2023-05-01T12:49:04.000Z</time>
      </trkpt>
      <trkpt lat="45.83279" lon="4.7109">
        <ele>303.16872</ele>
        <time>2023-05-01T12:49:05.000Z</time>
      </trkpt>
      <trkpt lat="45.83282" lon="4.71084">
        <ele>303.31424</ele>
        <time>2023-05-01T12:49:06.000Z</time>
      </trkpt>
      <trkpt lat="45.83283" lon="4.71078">
        <ele>303.50135</ele>
        <time>2023-05-01T12:49:07.000Z</time>
      </trkpt>
      <trkpt lat="45.83285" lon="4.71072">
        <ele>303.69519</ele>
        <time>2023-05-01T12:49:08.000Z</time>
      </trkpt>
      <trkpt lat="45.83287" lon="4.71066">
        <ele>303.93745</ele>
        <time>2023-05-01T12:49:09.000Z</time>
      </trkpt>
      <trkpt lat="45.8329" lon="4.7106">
        <ele>304.1983</ele>
        <time>2023-05-01T12:49:10.000Z</time>
      </trkpt>
      <trkpt lat="45.83292" lon="4.71053">
        <ele>304.48633</ele>
        <time>2023-05-01T12:49:11.000Z</time>
      </trkpt>
      <trkpt lat="45.83293" lon="4.71046">
        <ele>304.72413</ele>
        <time>2023-05-01T12:49:12.000Z</time>
      </trkpt>
      <trkpt lat="45.83295" lon="4.71038">
        <ele>304.89887</ele>
        <time>2023-05-01T12:49:13.000Z</time>
      </trkpt>
      <trkpt lat="45.83297" lon="4.71032">
        <ele>304.98686</ele>
        <time>2023-05-01T12:49:14.000Z</time>
      </trkpt>
      <trkpt lat="45.83299" lon="4.71026">
        <ele>305.03795</ele>
        <time>2023-05-01T12:49:15.000Z</time>
      </trkpt>
      <trkpt lat="45.83301" lon="4.71019">
        <ele>305.06598</ele>
        <time>2023-05-01T12:49:16.000Z</time>
      </trkpt>
      <trkpt lat="45.83302" lon="4.71013">
        <ele>305.10206</ele>
        <time>2023-05-01T12:49:17.000Z</time>
      </trkpt>
      <trkpt lat="45.83304" lon="4.71007">
        <ele>305.11326</ele>
        <time>2023-05-01T12:49:18.000Z</time>
      </trkpt>
      <trkpt lat="45.83304" lon="4.71">
        <ele>305.1694</ele>
        <time>2023-05-01T12:49:19.000Z</time>
      </trkpt>
      <trkpt lat="45.83305" lon="4.70994">
        <ele>305.24879</ele>
        <time>2023-05-01T12:49:20.000Z</time>
      </trkpt>
      <trkpt lat="45.83305" lon="4.70989">
        <ele>305.36987</ele>
        <time>2023-05-01T12:49:21.000Z</time>
      </trkpt>
      <trkpt lat="45.83306" lon="4.70984">
        <ele>305.50231</ele>
        <time>2023-05-01T12:49:22.000Z</time>
      </trkpt>
      <trkpt lat="45.83307" lon="4.70981">
        <ele>305.55474</ele>
        <time>2023-05-01T12:49:23.000Z</time>
      </trkpt>
      <trkpt lat="45.83309" lon="4.70977">
        <ele>305.62117</ele>
        <time>2023-05-01T12:49:24.000Z</time>
      </trkpt>
      <trkpt lat="45.8331" lon="4.70972">
        <ele>305.77438</ele>
        <time>2023-05-01T12:49:25.000Z</time>
      </trkpt>
      <trkpt lat="45.83311" lon="4.70968">
        <ele>305.90181</ele>
        <time>2023-05-01T12:49:26.000Z</time>
      </trkpt>
      <trkpt lat="45.83312" lon="4.70965">
        <ele>306.00894</ele>
        <time>2023-05-01T12:49:27.000Z</time>
      </trkpt>
    </trkseg>
  </trk>
</gpx>